<?xml version="1.0" encoding="UTF-8" standalone="no" ?>
<gpx xmlns="http://www.topografix.com/GPX/1/1" xmlns:xsi="http://www.w3.org/2001/XMLSchema-instance" xsi:schemaLocation="http://www.topografix.com/GPX/1/1 http://www.topografix.com/GPX/1/1/gpx.xsd" version="1.1" creator="VisuGPX - https://www.visugpx.com">
  <metadata>
    <name>Parcours gruissan</name>
    <desc><![CDATA[Massif de la Clape, Narbonne, circuit VTT n° 5]]></desc>
  </metadata>
  <trk>
    <name><![CDATA[Parcours gruissan_1]]></name>
    <trkseg>
      <trkpt lat="43.13348" lon="3.08794">
        <ele>55.2</ele>
        <time>2018-03-18T09:54:43Z</time>
      </trkpt>
      <trkpt lat="43.13349" lon="3.08794">
        <ele>55.1</ele>
        <time>2018-03-18T09:54:44Z</time>
      </trkpt>
      <trkpt lat="43.1334" lon="3.08794">
        <ele>58.6</ele>
        <time>2018-03-18T09:55:02Z</time>
      </trkpt>
      <trkpt lat="43.13348" lon="3.08789">
        <ele>65.1</ele>
        <time>2018-03-18T09:55:52Z</time>
      </trkpt>
      <trkpt lat="43.13356" lon="3.08784">
        <ele>73.1</ele>
        <time>2018-03-18T09:57:41Z</time>
      </trkpt>
      <trkpt lat="43.13363" lon="3.0878">
        <ele>72.1</ele>
        <time>2018-03-18T09:57:45Z</time>
      </trkpt>
      <trkpt lat="43.13371" lon="3.08775">
        <ele>70.7</ele>
        <time>2018-03-18T09:57:49Z</time>
      </trkpt>
      <trkpt lat="43.1338" lon="3.08774">
        <ele>71.7</ele>
        <time>2018-03-18T09:57:53Z</time>
      </trkpt>
      <trkpt lat="43.13387" lon="3.08785">
        <ele>71.8</ele>
        <time>2018-03-18T09:57:56Z</time>
      </trkpt>
      <trkpt lat="43.13391" lon="3.08795">
        <ele>71.2</ele>
        <time>2018-03-18T09:57:58Z</time>
      </trkpt>
      <trkpt lat="43.13394" lon="3.08804">
        <ele>70.6</ele>
        <time>2018-03-18T09:58:00Z</time>
      </trkpt>
      <trkpt lat="43.13398" lon="3.08815">
        <ele>69.8</ele>
        <time>2018-03-18T09:58:02Z</time>
      </trkpt>
      <trkpt lat="43.13401" lon="3.08824">
        <ele>69.3</ele>
        <time>2018-03-18T09:58:04Z</time>
      </trkpt>
      <trkpt lat="43.13404" lon="3.08838">
        <ele>68.3</ele>
        <time>2018-03-18T09:58:07Z</time>
      </trkpt>
      <trkpt lat="43.13408" lon="3.08851">
        <ele>67.6</ele>
        <time>2018-03-18T09:58:10Z</time>
      </trkpt>
      <trkpt lat="43.13411" lon="3.08861">
        <ele>67</ele>
        <time>2018-03-18T09:58:12Z</time>
      </trkpt>
      <trkpt lat="43.13414" lon="3.08875">
        <ele>66.7</ele>
        <time>2018-03-18T09:58:15Z</time>
      </trkpt>
      <trkpt lat="43.13416" lon="3.08886">
        <ele>65.3</ele>
        <time>2018-03-18T09:58:18Z</time>
      </trkpt>
      <trkpt lat="43.13416" lon="3.089">
        <ele>64.3</ele>
        <time>2018-03-18T09:58:21Z</time>
      </trkpt>
      <trkpt lat="43.13418" lon="3.08912">
        <ele>63</ele>
        <time>2018-03-18T09:58:24Z</time>
      </trkpt>
      <trkpt lat="43.13418" lon="3.08923">
        <ele>62.1</ele>
        <time>2018-03-18T09:58:27Z</time>
      </trkpt>
      <trkpt lat="43.13418" lon="3.08934">
        <ele>62.2</ele>
        <time>2018-03-18T09:58:30Z</time>
      </trkpt>
      <trkpt lat="43.1342" lon="3.08945">
        <ele>63.2</ele>
        <time>2018-03-18T09:58:33Z</time>
      </trkpt>
      <trkpt lat="43.13421" lon="3.08955">
        <ele>65.2</ele>
        <time>2018-03-18T09:58:36Z</time>
      </trkpt>
      <trkpt lat="43.1342" lon="3.08965">
        <ele>67.1</ele>
        <time>2018-03-18T09:58:39Z</time>
      </trkpt>
      <trkpt lat="43.1342" lon="3.08976">
        <ele>69.5</ele>
        <time>2018-03-18T09:58:42Z</time>
      </trkpt>
      <trkpt lat="43.13421" lon="3.08986">
        <ele>72.4</ele>
        <time>2018-03-18T09:58:45Z</time>
      </trkpt>
      <trkpt lat="43.13423" lon="3.08997">
        <ele>73.4</ele>
        <time>2018-03-18T09:58:48Z</time>
      </trkpt>
      <trkpt lat="43.13425" lon="3.09007">
        <ele>74.5</ele>
        <time>2018-03-18T09:58:51Z</time>
      </trkpt>
      <trkpt lat="43.13429" lon="3.09019">
        <ele>77.8</ele>
        <time>2018-03-18T09:58:55Z</time>
      </trkpt>
      <trkpt lat="43.13432" lon="3.09029">
        <ele>83.3</ele>
        <time>2018-03-18T09:58:59Z</time>
      </trkpt>
      <trkpt lat="43.13436" lon="3.09039">
        <ele>85.8</ele>
        <time>2018-03-18T09:59:02Z</time>
      </trkpt>
      <trkpt lat="43.13439" lon="3.09049">
        <ele>88.1</ele>
        <time>2018-03-18T09:59:05Z</time>
      </trkpt>
      <trkpt lat="43.13444" lon="3.0906">
        <ele>91</ele>
        <time>2018-03-18T09:59:08Z</time>
      </trkpt>
      <trkpt lat="43.13447" lon="3.09073">
        <ele>92</ele>
        <time>2018-03-18T09:59:11Z</time>
      </trkpt>
      <trkpt lat="43.13443" lon="3.09086">
        <ele>92</ele>
        <time>2018-03-18T09:59:14Z</time>
      </trkpt>
      <trkpt lat="43.13436" lon="3.0909">
        <ele>90.3</ele>
        <time>2018-03-18T09:59:16Z</time>
      </trkpt>
      <trkpt lat="43.13428" lon="3.09091">
        <ele>89.2</ele>
        <time>2018-03-18T09:59:19Z</time>
      </trkpt>
      <trkpt lat="43.13421" lon="3.09094">
        <ele>87.5</ele>
        <time>2018-03-18T09:59:22Z</time>
      </trkpt>
      <trkpt lat="43.13413" lon="3.091">
        <ele>82.2</ele>
        <time>2018-03-18T09:59:25Z</time>
      </trkpt>
      <trkpt lat="43.13408" lon="3.09109">
        <ele>79.3</ele>
        <time>2018-03-18T09:59:28Z</time>
      </trkpt>
      <trkpt lat="43.13402" lon="3.09123">
        <ele>77.3</ele>
        <time>2018-03-18T09:59:31Z</time>
      </trkpt>
      <trkpt lat="43.13397" lon="3.09136">
        <ele>76</ele>
        <time>2018-03-18T09:59:33Z</time>
      </trkpt>
      <trkpt lat="43.13393" lon="3.09151">
        <ele>75.1</ele>
        <time>2018-03-18T09:59:35Z</time>
      </trkpt>
      <trkpt lat="43.13393" lon="3.09166">
        <ele>74.2</ele>
        <time>2018-03-18T09:59:37Z</time>
      </trkpt>
      <trkpt lat="43.13392" lon="3.09183">
        <ele>72.6</ele>
        <time>2018-03-18T09:59:39Z</time>
      </trkpt>
      <trkpt lat="43.13393" lon="3.09199">
        <ele>71.3</ele>
        <time>2018-03-18T09:59:41Z</time>
      </trkpt>
      <trkpt lat="43.13393" lon="3.09215">
        <ele>69.8</ele>
        <time>2018-03-18T09:59:43Z</time>
      </trkpt>
      <trkpt lat="43.13394" lon="3.09231">
        <ele>69</ele>
        <time>2018-03-18T09:59:45Z</time>
      </trkpt>
      <trkpt lat="43.13396" lon="3.09248">
        <ele>68.3</ele>
        <time>2018-03-18T09:59:47Z</time>
      </trkpt>
      <trkpt lat="43.13398" lon="3.09265">
        <ele>67.5</ele>
        <time>2018-03-18T09:59:49Z</time>
      </trkpt>
      <trkpt lat="43.13399" lon="3.09284">
        <ele>66.8</ele>
        <time>2018-03-18T09:59:51Z</time>
      </trkpt>
      <trkpt lat="43.13401" lon="3.09303">
        <ele>66.3</ele>
        <time>2018-03-18T09:59:53Z</time>
      </trkpt>
      <trkpt lat="43.13403" lon="3.09321">
        <ele>65.9</ele>
        <time>2018-03-18T09:59:55Z</time>
      </trkpt>
      <trkpt lat="43.13405" lon="3.09331">
        <ele>65.7</ele>
        <time>2018-03-18T09:59:56Z</time>
      </trkpt>
      <trkpt lat="43.13408" lon="3.09341">
        <ele>65.4</ele>
        <time>2018-03-18T09:59:57Z</time>
      </trkpt>
      <trkpt lat="43.13411" lon="3.09351">
        <ele>65.2</ele>
        <time>2018-03-18T09:59:58Z</time>
      </trkpt>
      <trkpt lat="43.13415" lon="3.0936">
        <ele>64.8</ele>
        <time>2018-03-18T09:59:59Z</time>
      </trkpt>
      <trkpt lat="43.13418" lon="3.09369">
        <ele>64.5</ele>
        <time>2018-03-18T10:00:00Z</time>
      </trkpt>
      <trkpt lat="43.1342" lon="3.09379">
        <ele>64.2</ele>
        <time>2018-03-18T10:00:01Z</time>
      </trkpt>
      <trkpt lat="43.13422" lon="3.09388">
        <ele>63.6</ele>
        <time>2018-03-18T10:00:02Z</time>
      </trkpt>
      <trkpt lat="43.13424" lon="3.09399">
        <ele>63.2</ele>
        <time>2018-03-18T10:00:03Z</time>
      </trkpt>
      <trkpt lat="43.13427" lon="3.09408">
        <ele>63.1</ele>
        <time>2018-03-18T10:00:04Z</time>
      </trkpt>
      <trkpt lat="43.13428" lon="3.09418">
        <ele>62.9</ele>
        <time>2018-03-18T10:00:05Z</time>
      </trkpt>
      <trkpt lat="43.1343" lon="3.09428">
        <ele>62.7</ele>
        <time>2018-03-18T10:00:06Z</time>
      </trkpt>
      <trkpt lat="43.13433" lon="3.09438">
        <ele>62.4</ele>
        <time>2018-03-18T10:00:07Z</time>
      </trkpt>
      <trkpt lat="43.13437" lon="3.09448">
        <ele>62</ele>
        <time>2018-03-18T10:00:08Z</time>
      </trkpt>
      <trkpt lat="43.13441" lon="3.09458">
        <ele>61.5</ele>
        <time>2018-03-18T10:00:09Z</time>
      </trkpt>
      <trkpt lat="43.13444" lon="3.09467">
        <ele>61</ele>
        <time>2018-03-18T10:00:10Z</time>
      </trkpt>
      <trkpt lat="43.13447" lon="3.09477">
        <ele>60.5</ele>
        <time>2018-03-18T10:00:11Z</time>
      </trkpt>
      <trkpt lat="43.13451" lon="3.09486">
        <ele>60.1</ele>
        <time>2018-03-18T10:00:12Z</time>
      </trkpt>
      <trkpt lat="43.13454" lon="3.09496">
        <ele>59.7</ele>
        <time>2018-03-18T10:00:13Z</time>
      </trkpt>
      <trkpt lat="43.13458" lon="3.09506">
        <ele>59.3</ele>
        <time>2018-03-18T10:00:14Z</time>
      </trkpt>
      <trkpt lat="43.13462" lon="3.09515">
        <ele>58.9</ele>
        <time>2018-03-18T10:00:15Z</time>
      </trkpt>
      <trkpt lat="43.13465" lon="3.09525">
        <ele>58.6</ele>
        <time>2018-03-18T10:00:16Z</time>
      </trkpt>
      <trkpt lat="43.13469" lon="3.09535">
        <ele>58.2</ele>
        <time>2018-03-18T10:00:17Z</time>
      </trkpt>
      <trkpt lat="43.13472" lon="3.09544">
        <ele>57.8</ele>
        <time>2018-03-18T10:00:18Z</time>
      </trkpt>
      <trkpt lat="43.13476" lon="3.09553">
        <ele>57.5</ele>
        <time>2018-03-18T10:00:19Z</time>
      </trkpt>
      <trkpt lat="43.13481" lon="3.09572">
        <ele>56.9</ele>
        <time>2018-03-18T10:00:21Z</time>
      </trkpt>
      <trkpt lat="43.13483" lon="3.09589">
        <ele>56.6</ele>
        <time>2018-03-18T10:00:23Z</time>
      </trkpt>
      <trkpt lat="43.13483" lon="3.09608">
        <ele>55.8</ele>
        <time>2018-03-18T10:00:25Z</time>
      </trkpt>
      <trkpt lat="43.13484" lon="3.09627">
        <ele>54.8</ele>
        <time>2018-03-18T10:00:27Z</time>
      </trkpt>
      <trkpt lat="43.13487" lon="3.09638">
        <ele>54.2</ele>
        <time>2018-03-18T10:00:29Z</time>
      </trkpt>
      <trkpt lat="43.13492" lon="3.09645">
        <ele>53.5</ele>
        <time>2018-03-18T10:00:31Z</time>
      </trkpt>
      <trkpt lat="43.13504" lon="3.09644">
        <ele>53</ele>
        <time>2018-03-18T10:00:33Z</time>
      </trkpt>
      <trkpt lat="43.13512" lon="3.09638">
        <ele>52.5</ele>
        <time>2018-03-18T10:00:35Z</time>
      </trkpt>
      <trkpt lat="43.1352" lon="3.09634">
        <ele>52.2</ele>
        <time>2018-03-18T10:00:37Z</time>
      </trkpt>
      <trkpt lat="43.13528" lon="3.09641">
        <ele>52</ele>
        <time>2018-03-18T10:00:39Z</time>
      </trkpt>
      <trkpt lat="43.1353" lon="3.09653">
        <ele>51.7</ele>
        <time>2018-03-18T10:00:41Z</time>
      </trkpt>
      <trkpt lat="43.1353" lon="3.09664">
        <ele>51.2</ele>
        <time>2018-03-18T10:00:44Z</time>
      </trkpt>
      <trkpt lat="43.1353" lon="3.09677">
        <ele>50.5</ele>
        <time>2018-03-18T10:00:47Z</time>
      </trkpt>
      <trkpt lat="43.1353" lon="3.09687">
        <ele>50.1</ele>
        <time>2018-03-18T10:00:49Z</time>
      </trkpt>
      <trkpt lat="43.1353" lon="3.09697">
        <ele>49.8</ele>
        <time>2018-03-18T10:00:51Z</time>
      </trkpt>
      <trkpt lat="43.1353" lon="3.09708">
        <ele>49.5</ele>
        <time>2018-03-18T10:00:53Z</time>
      </trkpt>
      <trkpt lat="43.13532" lon="3.09718">
        <ele>49.1</ele>
        <time>2018-03-18T10:00:55Z</time>
      </trkpt>
      <trkpt lat="43.13534" lon="3.09728">
        <ele>48.8</ele>
        <time>2018-03-18T10:00:57Z</time>
      </trkpt>
      <trkpt lat="43.13536" lon="3.09737">
        <ele>48.5</ele>
        <time>2018-03-18T10:00:59Z</time>
      </trkpt>
      <trkpt lat="43.13539" lon="3.09751">
        <ele>48</ele>
        <time>2018-03-18T10:01:02Z</time>
      </trkpt>
      <trkpt lat="43.13543" lon="3.09759">
        <ele>47.9</ele>
        <time>2018-03-18T10:01:04Z</time>
      </trkpt>
      <trkpt lat="43.13549" lon="3.09771">
        <ele>47.6</ele>
        <time>2018-03-18T10:01:07Z</time>
      </trkpt>
      <trkpt lat="43.13553" lon="3.09781">
        <ele>47.5</ele>
        <time>2018-03-18T10:01:10Z</time>
      </trkpt>
      <trkpt lat="43.13558" lon="3.09791">
        <ele>47.4</ele>
        <time>2018-03-18T10:01:12Z</time>
      </trkpt>
      <trkpt lat="43.13564" lon="3.098">
        <ele>47.5</ele>
        <time>2018-03-18T10:01:14Z</time>
      </trkpt>
      <trkpt lat="43.13568" lon="3.09807">
        <ele>47.5</ele>
        <time>2018-03-18T10:01:16Z</time>
      </trkpt>
      <trkpt lat="43.13575" lon="3.09814">
        <ele>47.8</ele>
        <time>2018-03-18T10:01:18Z</time>
      </trkpt>
      <trkpt lat="43.13584" lon="3.09824">
        <ele>48.1</ele>
        <time>2018-03-18T10:01:21Z</time>
      </trkpt>
      <trkpt lat="43.13589" lon="3.09834">
        <ele>48.1</ele>
        <time>2018-03-18T10:01:24Z</time>
      </trkpt>
      <trkpt lat="43.13594" lon="3.09842">
        <ele>48.3</ele>
        <time>2018-03-18T10:01:26Z</time>
      </trkpt>
      <trkpt lat="43.136" lon="3.09849">
        <ele>48.6</ele>
        <time>2018-03-18T10:01:28Z</time>
      </trkpt>
      <trkpt lat="43.13606" lon="3.09857">
        <ele>48.9</ele>
        <time>2018-03-18T10:01:30Z</time>
      </trkpt>
      <trkpt lat="43.13612" lon="3.09865">
        <ele>48.9</ele>
        <time>2018-03-18T10:01:32Z</time>
      </trkpt>
      <trkpt lat="43.13619" lon="3.09873">
        <ele>49</ele>
        <time>2018-03-18T10:01:34Z</time>
      </trkpt>
      <trkpt lat="43.13625" lon="3.09884">
        <ele>49</ele>
        <time>2018-03-18T10:01:37Z</time>
      </trkpt>
      <trkpt lat="43.13629" lon="3.09895">
        <ele>49</ele>
        <time>2018-03-18T10:01:40Z</time>
      </trkpt>
      <trkpt lat="43.13638" lon="3.09905">
        <ele>49.2</ele>
        <time>2018-03-18T10:01:42Z</time>
      </trkpt>
      <trkpt lat="43.13642" lon="3.09915">
        <ele>49.2</ele>
        <time>2018-03-18T10:01:45Z</time>
      </trkpt>
      <trkpt lat="43.1365" lon="3.09922">
        <ele>49.4</ele>
        <time>2018-03-18T10:01:48Z</time>
      </trkpt>
      <trkpt lat="43.13657" lon="3.09931">
        <ele>49.9</ele>
        <time>2018-03-18T10:01:52Z</time>
      </trkpt>
      <trkpt lat="43.13664" lon="3.09937">
        <ele>50.9</ele>
        <time>2018-03-18T10:01:55Z</time>
      </trkpt>
      <trkpt lat="43.13672" lon="3.09942">
        <ele>52.3</ele>
        <time>2018-03-18T10:01:59Z</time>
      </trkpt>
      <trkpt lat="43.13679" lon="3.09949">
        <ele>53.3</ele>
        <time>2018-03-18T10:02:03Z</time>
      </trkpt>
      <trkpt lat="43.13685" lon="3.09957">
        <ele>54.6</ele>
        <time>2018-03-18T10:02:07Z</time>
      </trkpt>
      <trkpt lat="43.13692" lon="3.09966">
        <ele>55.3</ele>
        <time>2018-03-18T10:02:11Z</time>
      </trkpt>
      <trkpt lat="43.13699" lon="3.09971">
        <ele>56.7</ele>
        <time>2018-03-18T10:02:15Z</time>
      </trkpt>
      <trkpt lat="43.13708" lon="3.09973">
        <ele>58.1</ele>
        <time>2018-03-18T10:02:20Z</time>
      </trkpt>
      <trkpt lat="43.13715" lon="3.09969">
        <ele>59.9</ele>
        <time>2018-03-18T10:02:25Z</time>
      </trkpt>
      <trkpt lat="43.13722" lon="3.09965">
        <ele>61.5</ele>
        <time>2018-03-18T10:02:29Z</time>
      </trkpt>
      <trkpt lat="43.13727" lon="3.09957">
        <ele>63.3</ele>
        <time>2018-03-18T10:02:33Z</time>
      </trkpt>
      <trkpt lat="43.13734" lon="3.09952">
        <ele>65.1</ele>
        <time>2018-03-18T10:02:37Z</time>
      </trkpt>
      <trkpt lat="43.13741" lon="3.09947">
        <ele>66.6</ele>
        <time>2018-03-18T10:02:41Z</time>
      </trkpt>
      <trkpt lat="43.13749" lon="3.09941">
        <ele>67.6</ele>
        <time>2018-03-18T10:02:45Z</time>
      </trkpt>
      <trkpt lat="43.13756" lon="3.09936">
        <ele>69</ele>
        <time>2018-03-18T10:02:49Z</time>
      </trkpt>
      <trkpt lat="43.13764" lon="3.09935">
        <ele>70.9</ele>
        <time>2018-03-18T10:02:53Z</time>
      </trkpt>
      <trkpt lat="43.1377" lon="3.09941">
        <ele>72.7</ele>
        <time>2018-03-18T10:02:57Z</time>
      </trkpt>
      <trkpt lat="43.13774" lon="3.09952">
        <ele>74.3</ele>
        <time>2018-03-18T10:03:01Z</time>
      </trkpt>
      <trkpt lat="43.13779" lon="3.09961">
        <ele>76.5</ele>
        <time>2018-03-18T10:03:05Z</time>
      </trkpt>
      <trkpt lat="43.13785" lon="3.09969">
        <ele>78.1</ele>
        <time>2018-03-18T10:03:09Z</time>
      </trkpt>
      <trkpt lat="43.13792" lon="3.09977">
        <ele>80.1</ele>
        <time>2018-03-18T10:03:14Z</time>
      </trkpt>
      <trkpt lat="43.138" lon="3.09981">
        <ele>81.5</ele>
        <time>2018-03-18T10:03:18Z</time>
      </trkpt>
      <trkpt lat="43.13808" lon="3.09985">
        <ele>83</ele>
        <time>2018-03-18T10:03:22Z</time>
      </trkpt>
      <trkpt lat="43.13814" lon="3.09991">
        <ele>84.2</ele>
        <time>2018-03-18T10:03:26Z</time>
      </trkpt>
      <trkpt lat="43.1382" lon="3.09996">
        <ele>85</ele>
        <time>2018-03-18T10:03:30Z</time>
      </trkpt>
      <trkpt lat="43.13829" lon="3.10001">
        <ele>87.7</ele>
        <time>2018-03-18T10:03:35Z</time>
      </trkpt>
      <trkpt lat="43.13838" lon="3.10003">
        <ele>89.8</ele>
        <time>2018-03-18T10:03:40Z</time>
      </trkpt>
      <trkpt lat="43.13845" lon="3.10005">
        <ele>90.6</ele>
        <time>2018-03-18T10:03:44Z</time>
      </trkpt>
      <trkpt lat="43.13853" lon="3.10006">
        <ele>92</ele>
        <time>2018-03-18T10:03:48Z</time>
      </trkpt>
      <trkpt lat="43.1386" lon="3.10008">
        <ele>93</ele>
        <time>2018-03-18T10:03:52Z</time>
      </trkpt>
      <trkpt lat="43.13868" lon="3.10011">
        <ele>92.3</ele>
        <time>2018-03-18T10:03:56Z</time>
      </trkpt>
      <trkpt lat="43.13876" lon="3.10008">
        <ele>91.6</ele>
        <time>2018-03-18T10:04:01Z</time>
      </trkpt>
      <trkpt lat="43.13882" lon="3.10003">
        <ele>92.1</ele>
        <time>2018-03-18T10:04:05Z</time>
      </trkpt>
      <trkpt lat="43.13888" lon="3.09997">
        <ele>92.8</ele>
        <time>2018-03-18T10:04:10Z</time>
      </trkpt>
      <trkpt lat="43.13894" lon="3.09989">
        <ele>91.2</ele>
        <time>2018-03-18T10:04:16Z</time>
      </trkpt>
      <trkpt lat="43.13899" lon="3.09981">
        <ele>90.2</ele>
        <time>2018-03-18T10:04:22Z</time>
      </trkpt>
      <trkpt lat="43.13904" lon="3.09971">
        <ele>87.9</ele>
        <time>2018-03-18T10:04:29Z</time>
      </trkpt>
      <trkpt lat="43.13908" lon="3.09963">
        <ele>86.2</ele>
        <time>2018-03-18T10:04:36Z</time>
      </trkpt>
      <trkpt lat="43.13911" lon="3.09954">
        <ele>85.3</ele>
        <time>2018-03-18T10:04:43Z</time>
      </trkpt>
      <trkpt lat="43.13915" lon="3.09943">
        <ele>84.5</ele>
        <time>2018-03-18T10:04:48Z</time>
      </trkpt>
      <trkpt lat="43.1392" lon="3.09934">
        <ele>83.4</ele>
        <time>2018-03-18T10:04:53Z</time>
      </trkpt>
      <trkpt lat="43.13922" lon="3.09923">
        <ele>82.7</ele>
        <time>2018-03-18T10:04:58Z</time>
      </trkpt>
      <trkpt lat="43.13924" lon="3.09913">
        <ele>81.5</ele>
        <time>2018-03-18T10:05:03Z</time>
      </trkpt>
      <trkpt lat="43.13926" lon="3.09901">
        <ele>80.6</ele>
        <time>2018-03-18T10:05:08Z</time>
      </trkpt>
      <trkpt lat="43.13929" lon="3.09892">
        <ele>79.9</ele>
        <time>2018-03-18T10:05:12Z</time>
      </trkpt>
      <trkpt lat="43.13932" lon="3.09881">
        <ele>79.3</ele>
        <time>2018-03-18T10:05:16Z</time>
      </trkpt>
      <trkpt lat="43.13936" lon="3.09871">
        <ele>79.4</ele>
        <time>2018-03-18T10:05:21Z</time>
      </trkpt>
      <trkpt lat="43.1394" lon="3.09863">
        <ele>79.7</ele>
        <time>2018-03-18T10:05:25Z</time>
      </trkpt>
      <trkpt lat="43.13946" lon="3.09854">
        <ele>79.9</ele>
        <time>2018-03-18T10:05:29Z</time>
      </trkpt>
      <trkpt lat="43.13949" lon="3.09844">
        <ele>79.7</ele>
        <time>2018-03-18T10:05:32Z</time>
      </trkpt>
      <trkpt lat="43.13952" lon="3.09835">
        <ele>79.4</ele>
        <time>2018-03-18T10:05:35Z</time>
      </trkpt>
      <trkpt lat="43.13955" lon="3.09823">
        <ele>79.3</ele>
        <time>2018-03-18T10:05:39Z</time>
      </trkpt>
      <trkpt lat="43.1396" lon="3.09815">
        <ele>79.4</ele>
        <time>2018-03-18T10:05:42Z</time>
      </trkpt>
      <trkpt lat="43.13962" lon="3.09806">
        <ele>79.6</ele>
        <time>2018-03-18T10:05:45Z</time>
      </trkpt>
      <trkpt lat="43.13967" lon="3.09797">
        <ele>79.7</ele>
        <time>2018-03-18T10:05:48Z</time>
      </trkpt>
      <trkpt lat="43.13974" lon="3.09791">
        <ele>79.9</ele>
        <time>2018-03-18T10:05:51Z</time>
      </trkpt>
      <trkpt lat="43.13982" lon="3.09795">
        <ele>80.4</ele>
        <time>2018-03-18T10:05:55Z</time>
      </trkpt>
      <trkpt lat="43.13984" lon="3.09807">
        <ele>80.6</ele>
        <time>2018-03-18T10:05:58Z</time>
      </trkpt>
      <trkpt lat="43.13983" lon="3.09817">
        <ele>80.7</ele>
        <time>2018-03-18T10:06:01Z</time>
      </trkpt>
      <trkpt lat="43.13983" lon="3.09828">
        <ele>81.1</ele>
        <time>2018-03-18T10:06:05Z</time>
      </trkpt>
      <trkpt lat="43.13985" lon="3.09841">
        <ele>81.2</ele>
        <time>2018-03-18T10:06:09Z</time>
      </trkpt>
      <trkpt lat="43.13987" lon="3.09852">
        <ele>81.9</ele>
        <time>2018-03-18T10:06:13Z</time>
      </trkpt>
      <trkpt lat="43.13991" lon="3.09862">
        <ele>82.9</ele>
        <time>2018-03-18T10:06:17Z</time>
      </trkpt>
      <trkpt lat="43.13994" lon="3.09871">
        <ele>84.2</ele>
        <time>2018-03-18T10:06:21Z</time>
      </trkpt>
      <trkpt lat="43.13995" lon="3.09882">
        <ele>85.5</ele>
        <time>2018-03-18T10:06:25Z</time>
      </trkpt>
      <trkpt lat="43.13998" lon="3.09893">
        <ele>87</ele>
        <time>2018-03-18T10:06:30Z</time>
      </trkpt>
      <trkpt lat="43.14" lon="3.09903">
        <ele>88.7</ele>
        <time>2018-03-18T10:06:35Z</time>
      </trkpt>
      <trkpt lat="43.14007" lon="3.09908">
        <ele>90.7</ele>
        <time>2018-03-18T10:06:40Z</time>
      </trkpt>
      <trkpt lat="43.14014" lon="3.09914">
        <ele>92.4</ele>
        <time>2018-03-18T10:06:45Z</time>
      </trkpt>
      <trkpt lat="43.14018" lon="3.09924">
        <ele>93.9</ele>
        <time>2018-03-18T10:06:50Z</time>
      </trkpt>
      <trkpt lat="43.1402" lon="3.09935">
        <ele>95.3</ele>
        <time>2018-03-18T10:06:54Z</time>
      </trkpt>
      <trkpt lat="43.14022" lon="3.09946">
        <ele>96.5</ele>
        <time>2018-03-18T10:06:58Z</time>
      </trkpt>
      <trkpt lat="43.14022" lon="3.09957">
        <ele>97.3</ele>
        <time>2018-03-18T10:07:02Z</time>
      </trkpt>
      <trkpt lat="43.14027" lon="3.09966">
        <ele>97.3</ele>
        <time>2018-03-18T10:07:07Z</time>
      </trkpt>
      <trkpt lat="43.14034" lon="3.09969">
        <ele>97.9</ele>
        <time>2018-03-18T10:07:12Z</time>
      </trkpt>
      <trkpt lat="43.14041" lon="3.09965">
        <ele>98.8</ele>
        <time>2018-03-18T10:07:17Z</time>
      </trkpt>
      <trkpt lat="43.14048" lon="3.09961">
        <ele>99.2</ele>
        <time>2018-03-18T10:07:22Z</time>
      </trkpt>
      <trkpt lat="43.14056" lon="3.09956">
        <ele>99.4</ele>
        <time>2018-03-18T10:07:28Z</time>
      </trkpt>
      <trkpt lat="43.14061" lon="3.0995">
        <ele>99.8</ele>
        <time>2018-03-18T10:07:33Z</time>
      </trkpt>
      <trkpt lat="43.14068" lon="3.09944">
        <ele>101.1</ele>
        <time>2018-03-18T10:07:38Z</time>
      </trkpt>
      <trkpt lat="43.14074" lon="3.09936">
        <ele>102.4</ele>
        <time>2018-03-18T10:07:44Z</time>
      </trkpt>
      <trkpt lat="43.1408" lon="3.09928">
        <ele>103.4</ele>
        <time>2018-03-18T10:07:49Z</time>
      </trkpt>
      <trkpt lat="43.14086" lon="3.0992">
        <ele>104.4</ele>
        <time>2018-03-18T10:07:54Z</time>
      </trkpt>
      <trkpt lat="43.14092" lon="3.09913">
        <ele>105.8</ele>
        <time>2018-03-18T10:07:59Z</time>
      </trkpt>
      <trkpt lat="43.14099" lon="3.09906">
        <ele>106.6</ele>
        <time>2018-03-18T10:08:05Z</time>
      </trkpt>
      <trkpt lat="43.14098" lon="3.09894">
        <ele>107.2</ele>
        <time>2018-03-18T10:08:10Z</time>
      </trkpt>
      <trkpt lat="43.14096" lon="3.09884">
        <ele>107</ele>
        <time>2018-03-18T10:08:16Z</time>
      </trkpt>
      <trkpt lat="43.14094" lon="3.09873">
        <ele>106.9</ele>
        <time>2018-03-18T10:08:21Z</time>
      </trkpt>
      <trkpt lat="43.14092" lon="3.09863">
        <ele>107.4</ele>
        <time>2018-03-18T10:08:26Z</time>
      </trkpt>
      <trkpt lat="43.14094" lon="3.09853">
        <ele>108.1</ele>
        <time>2018-03-18T10:08:32Z</time>
      </trkpt>
      <trkpt lat="43.14094" lon="3.09842">
        <ele>108.6</ele>
        <time>2018-03-18T10:08:36Z</time>
      </trkpt>
      <trkpt lat="43.14097" lon="3.09831">
        <ele>109.4</ele>
        <time>2018-03-18T10:08:41Z</time>
      </trkpt>
      <trkpt lat="43.14103" lon="3.09822">
        <ele>110.3</ele>
        <time>2018-03-18T10:08:45Z</time>
      </trkpt>
      <trkpt lat="43.14108" lon="3.09814">
        <ele>111.4</ele>
        <time>2018-03-18T10:08:50Z</time>
      </trkpt>
      <trkpt lat="43.14112" lon="3.09806">
        <ele>112.9</ele>
        <time>2018-03-18T10:08:56Z</time>
      </trkpt>
      <trkpt lat="43.14118" lon="3.09797">
        <ele>114.4</ele>
        <time>2018-03-18T10:09:02Z</time>
      </trkpt>
      <trkpt lat="43.14121" lon="3.09786">
        <ele>115.8</ele>
        <time>2018-03-18T10:09:08Z</time>
      </trkpt>
      <trkpt lat="43.14123" lon="3.09774">
        <ele>116.9</ele>
        <time>2018-03-18T10:09:14Z</time>
      </trkpt>
      <trkpt lat="43.14128" lon="3.09765">
        <ele>118</ele>
        <time>2018-03-18T10:09:20Z</time>
      </trkpt>
      <trkpt lat="43.14132" lon="3.09755">
        <ele>119.1</ele>
        <time>2018-03-18T10:09:26Z</time>
      </trkpt>
      <trkpt lat="43.14134" lon="3.09746">
        <ele>119.9</ele>
        <time>2018-03-18T10:09:33Z</time>
      </trkpt>
      <trkpt lat="43.14134" lon="3.09735">
        <ele>120.3</ele>
        <time>2018-03-18T10:09:39Z</time>
      </trkpt>
      <trkpt lat="43.14133" lon="3.09724">
        <ele>120.4</ele>
        <time>2018-03-18T10:09:44Z</time>
      </trkpt>
      <trkpt lat="43.14134" lon="3.09714">
        <ele>120.4</ele>
        <time>2018-03-18T10:09:50Z</time>
      </trkpt>
      <trkpt lat="43.14133" lon="3.09703">
        <ele>120.4</ele>
        <time>2018-03-18T10:09:55Z</time>
      </trkpt>
      <trkpt lat="43.14132" lon="3.09692">
        <ele>119.9</ele>
        <time>2018-03-18T10:10:01Z</time>
      </trkpt>
      <trkpt lat="43.14132" lon="3.09681">
        <ele>119.4</ele>
        <time>2018-03-18T10:10:07Z</time>
      </trkpt>
      <trkpt lat="43.14132" lon="3.09669">
        <ele>118.7</ele>
        <time>2018-03-18T10:10:13Z</time>
      </trkpt>
      <trkpt lat="43.14132" lon="3.09658">
        <ele>118.2</ele>
        <time>2018-03-18T10:10:19Z</time>
      </trkpt>
      <trkpt lat="43.14133" lon="3.09647">
        <ele>118.2</ele>
        <time>2018-03-18T10:10:25Z</time>
      </trkpt>
      <trkpt lat="43.14134" lon="3.09637">
        <ele>118.2</ele>
        <time>2018-03-18T10:10:30Z</time>
      </trkpt>
      <trkpt lat="43.14136" lon="3.09626">
        <ele>117.9</ele>
        <time>2018-03-18T10:10:36Z</time>
      </trkpt>
      <trkpt lat="43.14139" lon="3.09615">
        <ele>118.1</ele>
        <time>2018-03-18T10:10:41Z</time>
      </trkpt>
      <trkpt lat="43.14143" lon="3.09606">
        <ele>118.7</ele>
        <time>2018-03-18T10:10:46Z</time>
      </trkpt>
      <trkpt lat="43.14144" lon="3.09593">
        <ele>119.2</ele>
        <time>2018-03-18T10:10:52Z</time>
      </trkpt>
      <trkpt lat="43.14142" lon="3.09584">
        <ele>119.6</ele>
        <time>2018-03-18T10:10:57Z</time>
      </trkpt>
      <trkpt lat="43.14137" lon="3.09575">
        <ele>119.7</ele>
        <time>2018-03-18T10:11:02Z</time>
      </trkpt>
      <trkpt lat="43.1413" lon="3.09568">
        <ele>120.3</ele>
        <time>2018-03-18T10:11:06Z</time>
      </trkpt>
      <trkpt lat="43.14125" lon="3.09561">
        <ele>121.2</ele>
        <time>2018-03-18T10:11:10Z</time>
      </trkpt>
      <trkpt lat="43.14119" lon="3.09555">
        <ele>121.8</ele>
        <time>2018-03-18T10:11:14Z</time>
      </trkpt>
      <trkpt lat="43.14113" lon="3.09546">
        <ele>123.4</ele>
        <time>2018-03-18T10:11:19Z</time>
      </trkpt>
      <trkpt lat="43.14105" lon="3.09539">
        <ele>124.2</ele>
        <time>2018-03-18T10:11:24Z</time>
      </trkpt>
      <trkpt lat="43.14098" lon="3.09535">
        <ele>125.6</ele>
        <time>2018-03-18T10:11:28Z</time>
      </trkpt>
      <trkpt lat="43.1409" lon="3.0953">
        <ele>126.9</ele>
        <time>2018-03-18T10:11:32Z</time>
      </trkpt>
      <trkpt lat="43.14083" lon="3.09525">
        <ele>127.6</ele>
        <time>2018-03-18T10:11:36Z</time>
      </trkpt>
      <trkpt lat="43.14076" lon="3.0952">
        <ele>128.6</ele>
        <time>2018-03-18T10:11:40Z</time>
      </trkpt>
      <trkpt lat="43.14069" lon="3.09514">
        <ele>129.8</ele>
        <time>2018-03-18T10:11:45Z</time>
      </trkpt>
      <trkpt lat="43.14063" lon="3.09506">
        <ele>130.7</ele>
        <time>2018-03-18T10:11:49Z</time>
      </trkpt>
      <trkpt lat="43.14058" lon="3.095">
        <ele>131.6</ele>
        <time>2018-03-18T10:11:53Z</time>
      </trkpt>
      <trkpt lat="43.14051" lon="3.09496">
        <ele>132.5</ele>
        <time>2018-03-18T10:11:57Z</time>
      </trkpt>
      <trkpt lat="43.14044" lon="3.09492">
        <ele>133</ele>
        <time>2018-03-18T10:12:01Z</time>
      </trkpt>
      <trkpt lat="43.14036" lon="3.09488">
        <ele>133.5</ele>
        <time>2018-03-18T10:12:06Z</time>
      </trkpt>
      <trkpt lat="43.14028" lon="3.09484">
        <ele>133.8</ele>
        <time>2018-03-18T10:12:11Z</time>
      </trkpt>
      <trkpt lat="43.14021" lon="3.09476">
        <ele>134.2</ele>
        <time>2018-03-18T10:12:16Z</time>
      </trkpt>
      <trkpt lat="43.14018" lon="3.0947">
        <ele>135.2</ele>
        <time>2018-03-18T10:12:23Z</time>
      </trkpt>
      <trkpt lat="43.14018" lon="3.09459">
        <ele>137.1</ele>
        <time>2018-03-18T10:12:30Z</time>
      </trkpt>
      <trkpt lat="43.14025" lon="3.09457">
        <ele>138.6</ele>
        <time>2018-03-18T10:12:36Z</time>
      </trkpt>
      <trkpt lat="43.14031" lon="3.09461">
        <ele>139.7</ele>
        <time>2018-03-18T10:12:43Z</time>
      </trkpt>
      <trkpt lat="43.14032" lon="3.09461">
        <ele>139.5</ele>
        <time>2018-03-18T10:12:50Z</time>
      </trkpt>
      <trkpt lat="43.1404" lon="3.09463">
        <ele>143.6</ele>
        <time>2018-03-18T10:14:36Z</time>
      </trkpt>
      <trkpt lat="43.14049" lon="3.09466">
        <ele>143.8</ele>
        <time>2018-03-18T10:14:40Z</time>
      </trkpt>
      <trkpt lat="43.14057" lon="3.09468">
        <ele>144.3</ele>
        <time>2018-03-18T10:14:43Z</time>
      </trkpt>
      <trkpt lat="43.14066" lon="3.09471">
        <ele>144.5</ele>
        <time>2018-03-18T10:14:46Z</time>
      </trkpt>
      <trkpt lat="43.14075" lon="3.09474">
        <ele>145</ele>
        <time>2018-03-18T10:14:49Z</time>
      </trkpt>
      <trkpt lat="43.14083" lon="3.09475">
        <ele>145.8</ele>
        <time>2018-03-18T10:14:52Z</time>
      </trkpt>
      <trkpt lat="43.1409" lon="3.09477">
        <ele>147.4</ele>
        <time>2018-03-18T10:14:55Z</time>
      </trkpt>
      <trkpt lat="43.14099" lon="3.0948">
        <ele>149.3</ele>
        <time>2018-03-18T10:14:58Z</time>
      </trkpt>
      <trkpt lat="43.14107" lon="3.09486">
        <ele>150.8</ele>
        <time>2018-03-18T10:15:01Z</time>
      </trkpt>
      <trkpt lat="43.14114" lon="3.09491">
        <ele>152.4</ele>
        <time>2018-03-18T10:15:04Z</time>
      </trkpt>
      <trkpt lat="43.14123" lon="3.09496">
        <ele>153.9</ele>
        <time>2018-03-18T10:15:07Z</time>
      </trkpt>
      <trkpt lat="43.14131" lon="3.09501">
        <ele>155.6</ele>
        <time>2018-03-18T10:15:10Z</time>
      </trkpt>
      <trkpt lat="43.1414" lon="3.09508">
        <ele>156.8</ele>
        <time>2018-03-18T10:15:13Z</time>
      </trkpt>
      <trkpt lat="43.14147" lon="3.09512">
        <ele>156.7</ele>
        <time>2018-03-18T10:15:15Z</time>
      </trkpt>
      <trkpt lat="43.14156" lon="3.09515">
        <ele>157.1</ele>
        <time>2018-03-18T10:15:17Z</time>
      </trkpt>
      <trkpt lat="43.14163" lon="3.09519">
        <ele>156.1</ele>
        <time>2018-03-18T10:15:19Z</time>
      </trkpt>
      <trkpt lat="43.14171" lon="3.09521">
        <ele>155.9</ele>
        <time>2018-03-18T10:15:21Z</time>
      </trkpt>
      <trkpt lat="43.14178" lon="3.09523">
        <ele>155.2</ele>
        <time>2018-03-18T10:15:23Z</time>
      </trkpt>
      <trkpt lat="43.14188" lon="3.09523">
        <ele>153.8</ele>
        <time>2018-03-18T10:15:26Z</time>
      </trkpt>
      <trkpt lat="43.14195" lon="3.09526">
        <ele>152.7</ele>
        <time>2018-03-18T10:15:28Z</time>
      </trkpt>
      <trkpt lat="43.14204" lon="3.0953">
        <ele>151.3</ele>
        <time>2018-03-18T10:15:31Z</time>
      </trkpt>
      <trkpt lat="43.14212" lon="3.0953">
        <ele>149.6</ele>
        <time>2018-03-18T10:15:33Z</time>
      </trkpt>
      <trkpt lat="43.14222" lon="3.09531">
        <ele>148.3</ele>
        <time>2018-03-18T10:15:36Z</time>
      </trkpt>
      <trkpt lat="43.1423" lon="3.09531">
        <ele>147.3</ele>
        <time>2018-03-18T10:15:39Z</time>
      </trkpt>
      <trkpt lat="43.1424" lon="3.09531">
        <ele>147</ele>
        <time>2018-03-18T10:15:42Z</time>
      </trkpt>
      <trkpt lat="43.1425" lon="3.09532">
        <ele>147.1</ele>
        <time>2018-03-18T10:15:45Z</time>
      </trkpt>
      <trkpt lat="43.14259" lon="3.09534">
        <ele>147.4</ele>
        <time>2018-03-18T10:15:48Z</time>
      </trkpt>
      <trkpt lat="43.14267" lon="3.09537">
        <ele>148.5</ele>
        <time>2018-03-18T10:15:51Z</time>
      </trkpt>
      <trkpt lat="43.14273" lon="3.09539">
        <ele>149.5</ele>
        <time>2018-03-18T10:15:54Z</time>
      </trkpt>
      <trkpt lat="43.14282" lon="3.09542">
        <ele>150.7</ele>
        <time>2018-03-18T10:15:57Z</time>
      </trkpt>
      <trkpt lat="43.14291" lon="3.09546">
        <ele>153</ele>
        <time>2018-03-18T10:16:00Z</time>
      </trkpt>
      <trkpt lat="43.14297" lon="3.09549">
        <ele>154.5</ele>
        <time>2018-03-18T10:16:03Z</time>
      </trkpt>
      <trkpt lat="43.14306" lon="3.09552">
        <ele>157.1</ele>
        <time>2018-03-18T10:16:07Z</time>
      </trkpt>
      <trkpt lat="43.14314" lon="3.09554">
        <ele>158.6</ele>
        <time>2018-03-18T10:16:10Z</time>
      </trkpt>
      <trkpt lat="43.1432" lon="3.09557">
        <ele>160</ele>
        <time>2018-03-18T10:16:13Z</time>
      </trkpt>
      <trkpt lat="43.14329" lon="3.09561">
        <ele>160.6</ele>
        <time>2018-03-18T10:16:16Z</time>
      </trkpt>
      <trkpt lat="43.14336" lon="3.09563">
        <ele>160.4</ele>
        <time>2018-03-18T10:16:19Z</time>
      </trkpt>
      <trkpt lat="43.14345" lon="3.09563">
        <ele>159.1</ele>
        <time>2018-03-18T10:16:22Z</time>
      </trkpt>
      <trkpt lat="43.14352" lon="3.09561">
        <ele>156.9</ele>
        <time>2018-03-18T10:16:25Z</time>
      </trkpt>
      <trkpt lat="43.14361" lon="3.09557">
        <ele>155.2</ele>
        <time>2018-03-18T10:16:29Z</time>
      </trkpt>
      <trkpt lat="43.14368" lon="3.0955">
        <ele>154.8</ele>
        <time>2018-03-18T10:16:33Z</time>
      </trkpt>
      <trkpt lat="43.14375" lon="3.09544">
        <ele>155.4</ele>
        <time>2018-03-18T10:16:37Z</time>
      </trkpt>
      <trkpt lat="43.14383" lon="3.09538">
        <ele>156.1</ele>
        <time>2018-03-18T10:16:41Z</time>
      </trkpt>
      <trkpt lat="43.14392" lon="3.09534">
        <ele>155.6</ele>
        <time>2018-03-18T10:16:45Z</time>
      </trkpt>
      <trkpt lat="43.14401" lon="3.0953">
        <ele>155.5</ele>
        <time>2018-03-18T10:16:49Z</time>
      </trkpt>
      <trkpt lat="43.1441" lon="3.09529">
        <ele>156.4</ele>
        <time>2018-03-18T10:16:53Z</time>
      </trkpt>
      <trkpt lat="43.14418" lon="3.09529">
        <ele>157</ele>
        <time>2018-03-18T10:16:57Z</time>
      </trkpt>
      <trkpt lat="43.14427" lon="3.0953">
        <ele>157.9</ele>
        <time>2018-03-18T10:17:01Z</time>
      </trkpt>
      <trkpt lat="43.14436" lon="3.0953">
        <ele>158.8</ele>
        <time>2018-03-18T10:17:05Z</time>
      </trkpt>
      <trkpt lat="43.14445" lon="3.09532">
        <ele>159.7</ele>
        <time>2018-03-18T10:17:09Z</time>
      </trkpt>
      <trkpt lat="43.14454" lon="3.09534">
        <ele>161.4</ele>
        <time>2018-03-18T10:17:14Z</time>
      </trkpt>
      <trkpt lat="43.14462" lon="3.09536">
        <ele>162.8</ele>
        <time>2018-03-18T10:17:19Z</time>
      </trkpt>
      <trkpt lat="43.1447" lon="3.09539">
        <ele>163.8</ele>
        <time>2018-03-18T10:17:23Z</time>
      </trkpt>
      <trkpt lat="43.14477" lon="3.09545">
        <ele>164.6</ele>
        <time>2018-03-18T10:17:27Z</time>
      </trkpt>
      <trkpt lat="43.14486" lon="3.09549">
        <ele>165.2</ele>
        <time>2018-03-18T10:17:31Z</time>
      </trkpt>
      <trkpt lat="43.14495" lon="3.09552">
        <ele>166.2</ele>
        <time>2018-03-18T10:17:35Z</time>
      </trkpt>
      <trkpt lat="43.14505" lon="3.09553">
        <ele>167.1</ele>
        <time>2018-03-18T10:17:39Z</time>
      </trkpt>
      <trkpt lat="43.14514" lon="3.0955">
        <ele>167.8</ele>
        <time>2018-03-18T10:17:43Z</time>
      </trkpt>
      <trkpt lat="43.14521" lon="3.09547">
        <ele>167.7</ele>
        <time>2018-03-18T10:17:46Z</time>
      </trkpt>
      <trkpt lat="43.14528" lon="3.09539">
        <ele>167.6</ele>
        <time>2018-03-18T10:17:50Z</time>
      </trkpt>
      <trkpt lat="43.14534" lon="3.09534">
        <ele>167.6</ele>
        <time>2018-03-18T10:17:53Z</time>
      </trkpt>
      <trkpt lat="43.14539" lon="3.09525">
        <ele>167.9</ele>
        <time>2018-03-18T10:17:57Z</time>
      </trkpt>
      <trkpt lat="43.14545" lon="3.09514">
        <ele>168.6</ele>
        <time>2018-03-18T10:18:01Z</time>
      </trkpt>
      <trkpt lat="43.1455" lon="3.09506">
        <ele>168.8</ele>
        <time>2018-03-18T10:18:04Z</time>
      </trkpt>
      <trkpt lat="43.14555" lon="3.09498">
        <ele>168.7</ele>
        <time>2018-03-18T10:18:07Z</time>
      </trkpt>
      <trkpt lat="43.1456" lon="3.09491">
        <ele>169.1</ele>
        <time>2018-03-18T10:18:10Z</time>
      </trkpt>
      <trkpt lat="43.14565" lon="3.09483">
        <ele>169.5</ele>
        <time>2018-03-18T10:18:13Z</time>
      </trkpt>
      <trkpt lat="43.14571" lon="3.09476">
        <ele>169.7</ele>
        <time>2018-03-18T10:18:16Z</time>
      </trkpt>
      <trkpt lat="43.14575" lon="3.09468">
        <ele>169.4</ele>
        <time>2018-03-18T10:18:19Z</time>
      </trkpt>
      <trkpt lat="43.14582" lon="3.0946">
        <ele>169.1</ele>
        <time>2018-03-18T10:18:23Z</time>
      </trkpt>
      <trkpt lat="43.14587" lon="3.09452">
        <ele>169.3</ele>
        <time>2018-03-18T10:18:26Z</time>
      </trkpt>
      <trkpt lat="43.14594" lon="3.09445">
        <ele>168.8</ele>
        <time>2018-03-18T10:18:29Z</time>
      </trkpt>
      <trkpt lat="43.146" lon="3.09438">
        <ele>168.4</ele>
        <time>2018-03-18T10:18:32Z</time>
      </trkpt>
      <trkpt lat="43.14609" lon="3.09436">
        <ele>167.9</ele>
        <time>2018-03-18T10:18:35Z</time>
      </trkpt>
      <trkpt lat="43.14617" lon="3.09443">
        <ele>167.6</ele>
        <time>2018-03-18T10:18:38Z</time>
      </trkpt>
      <trkpt lat="43.14622" lon="3.09454">
        <ele>167.1</ele>
        <time>2018-03-18T10:18:41Z</time>
      </trkpt>
      <trkpt lat="43.14628" lon="3.09466">
        <ele>166.8</ele>
        <time>2018-03-18T10:18:44Z</time>
      </trkpt>
      <trkpt lat="43.14633" lon="3.09479">
        <ele>166.5</ele>
        <time>2018-03-18T10:18:47Z</time>
      </trkpt>
      <trkpt lat="43.14639" lon="3.0949">
        <ele>166.2</ele>
        <time>2018-03-18T10:18:50Z</time>
      </trkpt>
      <trkpt lat="43.14644" lon="3.09501">
        <ele>165.8</ele>
        <time>2018-03-18T10:18:53Z</time>
      </trkpt>
      <trkpt lat="43.14649" lon="3.09512">
        <ele>165.6</ele>
        <time>2018-03-18T10:18:56Z</time>
      </trkpt>
      <trkpt lat="43.14653" lon="3.09524">
        <ele>165.3</ele>
        <time>2018-03-18T10:18:59Z</time>
      </trkpt>
      <trkpt lat="43.1466" lon="3.09534">
        <ele>164.8</ele>
        <time>2018-03-18T10:19:02Z</time>
      </trkpt>
      <trkpt lat="43.14667" lon="3.09541">
        <ele>164.7</ele>
        <time>2018-03-18T10:19:05Z</time>
      </trkpt>
      <trkpt lat="43.14678" lon="3.09542">
        <ele>164.4</ele>
        <time>2018-03-18T10:19:08Z</time>
      </trkpt>
      <trkpt lat="43.14686" lon="3.09541">
        <ele>164.3</ele>
        <time>2018-03-18T10:19:10Z</time>
      </trkpt>
      <trkpt lat="43.14695" lon="3.09536">
        <ele>164.3</ele>
        <time>2018-03-18T10:19:13Z</time>
      </trkpt>
      <trkpt lat="43.14704" lon="3.09529">
        <ele>164.1</ele>
        <time>2018-03-18T10:19:16Z</time>
      </trkpt>
      <trkpt lat="43.14712" lon="3.09522">
        <ele>164.1</ele>
        <time>2018-03-18T10:19:19Z</time>
      </trkpt>
      <trkpt lat="43.14722" lon="3.09515">
        <ele>164.1</ele>
        <time>2018-03-18T10:19:22Z</time>
      </trkpt>
      <trkpt lat="43.14731" lon="3.09507">
        <ele>163.9</ele>
        <time>2018-03-18T10:19:25Z</time>
      </trkpt>
      <trkpt lat="43.14739" lon="3.09499">
        <ele>163.3</ele>
        <time>2018-03-18T10:19:28Z</time>
      </trkpt>
      <trkpt lat="43.14749" lon="3.09496">
        <ele>163.5</ele>
        <time>2018-03-18T10:19:31Z</time>
      </trkpt>
      <trkpt lat="43.14759" lon="3.09499">
        <ele>164</ele>
        <time>2018-03-18T10:19:34Z</time>
      </trkpt>
      <trkpt lat="43.1477" lon="3.09501">
        <ele>164.1</ele>
        <time>2018-03-18T10:19:37Z</time>
      </trkpt>
      <trkpt lat="43.14778" lon="3.095">
        <ele>164.4</ele>
        <time>2018-03-18T10:19:39Z</time>
      </trkpt>
      <trkpt lat="43.14785" lon="3.095">
        <ele>165.2</ele>
        <time>2018-03-18T10:19:41Z</time>
      </trkpt>
      <trkpt lat="43.1479" lon="3.0951">
        <ele>165.4</ele>
        <time>2018-03-18T10:19:44Z</time>
      </trkpt>
      <trkpt lat="43.14791" lon="3.09522">
        <ele>165.3</ele>
        <time>2018-03-18T10:19:47Z</time>
      </trkpt>
      <trkpt lat="43.14787" lon="3.09531">
        <ele>165.3</ele>
        <time>2018-03-18T10:19:49Z</time>
      </trkpt>
      <trkpt lat="43.14783" lon="3.09543">
        <ele>165.2</ele>
        <time>2018-03-18T10:19:51Z</time>
      </trkpt>
      <trkpt lat="43.14781" lon="3.09555">
        <ele>165.4</ele>
        <time>2018-03-18T10:19:53Z</time>
      </trkpt>
      <trkpt lat="43.14778" lon="3.09566">
        <ele>165.4</ele>
        <time>2018-03-18T10:19:55Z</time>
      </trkpt>
      <trkpt lat="43.14773" lon="3.09579">
        <ele>165</ele>
        <time>2018-03-18T10:19:57Z</time>
      </trkpt>
      <trkpt lat="43.1477" lon="3.09592">
        <ele>164.7</ele>
        <time>2018-03-18T10:19:59Z</time>
      </trkpt>
      <trkpt lat="43.14767" lon="3.09605">
        <ele>164.5</ele>
        <time>2018-03-18T10:20:01Z</time>
      </trkpt>
      <trkpt lat="43.14765" lon="3.09619">
        <ele>164.4</ele>
        <time>2018-03-18T10:20:03Z</time>
      </trkpt>
      <trkpt lat="43.14765" lon="3.09633">
        <ele>164.3</ele>
        <time>2018-03-18T10:20:05Z</time>
      </trkpt>
      <trkpt lat="43.14764" lon="3.09647">
        <ele>164.2</ele>
        <time>2018-03-18T10:20:07Z</time>
      </trkpt>
      <trkpt lat="43.14763" lon="3.09662">
        <ele>163.9</ele>
        <time>2018-03-18T10:20:09Z</time>
      </trkpt>
      <trkpt lat="43.14765" lon="3.09674">
        <ele>162.6</ele>
        <time>2018-03-18T10:20:11Z</time>
      </trkpt>
      <trkpt lat="43.14769" lon="3.09685">
        <ele>161.5</ele>
        <time>2018-03-18T10:20:13Z</time>
      </trkpt>
      <trkpt lat="43.14776" lon="3.09697">
        <ele>160.5</ele>
        <time>2018-03-18T10:20:15Z</time>
      </trkpt>
      <trkpt lat="43.14784" lon="3.09709">
        <ele>159.6</ele>
        <time>2018-03-18T10:20:17Z</time>
      </trkpt>
      <trkpt lat="43.14792" lon="3.09722">
        <ele>158.8</ele>
        <time>2018-03-18T10:20:19Z</time>
      </trkpt>
      <trkpt lat="43.148" lon="3.09736">
        <ele>158</ele>
        <time>2018-03-18T10:20:21Z</time>
      </trkpt>
      <trkpt lat="43.14811" lon="3.09749">
        <ele>157.2</ele>
        <time>2018-03-18T10:20:23Z</time>
      </trkpt>
      <trkpt lat="43.14817" lon="3.09755">
        <ele>156.8</ele>
        <time>2018-03-18T10:20:24Z</time>
      </trkpt>
      <trkpt lat="43.14828" lon="3.09764">
        <ele>156</ele>
        <time>2018-03-18T10:20:26Z</time>
      </trkpt>
      <trkpt lat="43.14839" lon="3.09766">
        <ele>154.9</ele>
        <time>2018-03-18T10:20:28Z</time>
      </trkpt>
      <trkpt lat="43.14851" lon="3.09763">
        <ele>153.9</ele>
        <time>2018-03-18T10:20:30Z</time>
      </trkpt>
      <trkpt lat="43.14863" lon="3.09759">
        <ele>151.9</ele>
        <time>2018-03-18T10:20:32Z</time>
      </trkpt>
      <trkpt lat="43.14875" lon="3.09759">
        <ele>150</ele>
        <time>2018-03-18T10:20:34Z</time>
      </trkpt>
      <trkpt lat="43.14884" lon="3.09758">
        <ele>149.1</ele>
        <time>2018-03-18T10:20:36Z</time>
      </trkpt>
      <trkpt lat="43.14891" lon="3.09766">
        <ele>149</ele>
        <time>2018-03-18T10:20:38Z</time>
      </trkpt>
      <trkpt lat="43.14893" lon="3.09776">
        <ele>148.7</ele>
        <time>2018-03-18T10:20:40Z</time>
      </trkpt>
      <trkpt lat="43.14892" lon="3.0979">
        <ele>148.2</ele>
        <time>2018-03-18T10:20:43Z</time>
      </trkpt>
      <trkpt lat="43.14887" lon="3.09802">
        <ele>147.9</ele>
        <time>2018-03-18T10:20:46Z</time>
      </trkpt>
      <trkpt lat="43.14879" lon="3.09811">
        <ele>147.7</ele>
        <time>2018-03-18T10:20:48Z</time>
      </trkpt>
      <trkpt lat="43.1487" lon="3.09817">
        <ele>147.3</ele>
        <time>2018-03-18T10:20:51Z</time>
      </trkpt>
      <trkpt lat="43.14864" lon="3.09826">
        <ele>147.4</ele>
        <time>2018-03-18T10:20:54Z</time>
      </trkpt>
      <trkpt lat="43.1486" lon="3.09835">
        <ele>147.6</ele>
        <time>2018-03-18T10:20:58Z</time>
      </trkpt>
      <trkpt lat="43.14856" lon="3.09844">
        <ele>148.8</ele>
        <time>2018-03-18T10:21:02Z</time>
      </trkpt>
      <trkpt lat="43.1485" lon="3.09851">
        <ele>149.5</ele>
        <time>2018-03-18T10:21:05Z</time>
      </trkpt>
      <trkpt lat="43.14842" lon="3.09858">
        <ele>150.7</ele>
        <time>2018-03-18T10:21:09Z</time>
      </trkpt>
      <trkpt lat="43.14833" lon="3.09863">
        <ele>151.7</ele>
        <time>2018-03-18T10:21:12Z</time>
      </trkpt>
      <trkpt lat="43.14826" lon="3.09867">
        <ele>152.2</ele>
        <time>2018-03-18T10:21:15Z</time>
      </trkpt>
      <trkpt lat="43.14819" lon="3.09871">
        <ele>152.2</ele>
        <time>2018-03-18T10:21:18Z</time>
      </trkpt>
      <trkpt lat="43.14812" lon="3.09877">
        <ele>152.7</ele>
        <time>2018-03-18T10:21:22Z</time>
      </trkpt>
      <trkpt lat="43.14807" lon="3.09885">
        <ele>153.6</ele>
        <time>2018-03-18T10:21:26Z</time>
      </trkpt>
      <trkpt lat="43.1481" lon="3.09893">
        <ele>154.5</ele>
        <time>2018-03-18T10:21:33Z</time>
      </trkpt>
      <trkpt lat="43.14809" lon="3.09893">
        <ele>154.6</ele>
        <time>2018-03-18T10:21:45Z</time>
      </trkpt>
      <trkpt lat="43.14818" lon="3.09896">
        <ele>154.4</ele>
        <time>2018-03-18T10:22:05Z</time>
      </trkpt>
      <trkpt lat="43.14826" lon="3.09897">
        <ele>154.5</ele>
        <time>2018-03-18T10:22:08Z</time>
      </trkpt>
      <trkpt lat="43.14837" lon="3.09897">
        <ele>154.9</ele>
        <time>2018-03-18T10:22:11Z</time>
      </trkpt>
      <trkpt lat="43.14845" lon="3.09897">
        <ele>155.6</ele>
        <time>2018-03-18T10:22:14Z</time>
      </trkpt>
      <trkpt lat="43.14854" lon="3.09898">
        <ele>156.7</ele>
        <time>2018-03-18T10:22:17Z</time>
      </trkpt>
      <trkpt lat="43.14862" lon="3.09898">
        <ele>157.7</ele>
        <time>2018-03-18T10:22:20Z</time>
      </trkpt>
      <trkpt lat="43.14871" lon="3.09901">
        <ele>158.9</ele>
        <time>2018-03-18T10:22:24Z</time>
      </trkpt>
      <trkpt lat="43.1488" lon="3.09906">
        <ele>160.7</ele>
        <time>2018-03-18T10:22:28Z</time>
      </trkpt>
      <trkpt lat="43.14887" lon="3.09909">
        <ele>161.9</ele>
        <time>2018-03-18T10:22:31Z</time>
      </trkpt>
      <trkpt lat="43.14894" lon="3.09914">
        <ele>163.6</ele>
        <time>2018-03-18T10:22:34Z</time>
      </trkpt>
      <trkpt lat="43.149" lon="3.09923">
        <ele>165.7</ele>
        <time>2018-03-18T10:22:38Z</time>
      </trkpt>
      <trkpt lat="43.14905" lon="3.09931">
        <ele>166.5</ele>
        <time>2018-03-18T10:22:41Z</time>
      </trkpt>
      <trkpt lat="43.14911" lon="3.09941">
        <ele>167.9</ele>
        <time>2018-03-18T10:22:45Z</time>
      </trkpt>
      <trkpt lat="43.14917" lon="3.0995">
        <ele>169</ele>
        <time>2018-03-18T10:22:49Z</time>
      </trkpt>
      <trkpt lat="43.14923" lon="3.0996">
        <ele>170.6</ele>
        <time>2018-03-18T10:22:53Z</time>
      </trkpt>
      <trkpt lat="43.14929" lon="3.09969">
        <ele>171.3</ele>
        <time>2018-03-18T10:22:57Z</time>
      </trkpt>
      <trkpt lat="43.14937" lon="3.09971">
        <ele>171.5</ele>
        <time>2018-03-18T10:23:01Z</time>
      </trkpt>
      <trkpt lat="43.14942" lon="3.09963">
        <ele>171.9</ele>
        <time>2018-03-18T10:23:06Z</time>
      </trkpt>
      <trkpt lat="43.14942" lon="3.09952">
        <ele>171.8</ele>
        <time>2018-03-18T10:23:10Z</time>
      </trkpt>
      <trkpt lat="43.14939" lon="3.09942">
        <ele>171.6</ele>
        <time>2018-03-18T10:23:14Z</time>
      </trkpt>
      <trkpt lat="43.14939" lon="3.09933">
        <ele>171.4</ele>
        <time>2018-03-18T10:23:17Z</time>
      </trkpt>
      <trkpt lat="43.14938" lon="3.0992">
        <ele>171.1</ele>
        <time>2018-03-18T10:23:21Z</time>
      </trkpt>
      <trkpt lat="43.14939" lon="3.09908">
        <ele>170.8</ele>
        <time>2018-03-18T10:23:25Z</time>
      </trkpt>
      <trkpt lat="43.14944" lon="3.099">
        <ele>171.4</ele>
        <time>2018-03-18T10:23:29Z</time>
      </trkpt>
      <trkpt lat="43.14952" lon="3.09897">
        <ele>172</ele>
        <time>2018-03-18T10:23:34Z</time>
      </trkpt>
      <trkpt lat="43.14957" lon="3.09905">
        <ele>172.8</ele>
        <time>2018-03-18T10:23:38Z</time>
      </trkpt>
      <trkpt lat="43.14959" lon="3.09915">
        <ele>173.5</ele>
        <time>2018-03-18T10:23:42Z</time>
      </trkpt>
      <trkpt lat="43.14961" lon="3.09925">
        <ele>173.7</ele>
        <time>2018-03-18T10:23:46Z</time>
      </trkpt>
      <trkpt lat="43.14965" lon="3.09935">
        <ele>174</ele>
        <time>2018-03-18T10:23:50Z</time>
      </trkpt>
      <trkpt lat="43.1497" lon="3.09943">
        <ele>174.5</ele>
        <time>2018-03-18T10:23:54Z</time>
      </trkpt>
      <trkpt lat="43.14975" lon="3.09951">
        <ele>175</ele>
        <time>2018-03-18T10:23:58Z</time>
      </trkpt>
      <trkpt lat="43.14981" lon="3.09957">
        <ele>175.8</ele>
        <time>2018-03-18T10:24:02Z</time>
      </trkpt>
      <trkpt lat="43.14987" lon="3.09963">
        <ele>176.6</ele>
        <time>2018-03-18T10:24:07Z</time>
      </trkpt>
      <trkpt lat="43.14994" lon="3.09969">
        <ele>177.3</ele>
        <time>2018-03-18T10:24:12Z</time>
      </trkpt>
      <trkpt lat="43.15" lon="3.09975">
        <ele>177.7</ele>
        <time>2018-03-18T10:24:16Z</time>
      </trkpt>
      <trkpt lat="43.15007" lon="3.09979">
        <ele>177.8</ele>
        <time>2018-03-18T10:24:19Z</time>
      </trkpt>
      <trkpt lat="43.15015" lon="3.09987">
        <ele>177.8</ele>
        <time>2018-03-18T10:24:23Z</time>
      </trkpt>
      <trkpt lat="43.15021" lon="3.09993">
        <ele>178</ele>
        <time>2018-03-18T10:24:26Z</time>
      </trkpt>
      <trkpt lat="43.15026" lon="3.10001">
        <ele>178.1</ele>
        <time>2018-03-18T10:24:29Z</time>
      </trkpt>
      <trkpt lat="43.1503" lon="3.10008">
        <ele>178.1</ele>
        <time>2018-03-18T10:24:32Z</time>
      </trkpt>
      <trkpt lat="43.15035" lon="3.10017">
        <ele>178</ele>
        <time>2018-03-18T10:24:37Z</time>
      </trkpt>
      <trkpt lat="43.15042" lon="3.10023">
        <ele>178.2</ele>
        <time>2018-03-18T10:24:42Z</time>
      </trkpt>
      <trkpt lat="43.15048" lon="3.1003">
        <ele>178.8</ele>
        <time>2018-03-18T10:24:48Z</time>
      </trkpt>
      <trkpt lat="43.15054" lon="3.10035">
        <ele>179.1</ele>
        <time>2018-03-18T10:24:53Z</time>
      </trkpt>
      <trkpt lat="43.15061" lon="3.1004">
        <ele>179.3</ele>
        <time>2018-03-18T10:24:57Z</time>
      </trkpt>
      <trkpt lat="43.15068" lon="3.10046">
        <ele>179</ele>
        <time>2018-03-18T10:25:01Z</time>
      </trkpt>
      <trkpt lat="43.15073" lon="3.10049">
        <ele>178.9</ele>
        <time>2018-03-18T10:25:08Z</time>
      </trkpt>
      <trkpt lat="43.1508" lon="3.10059">
        <ele>179.1</ele>
        <time>2018-03-18T10:25:16Z</time>
      </trkpt>
      <trkpt lat="43.15085" lon="3.10066">
        <ele>179.4</ele>
        <time>2018-03-18T10:25:18Z</time>
      </trkpt>
      <trkpt lat="43.15091" lon="3.10077">
        <ele>179.2</ele>
        <time>2018-03-18T10:25:20Z</time>
      </trkpt>
      <trkpt lat="43.15098" lon="3.10089">
        <ele>178.2</ele>
        <time>2018-03-18T10:25:22Z</time>
      </trkpt>
      <trkpt lat="43.15105" lon="3.10101">
        <ele>177.8</ele>
        <time>2018-03-18T10:25:24Z</time>
      </trkpt>
      <trkpt lat="43.15113" lon="3.10113">
        <ele>177.4</ele>
        <time>2018-03-18T10:25:26Z</time>
      </trkpt>
      <trkpt lat="43.15117" lon="3.10128">
        <ele>177.5</ele>
        <time>2018-03-18T10:25:28Z</time>
      </trkpt>
      <trkpt lat="43.15114" lon="3.1014">
        <ele>178.3</ele>
        <time>2018-03-18T10:25:30Z</time>
      </trkpt>
      <trkpt lat="43.15109" lon="3.10149">
        <ele>179.1</ele>
        <time>2018-03-18T10:25:32Z</time>
      </trkpt>
      <trkpt lat="43.15104" lon="3.10157">
        <ele>179.5</ele>
        <time>2018-03-18T10:25:35Z</time>
      </trkpt>
      <trkpt lat="43.15097" lon="3.10164">
        <ele>180.1</ele>
        <time>2018-03-18T10:25:38Z</time>
      </trkpt>
      <trkpt lat="43.15088" lon="3.10168">
        <ele>180.6</ele>
        <time>2018-03-18T10:25:41Z</time>
      </trkpt>
      <trkpt lat="43.15079" lon="3.10171">
        <ele>181.3</ele>
        <time>2018-03-18T10:25:44Z</time>
      </trkpt>
      <trkpt lat="43.1507" lon="3.10173">
        <ele>182.4</ele>
        <time>2018-03-18T10:25:47Z</time>
      </trkpt>
      <trkpt lat="43.15061" lon="3.10176">
        <ele>183.1</ele>
        <time>2018-03-18T10:25:50Z</time>
      </trkpt>
      <trkpt lat="43.15056" lon="3.10186">
        <ele>183.8</ele>
        <time>2018-03-18T10:25:54Z</time>
      </trkpt>
      <trkpt lat="43.15057" lon="3.10197">
        <ele>184.3</ele>
        <time>2018-03-18T10:25:59Z</time>
      </trkpt>
      <trkpt lat="43.15064" lon="3.10205">
        <ele>184.5</ele>
        <time>2018-03-18T10:26:04Z</time>
      </trkpt>
      <trkpt lat="43.15071" lon="3.10208">
        <ele>184.9</ele>
        <time>2018-03-18T10:26:07Z</time>
      </trkpt>
      <trkpt lat="43.15079" lon="3.10213">
        <ele>185.5</ele>
        <time>2018-03-18T10:26:11Z</time>
      </trkpt>
      <trkpt lat="43.15086" lon="3.10214">
        <ele>186.3</ele>
        <time>2018-03-18T10:26:15Z</time>
      </trkpt>
      <trkpt lat="43.15093" lon="3.10218">
        <ele>187.3</ele>
        <time>2018-03-18T10:26:19Z</time>
      </trkpt>
      <trkpt lat="43.15099" lon="3.10221">
        <ele>187.6</ele>
        <time>2018-03-18T10:26:23Z</time>
      </trkpt>
      <trkpt lat="43.15108" lon="3.10226">
        <ele>187.7</ele>
        <time>2018-03-18T10:26:28Z</time>
      </trkpt>
      <trkpt lat="43.15115" lon="3.1023">
        <ele>187.6</ele>
        <time>2018-03-18T10:26:33Z</time>
      </trkpt>
      <trkpt lat="43.15123" lon="3.10235">
        <ele>187.5</ele>
        <time>2018-03-18T10:26:38Z</time>
      </trkpt>
      <trkpt lat="43.15129" lon="3.1024">
        <ele>188.1</ele>
        <time>2018-03-18T10:26:43Z</time>
      </trkpt>
      <trkpt lat="43.15138" lon="3.10246">
        <ele>188.6</ele>
        <time>2018-03-18T10:26:48Z</time>
      </trkpt>
      <trkpt lat="43.15144" lon="3.10252">
        <ele>189</ele>
        <time>2018-03-18T10:26:52Z</time>
      </trkpt>
      <trkpt lat="43.1515" lon="3.10259">
        <ele>189.9</ele>
        <time>2018-03-18T10:26:56Z</time>
      </trkpt>
      <trkpt lat="43.15155" lon="3.10267">
        <ele>190.3</ele>
        <time>2018-03-18T10:27:00Z</time>
      </trkpt>
      <trkpt lat="43.1516" lon="3.10275">
        <ele>190.8</ele>
        <time>2018-03-18T10:27:04Z</time>
      </trkpt>
      <trkpt lat="43.15164" lon="3.10282">
        <ele>191.3</ele>
        <time>2018-03-18T10:27:08Z</time>
      </trkpt>
      <trkpt lat="43.15169" lon="3.10293">
        <ele>192.3</ele>
        <time>2018-03-18T10:27:13Z</time>
      </trkpt>
      <trkpt lat="43.15172" lon="3.10302">
        <ele>192.8</ele>
        <time>2018-03-18T10:27:17Z</time>
      </trkpt>
      <trkpt lat="43.15176" lon="3.10311">
        <ele>193.4</ele>
        <time>2018-03-18T10:27:21Z</time>
      </trkpt>
      <trkpt lat="43.15181" lon="3.10321">
        <ele>194</ele>
        <time>2018-03-18T10:27:25Z</time>
      </trkpt>
      <trkpt lat="43.15186" lon="3.1033">
        <ele>194.4</ele>
        <time>2018-03-18T10:27:30Z</time>
      </trkpt>
      <trkpt lat="43.15193" lon="3.10338">
        <ele>194.7</ele>
        <time>2018-03-18T10:27:35Z</time>
      </trkpt>
      <trkpt lat="43.15198" lon="3.10346">
        <ele>195.2</ele>
        <time>2018-03-18T10:27:39Z</time>
      </trkpt>
      <trkpt lat="43.15204" lon="3.10354">
        <ele>195.2</ele>
        <time>2018-03-18T10:27:43Z</time>
      </trkpt>
      <trkpt lat="43.15208" lon="3.10365">
        <ele>194.7</ele>
        <time>2018-03-18T10:27:47Z</time>
      </trkpt>
      <trkpt lat="43.15202" lon="3.10374">
        <ele>194.4</ele>
        <time>2018-03-18T10:27:51Z</time>
      </trkpt>
      <trkpt lat="43.15194" lon="3.10375">
        <ele>194.4</ele>
        <time>2018-03-18T10:27:54Z</time>
      </trkpt>
      <trkpt lat="43.15186" lon="3.10373">
        <ele>194.4</ele>
        <time>2018-03-18T10:27:57Z</time>
      </trkpt>
      <trkpt lat="43.15176" lon="3.1037">
        <ele>194.7</ele>
        <time>2018-03-18T10:28:00Z</time>
      </trkpt>
      <trkpt lat="43.15169" lon="3.10368">
        <ele>194.4</ele>
        <time>2018-03-18T10:28:02Z</time>
      </trkpt>
      <trkpt lat="43.15159" lon="3.10369">
        <ele>194.3</ele>
        <time>2018-03-18T10:28:05Z</time>
      </trkpt>
      <trkpt lat="43.15151" lon="3.1037">
        <ele>194.3</ele>
        <time>2018-03-18T10:28:07Z</time>
      </trkpt>
      <trkpt lat="43.15144" lon="3.10371">
        <ele>194.3</ele>
        <time>2018-03-18T10:28:09Z</time>
      </trkpt>
      <trkpt lat="43.15134" lon="3.10372">
        <ele>194.1</ele>
        <time>2018-03-18T10:28:12Z</time>
      </trkpt>
      <trkpt lat="43.15125" lon="3.10374">
        <ele>194.1</ele>
        <time>2018-03-18T10:28:14Z</time>
      </trkpt>
      <trkpt lat="43.15116" lon="3.10376">
        <ele>194.1</ele>
        <time>2018-03-18T10:28:16Z</time>
      </trkpt>
      <trkpt lat="43.15108" lon="3.10377">
        <ele>194.2</ele>
        <time>2018-03-18T10:28:18Z</time>
      </trkpt>
      <trkpt lat="43.15099" lon="3.10381">
        <ele>194.6</ele>
        <time>2018-03-18T10:28:20Z</time>
      </trkpt>
      <trkpt lat="43.15093" lon="3.10383">
        <ele>194.8</ele>
        <time>2018-03-18T10:28:22Z</time>
      </trkpt>
      <trkpt lat="43.15083" lon="3.1039">
        <ele>195</ele>
        <time>2018-03-18T10:28:25Z</time>
      </trkpt>
      <trkpt lat="43.15076" lon="3.10394">
        <ele>194.9</ele>
        <time>2018-03-18T10:28:27Z</time>
      </trkpt>
      <trkpt lat="43.15067" lon="3.10399">
        <ele>194.9</ele>
        <time>2018-03-18T10:28:29Z</time>
      </trkpt>
      <trkpt lat="43.15057" lon="3.10402">
        <ele>194.8</ele>
        <time>2018-03-18T10:28:31Z</time>
      </trkpt>
      <trkpt lat="43.15047" lon="3.10402">
        <ele>194.5</ele>
        <time>2018-03-18T10:28:33Z</time>
      </trkpt>
      <trkpt lat="43.15037" lon="3.104">
        <ele>194.5</ele>
        <time>2018-03-18T10:28:35Z</time>
      </trkpt>
      <trkpt lat="43.15027" lon="3.10399">
        <ele>194.5</ele>
        <time>2018-03-18T10:28:37Z</time>
      </trkpt>
      <trkpt lat="43.15018" lon="3.10396">
        <ele>194.5</ele>
        <time>2018-03-18T10:28:39Z</time>
      </trkpt>
      <trkpt lat="43.15008" lon="3.10391">
        <ele>194.6</ele>
        <time>2018-03-18T10:28:41Z</time>
      </trkpt>
      <trkpt lat="43.15" lon="3.10386">
        <ele>194.6</ele>
        <time>2018-03-18T10:28:43Z</time>
      </trkpt>
      <trkpt lat="43.14991" lon="3.10381">
        <ele>194.4</ele>
        <time>2018-03-18T10:28:45Z</time>
      </trkpt>
      <trkpt lat="43.14982" lon="3.10377">
        <ele>193.8</ele>
        <time>2018-03-18T10:28:47Z</time>
      </trkpt>
      <trkpt lat="43.14973" lon="3.10373">
        <ele>193.5</ele>
        <time>2018-03-18T10:28:49Z</time>
      </trkpt>
      <trkpt lat="43.14965" lon="3.10367">
        <ele>192.9</ele>
        <time>2018-03-18T10:28:51Z</time>
      </trkpt>
      <trkpt lat="43.14956" lon="3.10362">
        <ele>192.4</ele>
        <time>2018-03-18T10:28:53Z</time>
      </trkpt>
      <trkpt lat="43.14946" lon="3.10359">
        <ele>191.8</ele>
        <time>2018-03-18T10:28:55Z</time>
      </trkpt>
      <trkpt lat="43.14936" lon="3.10363">
        <ele>191.2</ele>
        <time>2018-03-18T10:28:57Z</time>
      </trkpt>
      <trkpt lat="43.14928" lon="3.10373">
        <ele>190.5</ele>
        <time>2018-03-18T10:28:59Z</time>
      </trkpt>
      <trkpt lat="43.14924" lon="3.10385">
        <ele>189.8</ele>
        <time>2018-03-18T10:29:01Z</time>
      </trkpt>
      <trkpt lat="43.14924" lon="3.10397">
        <ele>189.6</ele>
        <time>2018-03-18T10:29:03Z</time>
      </trkpt>
      <trkpt lat="43.14927" lon="3.10408">
        <ele>189.4</ele>
        <time>2018-03-18T10:29:05Z</time>
      </trkpt>
      <trkpt lat="43.14931" lon="3.10418">
        <ele>189.3</ele>
        <time>2018-03-18T10:29:07Z</time>
      </trkpt>
      <trkpt lat="43.14936" lon="3.10427">
        <ele>189.6</ele>
        <time>2018-03-18T10:29:09Z</time>
      </trkpt>
      <trkpt lat="43.14942" lon="3.10435">
        <ele>190.2</ele>
        <time>2018-03-18T10:29:11Z</time>
      </trkpt>
      <trkpt lat="43.14949" lon="3.10442">
        <ele>190.5</ele>
        <time>2018-03-18T10:29:13Z</time>
      </trkpt>
      <trkpt lat="43.14956" lon="3.1045">
        <ele>190.9</ele>
        <time>2018-03-18T10:29:15Z</time>
      </trkpt>
      <trkpt lat="43.14963" lon="3.10457">
        <ele>191.3</ele>
        <time>2018-03-18T10:29:17Z</time>
      </trkpt>
      <trkpt lat="43.14969" lon="3.10464">
        <ele>191.4</ele>
        <time>2018-03-18T10:29:19Z</time>
      </trkpt>
      <trkpt lat="43.14976" lon="3.1047">
        <ele>191.6</ele>
        <time>2018-03-18T10:29:21Z</time>
      </trkpt>
      <trkpt lat="43.14982" lon="3.10476">
        <ele>191.8</ele>
        <time>2018-03-18T10:29:23Z</time>
      </trkpt>
      <trkpt lat="43.1499" lon="3.10484">
        <ele>192</ele>
        <time>2018-03-18T10:29:26Z</time>
      </trkpt>
      <trkpt lat="43.14996" lon="3.1049">
        <ele>191.9</ele>
        <time>2018-03-18T10:29:28Z</time>
      </trkpt>
      <trkpt lat="43.15002" lon="3.10497">
        <ele>191.8</ele>
        <time>2018-03-18T10:29:30Z</time>
      </trkpt>
      <trkpt lat="43.15008" lon="3.10503">
        <ele>191.6</ele>
        <time>2018-03-18T10:29:32Z</time>
      </trkpt>
      <trkpt lat="43.15015" lon="3.10514">
        <ele>191.5</ele>
        <time>2018-03-18T10:29:35Z</time>
      </trkpt>
      <trkpt lat="43.1502" lon="3.10525">
        <ele>191.4</ele>
        <time>2018-03-18T10:29:38Z</time>
      </trkpt>
      <trkpt lat="43.15026" lon="3.10534">
        <ele>191.7</ele>
        <time>2018-03-18T10:29:41Z</time>
      </trkpt>
      <trkpt lat="43.15032" lon="3.10543">
        <ele>192.5</ele>
        <time>2018-03-18T10:29:44Z</time>
      </trkpt>
      <trkpt lat="43.15037" lon="3.1055">
        <ele>193.8</ele>
        <time>2018-03-18T10:29:47Z</time>
      </trkpt>
      <trkpt lat="43.15043" lon="3.10559">
        <ele>195.5</ele>
        <time>2018-03-18T10:29:51Z</time>
      </trkpt>
      <trkpt lat="43.1505" lon="3.10562">
        <ele>197</ele>
        <time>2018-03-18T10:29:56Z</time>
      </trkpt>
      <trkpt lat="43.15059" lon="3.10561">
        <ele>196.5</ele>
        <time>2018-03-18T10:30:00Z</time>
      </trkpt>
      <trkpt lat="43.15068" lon="3.10558">
        <ele>195.9</ele>
        <time>2018-03-18T10:30:04Z</time>
      </trkpt>
      <trkpt lat="43.15075" lon="3.10556">
        <ele>195.4</ele>
        <time>2018-03-18T10:30:08Z</time>
      </trkpt>
      <trkpt lat="43.15083" lon="3.10552">
        <ele>195.6</ele>
        <time>2018-03-18T10:30:12Z</time>
      </trkpt>
      <trkpt lat="43.1509" lon="3.10548">
        <ele>197</ele>
        <time>2018-03-18T10:30:16Z</time>
      </trkpt>
      <trkpt lat="43.15097" lon="3.10546">
        <ele>198.2</ele>
        <time>2018-03-18T10:30:20Z</time>
      </trkpt>
      <trkpt lat="43.15104" lon="3.10542">
        <ele>197.4</ele>
        <time>2018-03-18T10:30:26Z</time>
      </trkpt>
      <trkpt lat="43.15108" lon="3.10533">
        <ele>197.5</ele>
        <time>2018-03-18T10:30:30Z</time>
      </trkpt>
      <trkpt lat="43.15115" lon="3.10527">
        <ele>197.2</ele>
        <time>2018-03-18T10:30:34Z</time>
      </trkpt>
      <trkpt lat="43.15124" lon="3.10525">
        <ele>196.6</ele>
        <time>2018-03-18T10:30:36Z</time>
      </trkpt>
      <trkpt lat="43.15131" lon="3.10519">
        <ele>196</ele>
        <time>2018-03-18T10:30:39Z</time>
      </trkpt>
      <trkpt lat="43.15138" lon="3.10514">
        <ele>196.1</ele>
        <time>2018-03-18T10:30:43Z</time>
      </trkpt>
      <trkpt lat="43.15144" lon="3.10508">
        <ele>196.2</ele>
        <time>2018-03-18T10:30:46Z</time>
      </trkpt>
      <trkpt lat="43.15152" lon="3.10502">
        <ele>195.4</ele>
        <time>2018-03-18T10:30:50Z</time>
      </trkpt>
      <trkpt lat="43.1516" lon="3.10495">
        <ele>195.7</ele>
        <time>2018-03-18T10:30:55Z</time>
      </trkpt>
      <trkpt lat="43.15167" lon="3.1049">
        <ele>196.2</ele>
        <time>2018-03-18T10:31:00Z</time>
      </trkpt>
      <trkpt lat="43.15175" lon="3.10483">
        <ele>197.9</ele>
        <time>2018-03-18T10:31:05Z</time>
      </trkpt>
      <trkpt lat="43.15184" lon="3.1048">
        <ele>198.7</ele>
        <time>2018-03-18T10:31:09Z</time>
      </trkpt>
      <trkpt lat="43.15191" lon="3.10479">
        <ele>199.2</ele>
        <time>2018-03-18T10:31:13Z</time>
      </trkpt>
      <trkpt lat="43.15199" lon="3.10478">
        <ele>200.1</ele>
        <time>2018-03-18T10:31:18Z</time>
      </trkpt>
      <trkpt lat="43.15206" lon="3.10474">
        <ele>200.1</ele>
        <time>2018-03-18T10:31:21Z</time>
      </trkpt>
      <trkpt lat="43.15214" lon="3.10468">
        <ele>200.3</ele>
        <time>2018-03-18T10:31:25Z</time>
      </trkpt>
      <trkpt lat="43.1522" lon="3.10461">
        <ele>200.3</ele>
        <time>2018-03-18T10:31:28Z</time>
      </trkpt>
      <trkpt lat="43.15229" lon="3.10457">
        <ele>200.4</ele>
        <time>2018-03-18T10:31:31Z</time>
      </trkpt>
      <trkpt lat="43.15236" lon="3.10457">
        <ele>200.6</ele>
        <time>2018-03-18T10:31:34Z</time>
      </trkpt>
      <trkpt lat="43.15244" lon="3.10453">
        <ele>200.3</ele>
        <time>2018-03-18T10:31:38Z</time>
      </trkpt>
      <trkpt lat="43.15252" lon="3.10446">
        <ele>200.3</ele>
        <time>2018-03-18T10:31:41Z</time>
      </trkpt>
      <trkpt lat="43.15261" lon="3.10446">
        <ele>200.6</ele>
        <time>2018-03-18T10:31:45Z</time>
      </trkpt>
      <trkpt lat="43.15267" lon="3.10452">
        <ele>201.5</ele>
        <time>2018-03-18T10:31:48Z</time>
      </trkpt>
      <trkpt lat="43.15276" lon="3.10454">
        <ele>201.8</ele>
        <time>2018-03-18T10:31:51Z</time>
      </trkpt>
      <trkpt lat="43.15284" lon="3.10453">
        <ele>203.2</ele>
        <time>2018-03-18T10:31:54Z</time>
      </trkpt>
      <trkpt lat="43.15293" lon="3.1045">
        <ele>204.2</ele>
        <time>2018-03-18T10:31:58Z</time>
      </trkpt>
      <trkpt lat="43.15302" lon="3.10452">
        <ele>204.8</ele>
        <time>2018-03-18T10:32:02Z</time>
      </trkpt>
      <trkpt lat="43.15309" lon="3.10454">
        <ele>205</ele>
        <time>2018-03-18T10:32:05Z</time>
      </trkpt>
      <trkpt lat="43.15316" lon="3.10461">
        <ele>205.9</ele>
        <time>2018-03-18T10:32:08Z</time>
      </trkpt>
      <trkpt lat="43.15323" lon="3.10466">
        <ele>205.9</ele>
        <time>2018-03-18T10:32:11Z</time>
      </trkpt>
      <trkpt lat="43.15331" lon="3.10464">
        <ele>206.9</ele>
        <time>2018-03-18T10:32:14Z</time>
      </trkpt>
      <trkpt lat="43.15337" lon="3.10459">
        <ele>207.2</ele>
        <time>2018-03-18T10:32:17Z</time>
      </trkpt>
      <trkpt lat="43.15343" lon="3.10464">
        <ele>208.5</ele>
        <time>2018-03-18T10:32:21Z</time>
      </trkpt>
      <trkpt lat="43.1535" lon="3.10471">
        <ele>209.4</ele>
        <time>2018-03-18T10:32:24Z</time>
      </trkpt>
      <trkpt lat="43.15356" lon="3.10475">
        <ele>210.6</ele>
        <time>2018-03-18T10:32:27Z</time>
      </trkpt>
      <trkpt lat="43.15364" lon="3.10481">
        <ele>211.9</ele>
        <time>2018-03-18T10:32:31Z</time>
      </trkpt>
      <trkpt lat="43.15374" lon="3.10485">
        <ele>212.9</ele>
        <time>2018-03-18T10:32:35Z</time>
      </trkpt>
      <trkpt lat="43.15381" lon="3.10488">
        <ele>213.4</ele>
        <time>2018-03-18T10:32:38Z</time>
      </trkpt>
      <trkpt lat="43.15386" lon="3.10494">
        <ele>214.2</ele>
        <time>2018-03-18T10:32:41Z</time>
      </trkpt>
      <trkpt lat="43.15395" lon="3.105">
        <ele>215</ele>
        <time>2018-03-18T10:32:45Z</time>
      </trkpt>
      <trkpt lat="43.154" lon="3.1051">
        <ele>215.4</ele>
        <time>2018-03-18T10:32:49Z</time>
      </trkpt>
      <trkpt lat="43.15404" lon="3.10518">
        <ele>215.3</ele>
        <time>2018-03-18T10:32:52Z</time>
      </trkpt>
      <trkpt lat="43.15408" lon="3.10526">
        <ele>215.4</ele>
        <time>2018-03-18T10:32:55Z</time>
      </trkpt>
      <trkpt lat="43.15413" lon="3.10535">
        <ele>214.9</ele>
        <time>2018-03-18T10:32:59Z</time>
      </trkpt>
      <trkpt lat="43.15417" lon="3.10543">
        <ele>214</ele>
        <time>2018-03-18T10:33:02Z</time>
      </trkpt>
      <trkpt lat="43.15422" lon="3.10551">
        <ele>213.5</ele>
        <time>2018-03-18T10:33:05Z</time>
      </trkpt>
      <trkpt lat="43.1543" lon="3.1056">
        <ele>212.9</ele>
        <time>2018-03-18T10:33:09Z</time>
      </trkpt>
      <trkpt lat="43.15437" lon="3.10569">
        <ele>212.2</ele>
        <time>2018-03-18T10:33:12Z</time>
      </trkpt>
      <trkpt lat="43.15444" lon="3.10579">
        <ele>211.7</ele>
        <time>2018-03-18T10:33:15Z</time>
      </trkpt>
      <trkpt lat="43.15449" lon="3.10588">
        <ele>211.3</ele>
        <time>2018-03-18T10:33:18Z</time>
      </trkpt>
      <trkpt lat="43.15454" lon="3.10596">
        <ele>210.8</ele>
        <time>2018-03-18T10:33:21Z</time>
      </trkpt>
      <trkpt lat="43.15458" lon="3.10606">
        <ele>210.2</ele>
        <time>2018-03-18T10:33:24Z</time>
      </trkpt>
      <trkpt lat="43.1546" lon="3.10616">
        <ele>209.2</ele>
        <time>2018-03-18T10:33:29Z</time>
      </trkpt>
      <trkpt lat="43.15464" lon="3.10621">
        <ele>207.6</ele>
        <time>2018-03-18T10:33:46Z</time>
      </trkpt>
      <trkpt lat="43.15466" lon="3.10632">
        <ele>205.3</ele>
        <time>2018-03-18T10:34:29Z</time>
      </trkpt>
      <trkpt lat="43.1547" lon="3.10643">
        <ele>204.1</ele>
        <time>2018-03-18T10:34:34Z</time>
      </trkpt>
      <trkpt lat="43.15472" lon="3.10654">
        <ele>203.7</ele>
        <time>2018-03-18T10:34:37Z</time>
      </trkpt>
      <trkpt lat="43.15475" lon="3.10663">
        <ele>203.1</ele>
        <time>2018-03-18T10:34:40Z</time>
      </trkpt>
      <trkpt lat="43.15481" lon="3.10672">
        <ele>201.9</ele>
        <time>2018-03-18T10:34:44Z</time>
      </trkpt>
      <trkpt lat="43.15485" lon="3.10682">
        <ele>200.4</ele>
        <time>2018-03-18T10:34:49Z</time>
      </trkpt>
      <trkpt lat="43.15488" lon="3.10692">
        <ele>198.7</ele>
        <time>2018-03-18T10:34:52Z</time>
      </trkpt>
      <trkpt lat="43.15491" lon="3.10701">
        <ele>197.4</ele>
        <time>2018-03-18T10:34:56Z</time>
      </trkpt>
      <trkpt lat="43.15498" lon="3.10708">
        <ele>196</ele>
        <time>2018-03-18T10:35:01Z</time>
      </trkpt>
      <trkpt lat="43.15505" lon="3.10704">
        <ele>193.7</ele>
        <time>2018-03-18T10:35:05Z</time>
      </trkpt>
      <trkpt lat="43.15509" lon="3.10696">
        <ele>192.3</ele>
        <time>2018-03-18T10:35:08Z</time>
      </trkpt>
      <trkpt lat="43.15513" lon="3.10687">
        <ele>190.7</ele>
        <time>2018-03-18T10:35:11Z</time>
      </trkpt>
      <trkpt lat="43.15518" lon="3.10676">
        <ele>188.8</ele>
        <time>2018-03-18T10:35:14Z</time>
      </trkpt>
      <trkpt lat="43.15523" lon="3.10664">
        <ele>187</ele>
        <time>2018-03-18T10:35:17Z</time>
      </trkpt>
      <trkpt lat="43.15524" lon="3.10651">
        <ele>185.1</ele>
        <time>2018-03-18T10:35:20Z</time>
      </trkpt>
      <trkpt lat="43.15525" lon="3.10641">
        <ele>182.6</ele>
        <time>2018-03-18T10:35:24Z</time>
      </trkpt>
      <trkpt lat="43.15529" lon="3.10631">
        <ele>180.4</ele>
        <time>2018-03-18T10:35:27Z</time>
      </trkpt>
      <trkpt lat="43.1553" lon="3.10621">
        <ele>178.4</ele>
        <time>2018-03-18T10:35:30Z</time>
      </trkpt>
      <trkpt lat="43.15535" lon="3.10611">
        <ele>177.1</ele>
        <time>2018-03-18T10:35:32Z</time>
      </trkpt>
      <trkpt lat="43.15542" lon="3.10607">
        <ele>176</ele>
        <time>2018-03-18T10:35:34Z</time>
      </trkpt>
      <trkpt lat="43.1555" lon="3.10602">
        <ele>175.2</ele>
        <time>2018-03-18T10:35:37Z</time>
      </trkpt>
      <trkpt lat="43.15558" lon="3.106">
        <ele>174.4</ele>
        <time>2018-03-18T10:35:41Z</time>
      </trkpt>
      <trkpt lat="43.15566" lon="3.10607">
        <ele>174.4</ele>
        <time>2018-03-18T10:35:44Z</time>
      </trkpt>
      <trkpt lat="43.15568" lon="3.10616">
        <ele>174.2</ele>
        <time>2018-03-18T10:35:51Z</time>
      </trkpt>
      <trkpt lat="43.15561" lon="3.10637">
        <ele>176</ele>
        <time>2018-03-18T10:37:15Z</time>
      </trkpt>
      <trkpt lat="43.15559" lon="3.10649">
        <ele>175.7</ele>
        <time>2018-03-18T10:37:18Z</time>
      </trkpt>
      <trkpt lat="43.15559" lon="3.10661">
        <ele>175.6</ele>
        <time>2018-03-18T10:37:20Z</time>
      </trkpt>
      <trkpt lat="43.15561" lon="3.10674">
        <ele>175.3</ele>
        <time>2018-03-18T10:37:22Z</time>
      </trkpt>
      <trkpt lat="43.15564" lon="3.10688">
        <ele>174.9</ele>
        <time>2018-03-18T10:37:24Z</time>
      </trkpt>
      <trkpt lat="43.15567" lon="3.10704">
        <ele>174.6</ele>
        <time>2018-03-18T10:37:26Z</time>
      </trkpt>
      <trkpt lat="43.15571" lon="3.10719">
        <ele>174.3</ele>
        <time>2018-03-18T10:37:28Z</time>
      </trkpt>
      <trkpt lat="43.15575" lon="3.1073">
        <ele>174.1</ele>
        <time>2018-03-18T10:37:30Z</time>
      </trkpt>
      <trkpt lat="43.15578" lon="3.10745">
        <ele>173.6</ele>
        <time>2018-03-18T10:37:33Z</time>
      </trkpt>
      <trkpt lat="43.15581" lon="3.10756">
        <ele>173.2</ele>
        <time>2018-03-18T10:37:35Z</time>
      </trkpt>
      <trkpt lat="43.15584" lon="3.10768">
        <ele>172.7</ele>
        <time>2018-03-18T10:37:37Z</time>
      </trkpt>
      <trkpt lat="43.15588" lon="3.1078">
        <ele>172</ele>
        <time>2018-03-18T10:37:39Z</time>
      </trkpt>
      <trkpt lat="43.15591" lon="3.10791">
        <ele>171.5</ele>
        <time>2018-03-18T10:37:41Z</time>
      </trkpt>
      <trkpt lat="43.15594" lon="3.10804">
        <ele>170.9</ele>
        <time>2018-03-18T10:37:43Z</time>
      </trkpt>
      <trkpt lat="43.15596" lon="3.10816">
        <ele>170.3</ele>
        <time>2018-03-18T10:37:45Z</time>
      </trkpt>
      <trkpt lat="43.15596" lon="3.10831">
        <ele>169.5</ele>
        <time>2018-03-18T10:37:47Z</time>
      </trkpt>
      <trkpt lat="43.15596" lon="3.10849">
        <ele>168.9</ele>
        <time>2018-03-18T10:37:49Z</time>
      </trkpt>
      <trkpt lat="43.15595" lon="3.10864">
        <ele>168.4</ele>
        <time>2018-03-18T10:37:51Z</time>
      </trkpt>
      <trkpt lat="43.15592" lon="3.10876">
        <ele>167.6</ele>
        <time>2018-03-18T10:37:54Z</time>
      </trkpt>
      <trkpt lat="43.15584" lon="3.10885">
        <ele>166.8</ele>
        <time>2018-03-18T10:37:55Z</time>
      </trkpt>
      <trkpt lat="43.1558" lon="3.10896">
        <ele>165.6</ele>
        <time>2018-03-18T10:37:57Z</time>
      </trkpt>
      <trkpt lat="43.15574" lon="3.10908">
        <ele>164.4</ele>
        <time>2018-03-18T10:37:59Z</time>
      </trkpt>
      <trkpt lat="43.15568" lon="3.10917">
        <ele>163.1</ele>
        <time>2018-03-18T10:38:01Z</time>
      </trkpt>
      <trkpt lat="43.15561" lon="3.10921">
        <ele>161.9</ele>
        <time>2018-03-18T10:38:03Z</time>
      </trkpt>
      <trkpt lat="43.15554" lon="3.10921">
        <ele>160.4</ele>
        <time>2018-03-18T10:38:05Z</time>
      </trkpt>
      <trkpt lat="43.15547" lon="3.10919">
        <ele>159.3</ele>
        <time>2018-03-18T10:38:07Z</time>
      </trkpt>
      <trkpt lat="43.15537" lon="3.10913">
        <ele>158.1</ele>
        <time>2018-03-18T10:38:09Z</time>
      </trkpt>
      <trkpt lat="43.15527" lon="3.10909">
        <ele>156.8</ele>
        <time>2018-03-18T10:38:11Z</time>
      </trkpt>
      <trkpt lat="43.15518" lon="3.10901">
        <ele>155.5</ele>
        <time>2018-03-18T10:38:13Z</time>
      </trkpt>
      <trkpt lat="43.15509" lon="3.10892">
        <ele>154.2</ele>
        <time>2018-03-18T10:38:15Z</time>
      </trkpt>
      <trkpt lat="43.155" lon="3.10883">
        <ele>153</ele>
        <time>2018-03-18T10:38:17Z</time>
      </trkpt>
      <trkpt lat="43.15489" lon="3.10876">
        <ele>151.9</ele>
        <time>2018-03-18T10:38:19Z</time>
      </trkpt>
      <trkpt lat="43.15478" lon="3.10872">
        <ele>150.9</ele>
        <time>2018-03-18T10:38:21Z</time>
      </trkpt>
      <trkpt lat="43.15467" lon="3.10867">
        <ele>149.4</ele>
        <time>2018-03-18T10:38:23Z</time>
      </trkpt>
      <trkpt lat="43.15455" lon="3.10858">
        <ele>148.2</ele>
        <time>2018-03-18T10:38:25Z</time>
      </trkpt>
      <trkpt lat="43.15445" lon="3.10851">
        <ele>146.9</ele>
        <time>2018-03-18T10:38:27Z</time>
      </trkpt>
      <trkpt lat="43.15435" lon="3.10844">
        <ele>145.7</ele>
        <time>2018-03-18T10:38:29Z</time>
      </trkpt>
      <trkpt lat="43.15426" lon="3.1084">
        <ele>144.3</ele>
        <time>2018-03-18T10:38:31Z</time>
      </trkpt>
      <trkpt lat="43.15417" lon="3.1084">
        <ele>143.2</ele>
        <time>2018-03-18T10:38:33Z</time>
      </trkpt>
      <trkpt lat="43.15407" lon="3.10839">
        <ele>141.9</ele>
        <time>2018-03-18T10:38:35Z</time>
      </trkpt>
      <trkpt lat="43.15396" lon="3.10844">
        <ele>141.1</ele>
        <time>2018-03-18T10:38:37Z</time>
      </trkpt>
      <trkpt lat="43.15385" lon="3.1085">
        <ele>140.1</ele>
        <time>2018-03-18T10:38:39Z</time>
      </trkpt>
      <trkpt lat="43.15379" lon="3.10859">
        <ele>138.5</ele>
        <time>2018-03-18T10:38:41Z</time>
      </trkpt>
      <trkpt lat="43.15371" lon="3.10874">
        <ele>136.6</ele>
        <time>2018-03-18T10:38:43Z</time>
      </trkpt>
      <trkpt lat="43.15367" lon="3.10882">
        <ele>135.7</ele>
        <time>2018-03-18T10:38:44Z</time>
      </trkpt>
      <trkpt lat="43.15362" lon="3.10891">
        <ele>134.7</ele>
        <time>2018-03-18T10:38:45Z</time>
      </trkpt>
      <trkpt lat="43.15358" lon="3.10899">
        <ele>133.9</ele>
        <time>2018-03-18T10:38:46Z</time>
      </trkpt>
      <trkpt lat="43.15354" lon="3.10907">
        <ele>132.9</ele>
        <time>2018-03-18T10:38:47Z</time>
      </trkpt>
      <trkpt lat="43.15346" lon="3.10924">
        <ele>131.2</ele>
        <time>2018-03-18T10:38:49Z</time>
      </trkpt>
      <trkpt lat="43.15341" lon="3.10934">
        <ele>130.1</ele>
        <time>2018-03-18T10:38:50Z</time>
      </trkpt>
      <trkpt lat="43.15338" lon="3.10945">
        <ele>129.1</ele>
        <time>2018-03-18T10:38:51Z</time>
      </trkpt>
      <trkpt lat="43.15334" lon="3.10955">
        <ele>128.3</ele>
        <time>2018-03-18T10:38:52Z</time>
      </trkpt>
      <trkpt lat="43.15333" lon="3.10964">
        <ele>127.4</ele>
        <time>2018-03-18T10:38:53Z</time>
      </trkpt>
      <trkpt lat="43.15326" lon="3.10981">
        <ele>125.8</ele>
        <time>2018-03-18T10:38:55Z</time>
      </trkpt>
      <trkpt lat="43.15322" lon="3.10994">
        <ele>124.3</ele>
        <time>2018-03-18T10:38:57Z</time>
      </trkpt>
      <trkpt lat="43.1532" lon="3.11008">
        <ele>123</ele>
        <time>2018-03-18T10:38:59Z</time>
      </trkpt>
      <trkpt lat="43.15319" lon="3.11023">
        <ele>121.5</ele>
        <time>2018-03-18T10:39:01Z</time>
      </trkpt>
      <trkpt lat="43.15318" lon="3.11037">
        <ele>120.3</ele>
        <time>2018-03-18T10:39:03Z</time>
      </trkpt>
      <trkpt lat="43.15316" lon="3.11053">
        <ele>119.1</ele>
        <time>2018-03-18T10:39:05Z</time>
      </trkpt>
      <trkpt lat="43.15314" lon="3.11066">
        <ele>117.9</ele>
        <time>2018-03-18T10:39:07Z</time>
      </trkpt>
      <trkpt lat="43.15307" lon="3.11074">
        <ele>116.9</ele>
        <time>2018-03-18T10:39:09Z</time>
      </trkpt>
      <trkpt lat="43.15302" lon="3.11081">
        <ele>115.6</ele>
        <time>2018-03-18T10:39:11Z</time>
      </trkpt>
      <trkpt lat="43.15295" lon="3.11091">
        <ele>114.4</ele>
        <time>2018-03-18T10:39:14Z</time>
      </trkpt>
      <trkpt lat="43.15288" lon="3.11101">
        <ele>113.4</ele>
        <time>2018-03-18T10:39:17Z</time>
      </trkpt>
      <trkpt lat="43.1528" lon="3.11109">
        <ele>112.6</ele>
        <time>2018-03-18T10:39:20Z</time>
      </trkpt>
      <trkpt lat="43.15268" lon="3.11116">
        <ele>111.6</ele>
        <time>2018-03-18T10:39:22Z</time>
      </trkpt>
      <trkpt lat="43.15257" lon="3.11121">
        <ele>110.8</ele>
        <time>2018-03-18T10:39:24Z</time>
      </trkpt>
      <trkpt lat="43.15245" lon="3.11124">
        <ele>110.1</ele>
        <time>2018-03-18T10:39:26Z</time>
      </trkpt>
      <trkpt lat="43.15233" lon="3.11127">
        <ele>109.6</ele>
        <time>2018-03-18T10:39:28Z</time>
      </trkpt>
      <trkpt lat="43.15224" lon="3.11128">
        <ele>109</ele>
        <time>2018-03-18T10:39:30Z</time>
      </trkpt>
      <trkpt lat="43.15215" lon="3.11129">
        <ele>108.3</ele>
        <time>2018-03-18T10:39:33Z</time>
      </trkpt>
      <trkpt lat="43.15207" lon="3.11131">
        <ele>108</ele>
        <time>2018-03-18T10:39:36Z</time>
      </trkpt>
      <trkpt lat="43.15199" lon="3.11132">
        <ele>107.4</ele>
        <time>2018-03-18T10:39:39Z</time>
      </trkpt>
      <trkpt lat="43.15191" lon="3.11134">
        <ele>106.9</ele>
        <time>2018-03-18T10:39:42Z</time>
      </trkpt>
      <trkpt lat="43.15184" lon="3.11134">
        <ele>106.6</ele>
        <time>2018-03-18T10:39:45Z</time>
      </trkpt>
      <trkpt lat="43.15175" lon="3.11133">
        <ele>106.3</ele>
        <time>2018-03-18T10:39:48Z</time>
      </trkpt>
      <trkpt lat="43.15165" lon="3.11135">
        <ele>105.8</ele>
        <time>2018-03-18T10:39:51Z</time>
      </trkpt>
      <trkpt lat="43.15158" lon="3.11139">
        <ele>105.6</ele>
        <time>2018-03-18T10:39:53Z</time>
      </trkpt>
      <trkpt lat="43.15151" lon="3.11144">
        <ele>105.6</ele>
        <time>2018-03-18T10:39:55Z</time>
      </trkpt>
      <trkpt lat="43.15144" lon="3.11149">
        <ele>105.4</ele>
        <time>2018-03-18T10:39:57Z</time>
      </trkpt>
      <trkpt lat="43.15136" lon="3.11151">
        <ele>105.2</ele>
        <time>2018-03-18T10:39:59Z</time>
      </trkpt>
      <trkpt lat="43.15128" lon="3.11153">
        <ele>105</ele>
        <time>2018-03-18T10:40:01Z</time>
      </trkpt>
      <trkpt lat="43.15121" lon="3.11153">
        <ele>105.5</ele>
        <time>2018-03-18T10:40:03Z</time>
      </trkpt>
      <trkpt lat="43.15112" lon="3.11153">
        <ele>105.6</ele>
        <time>2018-03-18T10:40:05Z</time>
      </trkpt>
      <trkpt lat="43.15104" lon="3.11149">
        <ele>105.4</ele>
        <time>2018-03-18T10:40:07Z</time>
      </trkpt>
      <trkpt lat="43.15097" lon="3.11143">
        <ele>105.7</ele>
        <time>2018-03-18T10:40:09Z</time>
      </trkpt>
      <trkpt lat="43.15089" lon="3.11137">
        <ele>106</ele>
        <time>2018-03-18T10:40:11Z</time>
      </trkpt>
      <trkpt lat="43.15081" lon="3.11132">
        <ele>106.5</ele>
        <time>2018-03-18T10:40:13Z</time>
      </trkpt>
      <trkpt lat="43.15074" lon="3.11128">
        <ele>107.1</ele>
        <time>2018-03-18T10:40:15Z</time>
      </trkpt>
      <trkpt lat="43.15068" lon="3.11118">
        <ele>108</ele>
        <time>2018-03-18T10:40:19Z</time>
      </trkpt>
      <trkpt lat="43.15061" lon="3.11109">
        <ele>109</ele>
        <time>2018-03-18T10:40:22Z</time>
      </trkpt>
      <trkpt lat="43.15057" lon="3.11098">
        <ele>109.3</ele>
        <time>2018-03-18T10:40:25Z</time>
      </trkpt>
      <trkpt lat="43.15051" lon="3.1109">
        <ele>109.6</ele>
        <time>2018-03-18T10:40:28Z</time>
      </trkpt>
      <trkpt lat="43.15042" lon="3.11085">
        <ele>109.5</ele>
        <time>2018-03-18T10:40:30Z</time>
      </trkpt>
      <trkpt lat="43.15033" lon="3.11082">
        <ele>109.3</ele>
        <time>2018-03-18T10:40:32Z</time>
      </trkpt>
      <trkpt lat="43.15023" lon="3.11081">
        <ele>109</ele>
        <time>2018-03-18T10:40:34Z</time>
      </trkpt>
      <trkpt lat="43.15015" lon="3.11082">
        <ele>109</ele>
        <time>2018-03-18T10:40:36Z</time>
      </trkpt>
      <trkpt lat="43.15005" lon="3.11085">
        <ele>108.7</ele>
        <time>2018-03-18T10:40:38Z</time>
      </trkpt>
      <trkpt lat="43.14994" lon="3.11088">
        <ele>108</ele>
        <time>2018-03-18T10:40:40Z</time>
      </trkpt>
      <trkpt lat="43.14983" lon="3.11089">
        <ele>107.6</ele>
        <time>2018-03-18T10:40:42Z</time>
      </trkpt>
      <trkpt lat="43.1497" lon="3.11089">
        <ele>107.2</ele>
        <time>2018-03-18T10:40:44Z</time>
      </trkpt>
      <trkpt lat="43.14956" lon="3.11089">
        <ele>106.6</ele>
        <time>2018-03-18T10:40:46Z</time>
      </trkpt>
      <trkpt lat="43.14945" lon="3.11089">
        <ele>106.1</ele>
        <time>2018-03-18T10:40:48Z</time>
      </trkpt>
      <trkpt lat="43.14935" lon="3.11093">
        <ele>105.5</ele>
        <time>2018-03-18T10:40:50Z</time>
      </trkpt>
      <trkpt lat="43.14928" lon="3.11101">
        <ele>105.1</ele>
        <time>2018-03-18T10:40:52Z</time>
      </trkpt>
      <trkpt lat="43.14917" lon="3.11104">
        <ele>104.3</ele>
        <time>2018-03-18T10:40:54Z</time>
      </trkpt>
      <trkpt lat="43.14906" lon="3.11098">
        <ele>103.5</ele>
        <time>2018-03-18T10:40:56Z</time>
      </trkpt>
      <trkpt lat="43.14895" lon="3.11087">
        <ele>102.8</ele>
        <time>2018-03-18T10:40:58Z</time>
      </trkpt>
      <trkpt lat="43.14886" lon="3.11075">
        <ele>101.7</ele>
        <time>2018-03-18T10:41:00Z</time>
      </trkpt>
      <trkpt lat="43.14874" lon="3.11071">
        <ele>101.1</ele>
        <time>2018-03-18T10:41:02Z</time>
      </trkpt>
      <trkpt lat="43.14864" lon="3.11071">
        <ele>100.5</ele>
        <time>2018-03-18T10:41:04Z</time>
      </trkpt>
      <trkpt lat="43.1485" lon="3.11072">
        <ele>99.9</ele>
        <time>2018-03-18T10:41:06Z</time>
      </trkpt>
      <trkpt lat="43.14843" lon="3.11074">
        <ele>99.7</ele>
        <time>2018-03-18T10:41:07Z</time>
      </trkpt>
      <trkpt lat="43.14836" lon="3.11075">
        <ele>99.4</ele>
        <time>2018-03-18T10:41:08Z</time>
      </trkpt>
      <trkpt lat="43.14823" lon="3.11075">
        <ele>99.3</ele>
        <time>2018-03-18T10:41:10Z</time>
      </trkpt>
      <trkpt lat="43.14811" lon="3.1107">
        <ele>99.5</ele>
        <time>2018-03-18T10:41:12Z</time>
      </trkpt>
      <trkpt lat="43.14802" lon="3.11064">
        <ele>99.5</ele>
        <time>2018-03-18T10:41:14Z</time>
      </trkpt>
      <trkpt lat="43.14791" lon="3.11057">
        <ele>99.2</ele>
        <time>2018-03-18T10:41:16Z</time>
      </trkpt>
      <trkpt lat="43.14784" lon="3.11049">
        <ele>98.6</ele>
        <time>2018-03-18T10:41:18Z</time>
      </trkpt>
      <trkpt lat="43.14782" lon="3.11037">
        <ele>97.1</ele>
        <time>2018-03-18T10:41:21Z</time>
      </trkpt>
      <trkpt lat="43.1478" lon="3.11027">
        <ele>95.8</ele>
        <time>2018-03-18T10:41:24Z</time>
      </trkpt>
      <trkpt lat="43.14779" lon="3.11014">
        <ele>94.3</ele>
        <time>2018-03-18T10:41:28Z</time>
      </trkpt>
      <trkpt lat="43.14773" lon="3.11004">
        <ele>93.1</ele>
        <time>2018-03-18T10:41:31Z</time>
      </trkpt>
      <trkpt lat="43.14767" lon="3.10996">
        <ele>92</ele>
        <time>2018-03-18T10:41:34Z</time>
      </trkpt>
      <trkpt lat="43.1476" lon="3.1099">
        <ele>91.3</ele>
        <time>2018-03-18T10:41:37Z</time>
      </trkpt>
      <trkpt lat="43.14752" lon="3.10985">
        <ele>90.7</ele>
        <time>2018-03-18T10:41:40Z</time>
      </trkpt>
      <trkpt lat="43.14742" lon="3.10981">
        <ele>90.3</ele>
        <time>2018-03-18T10:41:43Z</time>
      </trkpt>
      <trkpt lat="43.14733" lon="3.1098">
        <ele>89.6</ele>
        <time>2018-03-18T10:41:46Z</time>
      </trkpt>
      <trkpt lat="43.14725" lon="3.10983">
        <ele>89</ele>
        <time>2018-03-18T10:41:49Z</time>
      </trkpt>
      <trkpt lat="43.14718" lon="3.10992">
        <ele>88.5</ele>
        <time>2018-03-18T10:41:52Z</time>
      </trkpt>
      <trkpt lat="43.14716" lon="3.11002">
        <ele>88</ele>
        <time>2018-03-18T10:41:56Z</time>
      </trkpt>
      <trkpt lat="43.14715" lon="3.11007">
        <ele>87.8</ele>
        <time>2018-03-18T10:42:03Z</time>
      </trkpt>
      <trkpt lat="43.1472" lon="3.11">
        <ele>87.4</ele>
        <time>2018-03-18T10:42:22Z</time>
      </trkpt>
      <trkpt lat="43.14715" lon="3.11009">
        <ele>87.4</ele>
        <time>2018-03-18T10:42:28Z</time>
      </trkpt>
      <trkpt lat="43.14718" lon="3.11019">
        <ele>87.4</ele>
        <time>2018-03-18T10:42:33Z</time>
      </trkpt>
      <trkpt lat="43.14718" lon="3.1103">
        <ele>87.2</ele>
        <time>2018-03-18T10:42:36Z</time>
      </trkpt>
      <trkpt lat="43.14714" lon="3.1104">
        <ele>87</ele>
        <time>2018-03-18T10:42:38Z</time>
      </trkpt>
      <trkpt lat="43.1471" lon="3.11052">
        <ele>86.4</ele>
        <time>2018-03-18T10:42:41Z</time>
      </trkpt>
      <trkpt lat="43.14705" lon="3.1106">
        <ele>86.2</ele>
        <time>2018-03-18T10:42:43Z</time>
      </trkpt>
      <trkpt lat="43.14701" lon="3.11069">
        <ele>85.9</ele>
        <time>2018-03-18T10:42:45Z</time>
      </trkpt>
      <trkpt lat="43.14696" lon="3.1108">
        <ele>85.5</ele>
        <time>2018-03-18T10:42:47Z</time>
      </trkpt>
      <trkpt lat="43.14689" lon="3.11091">
        <ele>85.3</ele>
        <time>2018-03-18T10:42:49Z</time>
      </trkpt>
      <trkpt lat="43.14682" lon="3.11101">
        <ele>85</ele>
        <time>2018-03-18T10:42:51Z</time>
      </trkpt>
      <trkpt lat="43.14674" lon="3.11109">
        <ele>84.8</ele>
        <time>2018-03-18T10:42:53Z</time>
      </trkpt>
      <trkpt lat="43.14666" lon="3.11118">
        <ele>84.7</ele>
        <time>2018-03-18T10:42:55Z</time>
      </trkpt>
      <trkpt lat="43.1466" lon="3.11126">
        <ele>84.6</ele>
        <time>2018-03-18T10:42:57Z</time>
      </trkpt>
      <trkpt lat="43.14654" lon="3.11133">
        <ele>84.5</ele>
        <time>2018-03-18T10:42:59Z</time>
      </trkpt>
      <trkpt lat="43.14647" lon="3.11137">
        <ele>84.2</ele>
        <time>2018-03-18T10:43:01Z</time>
      </trkpt>
      <trkpt lat="43.14639" lon="3.11142">
        <ele>83.8</ele>
        <time>2018-03-18T10:43:04Z</time>
      </trkpt>
      <trkpt lat="43.14635" lon="3.1115">
        <ele>83.4</ele>
        <time>2018-03-18T10:43:06Z</time>
      </trkpt>
      <trkpt lat="43.14628" lon="3.11162">
        <ele>82.5</ele>
        <time>2018-03-18T10:43:09Z</time>
      </trkpt>
      <trkpt lat="43.1462" lon="3.11168">
        <ele>82</ele>
        <time>2018-03-18T10:43:11Z</time>
      </trkpt>
      <trkpt lat="43.14611" lon="3.11174">
        <ele>81.6</ele>
        <time>2018-03-18T10:43:13Z</time>
      </trkpt>
      <trkpt lat="43.14604" lon="3.11183">
        <ele>81.1</ele>
        <time>2018-03-18T10:43:15Z</time>
      </trkpt>
      <trkpt lat="43.14593" lon="3.11195">
        <ele>80.4</ele>
        <time>2018-03-18T10:43:17Z</time>
      </trkpt>
      <trkpt lat="43.14587" lon="3.11199">
        <ele>79.9</ele>
        <time>2018-03-18T10:43:18Z</time>
      </trkpt>
      <trkpt lat="43.1458" lon="3.11206">
        <ele>79.5</ele>
        <time>2018-03-18T10:43:19Z</time>
      </trkpt>
      <trkpt lat="43.14574" lon="3.11212">
        <ele>79.2</ele>
        <time>2018-03-18T10:43:20Z</time>
      </trkpt>
      <trkpt lat="43.14569" lon="3.1122">
        <ele>78.7</ele>
        <time>2018-03-18T10:43:21Z</time>
      </trkpt>
      <trkpt lat="43.14564" lon="3.11229">
        <ele>78.3</ele>
        <time>2018-03-18T10:43:22Z</time>
      </trkpt>
      <trkpt lat="43.14553" lon="3.11244">
        <ele>77.2</ele>
        <time>2018-03-18T10:43:24Z</time>
      </trkpt>
      <trkpt lat="43.14548" lon="3.11252">
        <ele>76.6</ele>
        <time>2018-03-18T10:43:25Z</time>
      </trkpt>
      <trkpt lat="43.14542" lon="3.1126">
        <ele>76.2</ele>
        <time>2018-03-18T10:43:26Z</time>
      </trkpt>
      <trkpt lat="43.14538" lon="3.11268">
        <ele>75.7</ele>
        <time>2018-03-18T10:43:27Z</time>
      </trkpt>
      <trkpt lat="43.14533" lon="3.11276">
        <ele>75.3</ele>
        <time>2018-03-18T10:43:28Z</time>
      </trkpt>
      <trkpt lat="43.14528" lon="3.11286">
        <ele>74.9</ele>
        <time>2018-03-18T10:43:29Z</time>
      </trkpt>
      <trkpt lat="43.14522" lon="3.11293">
        <ele>74.5</ele>
        <time>2018-03-18T10:43:30Z</time>
      </trkpt>
      <trkpt lat="43.14515" lon="3.11301">
        <ele>74.2</ele>
        <time>2018-03-18T10:43:31Z</time>
      </trkpt>
      <trkpt lat="43.14508" lon="3.11307">
        <ele>73.8</ele>
        <time>2018-03-18T10:43:32Z</time>
      </trkpt>
      <trkpt lat="43.14501" lon="3.11312">
        <ele>73.6</ele>
        <time>2018-03-18T10:43:33Z</time>
      </trkpt>
      <trkpt lat="43.14495" lon="3.11318">
        <ele>73.4</ele>
        <time>2018-03-18T10:43:34Z</time>
      </trkpt>
      <trkpt lat="43.14486" lon="3.11333">
        <ele>73.3</ele>
        <time>2018-03-18T10:43:36Z</time>
      </trkpt>
      <trkpt lat="43.14479" lon="3.11345">
        <ele>73.3</ele>
        <time>2018-03-18T10:43:38Z</time>
      </trkpt>
      <trkpt lat="43.14468" lon="3.1135">
        <ele>73.2</ele>
        <time>2018-03-18T10:43:40Z</time>
      </trkpt>
      <trkpt lat="43.14461" lon="3.11347">
        <ele>73.5</ele>
        <time>2018-03-18T10:43:42Z</time>
      </trkpt>
      <trkpt lat="43.14454" lon="3.11337">
        <ele>73.4</ele>
        <time>2018-03-18T10:43:45Z</time>
      </trkpt>
      <trkpt lat="43.14447" lon="3.1133">
        <ele>73.4</ele>
        <time>2018-03-18T10:43:48Z</time>
      </trkpt>
      <trkpt lat="43.14439" lon="3.11336">
        <ele>73.3</ele>
        <time>2018-03-18T10:43:51Z</time>
      </trkpt>
      <trkpt lat="43.1443" lon="3.11344">
        <ele>72.8</ele>
        <time>2018-03-18T10:43:54Z</time>
      </trkpt>
      <trkpt lat="43.14428" lon="3.11345">
        <ele>72.6</ele>
        <time>2018-03-18T10:44:01Z</time>
      </trkpt>
      <trkpt lat="43.14425" lon="3.1135">
        <ele>72.6</ele>
        <time>2018-03-18T10:44:08Z</time>
      </trkpt>
      <trkpt lat="43.14413" lon="3.11351">
        <ele>71.7</ele>
        <time>2018-03-18T10:44:29Z</time>
      </trkpt>
      <trkpt lat="43.14405" lon="3.11352">
        <ele>71.4</ele>
        <time>2018-03-18T10:44:32Z</time>
      </trkpt>
      <trkpt lat="43.14394" lon="3.11356">
        <ele>71</ele>
        <time>2018-03-18T10:44:35Z</time>
      </trkpt>
      <trkpt lat="43.14386" lon="3.11358">
        <ele>70.6</ele>
        <time>2018-03-18T10:44:37Z</time>
      </trkpt>
      <trkpt lat="43.14378" lon="3.1136">
        <ele>70.2</ele>
        <time>2018-03-18T10:44:39Z</time>
      </trkpt>
      <trkpt lat="43.14371" lon="3.11364">
        <ele>69.8</ele>
        <time>2018-03-18T10:44:41Z</time>
      </trkpt>
      <trkpt lat="43.14362" lon="3.11366">
        <ele>69.4</ele>
        <time>2018-03-18T10:44:43Z</time>
      </trkpt>
      <trkpt lat="43.14353" lon="3.11368">
        <ele>69</ele>
        <time>2018-03-18T10:44:45Z</time>
      </trkpt>
      <trkpt lat="43.14345" lon="3.11371">
        <ele>68.8</ele>
        <time>2018-03-18T10:44:47Z</time>
      </trkpt>
      <trkpt lat="43.14336" lon="3.11374">
        <ele>68.3</ele>
        <time>2018-03-18T10:44:49Z</time>
      </trkpt>
      <trkpt lat="43.14329" lon="3.11379">
        <ele>67.7</ele>
        <time>2018-03-18T10:44:51Z</time>
      </trkpt>
      <trkpt lat="43.14323" lon="3.11388">
        <ele>67.3</ele>
        <time>2018-03-18T10:44:53Z</time>
      </trkpt>
      <trkpt lat="43.14318" lon="3.11398">
        <ele>67.1</ele>
        <time>2018-03-18T10:44:55Z</time>
      </trkpt>
      <trkpt lat="43.14313" lon="3.11407">
        <ele>66.9</ele>
        <time>2018-03-18T10:44:57Z</time>
      </trkpt>
      <trkpt lat="43.14307" lon="3.11418">
        <ele>66.3</ele>
        <time>2018-03-18T10:45:00Z</time>
      </trkpt>
      <trkpt lat="43.14297" lon="3.11426">
        <ele>65.9</ele>
        <time>2018-03-18T10:45:03Z</time>
      </trkpt>
      <trkpt lat="43.14293" lon="3.11434">
        <ele>65.6</ele>
        <time>2018-03-18T10:45:05Z</time>
      </trkpt>
      <trkpt lat="43.14289" lon="3.11444">
        <ele>65.8</ele>
        <time>2018-03-18T10:45:07Z</time>
      </trkpt>
      <trkpt lat="43.14285" lon="3.11453">
        <ele>65.7</ele>
        <time>2018-03-18T10:45:09Z</time>
      </trkpt>
      <trkpt lat="43.1428" lon="3.11465">
        <ele>65</ele>
        <time>2018-03-18T10:45:11Z</time>
      </trkpt>
      <trkpt lat="43.14273" lon="3.11475">
        <ele>64.4</ele>
        <time>2018-03-18T10:45:13Z</time>
      </trkpt>
      <trkpt lat="43.14269" lon="3.11483">
        <ele>64.1</ele>
        <time>2018-03-18T10:45:15Z</time>
      </trkpt>
      <trkpt lat="43.14262" lon="3.11492">
        <ele>63.8</ele>
        <time>2018-03-18T10:45:17Z</time>
      </trkpt>
      <trkpt lat="43.14254" lon="3.11501">
        <ele>63.4</ele>
        <time>2018-03-18T10:45:20Z</time>
      </trkpt>
      <trkpt lat="43.14249" lon="3.11512">
        <ele>63.1</ele>
        <time>2018-03-18T10:45:23Z</time>
      </trkpt>
      <trkpt lat="43.14249" lon="3.11523">
        <ele>62.4</ele>
        <time>2018-03-18T10:45:26Z</time>
      </trkpt>
      <trkpt lat="43.14253" lon="3.11537">
        <ele>62.2</ele>
        <time>2018-03-18T10:45:29Z</time>
      </trkpt>
      <trkpt lat="43.14255" lon="3.11549">
        <ele>62.2</ele>
        <time>2018-03-18T10:45:32Z</time>
      </trkpt>
      <trkpt lat="43.14256" lon="3.11561">
        <ele>62.1</ele>
        <time>2018-03-18T10:45:35Z</time>
      </trkpt>
      <trkpt lat="43.14258" lon="3.11571">
        <ele>62</ele>
        <time>2018-03-18T10:45:37Z</time>
      </trkpt>
      <trkpt lat="43.1426" lon="3.11581">
        <ele>61.9</ele>
        <time>2018-03-18T10:45:39Z</time>
      </trkpt>
      <trkpt lat="43.14262" lon="3.11593">
        <ele>61.9</ele>
        <time>2018-03-18T10:45:41Z</time>
      </trkpt>
      <trkpt lat="43.14264" lon="3.11604">
        <ele>61.8</ele>
        <time>2018-03-18T10:45:43Z</time>
      </trkpt>
      <trkpt lat="43.14267" lon="3.11616">
        <ele>61.6</ele>
        <time>2018-03-18T10:45:45Z</time>
      </trkpt>
      <trkpt lat="43.1427" lon="3.11628">
        <ele>61.4</ele>
        <time>2018-03-18T10:45:47Z</time>
      </trkpt>
      <trkpt lat="43.14275" lon="3.11639">
        <ele>61.4</ele>
        <time>2018-03-18T10:45:49Z</time>
      </trkpt>
      <trkpt lat="43.14279" lon="3.11651">
        <ele>61.4</ele>
        <time>2018-03-18T10:45:51Z</time>
      </trkpt>
      <trkpt lat="43.14285" lon="3.11665">
        <ele>61.4</ele>
        <time>2018-03-18T10:45:53Z</time>
      </trkpt>
      <trkpt lat="43.14291" lon="3.11678">
        <ele>61.7</ele>
        <time>2018-03-18T10:45:55Z</time>
      </trkpt>
      <trkpt lat="43.14296" lon="3.11691">
        <ele>61.9</ele>
        <time>2018-03-18T10:45:57Z</time>
      </trkpt>
      <trkpt lat="43.14301" lon="3.11705">
        <ele>62</ele>
        <time>2018-03-18T10:45:59Z</time>
      </trkpt>
      <trkpt lat="43.14303" lon="3.11719">
        <ele>62.4</ele>
        <time>2018-03-18T10:46:01Z</time>
      </trkpt>
      <trkpt lat="43.14306" lon="3.11734">
        <ele>62.3</ele>
        <time>2018-03-18T10:46:03Z</time>
      </trkpt>
      <trkpt lat="43.14309" lon="3.11752">
        <ele>61.9</ele>
        <time>2018-03-18T10:46:05Z</time>
      </trkpt>
      <trkpt lat="43.14311" lon="3.11769">
        <ele>61.3</ele>
        <time>2018-03-18T10:46:07Z</time>
      </trkpt>
      <trkpt lat="43.14317" lon="3.11787">
        <ele>61</ele>
        <time>2018-03-18T10:46:10Z</time>
      </trkpt>
      <trkpt lat="43.14324" lon="3.11803">
        <ele>60.2</ele>
        <time>2018-03-18T10:46:11Z</time>
      </trkpt>
      <trkpt lat="43.1433" lon="3.11817">
        <ele>59.5</ele>
        <time>2018-03-18T10:46:13Z</time>
      </trkpt>
      <trkpt lat="43.14333" lon="3.11833">
        <ele>59</ele>
        <time>2018-03-18T10:46:15Z</time>
      </trkpt>
      <trkpt lat="43.14333" lon="3.1185">
        <ele>58.8</ele>
        <time>2018-03-18T10:46:17Z</time>
      </trkpt>
      <trkpt lat="43.14337" lon="3.11865">
        <ele>58.5</ele>
        <time>2018-03-18T10:46:19Z</time>
      </trkpt>
      <trkpt lat="43.14341" lon="3.11879">
        <ele>58.1</ele>
        <time>2018-03-18T10:46:21Z</time>
      </trkpt>
      <trkpt lat="43.14344" lon="3.11892">
        <ele>58.2</ele>
        <time>2018-03-18T10:46:23Z</time>
      </trkpt>
      <trkpt lat="43.14346" lon="3.11905">
        <ele>58.1</ele>
        <time>2018-03-18T10:46:25Z</time>
      </trkpt>
      <trkpt lat="43.14347" lon="3.11919">
        <ele>58.1</ele>
        <time>2018-03-18T10:46:27Z</time>
      </trkpt>
      <trkpt lat="43.1435" lon="3.11931">
        <ele>57.9</ele>
        <time>2018-03-18T10:46:29Z</time>
      </trkpt>
      <trkpt lat="43.14351" lon="3.11942">
        <ele>57.9</ele>
        <time>2018-03-18T10:46:31Z</time>
      </trkpt>
      <trkpt lat="43.14354" lon="3.11952">
        <ele>58</ele>
        <time>2018-03-18T10:46:33Z</time>
      </trkpt>
      <trkpt lat="43.14356" lon="3.11962">
        <ele>58.4</ele>
        <time>2018-03-18T10:46:35Z</time>
      </trkpt>
      <trkpt lat="43.1436" lon="3.11974">
        <ele>58.7</ele>
        <time>2018-03-18T10:46:37Z</time>
      </trkpt>
      <trkpt lat="43.14365" lon="3.11986">
        <ele>58.9</ele>
        <time>2018-03-18T10:46:39Z</time>
      </trkpt>
      <trkpt lat="43.14373" lon="3.11998">
        <ele>59.1</ele>
        <time>2018-03-18T10:46:41Z</time>
      </trkpt>
      <trkpt lat="43.14378" lon="3.12011">
        <ele>59.3</ele>
        <time>2018-03-18T10:46:43Z</time>
      </trkpt>
      <trkpt lat="43.14385" lon="3.12025">
        <ele>59.2</ele>
        <time>2018-03-18T10:46:45Z</time>
      </trkpt>
      <trkpt lat="43.1439" lon="3.1204">
        <ele>59</ele>
        <time>2018-03-18T10:46:47Z</time>
      </trkpt>
      <trkpt lat="43.14396" lon="3.12052">
        <ele>59.1</ele>
        <time>2018-03-18T10:46:49Z</time>
      </trkpt>
      <trkpt lat="43.14401" lon="3.12065">
        <ele>58.6</ele>
        <time>2018-03-18T10:46:51Z</time>
      </trkpt>
      <trkpt lat="43.14409" lon="3.12077">
        <ele>58.4</ele>
        <time>2018-03-18T10:46:53Z</time>
      </trkpt>
      <trkpt lat="43.14418" lon="3.12091">
        <ele>57.8</ele>
        <time>2018-03-18T10:46:55Z</time>
      </trkpt>
      <trkpt lat="43.14428" lon="3.12103">
        <ele>57.5</ele>
        <time>2018-03-18T10:46:57Z</time>
      </trkpt>
      <trkpt lat="43.14437" lon="3.12114">
        <ele>56.8</ele>
        <time>2018-03-18T10:46:59Z</time>
      </trkpt>
      <trkpt lat="43.14446" lon="3.12124">
        <ele>56.2</ele>
        <time>2018-03-18T10:47:01Z</time>
      </trkpt>
      <trkpt lat="43.14451" lon="3.12135">
        <ele>54.9</ele>
        <time>2018-03-18T10:47:03Z</time>
      </trkpt>
      <trkpt lat="43.1446" lon="3.12143">
        <ele>53.3</ele>
        <time>2018-03-18T10:47:05Z</time>
      </trkpt>
      <trkpt lat="43.14472" lon="3.12145">
        <ele>51.9</ele>
        <time>2018-03-18T10:47:07Z</time>
      </trkpt>
      <trkpt lat="43.14482" lon="3.12148">
        <ele>51</ele>
        <time>2018-03-18T10:47:09Z</time>
      </trkpt>
      <trkpt lat="43.14492" lon="3.12152">
        <ele>50.2</ele>
        <time>2018-03-18T10:47:11Z</time>
      </trkpt>
      <trkpt lat="43.14504" lon="3.12156">
        <ele>49.5</ele>
        <time>2018-03-18T10:47:13Z</time>
      </trkpt>
      <trkpt lat="43.14515" lon="3.1216">
        <ele>48.7</ele>
        <time>2018-03-18T10:47:15Z</time>
      </trkpt>
      <trkpt lat="43.14527" lon="3.1217">
        <ele>47.4</ele>
        <time>2018-03-18T10:47:17Z</time>
      </trkpt>
      <trkpt lat="43.14532" lon="3.12184">
        <ele>45.7</ele>
        <time>2018-03-18T10:47:19Z</time>
      </trkpt>
      <trkpt lat="43.14538" lon="3.12199">
        <ele>44.6</ele>
        <time>2018-03-18T10:47:21Z</time>
      </trkpt>
      <trkpt lat="43.14544" lon="3.12213">
        <ele>43.6</ele>
        <time>2018-03-18T10:47:23Z</time>
      </trkpt>
      <trkpt lat="43.14549" lon="3.12226">
        <ele>42.8</ele>
        <time>2018-03-18T10:47:25Z</time>
      </trkpt>
      <trkpt lat="43.14555" lon="3.12238">
        <ele>42.1</ele>
        <time>2018-03-18T10:47:27Z</time>
      </trkpt>
      <trkpt lat="43.1456" lon="3.1225">
        <ele>41.2</ele>
        <time>2018-03-18T10:47:29Z</time>
      </trkpt>
      <trkpt lat="43.14564" lon="3.12263">
        <ele>40.3</ele>
        <time>2018-03-18T10:47:31Z</time>
      </trkpt>
      <trkpt lat="43.14566" lon="3.12276">
        <ele>39.5</ele>
        <time>2018-03-18T10:47:33Z</time>
      </trkpt>
      <trkpt lat="43.14566" lon="3.12289">
        <ele>39.2</ele>
        <time>2018-03-18T10:47:35Z</time>
      </trkpt>
      <trkpt lat="43.14568" lon="3.12302">
        <ele>38.5</ele>
        <time>2018-03-18T10:47:37Z</time>
      </trkpt>
      <trkpt lat="43.14569" lon="3.12315">
        <ele>38.3</ele>
        <time>2018-03-18T10:47:39Z</time>
      </trkpt>
      <trkpt lat="43.14572" lon="3.12328">
        <ele>37.9</ele>
        <time>2018-03-18T10:47:41Z</time>
      </trkpt>
      <trkpt lat="43.14576" lon="3.12341">
        <ele>37.8</ele>
        <time>2018-03-18T10:47:43Z</time>
      </trkpt>
      <trkpt lat="43.14579" lon="3.12354">
        <ele>37.6</ele>
        <time>2018-03-18T10:47:45Z</time>
      </trkpt>
      <trkpt lat="43.14581" lon="3.12365">
        <ele>37.5</ele>
        <time>2018-03-18T10:47:47Z</time>
      </trkpt>
      <trkpt lat="43.14581" lon="3.12379">
        <ele>37.6</ele>
        <time>2018-03-18T10:47:49Z</time>
      </trkpt>
      <trkpt lat="43.14582" lon="3.12392">
        <ele>37.2</ele>
        <time>2018-03-18T10:47:51Z</time>
      </trkpt>
      <trkpt lat="43.14581" lon="3.12407">
        <ele>37</ele>
        <time>2018-03-18T10:47:53Z</time>
      </trkpt>
      <trkpt lat="43.1458" lon="3.12417">
        <ele>36.8</ele>
        <time>2018-03-18T10:47:55Z</time>
      </trkpt>
      <trkpt lat="43.14578" lon="3.12428">
        <ele>36.5</ele>
        <time>2018-03-18T10:47:57Z</time>
      </trkpt>
      <trkpt lat="43.14574" lon="3.1244">
        <ele>35.8</ele>
        <time>2018-03-18T10:47:59Z</time>
      </trkpt>
      <trkpt lat="43.1457" lon="3.12454">
        <ele>35.3</ele>
        <time>2018-03-18T10:48:01Z</time>
      </trkpt>
      <trkpt lat="43.14568" lon="3.12471">
        <ele>34.9</ele>
        <time>2018-03-18T10:48:03Z</time>
      </trkpt>
      <trkpt lat="43.14567" lon="3.12488">
        <ele>34.1</ele>
        <time>2018-03-18T10:48:05Z</time>
      </trkpt>
      <trkpt lat="43.14567" lon="3.12505">
        <ele>33.3</ele>
        <time>2018-03-18T10:48:07Z</time>
      </trkpt>
      <trkpt lat="43.14569" lon="3.12523">
        <ele>32.6</ele>
        <time>2018-03-18T10:48:09Z</time>
      </trkpt>
      <trkpt lat="43.14571" lon="3.12532">
        <ele>32.3</ele>
        <time>2018-03-18T10:48:10Z</time>
      </trkpt>
      <trkpt lat="43.14573" lon="3.12543">
        <ele>32</ele>
        <time>2018-03-18T10:48:11Z</time>
      </trkpt>
      <trkpt lat="43.14574" lon="3.12553">
        <ele>31.8</ele>
        <time>2018-03-18T10:48:12Z</time>
      </trkpt>
      <trkpt lat="43.14576" lon="3.12562">
        <ele>31.6</ele>
        <time>2018-03-18T10:48:13Z</time>
      </trkpt>
      <trkpt lat="43.1458" lon="3.1258">
        <ele>31.2</ele>
        <time>2018-03-18T10:48:15Z</time>
      </trkpt>
      <trkpt lat="43.14584" lon="3.126">
        <ele>30.8</ele>
        <time>2018-03-18T10:48:18Z</time>
      </trkpt>
      <trkpt lat="43.14586" lon="3.12619">
        <ele>30.3</ele>
        <time>2018-03-18T10:48:19Z</time>
      </trkpt>
      <trkpt lat="43.14582" lon="3.12637">
        <ele>29.2</ele>
        <time>2018-03-18T10:48:21Z</time>
      </trkpt>
      <trkpt lat="43.14577" lon="3.12651">
        <ele>28.3</ele>
        <time>2018-03-18T10:48:23Z</time>
      </trkpt>
      <trkpt lat="43.14573" lon="3.12667">
        <ele>27.5</ele>
        <time>2018-03-18T10:48:25Z</time>
      </trkpt>
      <trkpt lat="43.14572" lon="3.12682">
        <ele>26.6</ele>
        <time>2018-03-18T10:48:27Z</time>
      </trkpt>
      <trkpt lat="43.14572" lon="3.12697">
        <ele>25.9</ele>
        <time>2018-03-18T10:48:29Z</time>
      </trkpt>
      <trkpt lat="43.14576" lon="3.12711">
        <ele>25</ele>
        <time>2018-03-18T10:48:31Z</time>
      </trkpt>
      <trkpt lat="43.14581" lon="3.12724">
        <ele>24.1</ele>
        <time>2018-03-18T10:48:32Z</time>
      </trkpt>
      <trkpt lat="43.14583" lon="3.12737">
        <ele>23.2</ele>
        <time>2018-03-18T10:48:34Z</time>
      </trkpt>
      <trkpt lat="43.14589" lon="3.12747">
        <ele>22.3</ele>
        <time>2018-03-18T10:48:36Z</time>
      </trkpt>
      <trkpt lat="43.14598" lon="3.12754">
        <ele>21</ele>
        <time>2018-03-18T10:48:40Z</time>
      </trkpt>
      <trkpt lat="43.14614" lon="3.12756">
        <ele>20.2</ele>
        <time>2018-03-18T10:48:42Z</time>
      </trkpt>
      <trkpt lat="43.14623" lon="3.12757">
        <ele>19.5</ele>
        <time>2018-03-18T10:48:44Z</time>
      </trkpt>
      <trkpt lat="43.14631" lon="3.12765">
        <ele>19.8</ele>
        <time>2018-03-18T10:48:47Z</time>
      </trkpt>
      <trkpt lat="43.14635" lon="3.12773">
        <ele>19.8</ele>
        <time>2018-03-18T10:48:49Z</time>
      </trkpt>
      <trkpt lat="43.14639" lon="3.12785">
        <ele>19.7</ele>
        <time>2018-03-18T10:48:50Z</time>
      </trkpt>
      <trkpt lat="43.14645" lon="3.12797">
        <ele>19.6</ele>
        <time>2018-03-18T10:48:52Z</time>
      </trkpt>
      <trkpt lat="43.14651" lon="3.12811">
        <ele>19.6</ele>
        <time>2018-03-18T10:48:55Z</time>
      </trkpt>
      <trkpt lat="43.14657" lon="3.12823">
        <ele>19.4</ele>
        <time>2018-03-18T10:48:57Z</time>
      </trkpt>
      <trkpt lat="43.14662" lon="3.12832">
        <ele>19.2</ele>
        <time>2018-03-18T10:48:59Z</time>
      </trkpt>
      <trkpt lat="43.14673" lon="3.12835">
        <ele>19.8</ele>
        <time>2018-03-18T10:49:01Z</time>
      </trkpt>
      <trkpt lat="43.14684" lon="3.12837">
        <ele>20.2</ele>
        <time>2018-03-18T10:49:03Z</time>
      </trkpt>
      <trkpt lat="43.14693" lon="3.12845">
        <ele>20.2</ele>
        <time>2018-03-18T10:49:05Z</time>
      </trkpt>
      <trkpt lat="43.14701" lon="3.12858">
        <ele>20.8</ele>
        <time>2018-03-18T10:49:07Z</time>
      </trkpt>
      <trkpt lat="43.14705" lon="3.12876">
        <ele>21</ele>
        <time>2018-03-18T10:49:09Z</time>
      </trkpt>
      <trkpt lat="43.14708" lon="3.12894">
        <ele>20.5</ele>
        <time>2018-03-18T10:49:11Z</time>
      </trkpt>
      <trkpt lat="43.14708" lon="3.12904">
        <ele>20.1</ele>
        <time>2018-03-18T10:49:12Z</time>
      </trkpt>
      <trkpt lat="43.14707" lon="3.12915">
        <ele>19.8</ele>
        <time>2018-03-18T10:49:13Z</time>
      </trkpt>
      <trkpt lat="43.147" lon="3.12931">
        <ele>19.4</ele>
        <time>2018-03-18T10:49:15Z</time>
      </trkpt>
      <trkpt lat="43.14694" lon="3.12937">
        <ele>19.1</ele>
        <time>2018-03-18T10:49:16Z</time>
      </trkpt>
      <trkpt lat="43.14688" lon="3.12944">
        <ele>18.8</ele>
        <time>2018-03-18T10:49:17Z</time>
      </trkpt>
      <trkpt lat="43.14684" lon="3.12952">
        <ele>18.7</ele>
        <time>2018-03-18T10:49:18Z</time>
      </trkpt>
      <trkpt lat="43.14682" lon="3.12962">
        <ele>18.5</ele>
        <time>2018-03-18T10:49:19Z</time>
      </trkpt>
      <trkpt lat="43.14679" lon="3.12973">
        <ele>18.3</ele>
        <time>2018-03-18T10:49:20Z</time>
      </trkpt>
      <trkpt lat="43.14678" lon="3.12984">
        <ele>18</ele>
        <time>2018-03-18T10:49:21Z</time>
      </trkpt>
      <trkpt lat="43.14676" lon="3.12995">
        <ele>17.7</ele>
        <time>2018-03-18T10:49:22Z</time>
      </trkpt>
      <trkpt lat="43.14674" lon="3.13008">
        <ele>17.3</ele>
        <time>2018-03-18T10:49:23Z</time>
      </trkpt>
      <trkpt lat="43.14674" lon="3.1302">
        <ele>17.1</ele>
        <time>2018-03-18T10:49:24Z</time>
      </trkpt>
      <trkpt lat="43.14673" lon="3.13033">
        <ele>16.7</ele>
        <time>2018-03-18T10:49:25Z</time>
      </trkpt>
      <trkpt lat="43.14672" lon="3.13045">
        <ele>16.3</ele>
        <time>2018-03-18T10:49:26Z</time>
      </trkpt>
      <trkpt lat="43.14671" lon="3.13059">
        <ele>15.9</ele>
        <time>2018-03-18T10:49:27Z</time>
      </trkpt>
      <trkpt lat="43.14671" lon="3.13073">
        <ele>15.5</ele>
        <time>2018-03-18T10:49:28Z</time>
      </trkpt>
      <trkpt lat="43.1467" lon="3.13087">
        <ele>14.9</ele>
        <time>2018-03-18T10:49:29Z</time>
      </trkpt>
      <trkpt lat="43.14669" lon="3.13101">
        <ele>14.5</ele>
        <time>2018-03-18T10:49:30Z</time>
      </trkpt>
      <trkpt lat="43.14667" lon="3.13115">
        <ele>13.9</ele>
        <time>2018-03-18T10:49:31Z</time>
      </trkpt>
      <trkpt lat="43.14667" lon="3.13129">
        <ele>13.4</ele>
        <time>2018-03-18T10:49:32Z</time>
      </trkpt>
      <trkpt lat="43.14666" lon="3.13143">
        <ele>13</ele>
        <time>2018-03-18T10:49:33Z</time>
      </trkpt>
      <trkpt lat="43.14665" lon="3.13156">
        <ele>12.6</ele>
        <time>2018-03-18T10:49:34Z</time>
      </trkpt>
      <trkpt lat="43.14665" lon="3.13169">
        <ele>12.3</ele>
        <time>2018-03-18T10:49:35Z</time>
      </trkpt>
      <trkpt lat="43.14662" lon="3.13182">
        <ele>11.9</ele>
        <time>2018-03-18T10:49:36Z</time>
      </trkpt>
      <trkpt lat="43.14659" lon="3.13194">
        <ele>11.5</ele>
        <time>2018-03-18T10:49:37Z</time>
      </trkpt>
      <trkpt lat="43.14653" lon="3.13205">
        <ele>11.2</ele>
        <time>2018-03-18T10:49:38Z</time>
      </trkpt>
      <trkpt lat="43.14647" lon="3.13215">
        <ele>10.8</ele>
        <time>2018-03-18T10:49:39Z</time>
      </trkpt>
      <trkpt lat="43.14641" lon="3.13226">
        <ele>10.4</ele>
        <time>2018-03-18T10:49:40Z</time>
      </trkpt>
      <trkpt lat="43.14635" lon="3.13236">
        <ele>10</ele>
        <time>2018-03-18T10:49:41Z</time>
      </trkpt>
      <trkpt lat="43.14629" lon="3.13246">
        <ele>9.6</ele>
        <time>2018-03-18T10:49:42Z</time>
      </trkpt>
      <trkpt lat="43.14623" lon="3.13255">
        <ele>9.4</ele>
        <time>2018-03-18T10:49:43Z</time>
      </trkpt>
      <trkpt lat="43.14614" lon="3.13267">
        <ele>8.9</ele>
        <time>2018-03-18T10:49:45Z</time>
      </trkpt>
      <trkpt lat="43.14608" lon="3.13274">
        <ele>8.4</ele>
        <time>2018-03-18T10:49:47Z</time>
      </trkpt>
      <trkpt lat="43.14603" lon="3.13283">
        <ele>7.8</ele>
        <time>2018-03-18T10:49:50Z</time>
      </trkpt>
      <trkpt lat="43.14598" lon="3.13291">
        <ele>7.7</ele>
        <time>2018-03-18T10:49:54Z</time>
      </trkpt>
      <trkpt lat="43.14593" lon="3.13299">
        <ele>7.3</ele>
        <time>2018-03-18T10:49:58Z</time>
      </trkpt>
      <trkpt lat="43.14587" lon="3.13307">
        <ele>7.2</ele>
        <time>2018-03-18T10:50:03Z</time>
      </trkpt>
      <trkpt lat="43.14582" lon="3.13316">
        <ele>6.6</ele>
        <time>2018-03-18T10:50:08Z</time>
      </trkpt>
      <trkpt lat="43.14579" lon="3.13327">
        <ele>6.7</ele>
        <time>2018-03-18T10:50:13Z</time>
      </trkpt>
      <trkpt lat="43.14575" lon="3.13337">
        <ele>6.8</ele>
        <time>2018-03-18T10:50:17Z</time>
      </trkpt>
      <trkpt lat="43.14569" lon="3.13347">
        <ele>7</ele>
        <time>2018-03-18T10:50:20Z</time>
      </trkpt>
      <trkpt lat="43.14562" lon="3.13356">
        <ele>6.9</ele>
        <time>2018-03-18T10:50:23Z</time>
      </trkpt>
      <trkpt lat="43.14555" lon="3.13365">
        <ele>6.9</ele>
        <time>2018-03-18T10:50:26Z</time>
      </trkpt>
      <trkpt lat="43.14551" lon="3.13372">
        <ele>7</ele>
        <time>2018-03-18T10:50:29Z</time>
      </trkpt>
      <trkpt lat="43.14545" lon="3.1338">
        <ele>7</ele>
        <time>2018-03-18T10:50:32Z</time>
      </trkpt>
      <trkpt lat="43.14539" lon="3.13393">
        <ele>7.1</ele>
        <time>2018-03-18T10:50:35Z</time>
      </trkpt>
      <trkpt lat="43.14534" lon="3.13399">
        <ele>6.9</ele>
        <time>2018-03-18T10:50:38Z</time>
      </trkpt>
      <trkpt lat="43.14527" lon="3.13405">
        <ele>6.7</ele>
        <time>2018-03-18T10:50:43Z</time>
      </trkpt>
      <trkpt lat="43.14519" lon="3.13405">
        <ele>6.6</ele>
        <time>2018-03-18T10:50:46Z</time>
      </trkpt>
      <trkpt lat="43.14511" lon="3.13402">
        <ele>6.6</ele>
        <time>2018-03-18T10:50:49Z</time>
      </trkpt>
      <trkpt lat="43.14503" lon="3.13399">
        <ele>6.7</ele>
        <time>2018-03-18T10:50:52Z</time>
      </trkpt>
      <trkpt lat="43.14495" lon="3.13395">
        <ele>6.7</ele>
        <time>2018-03-18T10:50:55Z</time>
      </trkpt>
      <trkpt lat="43.14488" lon="3.13388">
        <ele>6.4</ele>
        <time>2018-03-18T10:50:58Z</time>
      </trkpt>
      <trkpt lat="43.14481" lon="3.13382">
        <ele>6.7</ele>
        <time>2018-03-18T10:51:01Z</time>
      </trkpt>
      <trkpt lat="43.14477" lon="3.13384">
        <ele>6.6</ele>
        <time>2018-03-18T10:51:08Z</time>
      </trkpt>
      <trkpt lat="43.14482" lon="3.13384">
        <ele>6.7</ele>
        <time>2018-03-18T10:51:15Z</time>
      </trkpt>
      <trkpt lat="43.14483" lon="3.13382">
        <ele>6</ele>
        <time>2018-03-18T10:51:34Z</time>
      </trkpt>
      <trkpt lat="43.14484" lon="3.13382">
        <ele>5.7</ele>
        <time>2018-03-18T10:51:41Z</time>
      </trkpt>
      <trkpt lat="43.14484" lon="3.13382">
        <ele>5.4</ele>
        <time>2018-03-18T10:51:48Z</time>
      </trkpt>
      <trkpt lat="43.14477" lon="3.13379">
        <ele>5.4</ele>
        <time>2018-03-18T10:51:52Z</time>
      </trkpt>
      <trkpt lat="43.14473" lon="3.13369">
        <ele>5</ele>
        <time>2018-03-18T10:51:57Z</time>
      </trkpt>
      <trkpt lat="43.1447" lon="3.13369">
        <ele>5.3</ele>
        <time>2018-03-18T10:52:04Z</time>
      </trkpt>
      <trkpt lat="43.14462" lon="3.13366">
        <ele>3.5</ele>
        <time>2018-03-18T10:57:00Z</time>
      </trkpt>
      <trkpt lat="43.14456" lon="3.1336">
        <ele>3.5</ele>
        <time>2018-03-18T10:57:03Z</time>
      </trkpt>
      <trkpt lat="43.14447" lon="3.13357">
        <ele>3.5</ele>
        <time>2018-03-18T10:57:06Z</time>
      </trkpt>
      <trkpt lat="43.14439" lon="3.13352">
        <ele>3.7</ele>
        <time>2018-03-18T10:57:09Z</time>
      </trkpt>
      <trkpt lat="43.14432" lon="3.13348">
        <ele>3.6</ele>
        <time>2018-03-18T10:57:12Z</time>
      </trkpt>
      <trkpt lat="43.14427" lon="3.13342">
        <ele>3.2</ele>
        <time>2018-03-18T10:57:15Z</time>
      </trkpt>
      <trkpt lat="43.14419" lon="3.13337">
        <ele>3.3</ele>
        <time>2018-03-18T10:57:19Z</time>
      </trkpt>
      <trkpt lat="43.1441" lon="3.13333">
        <ele>3</ele>
        <time>2018-03-18T10:57:23Z</time>
      </trkpt>
      <trkpt lat="43.14401" lon="3.1333">
        <ele>2.9</ele>
        <time>2018-03-18T10:57:26Z</time>
      </trkpt>
      <trkpt lat="43.14393" lon="3.13328">
        <ele>3.2</ele>
        <time>2018-03-18T10:57:29Z</time>
      </trkpt>
      <trkpt lat="43.14386" lon="3.13325">
        <ele>2.9</ele>
        <time>2018-03-18T10:57:32Z</time>
      </trkpt>
      <trkpt lat="43.14378" lon="3.13321">
        <ele>2.3</ele>
        <time>2018-03-18T10:57:35Z</time>
      </trkpt>
      <trkpt lat="43.1437" lon="3.13318">
        <ele>1.5</ele>
        <time>2018-03-18T10:57:38Z</time>
      </trkpt>
      <trkpt lat="43.14362" lon="3.13314">
        <ele>0.7</ele>
        <time>2018-03-18T10:57:41Z</time>
      </trkpt>
      <trkpt lat="43.14353" lon="3.13309">
        <ele>0.4</ele>
        <time>2018-03-18T10:57:44Z</time>
      </trkpt>
      <trkpt lat="43.14345" lon="3.13304">
        <ele>-0.2</ele>
        <time>2018-03-18T10:57:47Z</time>
      </trkpt>
      <trkpt lat="43.14336" lon="3.13302">
        <ele>-0.3</ele>
        <time>2018-03-18T10:57:50Z</time>
      </trkpt>
      <trkpt lat="43.14327" lon="3.13298">
        <ele>0.6</ele>
        <time>2018-03-18T10:57:53Z</time>
      </trkpt>
      <trkpt lat="43.14318" lon="3.13296">
        <ele>0.8</ele>
        <time>2018-03-18T10:57:56Z</time>
      </trkpt>
      <trkpt lat="43.14309" lon="3.13293">
        <ele>1.9</ele>
        <time>2018-03-18T10:57:59Z</time>
      </trkpt>
      <trkpt lat="43.14301" lon="3.13289">
        <ele>4.1</ele>
        <time>2018-03-18T10:58:02Z</time>
      </trkpt>
      <trkpt lat="43.14294" lon="3.13282">
        <ele>4.6</ele>
        <time>2018-03-18T10:58:05Z</time>
      </trkpt>
      <trkpt lat="43.14286" lon="3.13274">
        <ele>4.9</ele>
        <time>2018-03-18T10:58:08Z</time>
      </trkpt>
      <trkpt lat="43.14278" lon="3.13264">
        <ele>5</ele>
        <time>2018-03-18T10:58:11Z</time>
      </trkpt>
      <trkpt lat="43.14269" lon="3.13256">
        <ele>6.4</ele>
        <time>2018-03-18T10:58:14Z</time>
      </trkpt>
      <trkpt lat="43.14261" lon="3.13247">
        <ele>7.6</ele>
        <time>2018-03-18T10:58:17Z</time>
      </trkpt>
      <trkpt lat="43.14254" lon="3.13243">
        <ele>7.8</ele>
        <time>2018-03-18T10:58:19Z</time>
      </trkpt>
      <trkpt lat="43.14247" lon="3.13239">
        <ele>8.2</ele>
        <time>2018-03-18T10:58:21Z</time>
      </trkpt>
      <trkpt lat="43.1424" lon="3.13234">
        <ele>8.3</ele>
        <time>2018-03-18T10:58:23Z</time>
      </trkpt>
      <trkpt lat="43.14233" lon="3.1323">
        <ele>8.4</ele>
        <time>2018-03-18T10:58:25Z</time>
      </trkpt>
      <trkpt lat="43.14225" lon="3.13226">
        <ele>9</ele>
        <time>2018-03-18T10:58:27Z</time>
      </trkpt>
      <trkpt lat="43.14218" lon="3.13224">
        <ele>8.9</ele>
        <time>2018-03-18T10:58:29Z</time>
      </trkpt>
      <trkpt lat="43.1421" lon="3.13223">
        <ele>8.7</ele>
        <time>2018-03-18T10:58:31Z</time>
      </trkpt>
      <trkpt lat="43.14203" lon="3.1322">
        <ele>8.7</ele>
        <time>2018-03-18T10:58:33Z</time>
      </trkpt>
      <trkpt lat="43.14195" lon="3.13217">
        <ele>9</ele>
        <time>2018-03-18T10:58:35Z</time>
      </trkpt>
      <trkpt lat="43.14188" lon="3.13213">
        <ele>9.1</ele>
        <time>2018-03-18T10:58:37Z</time>
      </trkpt>
      <trkpt lat="43.14181" lon="3.13208">
        <ele>9.4</ele>
        <time>2018-03-18T10:58:39Z</time>
      </trkpt>
      <trkpt lat="43.14173" lon="3.13202">
        <ele>9.6</ele>
        <time>2018-03-18T10:58:42Z</time>
      </trkpt>
      <trkpt lat="43.14166" lon="3.13194">
        <ele>9.3</ele>
        <time>2018-03-18T10:58:45Z</time>
      </trkpt>
      <trkpt lat="43.14163" lon="3.13182">
        <ele>8.9</ele>
        <time>2018-03-18T10:58:48Z</time>
      </trkpt>
      <trkpt lat="43.14166" lon="3.1317">
        <ele>8.5</ele>
        <time>2018-03-18T10:58:52Z</time>
      </trkpt>
      <trkpt lat="43.14168" lon="3.1316">
        <ele>8.4</ele>
        <time>2018-03-18T10:58:56Z</time>
      </trkpt>
      <trkpt lat="43.14171" lon="3.1315">
        <ele>8.6</ele>
        <time>2018-03-18T10:59:01Z</time>
      </trkpt>
      <trkpt lat="43.14175" lon="3.1314">
        <ele>7.7</ele>
        <time>2018-03-18T10:59:06Z</time>
      </trkpt>
      <trkpt lat="43.14181" lon="3.13132">
        <ele>7.6</ele>
        <time>2018-03-18T10:59:11Z</time>
      </trkpt>
      <trkpt lat="43.14185" lon="3.13121">
        <ele>8</ele>
        <time>2018-03-18T10:59:17Z</time>
      </trkpt>
      <trkpt lat="43.1419" lon="3.13114">
        <ele>8.2</ele>
        <time>2018-03-18T10:59:20Z</time>
      </trkpt>
      <trkpt lat="43.14194" lon="3.13106">
        <ele>9.8</ele>
        <time>2018-03-18T10:59:24Z</time>
      </trkpt>
      <trkpt lat="43.14199" lon="3.13097">
        <ele>11.4</ele>
        <time>2018-03-18T10:59:28Z</time>
      </trkpt>
      <trkpt lat="43.14204" lon="3.13088">
        <ele>13.5</ele>
        <time>2018-03-18T10:59:33Z</time>
      </trkpt>
      <trkpt lat="43.14207" lon="3.13078">
        <ele>14.8</ele>
        <time>2018-03-18T10:59:39Z</time>
      </trkpt>
      <trkpt lat="43.14211" lon="3.13069">
        <ele>16</ele>
        <time>2018-03-18T10:59:44Z</time>
      </trkpt>
      <trkpt lat="43.14215" lon="3.13059">
        <ele>16.6</ele>
        <time>2018-03-18T10:59:48Z</time>
      </trkpt>
      <trkpt lat="43.1422" lon="3.13052">
        <ele>17.3</ele>
        <time>2018-03-18T10:59:51Z</time>
      </trkpt>
      <trkpt lat="43.14224" lon="3.13041">
        <ele>18.3</ele>
        <time>2018-03-18T10:59:56Z</time>
      </trkpt>
      <trkpt lat="43.14227" lon="3.13033">
        <ele>19.2</ele>
        <time>2018-03-18T11:00:00Z</time>
      </trkpt>
      <trkpt lat="43.14233" lon="3.13024">
        <ele>20.1</ele>
        <time>2018-03-18T11:00:05Z</time>
      </trkpt>
      <trkpt lat="43.14237" lon="3.13014">
        <ele>20.7</ele>
        <time>2018-03-18T11:00:10Z</time>
      </trkpt>
      <trkpt lat="43.14241" lon="3.13005">
        <ele>20.9</ele>
        <time>2018-03-18T11:00:15Z</time>
      </trkpt>
      <trkpt lat="43.14246" lon="3.12997">
        <ele>21.2</ele>
        <time>2018-03-18T11:00:18Z</time>
      </trkpt>
      <trkpt lat="43.14251" lon="3.12988">
        <ele>21.4</ele>
        <time>2018-03-18T11:00:21Z</time>
      </trkpt>
      <trkpt lat="43.14258" lon="3.12979">
        <ele>21.1</ele>
        <time>2018-03-18T11:00:24Z</time>
      </trkpt>
      <trkpt lat="43.14262" lon="3.12971">
        <ele>21.2</ele>
        <time>2018-03-18T11:00:27Z</time>
      </trkpt>
      <trkpt lat="43.14265" lon="3.12959">
        <ele>21.4</ele>
        <time>2018-03-18T11:00:31Z</time>
      </trkpt>
      <trkpt lat="43.14269" lon="3.12948">
        <ele>21.4</ele>
        <time>2018-03-18T11:00:35Z</time>
      </trkpt>
      <trkpt lat="43.14272" lon="3.12937">
        <ele>22.1</ele>
        <time>2018-03-18T11:00:39Z</time>
      </trkpt>
      <trkpt lat="43.14276" lon="3.12927">
        <ele>22.5</ele>
        <time>2018-03-18T11:00:43Z</time>
      </trkpt>
      <trkpt lat="43.14279" lon="3.12916">
        <ele>23.1</ele>
        <time>2018-03-18T11:00:47Z</time>
      </trkpt>
      <trkpt lat="43.14283" lon="3.12907">
        <ele>23.1</ele>
        <time>2018-03-18T11:00:50Z</time>
      </trkpt>
      <trkpt lat="43.14287" lon="3.12897">
        <ele>23.1</ele>
        <time>2018-03-18T11:00:53Z</time>
      </trkpt>
      <trkpt lat="43.1429" lon="3.12889">
        <ele>22.8</ele>
        <time>2018-03-18T11:00:56Z</time>
      </trkpt>
      <trkpt lat="43.14291" lon="3.12877">
        <ele>23.1</ele>
        <time>2018-03-18T11:01:01Z</time>
      </trkpt>
      <trkpt lat="43.14292" lon="3.12866">
        <ele>22.9</ele>
        <time>2018-03-18T11:01:05Z</time>
      </trkpt>
      <trkpt lat="43.14293" lon="3.12855">
        <ele>21.2</ele>
        <time>2018-03-18T11:01:09Z</time>
      </trkpt>
      <trkpt lat="43.14291" lon="3.12845">
        <ele>20.3</ele>
        <time>2018-03-18T11:01:13Z</time>
      </trkpt>
      <trkpt lat="43.14291" lon="3.12834">
        <ele>20.4</ele>
        <time>2018-03-18T11:01:17Z</time>
      </trkpt>
      <trkpt lat="43.14293" lon="3.12821">
        <ele>20.2</ele>
        <time>2018-03-18T11:01:22Z</time>
      </trkpt>
      <trkpt lat="43.14293" lon="3.1281">
        <ele>20.9</ele>
        <time>2018-03-18T11:01:26Z</time>
      </trkpt>
      <trkpt lat="43.14294" lon="3.12799">
        <ele>20.8</ele>
        <time>2018-03-18T11:01:30Z</time>
      </trkpt>
      <trkpt lat="43.14295" lon="3.12788">
        <ele>20.7</ele>
        <time>2018-03-18T11:01:34Z</time>
      </trkpt>
      <trkpt lat="43.14295" lon="3.12776">
        <ele>20.2</ele>
        <time>2018-03-18T11:01:38Z</time>
      </trkpt>
      <trkpt lat="43.14296" lon="3.12765">
        <ele>20.2</ele>
        <time>2018-03-18T11:01:42Z</time>
      </trkpt>
      <trkpt lat="43.14298" lon="3.12754">
        <ele>19.3</ele>
        <time>2018-03-18T11:01:47Z</time>
      </trkpt>
      <trkpt lat="43.14297" lon="3.12743">
        <ele>19.3</ele>
        <time>2018-03-18T11:01:51Z</time>
      </trkpt>
      <trkpt lat="43.14299" lon="3.1273">
        <ele>19</ele>
        <time>2018-03-18T11:01:54Z</time>
      </trkpt>
      <trkpt lat="43.14301" lon="3.1272">
        <ele>18.8</ele>
        <time>2018-03-18T11:01:57Z</time>
      </trkpt>
      <trkpt lat="43.14299" lon="3.12707">
        <ele>18.2</ele>
        <time>2018-03-18T11:02:01Z</time>
      </trkpt>
      <trkpt lat="43.14298" lon="3.12696">
        <ele>17.5</ele>
        <time>2018-03-18T11:02:04Z</time>
      </trkpt>
      <trkpt lat="43.14298" lon="3.12686">
        <ele>18.2</ele>
        <time>2018-03-18T11:02:07Z</time>
      </trkpt>
      <trkpt lat="43.14298" lon="3.12675">
        <ele>18.1</ele>
        <time>2018-03-18T11:02:10Z</time>
      </trkpt>
      <trkpt lat="43.14297" lon="3.12664">
        <ele>17.4</ele>
        <time>2018-03-18T11:02:13Z</time>
      </trkpt>
      <trkpt lat="43.14298" lon="3.12653">
        <ele>17.9</ele>
        <time>2018-03-18T11:02:17Z</time>
      </trkpt>
      <trkpt lat="43.143" lon="3.12641">
        <ele>17.6</ele>
        <time>2018-03-18T11:02:21Z</time>
      </trkpt>
      <trkpt lat="43.143" lon="3.12631">
        <ele>17.6</ele>
        <time>2018-03-18T11:02:24Z</time>
      </trkpt>
      <trkpt lat="43.143" lon="3.1262">
        <ele>17.5</ele>
        <time>2018-03-18T11:02:27Z</time>
      </trkpt>
      <trkpt lat="43.143" lon="3.12607">
        <ele>19.3</ele>
        <time>2018-03-18T11:02:31Z</time>
      </trkpt>
      <trkpt lat="43.14296" lon="3.12599">
        <ele>21.2</ele>
        <time>2018-03-18T11:02:37Z</time>
      </trkpt>
      <trkpt lat="43.14288" lon="3.12599">
        <ele>24.6</ele>
        <time>2018-03-18T11:02:41Z</time>
      </trkpt>
      <trkpt lat="43.14282" lon="3.12607">
        <ele>26</ele>
        <time>2018-03-18T11:02:46Z</time>
      </trkpt>
      <trkpt lat="43.14278" lon="3.12618">
        <ele>26.6</ele>
        <time>2018-03-18T11:02:50Z</time>
      </trkpt>
      <trkpt lat="43.14273" lon="3.1263">
        <ele>27.4</ele>
        <time>2018-03-18T11:02:55Z</time>
      </trkpt>
      <trkpt lat="43.14276" lon="3.12643">
        <ele>28.6</ele>
        <time>2018-03-18T11:02:59Z</time>
      </trkpt>
      <trkpt lat="43.14277" lon="3.12656">
        <ele>30.3</ele>
        <time>2018-03-18T11:03:03Z</time>
      </trkpt>
      <trkpt lat="43.14276" lon="3.12667">
        <ele>31.4</ele>
        <time>2018-03-18T11:03:07Z</time>
      </trkpt>
      <trkpt lat="43.14273" lon="3.12678">
        <ele>32.2</ele>
        <time>2018-03-18T11:03:11Z</time>
      </trkpt>
      <trkpt lat="43.14276" lon="3.1269">
        <ele>33.7</ele>
        <time>2018-03-18T11:03:15Z</time>
      </trkpt>
      <trkpt lat="43.14277" lon="3.12703">
        <ele>33.8</ele>
        <time>2018-03-18T11:03:20Z</time>
      </trkpt>
      <trkpt lat="43.1428" lon="3.12714">
        <ele>34.6</ele>
        <time>2018-03-18T11:03:23Z</time>
      </trkpt>
      <trkpt lat="43.14282" lon="3.12726">
        <ele>35.8</ele>
        <time>2018-03-18T11:03:26Z</time>
      </trkpt>
      <trkpt lat="43.14282" lon="3.12736">
        <ele>36.9</ele>
        <time>2018-03-18T11:03:28Z</time>
      </trkpt>
      <trkpt lat="43.1428" lon="3.12747">
        <ele>39.5</ele>
        <time>2018-03-18T11:03:31Z</time>
      </trkpt>
      <trkpt lat="43.14273" lon="3.12755">
        <ele>40.9</ele>
        <time>2018-03-18T11:03:34Z</time>
      </trkpt>
      <trkpt lat="43.14265" lon="3.12762">
        <ele>42.3</ele>
        <time>2018-03-18T11:03:37Z</time>
      </trkpt>
      <trkpt lat="43.14258" lon="3.12766">
        <ele>43</ele>
        <time>2018-03-18T11:03:40Z</time>
      </trkpt>
      <trkpt lat="43.14251" lon="3.12769">
        <ele>43.7</ele>
        <time>2018-03-18T11:03:43Z</time>
      </trkpt>
      <trkpt lat="43.14244" lon="3.12775">
        <ele>44.6</ele>
        <time>2018-03-18T11:03:47Z</time>
      </trkpt>
      <trkpt lat="43.14237" lon="3.12778">
        <ele>45.5</ele>
        <time>2018-03-18T11:03:51Z</time>
      </trkpt>
      <trkpt lat="43.14228" lon="3.12783">
        <ele>46.1</ele>
        <time>2018-03-18T11:03:54Z</time>
      </trkpt>
      <trkpt lat="43.14221" lon="3.12789">
        <ele>46.1</ele>
        <time>2018-03-18T11:03:57Z</time>
      </trkpt>
      <trkpt lat="43.14214" lon="3.12794">
        <ele>46.2</ele>
        <time>2018-03-18T11:04:00Z</time>
      </trkpt>
      <trkpt lat="43.14208" lon="3.12802">
        <ele>46.8</ele>
        <time>2018-03-18T11:04:04Z</time>
      </trkpt>
      <trkpt lat="43.142" lon="3.12807">
        <ele>47.4</ele>
        <time>2018-03-18T11:04:08Z</time>
      </trkpt>
      <trkpt lat="43.14191" lon="3.1281">
        <ele>48.3</ele>
        <time>2018-03-18T11:04:12Z</time>
      </trkpt>
      <trkpt lat="43.14182" lon="3.12809">
        <ele>49.2</ele>
        <time>2018-03-18T11:04:16Z</time>
      </trkpt>
      <trkpt lat="43.14175" lon="3.12808">
        <ele>50.2</ele>
        <time>2018-03-18T11:04:19Z</time>
      </trkpt>
      <trkpt lat="43.14166" lon="3.12807">
        <ele>51.1</ele>
        <time>2018-03-18T11:04:22Z</time>
      </trkpt>
      <trkpt lat="43.14159" lon="3.12803">
        <ele>51.8</ele>
        <time>2018-03-18T11:04:25Z</time>
      </trkpt>
      <trkpt lat="43.14152" lon="3.12799">
        <ele>52.7</ele>
        <time>2018-03-18T11:04:28Z</time>
      </trkpt>
      <trkpt lat="43.14146" lon="3.12791">
        <ele>53.4</ele>
        <time>2018-03-18T11:04:31Z</time>
      </trkpt>
      <trkpt lat="43.14141" lon="3.12781">
        <ele>54.2</ele>
        <time>2018-03-18T11:04:35Z</time>
      </trkpt>
      <trkpt lat="43.14136" lon="3.12772">
        <ele>54.3</ele>
        <time>2018-03-18T11:04:39Z</time>
      </trkpt>
      <trkpt lat="43.14132" lon="3.12763">
        <ele>54</ele>
        <time>2018-03-18T11:04:43Z</time>
      </trkpt>
      <trkpt lat="43.14128" lon="3.12754">
        <ele>54.1</ele>
        <time>2018-03-18T11:04:48Z</time>
      </trkpt>
      <trkpt lat="43.14126" lon="3.12744">
        <ele>54.4</ele>
        <time>2018-03-18T11:04:52Z</time>
      </trkpt>
      <trkpt lat="43.14123" lon="3.12733">
        <ele>54.3</ele>
        <time>2018-03-18T11:04:56Z</time>
      </trkpt>
      <trkpt lat="43.1412" lon="3.12724">
        <ele>53.8</ele>
        <time>2018-03-18T11:04:59Z</time>
      </trkpt>
      <trkpt lat="43.14118" lon="3.12713">
        <ele>53.3</ele>
        <time>2018-03-18T11:05:03Z</time>
      </trkpt>
      <trkpt lat="43.14119" lon="3.127">
        <ele>53.6</ele>
        <time>2018-03-18T11:05:07Z</time>
      </trkpt>
      <trkpt lat="43.1412" lon="3.12688">
        <ele>53.3</ele>
        <time>2018-03-18T11:05:11Z</time>
      </trkpt>
      <trkpt lat="43.14121" lon="3.12678">
        <ele>54.5</ele>
        <time>2018-03-18T11:05:15Z</time>
      </trkpt>
      <trkpt lat="43.14121" lon="3.12667">
        <ele>55.6</ele>
        <time>2018-03-18T11:05:19Z</time>
      </trkpt>
      <trkpt lat="43.14123" lon="3.12656">
        <ele>55.2</ele>
        <time>2018-03-18T11:05:23Z</time>
      </trkpt>
      <trkpt lat="43.14125" lon="3.12645">
        <ele>55</ele>
        <time>2018-03-18T11:05:28Z</time>
      </trkpt>
      <trkpt lat="43.14125" lon="3.12634">
        <ele>54.5</ele>
        <time>2018-03-18T11:05:33Z</time>
      </trkpt>
      <trkpt lat="43.14119" lon="3.12626">
        <ele>54.8</ele>
        <time>2018-03-18T11:05:38Z</time>
      </trkpt>
      <trkpt lat="43.14112" lon="3.12622">
        <ele>53.7</ele>
        <time>2018-03-18T11:05:43Z</time>
      </trkpt>
      <trkpt lat="43.14102" lon="3.12622">
        <ele>53.4</ele>
        <time>2018-03-18T11:05:47Z</time>
      </trkpt>
      <trkpt lat="43.14092" lon="3.12623">
        <ele>53.3</ele>
        <time>2018-03-18T11:05:50Z</time>
      </trkpt>
      <trkpt lat="43.14083" lon="3.12624">
        <ele>53.7</ele>
        <time>2018-03-18T11:05:53Z</time>
      </trkpt>
      <trkpt lat="43.14076" lon="3.12625">
        <ele>53.8</ele>
        <time>2018-03-18T11:05:55Z</time>
      </trkpt>
      <trkpt lat="43.14067" lon="3.12624">
        <ele>53.3</ele>
        <time>2018-03-18T11:05:57Z</time>
      </trkpt>
      <trkpt lat="43.14055" lon="3.12625">
        <ele>52.7</ele>
        <time>2018-03-18T11:05:59Z</time>
      </trkpt>
      <trkpt lat="43.14043" lon="3.12627">
        <ele>52.2</ele>
        <time>2018-03-18T11:06:01Z</time>
      </trkpt>
      <trkpt lat="43.14032" lon="3.12631">
        <ele>51.9</ele>
        <time>2018-03-18T11:06:03Z</time>
      </trkpt>
      <trkpt lat="43.14022" lon="3.12634">
        <ele>51.1</ele>
        <time>2018-03-18T11:06:05Z</time>
      </trkpt>
      <trkpt lat="43.14012" lon="3.12637">
        <ele>51.2</ele>
        <time>2018-03-18T11:06:07Z</time>
      </trkpt>
      <trkpt lat="43.14003" lon="3.12633">
        <ele>51.7</ele>
        <time>2018-03-18T11:06:09Z</time>
      </trkpt>
      <trkpt lat="43.13998" lon="3.12623">
        <ele>51.8</ele>
        <time>2018-03-18T11:06:11Z</time>
      </trkpt>
      <trkpt lat="43.13996" lon="3.1261">
        <ele>52.2</ele>
        <time>2018-03-18T11:06:14Z</time>
      </trkpt>
      <trkpt lat="43.13996" lon="3.12599">
        <ele>52.2</ele>
        <time>2018-03-18T11:06:17Z</time>
      </trkpt>
      <trkpt lat="43.13996" lon="3.12587">
        <ele>51.5</ele>
        <time>2018-03-18T11:06:20Z</time>
      </trkpt>
      <trkpt lat="43.13996" lon="3.12576">
        <ele>50.9</ele>
        <time>2018-03-18T11:06:23Z</time>
      </trkpt>
      <trkpt lat="43.13998" lon="3.12562">
        <ele>49.1</ele>
        <time>2018-03-18T11:06:26Z</time>
      </trkpt>
      <trkpt lat="43.14" lon="3.12553">
        <ele>48.3</ele>
        <time>2018-03-18T11:06:28Z</time>
      </trkpt>
      <trkpt lat="43.14003" lon="3.12539">
        <ele>47.2</ele>
        <time>2018-03-18T11:06:31Z</time>
      </trkpt>
      <trkpt lat="43.14007" lon="3.12525">
        <ele>46</ele>
        <time>2018-03-18T11:06:34Z</time>
      </trkpt>
      <trkpt lat="43.14011" lon="3.12515">
        <ele>44</ele>
        <time>2018-03-18T11:06:36Z</time>
      </trkpt>
      <trkpt lat="43.14015" lon="3.12506">
        <ele>43</ele>
        <time>2018-03-18T11:06:38Z</time>
      </trkpt>
      <trkpt lat="43.14021" lon="3.12495">
        <ele>41.7</ele>
        <time>2018-03-18T11:06:41Z</time>
      </trkpt>
      <trkpt lat="43.14027" lon="3.12484">
        <ele>41.1</ele>
        <time>2018-03-18T11:06:44Z</time>
      </trkpt>
      <trkpt lat="43.14035" lon="3.12475">
        <ele>40.2</ele>
        <time>2018-03-18T11:06:47Z</time>
      </trkpt>
      <trkpt lat="43.14042" lon="3.12467">
        <ele>40.1</ele>
        <time>2018-03-18T11:06:50Z</time>
      </trkpt>
      <trkpt lat="43.14047" lon="3.12454">
        <ele>41.7</ele>
        <time>2018-03-18T11:06:53Z</time>
      </trkpt>
      <trkpt lat="43.1405" lon="3.12445">
        <ele>42</ele>
        <time>2018-03-18T11:06:55Z</time>
      </trkpt>
      <trkpt lat="43.14052" lon="3.12432">
        <ele>42.2</ele>
        <time>2018-03-18T11:06:58Z</time>
      </trkpt>
      <trkpt lat="43.14052" lon="3.12421">
        <ele>41.6</ele>
        <time>2018-03-18T11:07:02Z</time>
      </trkpt>
      <trkpt lat="43.14047" lon="3.12412">
        <ele>41.7</ele>
        <time>2018-03-18T11:07:05Z</time>
      </trkpt>
      <trkpt lat="43.14042" lon="3.12402">
        <ele>40.7</ele>
        <time>2018-03-18T11:07:08Z</time>
      </trkpt>
      <trkpt lat="43.14035" lon="3.12394">
        <ele>39.7</ele>
        <time>2018-03-18T11:07:11Z</time>
      </trkpt>
      <trkpt lat="43.14029" lon="3.12388">
        <ele>39.2</ele>
        <time>2018-03-18T11:07:13Z</time>
      </trkpt>
      <trkpt lat="43.14022" lon="3.12383">
        <ele>38.6</ele>
        <time>2018-03-18T11:07:15Z</time>
      </trkpt>
      <trkpt lat="43.14015" lon="3.12376">
        <ele>37.9</ele>
        <time>2018-03-18T11:07:18Z</time>
      </trkpt>
      <trkpt lat="43.14007" lon="3.12369">
        <ele>37.4</ele>
        <time>2018-03-18T11:07:21Z</time>
      </trkpt>
      <trkpt lat="43.13999" lon="3.12361">
        <ele>37.2</ele>
        <time>2018-03-18T11:07:24Z</time>
      </trkpt>
      <trkpt lat="43.13991" lon="3.12356">
        <ele>37</ele>
        <time>2018-03-18T11:07:26Z</time>
      </trkpt>
      <trkpt lat="43.13984" lon="3.12352">
        <ele>37.1</ele>
        <time>2018-03-18T11:07:28Z</time>
      </trkpt>
      <trkpt lat="43.13976" lon="3.12346">
        <ele>37.6</ele>
        <time>2018-03-18T11:07:31Z</time>
      </trkpt>
      <trkpt lat="43.13969" lon="3.1234">
        <ele>38.3</ele>
        <time>2018-03-18T11:07:34Z</time>
      </trkpt>
      <trkpt lat="43.13965" lon="3.12329">
        <ele>39.3</ele>
        <time>2018-03-18T11:07:38Z</time>
      </trkpt>
      <trkpt lat="43.13961" lon="3.1232">
        <ele>39.5</ele>
        <time>2018-03-18T11:07:41Z</time>
      </trkpt>
      <trkpt lat="43.13958" lon="3.12311">
        <ele>39.6</ele>
        <time>2018-03-18T11:07:43Z</time>
      </trkpt>
      <trkpt lat="43.13956" lon="3.12301">
        <ele>39.9</ele>
        <time>2018-03-18T11:07:46Z</time>
      </trkpt>
      <trkpt lat="43.13957" lon="3.12288">
        <ele>40.4</ele>
        <time>2018-03-18T11:07:50Z</time>
      </trkpt>
      <trkpt lat="43.13958" lon="3.12279">
        <ele>40.9</ele>
        <time>2018-03-18T11:07:53Z</time>
      </trkpt>
      <trkpt lat="43.13959" lon="3.12267">
        <ele>41.6</ele>
        <time>2018-03-18T11:07:57Z</time>
      </trkpt>
      <trkpt lat="43.13961" lon="3.12256">
        <ele>42.1</ele>
        <time>2018-03-18T11:08:01Z</time>
      </trkpt>
      <trkpt lat="43.13962" lon="3.12246">
        <ele>42.4</ele>
        <time>2018-03-18T11:08:05Z</time>
      </trkpt>
      <trkpt lat="43.13962" lon="3.12234">
        <ele>43.3</ele>
        <time>2018-03-18T11:08:09Z</time>
      </trkpt>
      <trkpt lat="43.13965" lon="3.12222">
        <ele>43.6</ele>
        <time>2018-03-18T11:08:13Z</time>
      </trkpt>
      <trkpt lat="43.13966" lon="3.12213">
        <ele>44.6</ele>
        <time>2018-03-18T11:08:18Z</time>
      </trkpt>
      <trkpt lat="43.13967" lon="3.12203">
        <ele>45.7</ele>
        <time>2018-03-18T11:08:22Z</time>
      </trkpt>
      <trkpt lat="43.13968" lon="3.12192">
        <ele>45.7</ele>
        <time>2018-03-18T11:08:26Z</time>
      </trkpt>
      <trkpt lat="43.13969" lon="3.12182">
        <ele>46</ele>
        <time>2018-03-18T11:08:30Z</time>
      </trkpt>
      <trkpt lat="43.13969" lon="3.1217">
        <ele>47.5</ele>
        <time>2018-03-18T11:08:34Z</time>
      </trkpt>
      <trkpt lat="43.13971" lon="3.12159">
        <ele>47.7</ele>
        <time>2018-03-18T11:08:38Z</time>
      </trkpt>
      <trkpt lat="43.13974" lon="3.12149">
        <ele>47.6</ele>
        <time>2018-03-18T11:08:42Z</time>
      </trkpt>
      <trkpt lat="43.13977" lon="3.12139">
        <ele>47.4</ele>
        <time>2018-03-18T11:08:46Z</time>
      </trkpt>
      <trkpt lat="43.13978" lon="3.12129">
        <ele>47</ele>
        <time>2018-03-18T11:08:50Z</time>
      </trkpt>
      <trkpt lat="43.13981" lon="3.12118">
        <ele>46.9</ele>
        <time>2018-03-18T11:08:54Z</time>
      </trkpt>
      <trkpt lat="43.13984" lon="3.12107">
        <ele>47</ele>
        <time>2018-03-18T11:08:58Z</time>
      </trkpt>
      <trkpt lat="43.13986" lon="3.12095">
        <ele>46.5</ele>
        <time>2018-03-18T11:09:02Z</time>
      </trkpt>
      <trkpt lat="43.13989" lon="3.12086">
        <ele>47</ele>
        <time>2018-03-18T11:09:05Z</time>
      </trkpt>
      <trkpt lat="43.13993" lon="3.12074">
        <ele>47.9</ele>
        <time>2018-03-18T11:09:09Z</time>
      </trkpt>
      <trkpt lat="43.13996" lon="3.12065">
        <ele>47.5</ele>
        <time>2018-03-18T11:09:12Z</time>
      </trkpt>
      <trkpt lat="43.14" lon="3.12055">
        <ele>47.9</ele>
        <time>2018-03-18T11:09:16Z</time>
      </trkpt>
      <trkpt lat="43.14003" lon="3.12043">
        <ele>49.6</ele>
        <time>2018-03-18T11:09:21Z</time>
      </trkpt>
      <trkpt lat="43.14006" lon="3.12033">
        <ele>50.5</ele>
        <time>2018-03-18T11:09:25Z</time>
      </trkpt>
      <trkpt lat="43.14007" lon="3.12021">
        <ele>51.2</ele>
        <time>2018-03-18T11:09:29Z</time>
      </trkpt>
      <trkpt lat="43.14009" lon="3.12008">
        <ele>50.6</ele>
        <time>2018-03-18T11:09:33Z</time>
      </trkpt>
      <trkpt lat="43.14009" lon="3.11997">
        <ele>50.5</ele>
        <time>2018-03-18T11:09:36Z</time>
      </trkpt>
      <trkpt lat="43.14011" lon="3.11987">
        <ele>50.8</ele>
        <time>2018-03-18T11:09:39Z</time>
      </trkpt>
      <trkpt lat="43.14009" lon="3.11976">
        <ele>52.7</ele>
        <time>2018-03-18T11:09:42Z</time>
      </trkpt>
      <trkpt lat="43.1401" lon="3.11963">
        <ele>53.6</ele>
        <time>2018-03-18T11:09:46Z</time>
      </trkpt>
      <trkpt lat="43.14005" lon="3.11952">
        <ele>54.6</ele>
        <time>2018-03-18T11:09:49Z</time>
      </trkpt>
      <trkpt lat="43.14" lon="3.11943">
        <ele>55.5</ele>
        <time>2018-03-18T11:09:52Z</time>
      </trkpt>
      <trkpt lat="43.13995" lon="3.11932">
        <ele>56.5</ele>
        <time>2018-03-18T11:09:57Z</time>
      </trkpt>
      <trkpt lat="43.1399" lon="3.11924">
        <ele>57</ele>
        <time>2018-03-18T11:10:01Z</time>
      </trkpt>
      <trkpt lat="43.13982" lon="3.11921">
        <ele>57.4</ele>
        <time>2018-03-18T11:10:06Z</time>
      </trkpt>
      <trkpt lat="43.13976" lon="3.11925">
        <ele>57.6</ele>
        <time>2018-03-18T11:10:10Z</time>
      </trkpt>
      <trkpt lat="43.13967" lon="3.11932">
        <ele>59.4</ele>
        <time>2018-03-18T11:10:13Z</time>
      </trkpt>
      <trkpt lat="43.13961" lon="3.11936">
        <ele>60</ele>
        <time>2018-03-18T11:10:16Z</time>
      </trkpt>
      <trkpt lat="43.13953" lon="3.1194">
        <ele>60.6</ele>
        <time>2018-03-18T11:10:19Z</time>
      </trkpt>
      <trkpt lat="43.13944" lon="3.11946">
        <ele>60.5</ele>
        <time>2018-03-18T11:10:23Z</time>
      </trkpt>
      <trkpt lat="43.13937" lon="3.11952">
        <ele>60.9</ele>
        <time>2018-03-18T11:10:26Z</time>
      </trkpt>
      <trkpt lat="43.13931" lon="3.11962">
        <ele>60.9</ele>
        <time>2018-03-18T11:10:29Z</time>
      </trkpt>
      <trkpt lat="43.13924" lon="3.11973">
        <ele>60.4</ele>
        <time>2018-03-18T11:10:32Z</time>
      </trkpt>
      <trkpt lat="43.13919" lon="3.11984">
        <ele>59.1</ele>
        <time>2018-03-18T11:10:35Z</time>
      </trkpt>
      <trkpt lat="43.13914" lon="3.11995">
        <ele>59</ele>
        <time>2018-03-18T11:10:38Z</time>
      </trkpt>
      <trkpt lat="43.13908" lon="3.12003">
        <ele>58.4</ele>
        <time>2018-03-18T11:10:40Z</time>
      </trkpt>
      <trkpt lat="43.13902" lon="3.12012">
        <ele>58</ele>
        <time>2018-03-18T11:10:42Z</time>
      </trkpt>
      <trkpt lat="43.13897" lon="3.1202">
        <ele>57.1</ele>
        <time>2018-03-18T11:10:44Z</time>
      </trkpt>
      <trkpt lat="43.13891" lon="3.12029">
        <ele>56.4</ele>
        <time>2018-03-18T11:10:46Z</time>
      </trkpt>
      <trkpt lat="43.13885" lon="3.12038">
        <ele>55.4</ele>
        <time>2018-03-18T11:10:48Z</time>
      </trkpt>
      <trkpt lat="43.13879" lon="3.12047">
        <ele>55.1</ele>
        <time>2018-03-18T11:10:50Z</time>
      </trkpt>
      <trkpt lat="43.13875" lon="3.12055">
        <ele>54.5</ele>
        <time>2018-03-18T11:10:52Z</time>
      </trkpt>
      <trkpt lat="43.1387" lon="3.12063">
        <ele>54</ele>
        <time>2018-03-18T11:10:54Z</time>
      </trkpt>
      <trkpt lat="43.13865" lon="3.12071">
        <ele>53.7</ele>
        <time>2018-03-18T11:10:56Z</time>
      </trkpt>
      <trkpt lat="43.13861" lon="3.12081">
        <ele>53.7</ele>
        <time>2018-03-18T11:10:58Z</time>
      </trkpt>
      <trkpt lat="43.13856" lon="3.12091">
        <ele>53.7</ele>
        <time>2018-03-18T11:11:00Z</time>
      </trkpt>
      <trkpt lat="43.1385" lon="3.12099">
        <ele>53.5</ele>
        <time>2018-03-18T11:11:02Z</time>
      </trkpt>
      <trkpt lat="43.13844" lon="3.12106">
        <ele>53.3</ele>
        <time>2018-03-18T11:11:04Z</time>
      </trkpt>
      <trkpt lat="43.13839" lon="3.12114">
        <ele>53.1</ele>
        <time>2018-03-18T11:11:06Z</time>
      </trkpt>
      <trkpt lat="43.13833" lon="3.12125">
        <ele>52.4</ele>
        <time>2018-03-18T11:11:08Z</time>
      </trkpt>
      <trkpt lat="43.13827" lon="3.12136">
        <ele>53.3</ele>
        <time>2018-03-18T11:11:10Z</time>
      </trkpt>
      <trkpt lat="43.13821" lon="3.12147">
        <ele>53.3</ele>
        <time>2018-03-18T11:11:13Z</time>
      </trkpt>
      <trkpt lat="43.13812" lon="3.12154">
        <ele>53.7</ele>
        <time>2018-03-18T11:11:15Z</time>
      </trkpt>
      <trkpt lat="43.13802" lon="3.12159">
        <ele>53.3</ele>
        <time>2018-03-18T11:11:17Z</time>
      </trkpt>
      <trkpt lat="43.13795" lon="3.12163">
        <ele>52.9</ele>
        <time>2018-03-18T11:11:18Z</time>
      </trkpt>
      <trkpt lat="43.13787" lon="3.12166">
        <ele>52.4</ele>
        <time>2018-03-18T11:11:19Z</time>
      </trkpt>
      <trkpt lat="43.13779" lon="3.12168">
        <ele>51.9</ele>
        <time>2018-03-18T11:11:20Z</time>
      </trkpt>
      <trkpt lat="43.13772" lon="3.12173">
        <ele>51.3</ele>
        <time>2018-03-18T11:11:21Z</time>
      </trkpt>
      <trkpt lat="43.13761" lon="3.12182">
        <ele>50.5</ele>
        <time>2018-03-18T11:11:23Z</time>
      </trkpt>
      <trkpt lat="43.13753" lon="3.12187">
        <ele>50</ele>
        <time>2018-03-18T11:11:24Z</time>
      </trkpt>
      <trkpt lat="43.13747" lon="3.12195">
        <ele>49</ele>
        <time>2018-03-18T11:11:25Z</time>
      </trkpt>
      <trkpt lat="43.1374" lon="3.12203">
        <ele>48.3</ele>
        <time>2018-03-18T11:11:26Z</time>
      </trkpt>
      <trkpt lat="43.13735" lon="3.12212">
        <ele>47.8</ele>
        <time>2018-03-18T11:11:27Z</time>
      </trkpt>
      <trkpt lat="43.13731" lon="3.12221">
        <ele>47.4</ele>
        <time>2018-03-18T11:11:28Z</time>
      </trkpt>
      <trkpt lat="43.13727" lon="3.12229">
        <ele>46.9</ele>
        <time>2018-03-18T11:11:29Z</time>
      </trkpt>
      <trkpt lat="43.13722" lon="3.12247">
        <ele>46.4</ele>
        <time>2018-03-18T11:11:31Z</time>
      </trkpt>
      <trkpt lat="43.13717" lon="3.12265">
        <ele>45.6</ele>
        <time>2018-03-18T11:11:33Z</time>
      </trkpt>
      <trkpt lat="43.13709" lon="3.12281">
        <ele>44.7</ele>
        <time>2018-03-18T11:11:35Z</time>
      </trkpt>
      <trkpt lat="43.13705" lon="3.12289">
        <ele>44.2</ele>
        <time>2018-03-18T11:11:36Z</time>
      </trkpt>
      <trkpt lat="43.137" lon="3.12298">
        <ele>43.8</ele>
        <time>2018-03-18T11:11:37Z</time>
      </trkpt>
      <trkpt lat="43.13695" lon="3.12305">
        <ele>43.4</ele>
        <time>2018-03-18T11:11:38Z</time>
      </trkpt>
      <trkpt lat="43.13686" lon="3.12319">
        <ele>42.6</ele>
        <time>2018-03-18T11:11:40Z</time>
      </trkpt>
      <trkpt lat="43.13675" lon="3.12329">
        <ele>41.5</ele>
        <time>2018-03-18T11:11:42Z</time>
      </trkpt>
      <trkpt lat="43.13668" lon="3.12335">
        <ele>40.8</ele>
        <time>2018-03-18T11:11:43Z</time>
      </trkpt>
      <trkpt lat="43.13663" lon="3.12342">
        <ele>40.3</ele>
        <time>2018-03-18T11:11:44Z</time>
      </trkpt>
      <trkpt lat="43.13657" lon="3.12349">
        <ele>39.9</ele>
        <time>2018-03-18T11:11:45Z</time>
      </trkpt>
      <trkpt lat="43.13651" lon="3.12356">
        <ele>39.4</ele>
        <time>2018-03-18T11:11:46Z</time>
      </trkpt>
      <trkpt lat="43.13644" lon="3.12372">
        <ele>38.5</ele>
        <time>2018-03-18T11:11:48Z</time>
      </trkpt>
      <trkpt lat="43.13636" lon="3.12384">
        <ele>38.1</ele>
        <time>2018-03-18T11:11:50Z</time>
      </trkpt>
      <trkpt lat="43.1363" lon="3.12394">
        <ele>37.8</ele>
        <time>2018-03-18T11:11:52Z</time>
      </trkpt>
      <trkpt lat="43.13624" lon="3.12401">
        <ele>37.4</ele>
        <time>2018-03-18T11:11:54Z</time>
      </trkpt>
      <trkpt lat="43.13616" lon="3.12409">
        <ele>37.1</ele>
        <time>2018-03-18T11:11:56Z</time>
      </trkpt>
      <trkpt lat="43.13606" lon="3.12417">
        <ele>36.9</ele>
        <time>2018-03-18T11:11:58Z</time>
      </trkpt>
      <trkpt lat="43.13598" lon="3.12425">
        <ele>36.5</ele>
        <time>2018-03-18T11:12:00Z</time>
      </trkpt>
      <trkpt lat="43.1359" lon="3.12432">
        <ele>35.7</ele>
        <time>2018-03-18T11:12:02Z</time>
      </trkpt>
      <trkpt lat="43.13584" lon="3.12441">
        <ele>35.3</ele>
        <time>2018-03-18T11:12:04Z</time>
      </trkpt>
      <trkpt lat="43.13577" lon="3.12449">
        <ele>34.6</ele>
        <time>2018-03-18T11:12:06Z</time>
      </trkpt>
      <trkpt lat="43.13572" lon="3.12454">
        <ele>34</ele>
        <time>2018-03-18T11:12:08Z</time>
      </trkpt>
      <trkpt lat="43.13564" lon="3.12465">
        <ele>33.5</ele>
        <time>2018-03-18T11:12:11Z</time>
      </trkpt>
      <trkpt lat="43.13557" lon="3.12472">
        <ele>33.3</ele>
        <time>2018-03-18T11:12:13Z</time>
      </trkpt>
      <trkpt lat="43.13549" lon="3.12481">
        <ele>32.5</ele>
        <time>2018-03-18T11:12:15Z</time>
      </trkpt>
      <trkpt lat="43.13542" lon="3.12491">
        <ele>32</ele>
        <time>2018-03-18T11:12:17Z</time>
      </trkpt>
      <trkpt lat="43.13536" lon="3.12499">
        <ele>31.4</ele>
        <time>2018-03-18T11:12:19Z</time>
      </trkpt>
      <trkpt lat="43.1353" lon="3.12508">
        <ele>31.4</ele>
        <time>2018-03-18T11:12:21Z</time>
      </trkpt>
      <trkpt lat="43.13519" lon="3.12517">
        <ele>31.5</ele>
        <time>2018-03-18T11:12:23Z</time>
      </trkpt>
      <trkpt lat="43.13511" lon="3.12527">
        <ele>31.6</ele>
        <time>2018-03-18T11:12:25Z</time>
      </trkpt>
      <trkpt lat="43.13504" lon="3.12534">
        <ele>31.7</ele>
        <time>2018-03-18T11:12:27Z</time>
      </trkpt>
      <trkpt lat="43.13498" lon="3.1254">
        <ele>31.9</ele>
        <time>2018-03-18T11:12:29Z</time>
      </trkpt>
      <trkpt lat="43.13492" lon="3.12545">
        <ele>31.2</ele>
        <time>2018-03-18T11:12:31Z</time>
      </trkpt>
      <trkpt lat="43.13483" lon="3.1255">
        <ele>31.3</ele>
        <time>2018-03-18T11:12:33Z</time>
      </trkpt>
      <trkpt lat="43.13475" lon="3.12553">
        <ele>31</ele>
        <time>2018-03-18T11:12:35Z</time>
      </trkpt>
      <trkpt lat="43.13468" lon="3.12557">
        <ele>30.8</ele>
        <time>2018-03-18T11:12:37Z</time>
      </trkpt>
      <trkpt lat="43.1346" lon="3.12562">
        <ele>31</ele>
        <time>2018-03-18T11:12:39Z</time>
      </trkpt>
      <trkpt lat="43.1345" lon="3.12565">
        <ele>30.8</ele>
        <time>2018-03-18T11:12:41Z</time>
      </trkpt>
      <trkpt lat="43.1344" lon="3.12566">
        <ele>30.6</ele>
        <time>2018-03-18T11:12:43Z</time>
      </trkpt>
      <trkpt lat="43.13432" lon="3.12562">
        <ele>30.9</ele>
        <time>2018-03-18T11:12:45Z</time>
      </trkpt>
      <trkpt lat="43.13425" lon="3.12556">
        <ele>30.4</ele>
        <time>2018-03-18T11:12:47Z</time>
      </trkpt>
      <trkpt lat="43.13416" lon="3.12549">
        <ele>30.6</ele>
        <time>2018-03-18T11:12:49Z</time>
      </trkpt>
      <trkpt lat="43.13406" lon="3.12541">
        <ele>30.1</ele>
        <time>2018-03-18T11:12:51Z</time>
      </trkpt>
      <trkpt lat="43.13395" lon="3.12533">
        <ele>29.9</ele>
        <time>2018-03-18T11:12:53Z</time>
      </trkpt>
      <trkpt lat="43.13386" lon="3.12531">
        <ele>29.4</ele>
        <time>2018-03-18T11:12:55Z</time>
      </trkpt>
      <trkpt lat="43.13378" lon="3.12535">
        <ele>28.4</ele>
        <time>2018-03-18T11:12:57Z</time>
      </trkpt>
      <trkpt lat="43.13373" lon="3.12542">
        <ele>26.9</ele>
        <time>2018-03-18T11:12:59Z</time>
      </trkpt>
      <trkpt lat="43.13367" lon="3.12553">
        <ele>25.4</ele>
        <time>2018-03-18T11:13:02Z</time>
      </trkpt>
      <trkpt lat="43.13362" lon="3.12561">
        <ele>23.6</ele>
        <time>2018-03-18T11:13:04Z</time>
      </trkpt>
      <trkpt lat="43.13356" lon="3.12571">
        <ele>22.5</ele>
        <time>2018-03-18T11:13:06Z</time>
      </trkpt>
      <trkpt lat="43.13349" lon="3.12579">
        <ele>19.9</ele>
        <time>2018-03-18T11:13:08Z</time>
      </trkpt>
      <trkpt lat="43.13342" lon="3.12589">
        <ele>18.8</ele>
        <time>2018-03-18T11:13:10Z</time>
      </trkpt>
      <trkpt lat="43.13335" lon="3.12598">
        <ele>17.3</ele>
        <time>2018-03-18T11:13:12Z</time>
      </trkpt>
      <trkpt lat="43.13329" lon="3.12607">
        <ele>15.4</ele>
        <time>2018-03-18T11:13:14Z</time>
      </trkpt>
      <trkpt lat="43.13321" lon="3.12614">
        <ele>15</ele>
        <time>2018-03-18T11:13:16Z</time>
      </trkpt>
      <trkpt lat="43.13311" lon="3.12616">
        <ele>13.7</ele>
        <time>2018-03-18T11:13:18Z</time>
      </trkpt>
      <trkpt lat="43.13301" lon="3.12616">
        <ele>13.4</ele>
        <time>2018-03-18T11:13:20Z</time>
      </trkpt>
      <trkpt lat="43.13292" lon="3.12612">
        <ele>13.2</ele>
        <time>2018-03-18T11:13:23Z</time>
      </trkpt>
      <trkpt lat="43.13285" lon="3.12604">
        <ele>13.4</ele>
        <time>2018-03-18T11:13:26Z</time>
      </trkpt>
      <trkpt lat="43.13283" lon="3.12602">
        <ele>13.3</ele>
        <time>2018-03-18T11:13:33Z</time>
      </trkpt>
      <trkpt lat="43.1328" lon="3.12594">
        <ele>11.5</ele>
        <time>2018-03-18T11:14:37Z</time>
      </trkpt>
      <trkpt lat="43.13278" lon="3.12584">
        <ele>11.5</ele>
        <time>2018-03-18T11:14:40Z</time>
      </trkpt>
      <trkpt lat="43.13275" lon="3.12572">
        <ele>11.3</ele>
        <time>2018-03-18T11:14:43Z</time>
      </trkpt>
      <trkpt lat="43.13273" lon="3.12559">
        <ele>10.4</ele>
        <time>2018-03-18T11:14:45Z</time>
      </trkpt>
      <trkpt lat="43.13272" lon="3.12546">
        <ele>9.7</ele>
        <time>2018-03-18T11:14:47Z</time>
      </trkpt>
      <trkpt lat="43.13268" lon="3.12534">
        <ele>8.6</ele>
        <time>2018-03-18T11:14:49Z</time>
      </trkpt>
      <trkpt lat="43.13261" lon="3.12526">
        <ele>7.3</ele>
        <time>2018-03-18T11:14:51Z</time>
      </trkpt>
      <trkpt lat="43.13257" lon="3.12514">
        <ele>7.7</ele>
        <time>2018-03-18T11:14:54Z</time>
      </trkpt>
      <trkpt lat="43.13264" lon="3.12507">
        <ele>7.5</ele>
        <time>2018-03-18T11:14:58Z</time>
      </trkpt>
      <trkpt lat="43.13256" lon="3.12512">
        <ele>5.9</ele>
        <time>2018-03-18T11:15:03Z</time>
      </trkpt>
      <trkpt lat="43.13248" lon="3.12515">
        <ele>5.7</ele>
        <time>2018-03-18T11:15:06Z</time>
      </trkpt>
      <trkpt lat="43.1324" lon="3.12513">
        <ele>5.6</ele>
        <time>2018-03-18T11:15:08Z</time>
      </trkpt>
      <trkpt lat="43.13232" lon="3.1251">
        <ele>5</ele>
        <time>2018-03-18T11:15:10Z</time>
      </trkpt>
      <trkpt lat="43.13225" lon="3.12504">
        <ele>4.2</ele>
        <time>2018-03-18T11:15:12Z</time>
      </trkpt>
      <trkpt lat="43.13218" lon="3.12497">
        <ele>3.4</ele>
        <time>2018-03-18T11:15:15Z</time>
      </trkpt>
      <trkpt lat="43.13211" lon="3.1249">
        <ele>2.4</ele>
        <time>2018-03-18T11:15:19Z</time>
      </trkpt>
      <trkpt lat="43.13204" lon="3.12484">
        <ele>0.7</ele>
        <time>2018-03-18T11:15:23Z</time>
      </trkpt>
      <trkpt lat="43.13197" lon="3.12477">
        <ele>0.1</ele>
        <time>2018-03-18T11:15:27Z</time>
      </trkpt>
      <trkpt lat="43.1319" lon="3.12472">
        <ele>0.3</ele>
        <time>2018-03-18T11:15:30Z</time>
      </trkpt>
      <trkpt lat="43.13183" lon="3.12467">
        <ele>0.6</ele>
        <time>2018-03-18T11:15:33Z</time>
      </trkpt>
      <trkpt lat="43.13174" lon="3.12462">
        <ele>0.2</ele>
        <time>2018-03-18T11:15:37Z</time>
      </trkpt>
      <trkpt lat="43.13167" lon="3.12456">
        <ele>0.2</ele>
        <time>2018-03-18T11:15:40Z</time>
      </trkpt>
      <trkpt lat="43.13159" lon="3.12451">
        <ele>0.6</ele>
        <time>2018-03-18T11:15:43Z</time>
      </trkpt>
      <trkpt lat="43.13152" lon="3.12446">
        <ele>0.2</ele>
        <time>2018-03-18T11:15:46Z</time>
      </trkpt>
      <trkpt lat="43.13144" lon="3.1244">
        <ele>-0.4</ele>
        <time>2018-03-18T11:15:49Z</time>
      </trkpt>
      <trkpt lat="43.13136" lon="3.12436">
        <ele>9.6</ele>
        <time>2018-03-18T11:15:52Z</time>
      </trkpt>
      <trkpt lat="43.1313" lon="3.12429">
        <ele>9.5</ele>
        <time>2018-03-18T11:15:55Z</time>
      </trkpt>
      <trkpt lat="43.13123" lon="3.12421">
        <ele>-0.2</ele>
        <time>2018-03-18T11:15:58Z</time>
      </trkpt>
      <trkpt lat="43.13118" lon="3.12414">
        <ele>-0.3</ele>
        <time>2018-03-18T11:16:00Z</time>
      </trkpt>
      <trkpt lat="43.13112" lon="3.12407">
        <ele>-0.7</ele>
        <time>2018-03-18T11:16:02Z</time>
      </trkpt>
      <trkpt lat="43.13103" lon="3.12401">
        <ele>-1.3</ele>
        <time>2018-03-18T11:16:05Z</time>
      </trkpt>
      <trkpt lat="43.13094" lon="3.1241">
        <ele>-2.5</ele>
        <time>2018-03-18T11:16:08Z</time>
      </trkpt>
      <trkpt lat="43.13088" lon="3.12419">
        <ele>-2.9</ele>
        <time>2018-03-18T11:16:10Z</time>
      </trkpt>
      <trkpt lat="43.13082" lon="3.12427">
        <ele>-2.3</ele>
        <time>2018-03-18T11:16:12Z</time>
      </trkpt>
      <trkpt lat="43.13076" lon="3.12434">
        <ele>-2</ele>
        <time>2018-03-18T11:16:14Z</time>
      </trkpt>
      <trkpt lat="43.13069" lon="3.12445">
        <ele>-1.5</ele>
        <time>2018-03-18T11:16:17Z</time>
      </trkpt>
      <trkpt lat="43.13062" lon="3.12457">
        <ele>-0.1</ele>
        <time>2018-03-18T11:16:20Z</time>
      </trkpt>
      <trkpt lat="43.13058" lon="3.12464">
        <ele>-0.3</ele>
        <time>2018-03-18T11:16:22Z</time>
      </trkpt>
      <trkpt lat="43.13053" lon="3.12474">
        <ele>0.6</ele>
        <time>2018-03-18T11:16:24Z</time>
      </trkpt>
      <trkpt lat="43.13048" lon="3.12481">
        <ele>1.3</ele>
        <time>2018-03-18T11:16:26Z</time>
      </trkpt>
      <trkpt lat="43.13041" lon="3.12491">
        <ele>1.7</ele>
        <time>2018-03-18T11:16:29Z</time>
      </trkpt>
      <trkpt lat="43.13034" lon="3.12502">
        <ele>1.8</ele>
        <time>2018-03-18T11:16:32Z</time>
      </trkpt>
      <trkpt lat="43.13027" lon="3.12511">
        <ele>1.6</ele>
        <time>2018-03-18T11:16:35Z</time>
      </trkpt>
      <trkpt lat="43.1302" lon="3.12522">
        <ele>1.8</ele>
        <time>2018-03-18T11:16:38Z</time>
      </trkpt>
      <trkpt lat="43.13015" lon="3.1253">
        <ele>2</ele>
        <time>2018-03-18T11:16:40Z</time>
      </trkpt>
      <trkpt lat="43.13007" lon="3.1254">
        <ele>1.6</ele>
        <time>2018-03-18T11:16:43Z</time>
      </trkpt>
      <trkpt lat="43.13003" lon="3.12548">
        <ele>1.5</ele>
        <time>2018-03-18T11:16:45Z</time>
      </trkpt>
      <trkpt lat="43.12998" lon="3.12556">
        <ele>1.8</ele>
        <time>2018-03-18T11:16:47Z</time>
      </trkpt>
      <trkpt lat="43.12993" lon="3.12565">
        <ele>2.2</ele>
        <time>2018-03-18T11:16:49Z</time>
      </trkpt>
      <trkpt lat="43.12989" lon="3.12572">
        <ele>2.8</ele>
        <time>2018-03-18T11:16:51Z</time>
      </trkpt>
      <trkpt lat="43.12984" lon="3.12581">
        <ele>3.2</ele>
        <time>2018-03-18T11:16:53Z</time>
      </trkpt>
      <trkpt lat="43.12981" lon="3.12589">
        <ele>3.1</ele>
        <time>2018-03-18T11:16:55Z</time>
      </trkpt>
      <trkpt lat="43.12977" lon="3.12599">
        <ele>3</ele>
        <time>2018-03-18T11:16:57Z</time>
      </trkpt>
      <trkpt lat="43.12973" lon="3.12613">
        <ele>2.6</ele>
        <time>2018-03-18T11:17:00Z</time>
      </trkpt>
      <trkpt lat="43.12969" lon="3.12621">
        <ele>2.6</ele>
        <time>2018-03-18T11:17:02Z</time>
      </trkpt>
      <trkpt lat="43.12965" lon="3.12631">
        <ele>3.3</ele>
        <time>2018-03-18T11:17:04Z</time>
      </trkpt>
      <trkpt lat="43.12962" lon="3.12641">
        <ele>4</ele>
        <time>2018-03-18T11:17:06Z</time>
      </trkpt>
      <trkpt lat="43.12959" lon="3.12651">
        <ele>4.1</ele>
        <time>2018-03-18T11:17:08Z</time>
      </trkpt>
      <trkpt lat="43.12955" lon="3.1266">
        <ele>4.1</ele>
        <time>2018-03-18T11:17:10Z</time>
      </trkpt>
      <trkpt lat="43.12952" lon="3.12673">
        <ele>3.7</ele>
        <time>2018-03-18T11:17:13Z</time>
      </trkpt>
      <trkpt lat="43.12948" lon="3.12683">
        <ele>3.5</ele>
        <time>2018-03-18T11:17:16Z</time>
      </trkpt>
      <trkpt lat="43.12939" lon="3.12683">
        <ele>4.3</ele>
        <time>2018-03-18T11:17:20Z</time>
      </trkpt>
      <trkpt lat="43.12933" lon="3.12676">
        <ele>4.8</ele>
        <time>2018-03-18T11:17:23Z</time>
      </trkpt>
      <trkpt lat="43.12926" lon="3.12672">
        <ele>5.2</ele>
        <time>2018-03-18T11:17:25Z</time>
      </trkpt>
      <trkpt lat="43.12919" lon="3.12668">
        <ele>5.2</ele>
        <time>2018-03-18T11:17:27Z</time>
      </trkpt>
      <trkpt lat="43.12911" lon="3.12664">
        <ele>6.1</ele>
        <time>2018-03-18T11:17:29Z</time>
      </trkpt>
      <trkpt lat="43.12904" lon="3.12658">
        <ele>6.3</ele>
        <time>2018-03-18T11:17:31Z</time>
      </trkpt>
      <trkpt lat="43.12898" lon="3.1265">
        <ele>5.9</ele>
        <time>2018-03-18T11:17:33Z</time>
      </trkpt>
      <trkpt lat="43.12892" lon="3.1264">
        <ele>4.9</ele>
        <time>2018-03-18T11:17:35Z</time>
      </trkpt>
      <trkpt lat="43.12886" lon="3.12631">
        <ele>4.5</ele>
        <time>2018-03-18T11:17:37Z</time>
      </trkpt>
      <trkpt lat="43.12879" lon="3.12621">
        <ele>4.5</ele>
        <time>2018-03-18T11:17:39Z</time>
      </trkpt>
      <trkpt lat="43.12872" lon="3.12611">
        <ele>4.6</ele>
        <time>2018-03-18T11:17:41Z</time>
      </trkpt>
      <trkpt lat="43.12865" lon="3.12602">
        <ele>4.4</ele>
        <time>2018-03-18T11:17:43Z</time>
      </trkpt>
      <trkpt lat="43.12859" lon="3.12592">
        <ele>4.3</ele>
        <time>2018-03-18T11:17:45Z</time>
      </trkpt>
      <trkpt lat="43.12852" lon="3.12583">
        <ele>4.1</ele>
        <time>2018-03-18T11:17:47Z</time>
      </trkpt>
      <trkpt lat="43.12846" lon="3.12574">
        <ele>4.2</ele>
        <time>2018-03-18T11:17:49Z</time>
      </trkpt>
      <trkpt lat="43.12839" lon="3.12565">
        <ele>3.5</ele>
        <time>2018-03-18T11:17:51Z</time>
      </trkpt>
      <trkpt lat="43.12833" lon="3.12557">
        <ele>2.8</ele>
        <time>2018-03-18T11:17:53Z</time>
      </trkpt>
      <trkpt lat="43.12827" lon="3.12547">
        <ele>1.5</ele>
        <time>2018-03-18T11:17:55Z</time>
      </trkpt>
      <trkpt lat="43.12821" lon="3.12538">
        <ele>1.7</ele>
        <time>2018-03-18T11:17:57Z</time>
      </trkpt>
      <trkpt lat="43.12815" lon="3.1253">
        <ele>1.4</ele>
        <time>2018-03-18T11:17:59Z</time>
      </trkpt>
      <trkpt lat="43.12809" lon="3.12521">
        <ele>1</ele>
        <time>2018-03-18T11:18:01Z</time>
      </trkpt>
      <trkpt lat="43.12803" lon="3.12511">
        <ele>1.1</ele>
        <time>2018-03-18T11:18:03Z</time>
      </trkpt>
      <trkpt lat="43.12796" lon="3.12502">
        <ele>1.4</ele>
        <time>2018-03-18T11:18:05Z</time>
      </trkpt>
      <trkpt lat="43.1279" lon="3.12493">
        <ele>1.2</ele>
        <time>2018-03-18T11:18:07Z</time>
      </trkpt>
      <trkpt lat="43.12784" lon="3.12484">
        <ele>1.5</ele>
        <time>2018-03-18T11:18:09Z</time>
      </trkpt>
      <trkpt lat="43.12778" lon="3.12477">
        <ele>1.1</ele>
        <time>2018-03-18T11:18:11Z</time>
      </trkpt>
      <trkpt lat="43.12772" lon="3.12469">
        <ele>0.8</ele>
        <time>2018-03-18T11:18:13Z</time>
      </trkpt>
      <trkpt lat="43.12766" lon="3.12463">
        <ele>0.7</ele>
        <time>2018-03-18T11:18:15Z</time>
      </trkpt>
      <trkpt lat="43.1276" lon="3.12456">
        <ele>0.7</ele>
        <time>2018-03-18T11:18:17Z</time>
      </trkpt>
      <trkpt lat="43.12753" lon="3.12449">
        <ele>0.5</ele>
        <time>2018-03-18T11:18:19Z</time>
      </trkpt>
      <trkpt lat="43.12748" lon="3.12442">
        <ele>1</ele>
        <time>2018-03-18T11:18:21Z</time>
      </trkpt>
      <trkpt lat="43.12742" lon="3.12435">
        <ele>0.9</ele>
        <time>2018-03-18T11:18:23Z</time>
      </trkpt>
      <trkpt lat="43.12736" lon="3.12427">
        <ele>0.6</ele>
        <time>2018-03-18T11:18:25Z</time>
      </trkpt>
      <trkpt lat="43.12731" lon="3.12419">
        <ele>0.5</ele>
        <time>2018-03-18T11:18:27Z</time>
      </trkpt>
      <trkpt lat="43.12726" lon="3.12411">
        <ele>0.1</ele>
        <time>2018-03-18T11:18:29Z</time>
      </trkpt>
      <trkpt lat="43.1272" lon="3.12403">
        <ele>0.4</ele>
        <time>2018-03-18T11:18:31Z</time>
      </trkpt>
      <trkpt lat="43.12716" lon="3.12394">
        <ele>0.2</ele>
        <time>2018-03-18T11:18:33Z</time>
      </trkpt>
      <trkpt lat="43.1271" lon="3.12386">
        <ele>0.2</ele>
        <time>2018-03-18T11:18:35Z</time>
      </trkpt>
      <trkpt lat="43.12704" lon="3.12377">
        <ele>-0.4</ele>
        <time>2018-03-18T11:18:37Z</time>
      </trkpt>
      <trkpt lat="43.127" lon="3.12368">
        <ele>-1</ele>
        <time>2018-03-18T11:18:39Z</time>
      </trkpt>
      <trkpt lat="43.12695" lon="3.12359">
        <ele>-1.1</ele>
        <time>2018-03-18T11:18:41Z</time>
      </trkpt>
      <trkpt lat="43.12689" lon="3.12351">
        <ele>-1</ele>
        <time>2018-03-18T11:18:43Z</time>
      </trkpt>
      <trkpt lat="43.12684" lon="3.12343">
        <ele>-0.9</ele>
        <time>2018-03-18T11:18:45Z</time>
      </trkpt>
      <trkpt lat="43.12679" lon="3.12335">
        <ele>-0.8</ele>
        <time>2018-03-18T11:18:47Z</time>
      </trkpt>
      <trkpt lat="43.12674" lon="3.12328">
        <ele>-1.3</ele>
        <time>2018-03-18T11:18:49Z</time>
      </trkpt>
      <trkpt lat="43.12668" lon="3.1232">
        <ele>-1.9</ele>
        <time>2018-03-18T11:18:51Z</time>
      </trkpt>
      <trkpt lat="43.12663" lon="3.12313">
        <ele>-1.8</ele>
        <time>2018-03-18T11:18:53Z</time>
      </trkpt>
      <trkpt lat="43.12657" lon="3.12304">
        <ele>-1</ele>
        <time>2018-03-18T11:18:55Z</time>
      </trkpt>
      <trkpt lat="43.12652" lon="3.12296">
        <ele>-1</ele>
        <time>2018-03-18T11:18:57Z</time>
      </trkpt>
      <trkpt lat="43.12647" lon="3.12289">
        <ele>-1.1</ele>
        <time>2018-03-18T11:18:59Z</time>
      </trkpt>
      <trkpt lat="43.12642" lon="3.12281">
        <ele>-1.3</ele>
        <time>2018-03-18T11:19:01Z</time>
      </trkpt>
      <trkpt lat="43.12637" lon="3.12274">
        <ele>-1.3</ele>
        <time>2018-03-18T11:19:03Z</time>
      </trkpt>
      <trkpt lat="43.12632" lon="3.12266">
        <ele>-1.2</ele>
        <time>2018-03-18T11:19:05Z</time>
      </trkpt>
      <trkpt lat="43.12627" lon="3.12259">
        <ele>-1</ele>
        <time>2018-03-18T11:19:07Z</time>
      </trkpt>
      <trkpt lat="43.12621" lon="3.12248">
        <ele>-1.2</ele>
        <time>2018-03-18T11:19:10Z</time>
      </trkpt>
      <trkpt lat="43.12615" lon="3.1224">
        <ele>-0.8</ele>
        <time>2018-03-18T11:19:13Z</time>
      </trkpt>
      <trkpt lat="43.12613" lon="3.12235">
        <ele>-0.8</ele>
        <time>2018-03-18T11:19:20Z</time>
      </trkpt>
      <trkpt lat="43.12605" lon="3.12226">
        <ele>-3.6</ele>
        <time>2018-03-18T11:22:06Z</time>
      </trkpt>
      <trkpt lat="43.12599" lon="3.12214">
        <ele>-3.3</ele>
        <time>2018-03-18T11:22:10Z</time>
      </trkpt>
      <trkpt lat="43.12594" lon="3.12206">
        <ele>-2.6</ele>
        <time>2018-03-18T11:22:13Z</time>
      </trkpt>
      <trkpt lat="43.12587" lon="3.12198">
        <ele>-1.4</ele>
        <time>2018-03-18T11:22:16Z</time>
      </trkpt>
      <trkpt lat="43.1258" lon="3.12189">
        <ele>-0.5</ele>
        <time>2018-03-18T11:22:19Z</time>
      </trkpt>
      <trkpt lat="43.12573" lon="3.12179">
        <ele>0.1</ele>
        <time>2018-03-18T11:22:22Z</time>
      </trkpt>
      <trkpt lat="43.12567" lon="3.1217">
        <ele>0.1</ele>
        <time>2018-03-18T11:22:25Z</time>
      </trkpt>
      <trkpt lat="43.1256" lon="3.1216">
        <ele>0.2</ele>
        <time>2018-03-18T11:22:28Z</time>
      </trkpt>
      <trkpt lat="43.12552" lon="3.1215">
        <ele>0.7</ele>
        <time>2018-03-18T11:22:31Z</time>
      </trkpt>
      <trkpt lat="43.12548" lon="3.12143">
        <ele>0.7</ele>
        <time>2018-03-18T11:22:33Z</time>
      </trkpt>
      <trkpt lat="43.12541" lon="3.12132">
        <ele>0.9</ele>
        <time>2018-03-18T11:22:36Z</time>
      </trkpt>
      <trkpt lat="43.12536" lon="3.12125">
        <ele>1.3</ele>
        <time>2018-03-18T11:22:38Z</time>
      </trkpt>
      <trkpt lat="43.12532" lon="3.12117">
        <ele>1.1</ele>
        <time>2018-03-18T11:22:40Z</time>
      </trkpt>
      <trkpt lat="43.12524" lon="3.12107">
        <ele>1.3</ele>
        <time>2018-03-18T11:22:43Z</time>
      </trkpt>
      <trkpt lat="43.12516" lon="3.12097">
        <ele>1.7</ele>
        <time>2018-03-18T11:22:46Z</time>
      </trkpt>
      <trkpt lat="43.12511" lon="3.12089">
        <ele>2.1</ele>
        <time>2018-03-18T11:22:48Z</time>
      </trkpt>
      <trkpt lat="43.12506" lon="3.12082">
        <ele>1.6</ele>
        <time>2018-03-18T11:22:50Z</time>
      </trkpt>
      <trkpt lat="43.12499" lon="3.12071">
        <ele>1</ele>
        <time>2018-03-18T11:22:53Z</time>
      </trkpt>
      <trkpt lat="43.12494" lon="3.12063">
        <ele>0.9</ele>
        <time>2018-03-18T11:22:55Z</time>
      </trkpt>
      <trkpt lat="43.12489" lon="3.12055">
        <ele>0.6</ele>
        <time>2018-03-18T11:22:57Z</time>
      </trkpt>
      <trkpt lat="43.12484" lon="3.12048">
        <ele>0.5</ele>
        <time>2018-03-18T11:22:59Z</time>
      </trkpt>
      <trkpt lat="43.12479" lon="3.1204">
        <ele>0.8</ele>
        <time>2018-03-18T11:23:01Z</time>
      </trkpt>
      <trkpt lat="43.12474" lon="3.12032">
        <ele>0.7</ele>
        <time>2018-03-18T11:23:03Z</time>
      </trkpt>
      <trkpt lat="43.12469" lon="3.12024">
        <ele>0.8</ele>
        <time>2018-03-18T11:23:05Z</time>
      </trkpt>
      <trkpt lat="43.12464" lon="3.12017">
        <ele>0.6</ele>
        <time>2018-03-18T11:23:07Z</time>
      </trkpt>
      <trkpt lat="43.12458" lon="3.1201">
        <ele>2.9</ele>
        <time>2018-03-18T11:23:09Z</time>
      </trkpt>
      <trkpt lat="43.12453" lon="3.12002">
        <ele>-0.6</ele>
        <time>2018-03-18T11:23:11Z</time>
      </trkpt>
      <trkpt lat="43.12446" lon="3.11991">
        <ele>-1.3</ele>
        <time>2018-03-18T11:23:14Z</time>
      </trkpt>
      <trkpt lat="43.12439" lon="3.11979">
        <ele>-2.6</ele>
        <time>2018-03-18T11:23:17Z</time>
      </trkpt>
      <trkpt lat="43.12434" lon="3.11971">
        <ele>-2.7</ele>
        <time>2018-03-18T11:23:19Z</time>
      </trkpt>
      <trkpt lat="43.12429" lon="3.11964">
        <ele>-2.9</ele>
        <time>2018-03-18T11:23:21Z</time>
      </trkpt>
      <trkpt lat="43.12424" lon="3.11956">
        <ele>-3</ele>
        <time>2018-03-18T11:23:23Z</time>
      </trkpt>
      <trkpt lat="43.12419" lon="3.11948">
        <ele>-3</ele>
        <time>2018-03-18T11:23:25Z</time>
      </trkpt>
      <trkpt lat="43.12413" lon="3.1194">
        <ele>-2.7</ele>
        <time>2018-03-18T11:23:27Z</time>
      </trkpt>
      <trkpt lat="43.12408" lon="3.1193">
        <ele>-2.7</ele>
        <time>2018-03-18T11:23:29Z</time>
      </trkpt>
      <trkpt lat="43.12402" lon="3.11921">
        <ele>-2.9</ele>
        <time>2018-03-18T11:23:31Z</time>
      </trkpt>
      <trkpt lat="43.12397" lon="3.11912">
        <ele>-3</ele>
        <time>2018-03-18T11:23:33Z</time>
      </trkpt>
      <trkpt lat="43.12391" lon="3.11904">
        <ele>-3.1</ele>
        <time>2018-03-18T11:23:35Z</time>
      </trkpt>
      <trkpt lat="43.12385" lon="3.11895">
        <ele>-3.1</ele>
        <time>2018-03-18T11:23:37Z</time>
      </trkpt>
      <trkpt lat="43.12378" lon="3.11886">
        <ele>-3.1</ele>
        <time>2018-03-18T11:23:39Z</time>
      </trkpt>
      <trkpt lat="43.12373" lon="3.11877">
        <ele>-3.3</ele>
        <time>2018-03-18T11:23:41Z</time>
      </trkpt>
      <trkpt lat="43.12366" lon="3.11868">
        <ele>-3</ele>
        <time>2018-03-18T11:23:43Z</time>
      </trkpt>
      <trkpt lat="43.1236" lon="3.11859">
        <ele>-2.5</ele>
        <time>2018-03-18T11:23:45Z</time>
      </trkpt>
      <trkpt lat="43.12354" lon="3.1185">
        <ele>-2.5</ele>
        <time>2018-03-18T11:23:47Z</time>
      </trkpt>
      <trkpt lat="43.12348" lon="3.1184">
        <ele>-2.6</ele>
        <time>2018-03-18T11:23:49Z</time>
      </trkpt>
      <trkpt lat="43.12342" lon="3.11831">
        <ele>-2.6</ele>
        <time>2018-03-18T11:23:51Z</time>
      </trkpt>
      <trkpt lat="43.12335" lon="3.11821">
        <ele>-2.7</ele>
        <time>2018-03-18T11:23:53Z</time>
      </trkpt>
      <trkpt lat="43.1233" lon="3.11811">
        <ele>-2.6</ele>
        <time>2018-03-18T11:23:55Z</time>
      </trkpt>
      <trkpt lat="43.12324" lon="3.118">
        <ele>-2.5</ele>
        <time>2018-03-18T11:23:57Z</time>
      </trkpt>
      <trkpt lat="43.12318" lon="3.11791">
        <ele>-2.5</ele>
        <time>2018-03-18T11:23:59Z</time>
      </trkpt>
      <trkpt lat="43.12312" lon="3.11782">
        <ele>-2.3</ele>
        <time>2018-03-18T11:24:01Z</time>
      </trkpt>
      <trkpt lat="43.12306" lon="3.11773">
        <ele>-2.5</ele>
        <time>2018-03-18T11:24:03Z</time>
      </trkpt>
      <trkpt lat="43.12301" lon="3.11765">
        <ele>-2.6</ele>
        <time>2018-03-18T11:24:05Z</time>
      </trkpt>
      <trkpt lat="43.12295" lon="3.11758">
        <ele>-2.4</ele>
        <time>2018-03-18T11:24:07Z</time>
      </trkpt>
      <trkpt lat="43.1229" lon="3.1175">
        <ele>-2.3</ele>
        <time>2018-03-18T11:24:09Z</time>
      </trkpt>
      <trkpt lat="43.12285" lon="3.11741">
        <ele>-2.4</ele>
        <time>2018-03-18T11:24:11Z</time>
      </trkpt>
      <trkpt lat="43.1228" lon="3.11732">
        <ele>-2.7</ele>
        <time>2018-03-18T11:24:13Z</time>
      </trkpt>
      <trkpt lat="43.12275" lon="3.11724">
        <ele>-3</ele>
        <time>2018-03-18T11:24:15Z</time>
      </trkpt>
      <trkpt lat="43.1227" lon="3.11715">
        <ele>-3.2</ele>
        <time>2018-03-18T11:24:17Z</time>
      </trkpt>
      <trkpt lat="43.12264" lon="3.11706">
        <ele>-3.5</ele>
        <time>2018-03-18T11:24:19Z</time>
      </trkpt>
      <trkpt lat="43.12258" lon="3.11696">
        <ele>-3.7</ele>
        <time>2018-03-18T11:24:21Z</time>
      </trkpt>
      <trkpt lat="43.12253" lon="3.11687">
        <ele>-4.1</ele>
        <time>2018-03-18T11:24:23Z</time>
      </trkpt>
      <trkpt lat="43.12248" lon="3.11678">
        <ele>-4.6</ele>
        <time>2018-03-18T11:24:25Z</time>
      </trkpt>
      <trkpt lat="43.12242" lon="3.11671">
        <ele>-3.7</ele>
        <time>2018-03-18T11:24:27Z</time>
      </trkpt>
      <trkpt lat="43.12236" lon="3.11663">
        <ele>-2.7</ele>
        <time>2018-03-18T11:24:29Z</time>
      </trkpt>
      <trkpt lat="43.1223" lon="3.11655">
        <ele>-1.5</ele>
        <time>2018-03-18T11:24:31Z</time>
      </trkpt>
      <trkpt lat="43.12224" lon="3.11647">
        <ele>-0.9</ele>
        <time>2018-03-18T11:24:33Z</time>
      </trkpt>
      <trkpt lat="43.12219" lon="3.11638">
        <ele>-0.9</ele>
        <time>2018-03-18T11:24:35Z</time>
      </trkpt>
      <trkpt lat="43.12214" lon="3.1163">
        <ele>-1.6</ele>
        <time>2018-03-18T11:24:37Z</time>
      </trkpt>
      <trkpt lat="43.12209" lon="3.11622">
        <ele>-1.5</ele>
        <time>2018-03-18T11:24:39Z</time>
      </trkpt>
      <trkpt lat="43.12203" lon="3.11614">
        <ele>-1.1</ele>
        <time>2018-03-18T11:24:41Z</time>
      </trkpt>
      <trkpt lat="43.12198" lon="3.11606">
        <ele>-1</ele>
        <time>2018-03-18T11:24:43Z</time>
      </trkpt>
      <trkpt lat="43.12193" lon="3.11598">
        <ele>-1.3</ele>
        <time>2018-03-18T11:24:45Z</time>
      </trkpt>
      <trkpt lat="43.12188" lon="3.1159">
        <ele>-1.5</ele>
        <time>2018-03-18T11:24:47Z</time>
      </trkpt>
      <trkpt lat="43.12182" lon="3.11582">
        <ele>-1.4</ele>
        <time>2018-03-18T11:24:49Z</time>
      </trkpt>
      <trkpt lat="43.12177" lon="3.11574">
        <ele>-1.7</ele>
        <time>2018-03-18T11:24:51Z</time>
      </trkpt>
      <trkpt lat="43.12171" lon="3.11566">
        <ele>-1.4</ele>
        <time>2018-03-18T11:24:53Z</time>
      </trkpt>
      <trkpt lat="43.12166" lon="3.11558">
        <ele>-2.3</ele>
        <time>2018-03-18T11:24:55Z</time>
      </trkpt>
      <trkpt lat="43.12161" lon="3.1155">
        <ele>-2.2</ele>
        <time>2018-03-18T11:24:57Z</time>
      </trkpt>
      <trkpt lat="43.12156" lon="3.11542">
        <ele>-2.2</ele>
        <time>2018-03-18T11:24:59Z</time>
      </trkpt>
      <trkpt lat="43.1215" lon="3.11534">
        <ele>-2.8</ele>
        <time>2018-03-18T11:25:01Z</time>
      </trkpt>
      <trkpt lat="43.12144" lon="3.11526">
        <ele>-3.3</ele>
        <time>2018-03-18T11:25:03Z</time>
      </trkpt>
      <trkpt lat="43.12139" lon="3.11518">
        <ele>-3.8</ele>
        <time>2018-03-18T11:25:05Z</time>
      </trkpt>
      <trkpt lat="43.12133" lon="3.11509">
        <ele>-3.6</ele>
        <time>2018-03-18T11:25:07Z</time>
      </trkpt>
      <trkpt lat="43.12127" lon="3.11501">
        <ele>-3.4</ele>
        <time>2018-03-18T11:25:09Z</time>
      </trkpt>
      <trkpt lat="43.12122" lon="3.11493">
        <ele>-3.5</ele>
        <time>2018-03-18T11:25:11Z</time>
      </trkpt>
      <trkpt lat="43.12117" lon="3.11483">
        <ele>-3.6</ele>
        <time>2018-03-18T11:25:13Z</time>
      </trkpt>
      <trkpt lat="43.12112" lon="3.11473">
        <ele>-3.7</ele>
        <time>2018-03-18T11:25:15Z</time>
      </trkpt>
      <trkpt lat="43.12107" lon="3.11464">
        <ele>-3.6</ele>
        <time>2018-03-18T11:25:17Z</time>
      </trkpt>
      <trkpt lat="43.12101" lon="3.11455">
        <ele>-3.8</ele>
        <time>2018-03-18T11:25:19Z</time>
      </trkpt>
      <trkpt lat="43.12095" lon="3.11445">
        <ele>-4</ele>
        <time>2018-03-18T11:25:21Z</time>
      </trkpt>
      <trkpt lat="43.12089" lon="3.11435">
        <ele>-4.1</ele>
        <time>2018-03-18T11:25:23Z</time>
      </trkpt>
      <trkpt lat="43.12083" lon="3.11426">
        <ele>-4.1</ele>
        <time>2018-03-18T11:25:25Z</time>
      </trkpt>
      <trkpt lat="43.12077" lon="3.11417">
        <ele>-4.1</ele>
        <time>2018-03-18T11:25:27Z</time>
      </trkpt>
      <trkpt lat="43.12072" lon="3.11408">
        <ele>-4.1</ele>
        <time>2018-03-18T11:25:29Z</time>
      </trkpt>
      <trkpt lat="43.12066" lon="3.11399">
        <ele>-4</ele>
        <time>2018-03-18T11:25:31Z</time>
      </trkpt>
      <trkpt lat="43.1206" lon="3.1139">
        <ele>-4</ele>
        <time>2018-03-18T11:25:33Z</time>
      </trkpt>
      <trkpt lat="43.12053" lon="3.11381">
        <ele>-4.2</ele>
        <time>2018-03-18T11:25:35Z</time>
      </trkpt>
      <trkpt lat="43.12046" lon="3.11374">
        <ele>-4.3</ele>
        <time>2018-03-18T11:25:37Z</time>
      </trkpt>
      <trkpt lat="43.12039" lon="3.11367">
        <ele>-4.3</ele>
        <time>2018-03-18T11:25:39Z</time>
      </trkpt>
      <trkpt lat="43.12033" lon="3.11359">
        <ele>-4.5</ele>
        <time>2018-03-18T11:25:41Z</time>
      </trkpt>
      <trkpt lat="43.12027" lon="3.11352">
        <ele>-4.2</ele>
        <time>2018-03-18T11:25:43Z</time>
      </trkpt>
      <trkpt lat="43.12021" lon="3.11344">
        <ele>-4.3</ele>
        <time>2018-03-18T11:25:45Z</time>
      </trkpt>
      <trkpt lat="43.12015" lon="3.11334">
        <ele>-4.1</ele>
        <time>2018-03-18T11:25:47Z</time>
      </trkpt>
      <trkpt lat="43.1201" lon="3.11325">
        <ele>-4.2</ele>
        <time>2018-03-18T11:25:49Z</time>
      </trkpt>
      <trkpt lat="43.12005" lon="3.11317">
        <ele>-3.9</ele>
        <time>2018-03-18T11:25:51Z</time>
      </trkpt>
      <trkpt lat="43.11999" lon="3.11309">
        <ele>-3.7</ele>
        <time>2018-03-18T11:25:53Z</time>
      </trkpt>
      <trkpt lat="43.11992" lon="3.113">
        <ele>-3.6</ele>
        <time>2018-03-18T11:25:55Z</time>
      </trkpt>
      <trkpt lat="43.11987" lon="3.11291">
        <ele>-3.3</ele>
        <time>2018-03-18T11:25:57Z</time>
      </trkpt>
      <trkpt lat="43.1198" lon="3.11283">
        <ele>-2.9</ele>
        <time>2018-03-18T11:25:59Z</time>
      </trkpt>
      <trkpt lat="43.11974" lon="3.11275">
        <ele>-2.9</ele>
        <time>2018-03-18T11:26:01Z</time>
      </trkpt>
      <trkpt lat="43.11969" lon="3.11266">
        <ele>-2.7</ele>
        <time>2018-03-18T11:26:03Z</time>
      </trkpt>
      <trkpt lat="43.11963" lon="3.11258">
        <ele>-2.6</ele>
        <time>2018-03-18T11:26:05Z</time>
      </trkpt>
      <trkpt lat="43.11958" lon="3.11249">
        <ele>-2.5</ele>
        <time>2018-03-18T11:26:07Z</time>
      </trkpt>
      <trkpt lat="43.11952" lon="3.11241">
        <ele>-2.6</ele>
        <time>2018-03-18T11:26:09Z</time>
      </trkpt>
      <trkpt lat="43.11946" lon="3.11232">
        <ele>-2.9</ele>
        <time>2018-03-18T11:26:11Z</time>
      </trkpt>
      <trkpt lat="43.11941" lon="3.11223">
        <ele>-2.9</ele>
        <time>2018-03-18T11:26:13Z</time>
      </trkpt>
      <trkpt lat="43.11936" lon="3.11214">
        <ele>-3</ele>
        <time>2018-03-18T11:26:15Z</time>
      </trkpt>
      <trkpt lat="43.11932" lon="3.11206">
        <ele>-2.6</ele>
        <time>2018-03-18T11:26:17Z</time>
      </trkpt>
      <trkpt lat="43.11929" lon="3.11196">
        <ele>-2.7</ele>
        <time>2018-03-18T11:26:19Z</time>
      </trkpt>
      <trkpt lat="43.11928" lon="3.11185">
        <ele>-3.5</ele>
        <time>2018-03-18T11:26:21Z</time>
      </trkpt>
      <trkpt lat="43.11925" lon="3.11175">
        <ele>-3.5</ele>
        <time>2018-03-18T11:26:23Z</time>
      </trkpt>
      <trkpt lat="43.11919" lon="3.11167">
        <ele>-3.6</ele>
        <time>2018-03-18T11:26:25Z</time>
      </trkpt>
      <trkpt lat="43.11913" lon="3.11159">
        <ele>-2.3</ele>
        <time>2018-03-18T11:26:27Z</time>
      </trkpt>
      <trkpt lat="43.11908" lon="3.11149">
        <ele>-0.7</ele>
        <time>2018-03-18T11:26:29Z</time>
      </trkpt>
      <trkpt lat="43.11913" lon="3.11136">
        <ele>-0.6</ele>
        <time>2018-03-18T11:26:32Z</time>
      </trkpt>
      <trkpt lat="43.11911" lon="3.11124">
        <ele>-1.6</ele>
        <time>2018-03-18T11:26:35Z</time>
      </trkpt>
      <trkpt lat="43.11905" lon="3.11112">
        <ele>-2.4</ele>
        <time>2018-03-18T11:26:38Z</time>
      </trkpt>
      <trkpt lat="43.11901" lon="3.11102">
        <ele>-2.9</ele>
        <time>2018-03-18T11:26:40Z</time>
      </trkpt>
      <trkpt lat="43.11896" lon="3.11094">
        <ele>-2.9</ele>
        <time>2018-03-18T11:26:42Z</time>
      </trkpt>
      <trkpt lat="43.11892" lon="3.11085">
        <ele>-3.2</ele>
        <time>2018-03-18T11:26:44Z</time>
      </trkpt>
      <trkpt lat="43.11887" lon="3.11075">
        <ele>-3.5</ele>
        <time>2018-03-18T11:26:46Z</time>
      </trkpt>
      <trkpt lat="43.11883" lon="3.11064">
        <ele>-3.9</ele>
        <time>2018-03-18T11:26:48Z</time>
      </trkpt>
      <trkpt lat="43.11878" lon="3.11053">
        <ele>-3.7</ele>
        <time>2018-03-18T11:26:50Z</time>
      </trkpt>
      <trkpt lat="43.11875" lon="3.11042">
        <ele>-3.8</ele>
        <time>2018-03-18T11:26:52Z</time>
      </trkpt>
      <trkpt lat="43.1187" lon="3.11032">
        <ele>-3.5</ele>
        <time>2018-03-18T11:26:54Z</time>
      </trkpt>
      <trkpt lat="43.11867" lon="3.1102">
        <ele>-3.6</ele>
        <time>2018-03-18T11:26:56Z</time>
      </trkpt>
      <trkpt lat="43.11863" lon="3.11009">
        <ele>-3.7</ele>
        <time>2018-03-18T11:26:58Z</time>
      </trkpt>
      <trkpt lat="43.1186" lon="3.10997">
        <ele>-3.7</ele>
        <time>2018-03-18T11:27:00Z</time>
      </trkpt>
      <trkpt lat="43.11857" lon="3.10986">
        <ele>-3.7</ele>
        <time>2018-03-18T11:27:02Z</time>
      </trkpt>
      <trkpt lat="43.11855" lon="3.10974">
        <ele>-3.3</ele>
        <time>2018-03-18T11:27:04Z</time>
      </trkpt>
      <trkpt lat="43.11852" lon="3.10964">
        <ele>-3</ele>
        <time>2018-03-18T11:27:06Z</time>
      </trkpt>
      <trkpt lat="43.11849" lon="3.10953">
        <ele>-2.5</ele>
        <time>2018-03-18T11:27:08Z</time>
      </trkpt>
      <trkpt lat="43.11846" lon="3.10942">
        <ele>-2.6</ele>
        <time>2018-03-18T11:27:10Z</time>
      </trkpt>
      <trkpt lat="43.11844" lon="3.10931">
        <ele>-2.6</ele>
        <time>2018-03-18T11:27:12Z</time>
      </trkpt>
      <trkpt lat="43.1184" lon="3.10921">
        <ele>-2.4</ele>
        <time>2018-03-18T11:27:14Z</time>
      </trkpt>
      <trkpt lat="43.11838" lon="3.1091">
        <ele>-2.7</ele>
        <time>2018-03-18T11:27:16Z</time>
      </trkpt>
      <trkpt lat="43.11836" lon="3.10899">
        <ele>-3</ele>
        <time>2018-03-18T11:27:18Z</time>
      </trkpt>
      <trkpt lat="43.11833" lon="3.10888">
        <ele>-3</ele>
        <time>2018-03-18T11:27:20Z</time>
      </trkpt>
      <trkpt lat="43.11833" lon="3.10876">
        <ele>-3</ele>
        <time>2018-03-18T11:27:22Z</time>
      </trkpt>
      <trkpt lat="43.11833" lon="3.10865">
        <ele>-3.4</ele>
        <time>2018-03-18T11:27:24Z</time>
      </trkpt>
      <trkpt lat="43.11832" lon="3.10853">
        <ele>-1.7</ele>
        <time>2018-03-18T11:27:26Z</time>
      </trkpt>
      <trkpt lat="43.11832" lon="3.10842">
        <ele>-1.9</ele>
        <time>2018-03-18T11:27:28Z</time>
      </trkpt>
      <trkpt lat="43.11831" lon="3.1083">
        <ele>-1</ele>
        <time>2018-03-18T11:27:30Z</time>
      </trkpt>
      <trkpt lat="43.1183" lon="3.10819">
        <ele>-1.6</ele>
        <time>2018-03-18T11:27:32Z</time>
      </trkpt>
      <trkpt lat="43.1183" lon="3.10809">
        <ele>-2.1</ele>
        <time>2018-03-18T11:27:34Z</time>
      </trkpt>
      <trkpt lat="43.1183" lon="3.10796">
        <ele>-2.2</ele>
        <time>2018-03-18T11:27:36Z</time>
      </trkpt>
      <trkpt lat="43.11829" lon="3.10785">
        <ele>-2.1</ele>
        <time>2018-03-18T11:27:38Z</time>
      </trkpt>
      <trkpt lat="43.1183" lon="3.10775">
        <ele>-2.2</ele>
        <time>2018-03-18T11:27:40Z</time>
      </trkpt>
      <trkpt lat="43.11831" lon="3.10764">
        <ele>-2.6</ele>
        <time>2018-03-18T11:27:42Z</time>
      </trkpt>
      <trkpt lat="43.11832" lon="3.10753">
        <ele>-2.7</ele>
        <time>2018-03-18T11:27:44Z</time>
      </trkpt>
      <trkpt lat="43.11832" lon="3.10742">
        <ele>-2.4</ele>
        <time>2018-03-18T11:27:46Z</time>
      </trkpt>
      <trkpt lat="43.11833" lon="3.10732">
        <ele>-2.4</ele>
        <time>2018-03-18T11:27:48Z</time>
      </trkpt>
      <trkpt lat="43.11833" lon="3.10722">
        <ele>-2.6</ele>
        <time>2018-03-18T11:27:50Z</time>
      </trkpt>
      <trkpt lat="43.11835" lon="3.10711">
        <ele>-2.9</ele>
        <time>2018-03-18T11:27:52Z</time>
      </trkpt>
      <trkpt lat="43.11836" lon="3.10701">
        <ele>-3</ele>
        <time>2018-03-18T11:27:54Z</time>
      </trkpt>
      <trkpt lat="43.11839" lon="3.10691">
        <ele>-2.5</ele>
        <time>2018-03-18T11:27:56Z</time>
      </trkpt>
      <trkpt lat="43.11843" lon="3.10683">
        <ele>-2.1</ele>
        <time>2018-03-18T11:27:58Z</time>
      </trkpt>
      <trkpt lat="43.11851" lon="3.10674">
        <ele>-1.9</ele>
        <time>2018-03-18T11:28:01Z</time>
      </trkpt>
      <trkpt lat="43.1186" lon="3.10666">
        <ele>-1.8</ele>
        <time>2018-03-18T11:28:04Z</time>
      </trkpt>
      <trkpt lat="43.11868" lon="3.10658">
        <ele>-1.1</ele>
        <time>2018-03-18T11:28:07Z</time>
      </trkpt>
      <trkpt lat="43.11876" lon="3.10649">
        <ele>-0.5</ele>
        <time>2018-03-18T11:28:10Z</time>
      </trkpt>
      <trkpt lat="43.11882" lon="3.10641">
        <ele>-1.5</ele>
        <time>2018-03-18T11:28:12Z</time>
      </trkpt>
      <trkpt lat="43.11886" lon="3.10632">
        <ele>-2.4</ele>
        <time>2018-03-18T11:28:14Z</time>
      </trkpt>
      <trkpt lat="43.1189" lon="3.10624">
        <ele>-2.5</ele>
        <time>2018-03-18T11:28:16Z</time>
      </trkpt>
      <trkpt lat="43.11894" lon="3.1061">
        <ele>-2.6</ele>
        <time>2018-03-18T11:28:19Z</time>
      </trkpt>
      <trkpt lat="43.11898" lon="3.106">
        <ele>-2.8</ele>
        <time>2018-03-18T11:28:21Z</time>
      </trkpt>
      <trkpt lat="43.11901" lon="3.10589">
        <ele>-2.6</ele>
        <time>2018-03-18T11:28:23Z</time>
      </trkpt>
      <trkpt lat="43.11903" lon="3.10579">
        <ele>-2.2</ele>
        <time>2018-03-18T11:28:25Z</time>
      </trkpt>
      <trkpt lat="43.11905" lon="3.10568">
        <ele>-2.1</ele>
        <time>2018-03-18T11:28:27Z</time>
      </trkpt>
      <trkpt lat="43.11906" lon="3.10557">
        <ele>-2.4</ele>
        <time>2018-03-18T11:28:29Z</time>
      </trkpt>
      <trkpt lat="43.11908" lon="3.10546">
        <ele>-2.6</ele>
        <time>2018-03-18T11:28:31Z</time>
      </trkpt>
      <trkpt lat="43.11908" lon="3.10535">
        <ele>-3</ele>
        <time>2018-03-18T11:28:33Z</time>
      </trkpt>
      <trkpt lat="43.11909" lon="3.10524">
        <ele>-3.4</ele>
        <time>2018-03-18T11:28:35Z</time>
      </trkpt>
      <trkpt lat="43.11908" lon="3.10513">
        <ele>-3.5</ele>
        <time>2018-03-18T11:28:37Z</time>
      </trkpt>
      <trkpt lat="43.11906" lon="3.10499">
        <ele>-3.7</ele>
        <time>2018-03-18T11:28:40Z</time>
      </trkpt>
      <trkpt lat="43.11903" lon="3.10486">
        <ele>-4.1</ele>
        <time>2018-03-18T11:28:43Z</time>
      </trkpt>
      <trkpt lat="43.11902" lon="3.10476">
        <ele>-4.1</ele>
        <time>2018-03-18T11:28:45Z</time>
      </trkpt>
      <trkpt lat="43.11901" lon="3.10464">
        <ele>-3.8</ele>
        <time>2018-03-18T11:28:47Z</time>
      </trkpt>
      <trkpt lat="43.11901" lon="3.10454">
        <ele>-3.8</ele>
        <time>2018-03-18T11:28:49Z</time>
      </trkpt>
      <trkpt lat="43.119" lon="3.10445">
        <ele>-3.6</ele>
        <time>2018-03-18T11:28:51Z</time>
      </trkpt>
      <trkpt lat="43.11901" lon="3.10435">
        <ele>-3.2</ele>
        <time>2018-03-18T11:28:53Z</time>
      </trkpt>
      <trkpt lat="43.11903" lon="3.10425">
        <ele>-2.8</ele>
        <time>2018-03-18T11:28:55Z</time>
      </trkpt>
      <trkpt lat="43.11909" lon="3.10414">
        <ele>-2.2</ele>
        <time>2018-03-18T11:28:58Z</time>
      </trkpt>
      <trkpt lat="43.11916" lon="3.10402">
        <ele>-1.9</ele>
        <time>2018-03-18T11:29:01Z</time>
      </trkpt>
      <trkpt lat="43.1192" lon="3.10394">
        <ele>-1.9</ele>
        <time>2018-03-18T11:29:03Z</time>
      </trkpt>
      <trkpt lat="43.11925" lon="3.10387">
        <ele>-1.9</ele>
        <time>2018-03-18T11:29:05Z</time>
      </trkpt>
      <trkpt lat="43.11931" lon="3.10375">
        <ele>-2</ele>
        <time>2018-03-18T11:29:08Z</time>
      </trkpt>
      <trkpt lat="43.11937" lon="3.10363">
        <ele>-2.2</ele>
        <time>2018-03-18T11:29:11Z</time>
      </trkpt>
      <trkpt lat="43.11941" lon="3.10356">
        <ele>-2.1</ele>
        <time>2018-03-18T11:29:13Z</time>
      </trkpt>
      <trkpt lat="43.11946" lon="3.10347">
        <ele>-1.6</ele>
        <time>2018-03-18T11:29:15Z</time>
      </trkpt>
      <trkpt lat="43.1195" lon="3.10338">
        <ele>-1.4</ele>
        <time>2018-03-18T11:29:17Z</time>
      </trkpt>
      <trkpt lat="43.11954" lon="3.10331">
        <ele>-1</ele>
        <time>2018-03-18T11:29:19Z</time>
      </trkpt>
      <trkpt lat="43.1196" lon="3.10321">
        <ele>-0.1</ele>
        <time>2018-03-18T11:29:22Z</time>
      </trkpt>
      <trkpt lat="43.11968" lon="3.10311">
        <ele>0.7</ele>
        <time>2018-03-18T11:29:25Z</time>
      </trkpt>
      <trkpt lat="43.11974" lon="3.10301">
        <ele>1.5</ele>
        <time>2018-03-18T11:29:28Z</time>
      </trkpt>
      <trkpt lat="43.11981" lon="3.10291">
        <ele>1.7</ele>
        <time>2018-03-18T11:29:31Z</time>
      </trkpt>
      <trkpt lat="43.11986" lon="3.10282">
        <ele>1.8</ele>
        <time>2018-03-18T11:29:34Z</time>
      </trkpt>
      <trkpt lat="43.11991" lon="3.10274">
        <ele>1.3</ele>
        <time>2018-03-18T11:29:37Z</time>
      </trkpt>
      <trkpt lat="43.11995" lon="3.10263">
        <ele>3.8</ele>
        <time>2018-03-18T11:29:41Z</time>
      </trkpt>
      <trkpt lat="43.11994" lon="3.10253">
        <ele>-1.1</ele>
        <time>2018-03-18T11:29:45Z</time>
      </trkpt>
      <trkpt lat="43.11987" lon="3.10249">
        <ele>-1.7</ele>
        <time>2018-03-18T11:29:48Z</time>
      </trkpt>
      <trkpt lat="43.11981" lon="3.10241">
        <ele>-4</ele>
        <time>2018-03-18T11:29:51Z</time>
      </trkpt>
      <trkpt lat="43.11973" lon="3.10239">
        <ele>-4.3</ele>
        <time>2018-03-18T11:29:55Z</time>
      </trkpt>
      <trkpt lat="43.11968" lon="3.10248">
        <ele>-4.1</ele>
        <time>2018-03-18T11:29:58Z</time>
      </trkpt>
      <trkpt lat="43.11961" lon="3.10259">
        <ele>-3.6</ele>
        <time>2018-03-18T11:30:01Z</time>
      </trkpt>
      <trkpt lat="43.11954" lon="3.10269">
        <ele>-3.1</ele>
        <time>2018-03-18T11:30:04Z</time>
      </trkpt>
      <trkpt lat="43.11948" lon="3.10281">
        <ele>-2.7</ele>
        <time>2018-03-18T11:30:07Z</time>
      </trkpt>
      <trkpt lat="43.11943" lon="3.10289">
        <ele>-2.4</ele>
        <time>2018-03-18T11:30:09Z</time>
      </trkpt>
      <trkpt lat="43.11938" lon="3.10299">
        <ele>-2.1</ele>
        <time>2018-03-18T11:30:11Z</time>
      </trkpt>
      <trkpt lat="43.11933" lon="3.10308">
        <ele>-1.4</ele>
        <time>2018-03-18T11:30:13Z</time>
      </trkpt>
      <trkpt lat="43.11928" lon="3.10317">
        <ele>-2</ele>
        <time>2018-03-18T11:30:15Z</time>
      </trkpt>
      <trkpt lat="43.11922" lon="3.10327">
        <ele>-2</ele>
        <time>2018-03-18T11:30:17Z</time>
      </trkpt>
      <trkpt lat="43.11916" lon="3.10336">
        <ele>-2.3</ele>
        <time>2018-03-18T11:30:19Z</time>
      </trkpt>
      <trkpt lat="43.11908" lon="3.10345">
        <ele>-2.6</ele>
        <time>2018-03-18T11:30:21Z</time>
      </trkpt>
      <trkpt lat="43.11901" lon="3.10354">
        <ele>-2.8</ele>
        <time>2018-03-18T11:30:23Z</time>
      </trkpt>
      <trkpt lat="43.11894" lon="3.10364">
        <ele>-2.5</ele>
        <time>2018-03-18T11:30:25Z</time>
      </trkpt>
      <trkpt lat="43.11887" lon="3.10373">
        <ele>-2.5</ele>
        <time>2018-03-18T11:30:27Z</time>
      </trkpt>
      <trkpt lat="43.1188" lon="3.10382">
        <ele>-2.4</ele>
        <time>2018-03-18T11:30:29Z</time>
      </trkpt>
      <trkpt lat="43.11871" lon="3.1039">
        <ele>-1.7</ele>
        <time>2018-03-18T11:30:31Z</time>
      </trkpt>
      <trkpt lat="43.11865" lon="3.10397">
        <ele>-1.5</ele>
        <time>2018-03-18T11:30:33Z</time>
      </trkpt>
      <trkpt lat="43.11856" lon="3.10406">
        <ele>-1.4</ele>
        <time>2018-03-18T11:30:35Z</time>
      </trkpt>
      <trkpt lat="43.11849" lon="3.10415">
        <ele>-1.2</ele>
        <time>2018-03-18T11:30:37Z</time>
      </trkpt>
      <trkpt lat="43.1184" lon="3.10422">
        <ele>-1.1</ele>
        <time>2018-03-18T11:30:39Z</time>
      </trkpt>
      <trkpt lat="43.11833" lon="3.10427">
        <ele>-1</ele>
        <time>2018-03-18T11:30:41Z</time>
      </trkpt>
      <trkpt lat="43.11823" lon="3.10432">
        <ele>-0.6</ele>
        <time>2018-03-18T11:30:43Z</time>
      </trkpt>
      <trkpt lat="43.11813" lon="3.10434">
        <ele>-0.4</ele>
        <time>2018-03-18T11:30:45Z</time>
      </trkpt>
      <trkpt lat="43.11802" lon="3.10432">
        <ele>-0.4</ele>
        <time>2018-03-18T11:30:47Z</time>
      </trkpt>
      <trkpt lat="43.11794" lon="3.10429">
        <ele>-0.3</ele>
        <time>2018-03-18T11:30:49Z</time>
      </trkpt>
      <trkpt lat="43.11785" lon="3.10426">
        <ele>-0.4</ele>
        <time>2018-03-18T11:30:51Z</time>
      </trkpt>
      <trkpt lat="43.11776" lon="3.10422">
        <ele>-0.3</ele>
        <time>2018-03-18T11:30:53Z</time>
      </trkpt>
      <trkpt lat="43.11766" lon="3.10419">
        <ele>-0.4</ele>
        <time>2018-03-18T11:30:55Z</time>
      </trkpt>
      <trkpt lat="43.11757" lon="3.10416">
        <ele>-0.9</ele>
        <time>2018-03-18T11:30:57Z</time>
      </trkpt>
      <trkpt lat="43.11747" lon="3.10409">
        <ele>-1.2</ele>
        <time>2018-03-18T11:30:59Z</time>
      </trkpt>
      <trkpt lat="43.11738" lon="3.10402">
        <ele>-1.5</ele>
        <time>2018-03-18T11:31:01Z</time>
      </trkpt>
      <trkpt lat="43.11728" lon="3.10395">
        <ele>-1.9</ele>
        <time>2018-03-18T11:31:03Z</time>
      </trkpt>
      <trkpt lat="43.11719" lon="3.10389">
        <ele>-2.1</ele>
        <time>2018-03-18T11:31:05Z</time>
      </trkpt>
      <trkpt lat="43.11711" lon="3.10383">
        <ele>-2.2</ele>
        <time>2018-03-18T11:31:07Z</time>
      </trkpt>
      <trkpt lat="43.11702" lon="3.10376">
        <ele>-2.8</ele>
        <time>2018-03-18T11:31:09Z</time>
      </trkpt>
      <trkpt lat="43.11694" lon="3.1037">
        <ele>-3</ele>
        <time>2018-03-18T11:31:11Z</time>
      </trkpt>
      <trkpt lat="43.11685" lon="3.10364">
        <ele>-3.5</ele>
        <time>2018-03-18T11:31:13Z</time>
      </trkpt>
      <trkpt lat="43.11676" lon="3.10358">
        <ele>-3.8</ele>
        <time>2018-03-18T11:31:15Z</time>
      </trkpt>
      <trkpt lat="43.11668" lon="3.10353">
        <ele>-3.8</ele>
        <time>2018-03-18T11:31:17Z</time>
      </trkpt>
      <trkpt lat="43.11659" lon="3.10346">
        <ele>-4.1</ele>
        <time>2018-03-18T11:31:19Z</time>
      </trkpt>
      <trkpt lat="43.11651" lon="3.10338">
        <ele>-4.3</ele>
        <time>2018-03-18T11:31:21Z</time>
      </trkpt>
      <trkpt lat="43.11643" lon="3.1033">
        <ele>-4.5</ele>
        <time>2018-03-18T11:31:23Z</time>
      </trkpt>
      <trkpt lat="43.11638" lon="3.1032">
        <ele>-4.7</ele>
        <time>2018-03-18T11:31:25Z</time>
      </trkpt>
      <trkpt lat="43.11635" lon="3.10307">
        <ele>-4.7</ele>
        <time>2018-03-18T11:31:27Z</time>
      </trkpt>
      <trkpt lat="43.11632" lon="3.10295">
        <ele>-4.8</ele>
        <time>2018-03-18T11:31:29Z</time>
      </trkpt>
      <trkpt lat="43.1163" lon="3.10283">
        <ele>-4.8</ele>
        <time>2018-03-18T11:31:31Z</time>
      </trkpt>
      <trkpt lat="43.11628" lon="3.10271">
        <ele>-4.7</ele>
        <time>2018-03-18T11:31:33Z</time>
      </trkpt>
      <trkpt lat="43.11625" lon="3.1026">
        <ele>-4.9</ele>
        <time>2018-03-18T11:31:35Z</time>
      </trkpt>
      <trkpt lat="43.11623" lon="3.10249">
        <ele>-4.9</ele>
        <time>2018-03-18T11:31:37Z</time>
      </trkpt>
      <trkpt lat="43.11621" lon="3.10239">
        <ele>-5.3</ele>
        <time>2018-03-18T11:31:39Z</time>
      </trkpt>
      <trkpt lat="43.11619" lon="3.10227">
        <ele>-5.4</ele>
        <time>2018-03-18T11:31:41Z</time>
      </trkpt>
      <trkpt lat="43.11618" lon="3.10216">
        <ele>-5.7</ele>
        <time>2018-03-18T11:31:43Z</time>
      </trkpt>
      <trkpt lat="43.11618" lon="3.10205">
        <ele>-5.3</ele>
        <time>2018-03-18T11:31:45Z</time>
      </trkpt>
      <trkpt lat="43.11619" lon="3.10194">
        <ele>-5.1</ele>
        <time>2018-03-18T11:31:47Z</time>
      </trkpt>
      <trkpt lat="43.1162" lon="3.10182">
        <ele>-4.6</ele>
        <time>2018-03-18T11:31:49Z</time>
      </trkpt>
      <trkpt lat="43.11619" lon="3.10171">
        <ele>-4</ele>
        <time>2018-03-18T11:31:51Z</time>
      </trkpt>
      <trkpt lat="43.11617" lon="3.1016">
        <ele>-3.9</ele>
        <time>2018-03-18T11:31:53Z</time>
      </trkpt>
      <trkpt lat="43.11614" lon="3.10151">
        <ele>-3.5</ele>
        <time>2018-03-18T11:31:55Z</time>
      </trkpt>
      <trkpt lat="43.11611" lon="3.10141">
        <ele>-3.4</ele>
        <time>2018-03-18T11:31:57Z</time>
      </trkpt>
      <trkpt lat="43.11607" lon="3.10132">
        <ele>-3.6</ele>
        <time>2018-03-18T11:31:59Z</time>
      </trkpt>
      <trkpt lat="43.11602" lon="3.10122">
        <ele>-3.6</ele>
        <time>2018-03-18T11:32:01Z</time>
      </trkpt>
      <trkpt lat="43.11597" lon="3.10113">
        <ele>-3.6</ele>
        <time>2018-03-18T11:32:03Z</time>
      </trkpt>
      <trkpt lat="43.11593" lon="3.10103">
        <ele>-4</ele>
        <time>2018-03-18T11:32:05Z</time>
      </trkpt>
      <trkpt lat="43.11588" lon="3.10093">
        <ele>-3.9</ele>
        <time>2018-03-18T11:32:07Z</time>
      </trkpt>
      <trkpt lat="43.11583" lon="3.10083">
        <ele>-4.3</ele>
        <time>2018-03-18T11:32:09Z</time>
      </trkpt>
      <trkpt lat="43.11579" lon="3.10073">
        <ele>-4.1</ele>
        <time>2018-03-18T11:32:11Z</time>
      </trkpt>
      <trkpt lat="43.11575" lon="3.10063">
        <ele>-3.5</ele>
        <time>2018-03-18T11:32:13Z</time>
      </trkpt>
      <trkpt lat="43.1157" lon="3.10054">
        <ele>-3.1</ele>
        <time>2018-03-18T11:32:15Z</time>
      </trkpt>
      <trkpt lat="43.11567" lon="3.10044">
        <ele>-2.8</ele>
        <time>2018-03-18T11:32:17Z</time>
      </trkpt>
      <trkpt lat="43.11564" lon="3.10031">
        <ele>-2.6</ele>
        <time>2018-03-18T11:32:20Z</time>
      </trkpt>
      <trkpt lat="43.11563" lon="3.1002">
        <ele>-2.6</ele>
        <time>2018-03-18T11:32:22Z</time>
      </trkpt>
      <trkpt lat="43.1156" lon="3.1001">
        <ele>-2.6</ele>
        <time>2018-03-18T11:32:24Z</time>
      </trkpt>
      <trkpt lat="43.11558" lon="3.1">
        <ele>-2.7</ele>
        <time>2018-03-18T11:32:26Z</time>
      </trkpt>
      <trkpt lat="43.11557" lon="3.09989">
        <ele>-2.6</ele>
        <time>2018-03-18T11:32:28Z</time>
      </trkpt>
      <trkpt lat="43.11555" lon="3.09978">
        <ele>-2.7</ele>
        <time>2018-03-18T11:32:30Z</time>
      </trkpt>
      <trkpt lat="43.11554" lon="3.09967">
        <ele>-2</ele>
        <time>2018-03-18T11:32:32Z</time>
      </trkpt>
      <trkpt lat="43.11552" lon="3.09957">
        <ele>-1.7</ele>
        <time>2018-03-18T11:32:34Z</time>
      </trkpt>
      <trkpt lat="43.11551" lon="3.09947">
        <ele>-1.1</ele>
        <time>2018-03-18T11:32:36Z</time>
      </trkpt>
      <trkpt lat="43.1155" lon="3.09936">
        <ele>-2.1</ele>
        <time>2018-03-18T11:32:38Z</time>
      </trkpt>
      <trkpt lat="43.11548" lon="3.09925">
        <ele>-2.2</ele>
        <time>2018-03-18T11:32:40Z</time>
      </trkpt>
      <trkpt lat="43.11545" lon="3.09915">
        <ele>-2</ele>
        <time>2018-03-18T11:32:42Z</time>
      </trkpt>
      <trkpt lat="43.11544" lon="3.09904">
        <ele>-2.1</ele>
        <time>2018-03-18T11:32:44Z</time>
      </trkpt>
      <trkpt lat="43.11542" lon="3.09892">
        <ele>-2.6</ele>
        <time>2018-03-18T11:32:46Z</time>
      </trkpt>
      <trkpt lat="43.1154" lon="3.0988">
        <ele>-2.8</ele>
        <time>2018-03-18T11:32:48Z</time>
      </trkpt>
      <trkpt lat="43.11538" lon="3.09869">
        <ele>-2.9</ele>
        <time>2018-03-18T11:32:50Z</time>
      </trkpt>
      <trkpt lat="43.11537" lon="3.09858">
        <ele>-2.4</ele>
        <time>2018-03-18T11:32:52Z</time>
      </trkpt>
      <trkpt lat="43.11536" lon="3.09847">
        <ele>-1.5</ele>
        <time>2018-03-18T11:32:54Z</time>
      </trkpt>
      <trkpt lat="43.11534" lon="3.09836">
        <ele>-0.9</ele>
        <time>2018-03-18T11:32:56Z</time>
      </trkpt>
      <trkpt lat="43.11533" lon="3.09827">
        <ele>-0.2</ele>
        <time>2018-03-18T11:32:58Z</time>
      </trkpt>
      <trkpt lat="43.11533" lon="3.09815">
        <ele>-0.1</ele>
        <time>2018-03-18T11:33:00Z</time>
      </trkpt>
      <trkpt lat="43.11532" lon="3.09803">
        <ele>-0.3</ele>
        <time>2018-03-18T11:33:02Z</time>
      </trkpt>
      <trkpt lat="43.11531" lon="3.09791">
        <ele>-0.4</ele>
        <time>2018-03-18T11:33:04Z</time>
      </trkpt>
      <trkpt lat="43.11531" lon="3.0978">
        <ele>-0.4</ele>
        <time>2018-03-18T11:33:06Z</time>
      </trkpt>
      <trkpt lat="43.11531" lon="3.09768">
        <ele>-0.2</ele>
        <time>2018-03-18T11:33:08Z</time>
      </trkpt>
      <trkpt lat="43.11531" lon="3.09757">
        <ele>-0.1</ele>
        <time>2018-03-18T11:33:10Z</time>
      </trkpt>
      <trkpt lat="43.11529" lon="3.09746">
        <ele>2</ele>
        <time>2018-03-18T11:33:12Z</time>
      </trkpt>
      <trkpt lat="43.11529" lon="3.09736">
        <ele>0.2</ele>
        <time>2018-03-18T11:33:14Z</time>
      </trkpt>
      <trkpt lat="43.11529" lon="3.09722">
        <ele>1.8</ele>
        <time>2018-03-18T11:33:17Z</time>
      </trkpt>
      <trkpt lat="43.11531" lon="3.09709">
        <ele>1.7</ele>
        <time>2018-03-18T11:33:20Z</time>
      </trkpt>
      <trkpt lat="43.11531" lon="3.09695">
        <ele>-0.3</ele>
        <time>2018-03-18T11:33:23Z</time>
      </trkpt>
      <trkpt lat="43.11533" lon="3.09685">
        <ele>-0.3</ele>
        <time>2018-03-18T11:33:25Z</time>
      </trkpt>
      <trkpt lat="43.11533" lon="3.09672">
        <ele>-0.7</ele>
        <time>2018-03-18T11:33:28Z</time>
      </trkpt>
      <trkpt lat="43.11529" lon="3.09661">
        <ele>-0.9</ele>
        <time>2018-03-18T11:33:30Z</time>
      </trkpt>
      <trkpt lat="43.11527" lon="3.09651">
        <ele>-0.9</ele>
        <time>2018-03-18T11:33:32Z</time>
      </trkpt>
      <trkpt lat="43.11525" lon="3.09639">
        <ele>-1.4</ele>
        <time>2018-03-18T11:33:34Z</time>
      </trkpt>
      <trkpt lat="43.11526" lon="3.09629">
        <ele>-1</ele>
        <time>2018-03-18T11:33:36Z</time>
      </trkpt>
      <trkpt lat="43.11528" lon="3.09616">
        <ele>-0.9</ele>
        <time>2018-03-18T11:33:39Z</time>
      </trkpt>
      <trkpt lat="43.11533" lon="3.09603">
        <ele>-0.9</ele>
        <time>2018-03-18T11:33:42Z</time>
      </trkpt>
      <trkpt lat="43.11537" lon="3.09591">
        <ele>-0.7</ele>
        <time>2018-03-18T11:33:45Z</time>
      </trkpt>
      <trkpt lat="43.11541" lon="3.09577">
        <ele>-0.6</ele>
        <time>2018-03-18T11:33:48Z</time>
      </trkpt>
      <trkpt lat="43.11545" lon="3.09566">
        <ele>-0.5</ele>
        <time>2018-03-18T11:33:51Z</time>
      </trkpt>
      <trkpt lat="43.1155" lon="3.09553">
        <ele>-0.2</ele>
        <time>2018-03-18T11:33:54Z</time>
      </trkpt>
      <trkpt lat="43.11554" lon="3.09542">
        <ele>2</ele>
        <time>2018-03-18T11:33:56Z</time>
      </trkpt>
      <trkpt lat="43.11557" lon="3.09534">
        <ele>0.1</ele>
        <time>2018-03-18T11:33:58Z</time>
      </trkpt>
      <trkpt lat="43.1156" lon="3.09521">
        <ele>0.2</ele>
        <time>2018-03-18T11:34:01Z</time>
      </trkpt>
      <trkpt lat="43.11563" lon="3.09511">
        <ele>-0.2</ele>
        <time>2018-03-18T11:34:03Z</time>
      </trkpt>
      <trkpt lat="43.11564" lon="3.09501">
        <ele>0.1</ele>
        <time>2018-03-18T11:34:05Z</time>
      </trkpt>
      <trkpt lat="43.11563" lon="3.09491">
        <ele>0.1</ele>
        <time>2018-03-18T11:34:07Z</time>
      </trkpt>
      <trkpt lat="43.11562" lon="3.0948">
        <ele>0.1</ele>
        <time>2018-03-18T11:34:09Z</time>
      </trkpt>
      <trkpt lat="43.11559" lon="3.09468">
        <ele>0.2</ele>
        <time>2018-03-18T11:34:11Z</time>
      </trkpt>
      <trkpt lat="43.11556" lon="3.09459">
        <ele>0.4</ele>
        <time>2018-03-18T11:34:13Z</time>
      </trkpt>
      <trkpt lat="43.11552" lon="3.0945">
        <ele>0.9</ele>
        <time>2018-03-18T11:34:15Z</time>
      </trkpt>
      <trkpt lat="43.11543" lon="3.0944">
        <ele>1.1</ele>
        <time>2018-03-18T11:34:18Z</time>
      </trkpt>
      <trkpt lat="43.11537" lon="3.09432">
        <ele>1.1</ele>
        <time>2018-03-18T11:34:20Z</time>
      </trkpt>
      <trkpt lat="43.11531" lon="3.09423">
        <ele>0.8</ele>
        <time>2018-03-18T11:34:22Z</time>
      </trkpt>
      <trkpt lat="43.11525" lon="3.09414">
        <ele>0.4</ele>
        <time>2018-03-18T11:34:24Z</time>
      </trkpt>
      <trkpt lat="43.11518" lon="3.09405">
        <ele>1.9</ele>
        <time>2018-03-18T11:34:26Z</time>
      </trkpt>
      <trkpt lat="43.11511" lon="3.09396">
        <ele>-0.3</ele>
        <time>2018-03-18T11:34:28Z</time>
      </trkpt>
      <trkpt lat="43.11505" lon="3.09387">
        <ele>-0.7</ele>
        <time>2018-03-18T11:34:30Z</time>
      </trkpt>
      <trkpt lat="43.11499" lon="3.09378">
        <ele>-0.8</ele>
        <time>2018-03-18T11:34:32Z</time>
      </trkpt>
      <trkpt lat="43.11492" lon="3.09369">
        <ele>-0.7</ele>
        <time>2018-03-18T11:34:34Z</time>
      </trkpt>
      <trkpt lat="43.11486" lon="3.09362">
        <ele>-1.2</ele>
        <time>2018-03-18T11:34:36Z</time>
      </trkpt>
      <trkpt lat="43.1148" lon="3.09353">
        <ele>-1.1</ele>
        <time>2018-03-18T11:34:38Z</time>
      </trkpt>
      <trkpt lat="43.11475" lon="3.09346">
        <ele>-1.1</ele>
        <time>2018-03-18T11:34:40Z</time>
      </trkpt>
      <trkpt lat="43.11469" lon="3.09338">
        <ele>-0.9</ele>
        <time>2018-03-18T11:34:42Z</time>
      </trkpt>
      <trkpt lat="43.11464" lon="3.0933">
        <ele>-0.8</ele>
        <time>2018-03-18T11:34:44Z</time>
      </trkpt>
      <trkpt lat="43.1146" lon="3.09321">
        <ele>-0.7</ele>
        <time>2018-03-18T11:34:46Z</time>
      </trkpt>
      <trkpt lat="43.11457" lon="3.09311">
        <ele>-1.9</ele>
        <time>2018-03-18T11:34:48Z</time>
      </trkpt>
      <trkpt lat="43.11453" lon="3.09302">
        <ele>-2.1</ele>
        <time>2018-03-18T11:34:50Z</time>
      </trkpt>
      <trkpt lat="43.11451" lon="3.09288">
        <ele>-2.4</ele>
        <time>2018-03-18T11:34:53Z</time>
      </trkpt>
      <trkpt lat="43.11453" lon="3.09279">
        <ele>-2.3</ele>
        <time>2018-03-18T11:34:55Z</time>
      </trkpt>
      <trkpt lat="43.11452" lon="3.09267">
        <ele>-2.6</ele>
        <time>2018-03-18T11:34:58Z</time>
      </trkpt>
      <trkpt lat="43.11448" lon="3.09258">
        <ele>-3.5</ele>
        <time>2018-03-18T11:35:05Z</time>
      </trkpt>
      <trkpt lat="43.11445" lon="3.09249">
        <ele>-3.8</ele>
        <time>2018-03-18T11:35:13Z</time>
      </trkpt>
      <trkpt lat="43.11441" lon="3.09239">
        <ele>-3.8</ele>
        <time>2018-03-18T11:35:16Z</time>
      </trkpt>
      <trkpt lat="43.11436" lon="3.09231">
        <ele>-4.1</ele>
        <time>2018-03-18T11:35:19Z</time>
      </trkpt>
      <trkpt lat="43.11433" lon="3.0922">
        <ele>-3.9</ele>
        <time>2018-03-18T11:35:23Z</time>
      </trkpt>
      <trkpt lat="43.11427" lon="3.0921">
        <ele>-2.4</ele>
        <time>2018-03-18T11:35:27Z</time>
      </trkpt>
      <trkpt lat="43.11419" lon="3.0921">
        <ele>-1.4</ele>
        <time>2018-03-18T11:35:30Z</time>
      </trkpt>
      <trkpt lat="43.1141" lon="3.09209">
        <ele>-0.2</ele>
        <time>2018-03-18T11:35:33Z</time>
      </trkpt>
      <trkpt lat="43.114" lon="3.09206">
        <ele>0.3</ele>
        <time>2018-03-18T11:35:36Z</time>
      </trkpt>
      <trkpt lat="43.1139" lon="3.09202">
        <ele>0.7</ele>
        <time>2018-03-18T11:35:39Z</time>
      </trkpt>
      <trkpt lat="43.11382" lon="3.09199">
        <ele>0.5</ele>
        <time>2018-03-18T11:35:41Z</time>
      </trkpt>
      <trkpt lat="43.11375" lon="3.09198">
        <ele>0.7</ele>
        <time>2018-03-18T11:35:43Z</time>
      </trkpt>
      <trkpt lat="43.11365" lon="3.09193">
        <ele>0.6</ele>
        <time>2018-03-18T11:35:46Z</time>
      </trkpt>
      <trkpt lat="43.11358" lon="3.0919">
        <ele>0.4</ele>
        <time>2018-03-18T11:35:48Z</time>
      </trkpt>
      <trkpt lat="43.1135" lon="3.09187">
        <ele>0.4</ele>
        <time>2018-03-18T11:35:50Z</time>
      </trkpt>
      <trkpt lat="43.11343" lon="3.09184">
        <ele>0.7</ele>
        <time>2018-03-18T11:35:52Z</time>
      </trkpt>
      <trkpt lat="43.11334" lon="3.09181">
        <ele>0.9</ele>
        <time>2018-03-18T11:35:54Z</time>
      </trkpt>
      <trkpt lat="43.11327" lon="3.09178">
        <ele>0.8</ele>
        <time>2018-03-18T11:35:56Z</time>
      </trkpt>
      <trkpt lat="43.11318" lon="3.09175">
        <ele>1</ele>
        <time>2018-03-18T11:35:58Z</time>
      </trkpt>
      <trkpt lat="43.1131" lon="3.09172">
        <ele>1.2</ele>
        <time>2018-03-18T11:36:00Z</time>
      </trkpt>
      <trkpt lat="43.11301" lon="3.0917">
        <ele>1.1</ele>
        <time>2018-03-18T11:36:02Z</time>
      </trkpt>
      <trkpt lat="43.11293" lon="3.09167">
        <ele>0.8</ele>
        <time>2018-03-18T11:36:04Z</time>
      </trkpt>
      <trkpt lat="43.11285" lon="3.09163">
        <ele>1</ele>
        <time>2018-03-18T11:36:06Z</time>
      </trkpt>
      <trkpt lat="43.11277" lon="3.09162">
        <ele>1.4</ele>
        <time>2018-03-18T11:36:08Z</time>
      </trkpt>
      <trkpt lat="43.1127" lon="3.09159">
        <ele>1.4</ele>
        <time>2018-03-18T11:36:10Z</time>
      </trkpt>
      <trkpt lat="43.11262" lon="3.09156">
        <ele>1.1</ele>
        <time>2018-03-18T11:36:12Z</time>
      </trkpt>
      <trkpt lat="43.11254" lon="3.09154">
        <ele>1.2</ele>
        <time>2018-03-18T11:36:14Z</time>
      </trkpt>
      <trkpt lat="43.11247" lon="3.09152">
        <ele>1.4</ele>
        <time>2018-03-18T11:36:16Z</time>
      </trkpt>
      <trkpt lat="43.11239" lon="3.09149">
        <ele>1.9</ele>
        <time>2018-03-18T11:36:18Z</time>
      </trkpt>
      <trkpt lat="43.11231" lon="3.09145">
        <ele>1.8</ele>
        <time>2018-03-18T11:36:20Z</time>
      </trkpt>
      <trkpt lat="43.11222" lon="3.09143">
        <ele>2.3</ele>
        <time>2018-03-18T11:36:22Z</time>
      </trkpt>
      <trkpt lat="43.11213" lon="3.0914">
        <ele>3.1</ele>
        <time>2018-03-18T11:36:24Z</time>
      </trkpt>
      <trkpt lat="43.11204" lon="3.09137">
        <ele>2.9</ele>
        <time>2018-03-18T11:36:26Z</time>
      </trkpt>
      <trkpt lat="43.11195" lon="3.09134">
        <ele>2.5</ele>
        <time>2018-03-18T11:36:28Z</time>
      </trkpt>
      <trkpt lat="43.11186" lon="3.09129">
        <ele>2.4</ele>
        <time>2018-03-18T11:36:30Z</time>
      </trkpt>
      <trkpt lat="43.11178" lon="3.09127">
        <ele>2.5</ele>
        <time>2018-03-18T11:36:33Z</time>
      </trkpt>
      <trkpt lat="43.11169" lon="3.09123">
        <ele>2.2</ele>
        <time>2018-03-18T11:36:34Z</time>
      </trkpt>
      <trkpt lat="43.11161" lon="3.09118">
        <ele>1.3</ele>
        <time>2018-03-18T11:36:36Z</time>
      </trkpt>
      <trkpt lat="43.11153" lon="3.09116">
        <ele>0.8</ele>
        <time>2018-03-18T11:36:38Z</time>
      </trkpt>
      <trkpt lat="43.11144" lon="3.09113">
        <ele>1.3</ele>
        <time>2018-03-18T11:36:40Z</time>
      </trkpt>
      <trkpt lat="43.11135" lon="3.09111">
        <ele>1.5</ele>
        <time>2018-03-18T11:36:42Z</time>
      </trkpt>
      <trkpt lat="43.11128" lon="3.09109">
        <ele>1.8</ele>
        <time>2018-03-18T11:36:44Z</time>
      </trkpt>
      <trkpt lat="43.1112" lon="3.09105">
        <ele>1.8</ele>
        <time>2018-03-18T11:36:46Z</time>
      </trkpt>
      <trkpt lat="43.11111" lon="3.09102">
        <ele>1.7</ele>
        <time>2018-03-18T11:36:48Z</time>
      </trkpt>
      <trkpt lat="43.11103" lon="3.09098">
        <ele>1.6</ele>
        <time>2018-03-18T11:36:50Z</time>
      </trkpt>
      <trkpt lat="43.11094" lon="3.09094">
        <ele>1.6</ele>
        <time>2018-03-18T11:36:52Z</time>
      </trkpt>
      <trkpt lat="43.11086" lon="3.09091">
        <ele>2</ele>
        <time>2018-03-18T11:36:54Z</time>
      </trkpt>
      <trkpt lat="43.11077" lon="3.09088">
        <ele>2</ele>
        <time>2018-03-18T11:36:56Z</time>
      </trkpt>
      <trkpt lat="43.11068" lon="3.09085">
        <ele>1.6</ele>
        <time>2018-03-18T11:36:58Z</time>
      </trkpt>
      <trkpt lat="43.11059" lon="3.09082">
        <ele>1.5</ele>
        <time>2018-03-18T11:37:00Z</time>
      </trkpt>
      <trkpt lat="43.11051" lon="3.0908">
        <ele>1.6</ele>
        <time>2018-03-18T11:37:02Z</time>
      </trkpt>
      <trkpt lat="43.11042" lon="3.09077">
        <ele>1.7</ele>
        <time>2018-03-18T11:37:04Z</time>
      </trkpt>
      <trkpt lat="43.11034" lon="3.09074">
        <ele>1.6</ele>
        <time>2018-03-18T11:37:06Z</time>
      </trkpt>
      <trkpt lat="43.11026" lon="3.0907">
        <ele>1.6</ele>
        <time>2018-03-18T11:37:08Z</time>
      </trkpt>
      <trkpt lat="43.11017" lon="3.09067">
        <ele>1.8</ele>
        <time>2018-03-18T11:37:10Z</time>
      </trkpt>
      <trkpt lat="43.11007" lon="3.09064">
        <ele>1.9</ele>
        <time>2018-03-18T11:37:12Z</time>
      </trkpt>
      <trkpt lat="43.10999" lon="3.09061">
        <ele>1.9</ele>
        <time>2018-03-18T11:37:14Z</time>
      </trkpt>
      <trkpt lat="43.10992" lon="3.09058">
        <ele>1.9</ele>
        <time>2018-03-18T11:37:16Z</time>
      </trkpt>
      <trkpt lat="43.10984" lon="3.09055">
        <ele>1.6</ele>
        <time>2018-03-18T11:37:18Z</time>
      </trkpt>
      <trkpt lat="43.10976" lon="3.09052">
        <ele>1.4</ele>
        <time>2018-03-18T11:37:20Z</time>
      </trkpt>
      <trkpt lat="43.10967" lon="3.09048">
        <ele>1.1</ele>
        <time>2018-03-18T11:37:22Z</time>
      </trkpt>
      <trkpt lat="43.10958" lon="3.09045">
        <ele>0.7</ele>
        <time>2018-03-18T11:37:24Z</time>
      </trkpt>
      <trkpt lat="43.1095" lon="3.09042">
        <ele>0.4</ele>
        <time>2018-03-18T11:37:26Z</time>
      </trkpt>
      <trkpt lat="43.10943" lon="3.09039">
        <ele>0.1</ele>
        <time>2018-03-18T11:37:28Z</time>
      </trkpt>
      <trkpt lat="43.10936" lon="3.09035">
        <ele>1</ele>
        <time>2018-03-18T11:37:30Z</time>
      </trkpt>
      <trkpt lat="43.10927" lon="3.09031">
        <ele>1</ele>
        <time>2018-03-18T11:37:32Z</time>
      </trkpt>
      <trkpt lat="43.10919" lon="3.09028">
        <ele>0.1</ele>
        <time>2018-03-18T11:37:34Z</time>
      </trkpt>
      <trkpt lat="43.1091" lon="3.09025">
        <ele>2</ele>
        <time>2018-03-18T11:37:36Z</time>
      </trkpt>
      <trkpt lat="43.10902" lon="3.09022">
        <ele>2</ele>
        <time>2018-03-18T11:37:38Z</time>
      </trkpt>
      <trkpt lat="43.10895" lon="3.0902">
        <ele>2</ele>
        <time>2018-03-18T11:37:40Z</time>
      </trkpt>
      <trkpt lat="43.10888" lon="3.0902">
        <ele>-0.2</ele>
        <time>2018-03-18T11:37:43Z</time>
      </trkpt>
      <trkpt lat="43.10884" lon="3.09028">
        <ele>-0.3</ele>
        <time>2018-03-18T11:37:46Z</time>
      </trkpt>
      <trkpt lat="43.10885" lon="3.0904">
        <ele>-0.6</ele>
        <time>2018-03-18T11:37:49Z</time>
      </trkpt>
      <trkpt lat="43.10887" lon="3.09049">
        <ele>0.5</ele>
        <time>2018-03-18T11:37:52Z</time>
      </trkpt>
      <trkpt lat="43.10889" lon="3.09055">
        <ele>0.1</ele>
        <time>2018-03-18T11:37:59Z</time>
      </trkpt>
      <trkpt lat="43.10885" lon="3.09058">
        <ele>-4</ele>
        <time>2018-03-18T11:39:19Z</time>
      </trkpt>
      <trkpt lat="43.10885" lon="3.09055">
        <ele>-4.2</ele>
        <time>2018-03-18T11:39:26Z</time>
      </trkpt>
      <trkpt lat="43.10882" lon="3.09058">
        <ele>-3.5</ele>
        <time>2018-03-18T11:39:33Z</time>
      </trkpt>
      <trkpt lat="43.10884" lon="3.09049">
        <ele>-3.5</ele>
        <time>2018-03-18T11:39:40Z</time>
      </trkpt>
      <trkpt lat="43.10882" lon="3.09037">
        <ele>-3.6</ele>
        <time>2018-03-18T11:39:45Z</time>
      </trkpt>
      <trkpt lat="43.10876" lon="3.09025">
        <ele>-3.8</ele>
        <time>2018-03-18T11:39:48Z</time>
      </trkpt>
      <trkpt lat="43.1087" lon="3.09013">
        <ele>-4</ele>
        <time>2018-03-18T11:39:51Z</time>
      </trkpt>
      <trkpt lat="43.10865" lon="3.09004">
        <ele>-3.9</ele>
        <time>2018-03-18T11:39:53Z</time>
      </trkpt>
      <trkpt lat="43.10861" lon="3.08996">
        <ele>-3.8</ele>
        <time>2018-03-18T11:39:55Z</time>
      </trkpt>
      <trkpt lat="43.10857" lon="3.08986">
        <ele>-3.5</ele>
        <time>2018-03-18T11:39:57Z</time>
      </trkpt>
      <trkpt lat="43.10853" lon="3.08977">
        <ele>-3.3</ele>
        <time>2018-03-18T11:39:59Z</time>
      </trkpt>
      <trkpt lat="43.1085" lon="3.08967">
        <ele>-2.8</ele>
        <time>2018-03-18T11:40:01Z</time>
      </trkpt>
      <trkpt lat="43.10846" lon="3.08958">
        <ele>-2.8</ele>
        <time>2018-03-18T11:40:03Z</time>
      </trkpt>
      <trkpt lat="43.10842" lon="3.08948">
        <ele>-2.8</ele>
        <time>2018-03-18T11:40:05Z</time>
      </trkpt>
      <trkpt lat="43.10838" lon="3.08941">
        <ele>-2.7</ele>
        <time>2018-03-18T11:40:07Z</time>
      </trkpt>
      <trkpt lat="43.10835" lon="3.08932">
        <ele>-2.7</ele>
        <time>2018-03-18T11:40:09Z</time>
      </trkpt>
      <trkpt lat="43.10831" lon="3.08923">
        <ele>-2.9</ele>
        <time>2018-03-18T11:40:11Z</time>
      </trkpt>
      <trkpt lat="43.10828" lon="3.08914">
        <ele>-3.2</ele>
        <time>2018-03-18T11:40:13Z</time>
      </trkpt>
      <trkpt lat="43.10823" lon="3.08905">
        <ele>-3.3</ele>
        <time>2018-03-18T11:40:15Z</time>
      </trkpt>
      <trkpt lat="43.10819" lon="3.08897">
        <ele>-3.3</ele>
        <time>2018-03-18T11:40:17Z</time>
      </trkpt>
      <trkpt lat="43.10815" lon="3.08888">
        <ele>-3.3</ele>
        <time>2018-03-18T11:40:19Z</time>
      </trkpt>
      <trkpt lat="43.10812" lon="3.08879">
        <ele>-3.5</ele>
        <time>2018-03-18T11:40:21Z</time>
      </trkpt>
      <trkpt lat="43.10809" lon="3.08869">
        <ele>-3.3</ele>
        <time>2018-03-18T11:40:23Z</time>
      </trkpt>
      <trkpt lat="43.10805" lon="3.08859">
        <ele>-3.3</ele>
        <time>2018-03-18T11:40:25Z</time>
      </trkpt>
      <trkpt lat="43.10801" lon="3.0885">
        <ele>-3.1</ele>
        <time>2018-03-18T11:40:27Z</time>
      </trkpt>
      <trkpt lat="43.10797" lon="3.0884">
        <ele>-3</ele>
        <time>2018-03-18T11:40:29Z</time>
      </trkpt>
      <trkpt lat="43.10793" lon="3.08831">
        <ele>-3.1</ele>
        <time>2018-03-18T11:40:31Z</time>
      </trkpt>
      <trkpt lat="43.10793" lon="3.0882">
        <ele>-2.9</ele>
        <time>2018-03-18T11:40:33Z</time>
      </trkpt>
      <trkpt lat="43.10793" lon="3.0881">
        <ele>-3</ele>
        <time>2018-03-18T11:40:35Z</time>
      </trkpt>
      <trkpt lat="43.10796" lon="3.08801">
        <ele>-2.8</ele>
        <time>2018-03-18T11:40:37Z</time>
      </trkpt>
      <trkpt lat="43.10801" lon="3.08791">
        <ele>-2.6</ele>
        <time>2018-03-18T11:40:39Z</time>
      </trkpt>
      <trkpt lat="43.10806" lon="3.08783">
        <ele>-2.4</ele>
        <time>2018-03-18T11:40:41Z</time>
      </trkpt>
      <trkpt lat="43.1081" lon="3.08775">
        <ele>-2.3</ele>
        <time>2018-03-18T11:40:43Z</time>
      </trkpt>
      <trkpt lat="43.10816" lon="3.08767">
        <ele>-1.9</ele>
        <time>2018-03-18T11:40:45Z</time>
      </trkpt>
      <trkpt lat="43.10822" lon="3.08759">
        <ele>-1.8</ele>
        <time>2018-03-18T11:40:47Z</time>
      </trkpt>
      <trkpt lat="43.10828" lon="3.08748">
        <ele>-0.9</ele>
        <time>2018-03-18T11:40:50Z</time>
      </trkpt>
      <trkpt lat="43.10833" lon="3.08739">
        <ele>-0.4</ele>
        <time>2018-03-18T11:40:52Z</time>
      </trkpt>
      <trkpt lat="43.10839" lon="3.08728">
        <ele>0.5</ele>
        <time>2018-03-18T11:40:55Z</time>
      </trkpt>
      <trkpt lat="43.10844" lon="3.0872">
        <ele>1.1</ele>
        <time>2018-03-18T11:40:57Z</time>
      </trkpt>
      <trkpt lat="43.10851" lon="3.0871">
        <ele>1.5</ele>
        <time>2018-03-18T11:41:00Z</time>
      </trkpt>
      <trkpt lat="43.10857" lon="3.08704">
        <ele>1.7</ele>
        <time>2018-03-18T11:41:02Z</time>
      </trkpt>
      <trkpt lat="43.10863" lon="3.08697">
        <ele>1.4</ele>
        <time>2018-03-18T11:41:04Z</time>
      </trkpt>
      <trkpt lat="43.10869" lon="3.08691">
        <ele>1.4</ele>
        <time>2018-03-18T11:41:06Z</time>
      </trkpt>
      <trkpt lat="43.10876" lon="3.08685">
        <ele>1.3</ele>
        <time>2018-03-18T11:41:08Z</time>
      </trkpt>
      <trkpt lat="43.10882" lon="3.08678">
        <ele>1.4</ele>
        <time>2018-03-18T11:41:10Z</time>
      </trkpt>
      <trkpt lat="43.10889" lon="3.08673">
        <ele>0.8</ele>
        <time>2018-03-18T11:41:12Z</time>
      </trkpt>
      <trkpt lat="43.10896" lon="3.08666">
        <ele>0.1</ele>
        <time>2018-03-18T11:41:15Z</time>
      </trkpt>
      <trkpt lat="43.10899" lon="3.08661">
        <ele>-0.8</ele>
        <time>2018-03-18T11:41:22Z</time>
      </trkpt>
      <trkpt lat="43.10893" lon="3.08656">
        <ele>-1.1</ele>
        <time>2018-03-18T11:41:48Z</time>
      </trkpt>
      <trkpt lat="43.10888" lon="3.08647">
        <ele>-1</ele>
        <time>2018-03-18T11:41:51Z</time>
      </trkpt>
      <trkpt lat="43.10881" lon="3.08635">
        <ele>-1.1</ele>
        <time>2018-03-18T11:41:54Z</time>
      </trkpt>
      <trkpt lat="43.10876" lon="3.08627">
        <ele>-1.1</ele>
        <time>2018-03-18T11:41:56Z</time>
      </trkpt>
      <trkpt lat="43.10871" lon="3.0862">
        <ele>-1.2</ele>
        <time>2018-03-18T11:41:58Z</time>
      </trkpt>
      <trkpt lat="43.1087" lon="3.08607">
        <ele>-1.2</ele>
        <time>2018-03-18T11:42:01Z</time>
      </trkpt>
      <trkpt lat="43.10874" lon="3.08598">
        <ele>-1</ele>
        <time>2018-03-18T11:42:04Z</time>
      </trkpt>
      <trkpt lat="43.10878" lon="3.08587">
        <ele>-1.1</ele>
        <time>2018-03-18T11:42:07Z</time>
      </trkpt>
      <trkpt lat="43.10882" lon="3.08578">
        <ele>-1.1</ele>
        <time>2018-03-18T11:42:09Z</time>
      </trkpt>
      <trkpt lat="43.10885" lon="3.08568">
        <ele>-1.4</ele>
        <time>2018-03-18T11:42:11Z</time>
      </trkpt>
      <trkpt lat="43.10888" lon="3.08557">
        <ele>-1.1</ele>
        <time>2018-03-18T11:42:13Z</time>
      </trkpt>
      <trkpt lat="43.10892" lon="3.08546">
        <ele>-1.1</ele>
        <time>2018-03-18T11:42:15Z</time>
      </trkpt>
      <trkpt lat="43.10895" lon="3.08535">
        <ele>-0.8</ele>
        <time>2018-03-18T11:42:17Z</time>
      </trkpt>
      <trkpt lat="43.10898" lon="3.08524">
        <ele>-1</ele>
        <time>2018-03-18T11:42:19Z</time>
      </trkpt>
      <trkpt lat="43.109" lon="3.08513">
        <ele>-0.9</ele>
        <time>2018-03-18T11:42:21Z</time>
      </trkpt>
      <trkpt lat="43.10899" lon="3.08502">
        <ele>-1.1</ele>
        <time>2018-03-18T11:42:23Z</time>
      </trkpt>
      <trkpt lat="43.10895" lon="3.08493">
        <ele>-1.4</ele>
        <time>2018-03-18T11:42:25Z</time>
      </trkpt>
      <trkpt lat="43.1089" lon="3.08485">
        <ele>-1.8</ele>
        <time>2018-03-18T11:42:27Z</time>
      </trkpt>
      <trkpt lat="43.10884" lon="3.08477">
        <ele>-2</ele>
        <time>2018-03-18T11:42:29Z</time>
      </trkpt>
      <trkpt lat="43.10879" lon="3.08466">
        <ele>-2.1</ele>
        <time>2018-03-18T11:42:31Z</time>
      </trkpt>
      <trkpt lat="43.10878" lon="3.08454">
        <ele>-2.4</ele>
        <time>2018-03-18T11:42:33Z</time>
      </trkpt>
      <trkpt lat="43.10878" lon="3.08442">
        <ele>-2.8</ele>
        <time>2018-03-18T11:42:35Z</time>
      </trkpt>
      <trkpt lat="43.10876" lon="3.0843">
        <ele>-2.6</ele>
        <time>2018-03-18T11:42:37Z</time>
      </trkpt>
      <trkpt lat="43.10875" lon="3.08418">
        <ele>-2.7</ele>
        <time>2018-03-18T11:42:39Z</time>
      </trkpt>
      <trkpt lat="43.10873" lon="3.08408">
        <ele>-2.8</ele>
        <time>2018-03-18T11:42:41Z</time>
      </trkpt>
      <trkpt lat="43.10871" lon="3.08397">
        <ele>-3</ele>
        <time>2018-03-18T11:42:43Z</time>
      </trkpt>
      <trkpt lat="43.10867" lon="3.08387">
        <ele>-3.1</ele>
        <time>2018-03-18T11:42:45Z</time>
      </trkpt>
      <trkpt lat="43.10863" lon="3.08376">
        <ele>-3.3</ele>
        <time>2018-03-18T11:42:47Z</time>
      </trkpt>
      <trkpt lat="43.10857" lon="3.08367">
        <ele>-3.5</ele>
        <time>2018-03-18T11:42:49Z</time>
      </trkpt>
      <trkpt lat="43.10852" lon="3.08357">
        <ele>-3.6</ele>
        <time>2018-03-18T11:42:51Z</time>
      </trkpt>
      <trkpt lat="43.10846" lon="3.08349">
        <ele>-3.8</ele>
        <time>2018-03-18T11:42:53Z</time>
      </trkpt>
      <trkpt lat="43.1084" lon="3.0834">
        <ele>-3.9</ele>
        <time>2018-03-18T11:42:55Z</time>
      </trkpt>
      <trkpt lat="43.10834" lon="3.08331">
        <ele>-4.2</ele>
        <time>2018-03-18T11:42:57Z</time>
      </trkpt>
      <trkpt lat="43.10826" lon="3.08324">
        <ele>-4.5</ele>
        <time>2018-03-18T11:42:59Z</time>
      </trkpt>
      <trkpt lat="43.10819" lon="3.08317">
        <ele>-5.2</ele>
        <time>2018-03-18T11:43:01Z</time>
      </trkpt>
      <trkpt lat="43.1081" lon="3.0831">
        <ele>-5.3</ele>
        <time>2018-03-18T11:43:03Z</time>
      </trkpt>
      <trkpt lat="43.10801" lon="3.08306">
        <ele>-5.5</ele>
        <time>2018-03-18T11:43:06Z</time>
      </trkpt>
      <trkpt lat="43.10789" lon="3.08303">
        <ele>-6.1</ele>
        <time>2018-03-18T11:43:07Z</time>
      </trkpt>
      <trkpt lat="43.10778" lon="3.08302">
        <ele>-6.1</ele>
        <time>2018-03-18T11:43:09Z</time>
      </trkpt>
      <trkpt lat="43.10767" lon="3.083">
        <ele>-6.5</ele>
        <time>2018-03-18T11:43:11Z</time>
      </trkpt>
      <trkpt lat="43.10757" lon="3.08295">
        <ele>-6.7</ele>
        <time>2018-03-18T11:43:13Z</time>
      </trkpt>
      <trkpt lat="43.10748" lon="3.08287">
        <ele>-6.7</ele>
        <time>2018-03-18T11:43:15Z</time>
      </trkpt>
      <trkpt lat="43.10739" lon="3.08281">
        <ele>-6.3</ele>
        <time>2018-03-18T11:43:17Z</time>
      </trkpt>
      <trkpt lat="43.10727" lon="3.08281">
        <ele>-6</ele>
        <time>2018-03-18T11:43:19Z</time>
      </trkpt>
      <trkpt lat="43.10716" lon="3.08284">
        <ele>-5.8</ele>
        <time>2018-03-18T11:43:21Z</time>
      </trkpt>
      <trkpt lat="43.10705" lon="3.08287">
        <ele>-5.4</ele>
        <time>2018-03-18T11:43:23Z</time>
      </trkpt>
      <trkpt lat="43.10694" lon="3.0829">
        <ele>-5.1</ele>
        <time>2018-03-18T11:43:25Z</time>
      </trkpt>
      <trkpt lat="43.10684" lon="3.08292">
        <ele>-4.7</ele>
        <time>2018-03-18T11:43:27Z</time>
      </trkpt>
      <trkpt lat="43.10673" lon="3.08296">
        <ele>-4.7</ele>
        <time>2018-03-18T11:43:29Z</time>
      </trkpt>
      <trkpt lat="43.10664" lon="3.08305">
        <ele>-4.4</ele>
        <time>2018-03-18T11:43:31Z</time>
      </trkpt>
      <trkpt lat="43.10655" lon="3.08315">
        <ele>-4.2</ele>
        <time>2018-03-18T11:43:33Z</time>
      </trkpt>
      <trkpt lat="43.10646" lon="3.08323">
        <ele>-3.9</ele>
        <time>2018-03-18T11:43:35Z</time>
      </trkpt>
      <trkpt lat="43.10639" lon="3.0833">
        <ele>-3.3</ele>
        <time>2018-03-18T11:43:37Z</time>
      </trkpt>
      <trkpt lat="43.10631" lon="3.0834">
        <ele>-2.3</ele>
        <time>2018-03-18T11:43:39Z</time>
      </trkpt>
      <trkpt lat="43.10624" lon="3.08349">
        <ele>-1.9</ele>
        <time>2018-03-18T11:43:41Z</time>
      </trkpt>
      <trkpt lat="43.10613" lon="3.08354">
        <ele>-1.4</ele>
        <time>2018-03-18T11:43:43Z</time>
      </trkpt>
      <trkpt lat="43.10603" lon="3.08355">
        <ele>-1.2</ele>
        <time>2018-03-18T11:43:45Z</time>
      </trkpt>
      <trkpt lat="43.10592" lon="3.08359">
        <ele>-0.9</ele>
        <time>2018-03-18T11:43:47Z</time>
      </trkpt>
      <trkpt lat="43.10582" lon="3.08368">
        <ele>-0.7</ele>
        <time>2018-03-18T11:43:49Z</time>
      </trkpt>
      <trkpt lat="43.10571" lon="3.0838">
        <ele>-0.7</ele>
        <time>2018-03-18T11:43:51Z</time>
      </trkpt>
      <trkpt lat="43.1056" lon="3.08392">
        <ele>-1</ele>
        <time>2018-03-18T11:43:53Z</time>
      </trkpt>
      <trkpt lat="43.10556" lon="3.08399">
        <ele>-0.9</ele>
        <time>2018-03-18T11:43:54Z</time>
      </trkpt>
      <trkpt lat="43.1055" lon="3.08406">
        <ele>-0.8</ele>
        <time>2018-03-18T11:43:55Z</time>
      </trkpt>
      <trkpt lat="43.10544" lon="3.08412">
        <ele>-0.7</ele>
        <time>2018-03-18T11:43:56Z</time>
      </trkpt>
      <trkpt lat="43.10537" lon="3.08419">
        <ele>-0.5</ele>
        <time>2018-03-18T11:43:57Z</time>
      </trkpt>
      <trkpt lat="43.10526" lon="3.0843">
        <ele>0.2</ele>
        <time>2018-03-18T11:43:59Z</time>
      </trkpt>
      <trkpt lat="43.10514" lon="3.08431">
        <ele>0.5</ele>
        <time>2018-03-18T11:44:01Z</time>
      </trkpt>
      <trkpt lat="43.10501" lon="3.08427">
        <ele>0.5</ele>
        <time>2018-03-18T11:44:03Z</time>
      </trkpt>
      <trkpt lat="43.10493" lon="3.08422">
        <ele>0.8</ele>
        <time>2018-03-18T11:44:05Z</time>
      </trkpt>
      <trkpt lat="43.10484" lon="3.08416">
        <ele>0.6</ele>
        <time>2018-03-18T11:44:07Z</time>
      </trkpt>
      <trkpt lat="43.10478" lon="3.08409">
        <ele>0.3</ele>
        <time>2018-03-18T11:44:10Z</time>
      </trkpt>
      <trkpt lat="43.10477" lon="3.0841">
        <ele>1.3</ele>
        <time>2018-03-18T11:44:17Z</time>
      </trkpt>
      <trkpt lat="43.10481" lon="3.08402">
        <ele>-2.6</ele>
        <time>2018-03-18T11:44:04Z</time>
      </trkpt>
      <trkpt lat="43.10482" lon="3.08391">
        <ele>-2.8</ele>
        <time>2018-03-18T11:45:14Z</time>
      </trkpt>
      <trkpt lat="43.10482" lon="3.08381">
        <ele>-2.8</ele>
        <time>2018-03-18T11:45:18Z</time>
      </trkpt>
      <trkpt lat="43.10484" lon="3.0837">
        <ele>-2.7</ele>
        <time>2018-03-18T11:45:23Z</time>
      </trkpt>
      <trkpt lat="43.10488" lon="3.08359">
        <ele>-2.1</ele>
        <time>2018-03-18T11:45:27Z</time>
      </trkpt>
      <trkpt lat="43.10491" lon="3.08348">
        <ele>-2.1</ele>
        <time>2018-03-18T11:45:31Z</time>
      </trkpt>
      <trkpt lat="43.10495" lon="3.08338">
        <ele>-1.8</ele>
        <time>2018-03-18T11:45:34Z</time>
      </trkpt>
      <trkpt lat="43.10501" lon="3.08328">
        <ele>-2.8</ele>
        <time>2018-03-18T11:45:38Z</time>
      </trkpt>
      <trkpt lat="43.10505" lon="3.08319">
        <ele>-3.4</ele>
        <time>2018-03-18T11:45:42Z</time>
      </trkpt>
      <trkpt lat="43.10509" lon="3.0831">
        <ele>-3.7</ele>
        <time>2018-03-18T11:45:45Z</time>
      </trkpt>
      <trkpt lat="43.10512" lon="3.08299">
        <ele>-4</ele>
        <time>2018-03-18T11:45:48Z</time>
      </trkpt>
      <trkpt lat="43.10517" lon="3.08288">
        <ele>-4.3</ele>
        <time>2018-03-18T11:45:51Z</time>
      </trkpt>
      <trkpt lat="43.1052" lon="3.08278">
        <ele>-4.6</ele>
        <time>2018-03-18T11:45:54Z</time>
      </trkpt>
      <trkpt lat="43.10525" lon="3.08269">
        <ele>-5.3</ele>
        <time>2018-03-18T11:45:57Z</time>
      </trkpt>
      <trkpt lat="43.10531" lon="3.08261">
        <ele>-5.6</ele>
        <time>2018-03-18T11:46:01Z</time>
      </trkpt>
      <trkpt lat="43.10535" lon="3.08252">
        <ele>-5.3</ele>
        <time>2018-03-18T11:46:05Z</time>
      </trkpt>
      <trkpt lat="43.10537" lon="3.08242">
        <ele>-5.5</ele>
        <time>2018-03-18T11:46:08Z</time>
      </trkpt>
      <trkpt lat="43.10541" lon="3.08233">
        <ele>-5.8</ele>
        <time>2018-03-18T11:46:12Z</time>
      </trkpt>
      <trkpt lat="43.10544" lon="3.08222">
        <ele>-6.1</ele>
        <time>2018-03-18T11:46:17Z</time>
      </trkpt>
      <trkpt lat="43.10549" lon="3.08212">
        <ele>-5.8</ele>
        <time>2018-03-18T11:46:22Z</time>
      </trkpt>
      <trkpt lat="43.10553" lon="3.08201">
        <ele>-5.5</ele>
        <time>2018-03-18T11:46:26Z</time>
      </trkpt>
      <trkpt lat="43.10557" lon="3.08192">
        <ele>-5.7</ele>
        <time>2018-03-18T11:46:29Z</time>
      </trkpt>
      <trkpt lat="43.10562" lon="3.08182">
        <ele>-5.5</ele>
        <time>2018-03-18T11:46:34Z</time>
      </trkpt>
      <trkpt lat="43.10567" lon="3.08172">
        <ele>-5.1</ele>
        <time>2018-03-18T11:46:39Z</time>
      </trkpt>
      <trkpt lat="43.10571" lon="3.08164">
        <ele>-5.3</ele>
        <time>2018-03-18T11:46:43Z</time>
      </trkpt>
      <trkpt lat="43.10577" lon="3.08153">
        <ele>-5.3</ele>
        <time>2018-03-18T11:46:47Z</time>
      </trkpt>
      <trkpt lat="43.10582" lon="3.08143">
        <ele>-5.6</ele>
        <time>2018-03-18T11:46:50Z</time>
      </trkpt>
      <trkpt lat="43.10586" lon="3.08132">
        <ele>-5.9</ele>
        <time>2018-03-18T11:46:53Z</time>
      </trkpt>
      <trkpt lat="43.10591" lon="3.08124">
        <ele>-5.9</ele>
        <time>2018-03-18T11:46:56Z</time>
      </trkpt>
      <trkpt lat="43.10595" lon="3.08114">
        <ele>-5.9</ele>
        <time>2018-03-18T11:46:59Z</time>
      </trkpt>
      <trkpt lat="43.10598" lon="3.08105">
        <ele>-5.1</ele>
        <time>2018-03-18T11:47:02Z</time>
      </trkpt>
      <trkpt lat="43.10603" lon="3.08095">
        <ele>-4.7</ele>
        <time>2018-03-18T11:47:05Z</time>
      </trkpt>
      <trkpt lat="43.10608" lon="3.08087">
        <ele>-4.1</ele>
        <time>2018-03-18T11:47:08Z</time>
      </trkpt>
      <trkpt lat="43.10613" lon="3.08076">
        <ele>-4</ele>
        <time>2018-03-18T11:47:11Z</time>
      </trkpt>
      <trkpt lat="43.10619" lon="3.08066">
        <ele>-3.8</ele>
        <time>2018-03-18T11:47:14Z</time>
      </trkpt>
      <trkpt lat="43.10625" lon="3.08056">
        <ele>-3.2</ele>
        <time>2018-03-18T11:47:17Z</time>
      </trkpt>
      <trkpt lat="43.10631" lon="3.08047">
        <ele>-3.6</ele>
        <time>2018-03-18T11:47:20Z</time>
      </trkpt>
      <trkpt lat="43.10636" lon="3.08039">
        <ele>-4.4</ele>
        <time>2018-03-18T11:47:23Z</time>
      </trkpt>
      <trkpt lat="43.10642" lon="3.08032">
        <ele>-4.5</ele>
        <time>2018-03-18T11:47:27Z</time>
      </trkpt>
      <trkpt lat="43.10643" lon="3.08031">
        <ele>-4.6</ele>
        <time>2018-03-18T11:47:34Z</time>
      </trkpt>
      <trkpt lat="43.10648" lon="3.08025">
        <ele>-4.9</ele>
        <time>2018-03-18T11:47:08Z</time>
      </trkpt>
      <trkpt lat="43.10654" lon="3.08017">
        <ele>-5</ele>
        <time>2018-03-18T11:48:18Z</time>
      </trkpt>
      <trkpt lat="43.1066" lon="3.08009">
        <ele>-5.1</ele>
        <time>2018-03-18T11:48:21Z</time>
      </trkpt>
      <trkpt lat="43.10666" lon="3.07999">
        <ele>-5.8</ele>
        <time>2018-03-18T11:48:24Z</time>
      </trkpt>
      <trkpt lat="43.10672" lon="3.07989">
        <ele>-5.9</ele>
        <time>2018-03-18T11:48:27Z</time>
      </trkpt>
      <trkpt lat="43.10679" lon="3.07979">
        <ele>-5.8</ele>
        <time>2018-03-18T11:48:30Z</time>
      </trkpt>
      <trkpt lat="43.10687" lon="3.0797">
        <ele>-5.6</ele>
        <time>2018-03-18T11:48:33Z</time>
      </trkpt>
      <trkpt lat="43.10694" lon="3.07961">
        <ele>-6.1</ele>
        <time>2018-03-18T11:48:36Z</time>
      </trkpt>
      <trkpt lat="43.10702" lon="3.07954">
        <ele>-6.2</ele>
        <time>2018-03-18T11:48:39Z</time>
      </trkpt>
      <trkpt lat="43.10708" lon="3.07946">
        <ele>-5.8</ele>
        <time>2018-03-18T11:48:42Z</time>
      </trkpt>
      <trkpt lat="43.10714" lon="3.07938">
        <ele>-5.1</ele>
        <time>2018-03-18T11:48:47Z</time>
      </trkpt>
      <trkpt lat="43.10716" lon="3.07933">
        <ele>-5.5</ele>
        <time>2018-03-18T11:48:54Z</time>
      </trkpt>
      <trkpt lat="43.10722" lon="3.07925">
        <ele>-5.6</ele>
        <time>2018-03-18T11:49:01Z</time>
      </trkpt>
      <trkpt lat="43.10727" lon="3.07918">
        <ele>-5.3</ele>
        <time>2018-03-18T11:49:08Z</time>
      </trkpt>
      <trkpt lat="43.10732" lon="3.07912">
        <ele>-5.4</ele>
        <time>2018-03-18T11:49:15Z</time>
      </trkpt>
      <trkpt lat="43.10737" lon="3.07906">
        <ele>-5.3</ele>
        <time>2018-03-18T11:49:22Z</time>
      </trkpt>
      <trkpt lat="43.10738" lon="3.07905">
        <ele>-5.7</ele>
        <time>2018-03-18T11:49:29Z</time>
      </trkpt>
      <trkpt lat="43.10744" lon="3.07896">
        <ele>-5.6</ele>
        <time>2018-03-18T11:49:33Z</time>
      </trkpt>
      <trkpt lat="43.1075" lon="3.07887">
        <ele>-5.7</ele>
        <time>2018-03-18T11:49:36Z</time>
      </trkpt>
      <trkpt lat="43.10757" lon="3.07877">
        <ele>-5.3</ele>
        <time>2018-03-18T11:49:39Z</time>
      </trkpt>
      <trkpt lat="43.10762" lon="3.0787">
        <ele>-5.1</ele>
        <time>2018-03-18T11:49:41Z</time>
      </trkpt>
      <trkpt lat="43.10767" lon="3.07863">
        <ele>-4.9</ele>
        <time>2018-03-18T11:49:43Z</time>
      </trkpt>
      <trkpt lat="43.10772" lon="3.07856">
        <ele>-4.6</ele>
        <time>2018-03-18T11:49:45Z</time>
      </trkpt>
      <trkpt lat="43.10778" lon="3.07848">
        <ele>-4.4</ele>
        <time>2018-03-18T11:49:47Z</time>
      </trkpt>
      <trkpt lat="43.10785" lon="3.07839">
        <ele>-4.3</ele>
        <time>2018-03-18T11:49:50Z</time>
      </trkpt>
      <trkpt lat="43.1079" lon="3.07831">
        <ele>-4.4</ele>
        <time>2018-03-18T11:49:52Z</time>
      </trkpt>
      <trkpt lat="43.10795" lon="3.07822">
        <ele>-4.7</ele>
        <time>2018-03-18T11:49:54Z</time>
      </trkpt>
      <trkpt lat="43.10801" lon="3.07813">
        <ele>-4.6</ele>
        <time>2018-03-18T11:49:56Z</time>
      </trkpt>
      <trkpt lat="43.10807" lon="3.07803">
        <ele>-4.9</ele>
        <time>2018-03-18T11:49:58Z</time>
      </trkpt>
      <trkpt lat="43.10813" lon="3.07793">
        <ele>-5.1</ele>
        <time>2018-03-18T11:50:00Z</time>
      </trkpt>
      <trkpt lat="43.10819" lon="3.07784">
        <ele>-3.7</ele>
        <time>2018-03-18T11:50:02Z</time>
      </trkpt>
      <trkpt lat="43.10825" lon="3.07773">
        <ele>-3.9</ele>
        <time>2018-03-18T11:50:04Z</time>
      </trkpt>
      <trkpt lat="43.10833" lon="3.07763">
        <ele>-4.5</ele>
        <time>2018-03-18T11:50:06Z</time>
      </trkpt>
      <trkpt lat="43.1084" lon="3.07753">
        <ele>-4.5</ele>
        <time>2018-03-18T11:50:08Z</time>
      </trkpt>
      <trkpt lat="43.10847" lon="3.07743">
        <ele>-4.9</ele>
        <time>2018-03-18T11:50:10Z</time>
      </trkpt>
      <trkpt lat="43.10854" lon="3.07732">
        <ele>-4.8</ele>
        <time>2018-03-18T11:50:12Z</time>
      </trkpt>
      <trkpt lat="43.10861" lon="3.0772">
        <ele>-5</ele>
        <time>2018-03-18T11:50:14Z</time>
      </trkpt>
      <trkpt lat="43.10868" lon="3.0771">
        <ele>-5.2</ele>
        <time>2018-03-18T11:50:16Z</time>
      </trkpt>
      <trkpt lat="43.10875" lon="3.07699">
        <ele>-5.5</ele>
        <time>2018-03-18T11:50:18Z</time>
      </trkpt>
      <trkpt lat="43.10881" lon="3.07688">
        <ele>-5.7</ele>
        <time>2018-03-18T11:50:20Z</time>
      </trkpt>
      <trkpt lat="43.10887" lon="3.07676">
        <ele>-5.8</ele>
        <time>2018-03-18T11:50:22Z</time>
      </trkpt>
      <trkpt lat="43.10891" lon="3.07665">
        <ele>-6</ele>
        <time>2018-03-18T11:50:24Z</time>
      </trkpt>
      <trkpt lat="43.10897" lon="3.07657">
        <ele>-6.4</ele>
        <time>2018-03-18T11:50:26Z</time>
      </trkpt>
      <trkpt lat="43.10904" lon="3.07647">
        <ele>-6.3</ele>
        <time>2018-03-18T11:50:28Z</time>
      </trkpt>
      <trkpt lat="43.1091" lon="3.07636">
        <ele>-6.7</ele>
        <time>2018-03-18T11:50:30Z</time>
      </trkpt>
      <trkpt lat="43.10916" lon="3.07625">
        <ele>-7.3</ele>
        <time>2018-03-18T11:50:32Z</time>
      </trkpt>
      <trkpt lat="43.10921" lon="3.07615">
        <ele>-7.3</ele>
        <time>2018-03-18T11:50:34Z</time>
      </trkpt>
      <trkpt lat="43.10927" lon="3.07604">
        <ele>-6.6</ele>
        <time>2018-03-18T11:50:36Z</time>
      </trkpt>
      <trkpt lat="43.10933" lon="3.07597">
        <ele>-6.4</ele>
        <time>2018-03-18T11:50:38Z</time>
      </trkpt>
      <trkpt lat="43.10937" lon="3.07588">
        <ele>-6.2</ele>
        <time>2018-03-18T11:50:40Z</time>
      </trkpt>
      <trkpt lat="43.10942" lon="3.07578">
        <ele>-5.9</ele>
        <time>2018-03-18T11:50:42Z</time>
      </trkpt>
      <trkpt lat="43.10947" lon="3.07568">
        <ele>-5.5</ele>
        <time>2018-03-18T11:50:44Z</time>
      </trkpt>
      <trkpt lat="43.10953" lon="3.07558">
        <ele>-5.2</ele>
        <time>2018-03-18T11:50:46Z</time>
      </trkpt>
      <trkpt lat="43.10956" lon="3.07548">
        <ele>-5.1</ele>
        <time>2018-03-18T11:50:48Z</time>
      </trkpt>
      <trkpt lat="43.10958" lon="3.07536">
        <ele>-4.3</ele>
        <time>2018-03-18T11:50:50Z</time>
      </trkpt>
      <trkpt lat="43.10961" lon="3.07526">
        <ele>-3.9</ele>
        <time>2018-03-18T11:50:52Z</time>
      </trkpt>
      <trkpt lat="43.10962" lon="3.07515">
        <ele>-4.4</ele>
        <time>2018-03-18T11:50:54Z</time>
      </trkpt>
      <trkpt lat="43.10963" lon="3.07504">
        <ele>-4.1</ele>
        <time>2018-03-18T11:50:56Z</time>
      </trkpt>
      <trkpt lat="43.10964" lon="3.07494">
        <ele>-3.7</ele>
        <time>2018-03-18T11:50:58Z</time>
      </trkpt>
      <trkpt lat="43.10965" lon="3.0748">
        <ele>-2.9</ele>
        <time>2018-03-18T11:51:01Z</time>
      </trkpt>
      <trkpt lat="43.10966" lon="3.07469">
        <ele>-2.8</ele>
        <time>2018-03-18T11:51:03Z</time>
      </trkpt>
      <trkpt lat="43.10967" lon="3.07458">
        <ele>-1.7</ele>
        <time>2018-03-18T11:51:05Z</time>
      </trkpt>
      <trkpt lat="43.10967" lon="3.07449">
        <ele>-1.4</ele>
        <time>2018-03-18T11:51:07Z</time>
      </trkpt>
      <trkpt lat="43.10968" lon="3.07437">
        <ele>-1.1</ele>
        <time>2018-03-18T11:51:09Z</time>
      </trkpt>
      <trkpt lat="43.10969" lon="3.07427">
        <ele>-0.8</ele>
        <time>2018-03-18T11:51:11Z</time>
      </trkpt>
      <trkpt lat="43.10969" lon="3.07417">
        <ele>-0.7</ele>
        <time>2018-03-18T11:51:13Z</time>
      </trkpt>
      <trkpt lat="43.10971" lon="3.07404">
        <ele>-0.7</ele>
        <time>2018-03-18T11:51:16Z</time>
      </trkpt>
      <trkpt lat="43.10974" lon="3.07393">
        <ele>-0.9</ele>
        <time>2018-03-18T11:51:19Z</time>
      </trkpt>
      <trkpt lat="43.10976" lon="3.07381">
        <ele>-1.3</ele>
        <time>2018-03-18T11:51:22Z</time>
      </trkpt>
      <trkpt lat="43.10976" lon="3.07369">
        <ele>-1.9</ele>
        <time>2018-03-18T11:51:25Z</time>
      </trkpt>
      <trkpt lat="43.10978" lon="3.07359">
        <ele>-2.1</ele>
        <time>2018-03-18T11:51:28Z</time>
      </trkpt>
      <trkpt lat="43.1098" lon="3.07347">
        <ele>-2.5</ele>
        <time>2018-03-18T11:51:31Z</time>
      </trkpt>
      <trkpt lat="43.10982" lon="3.07337">
        <ele>-2.6</ele>
        <time>2018-03-18T11:51:33Z</time>
      </trkpt>
      <trkpt lat="43.10983" lon="3.07326">
        <ele>-2.9</ele>
        <time>2018-03-18T11:51:35Z</time>
      </trkpt>
      <trkpt lat="43.10985" lon="3.07315">
        <ele>-2.8</ele>
        <time>2018-03-18T11:51:37Z</time>
      </trkpt>
      <trkpt lat="43.10987" lon="3.07303">
        <ele>-2.8</ele>
        <time>2018-03-18T11:51:39Z</time>
      </trkpt>
      <trkpt lat="43.10989" lon="3.0729">
        <ele>-2.9</ele>
        <time>2018-03-18T11:51:41Z</time>
      </trkpt>
      <trkpt lat="43.10991" lon="3.07277">
        <ele>-3.8</ele>
        <time>2018-03-18T11:51:43Z</time>
      </trkpt>
      <trkpt lat="43.10993" lon="3.07266">
        <ele>-4.1</ele>
        <time>2018-03-18T11:51:45Z</time>
      </trkpt>
      <trkpt lat="43.10995" lon="3.07253">
        <ele>-4.6</ele>
        <time>2018-03-18T11:51:48Z</time>
      </trkpt>
      <trkpt lat="43.10996" lon="3.07238">
        <ele>-4.5</ele>
        <time>2018-03-18T11:51:51Z</time>
      </trkpt>
      <trkpt lat="43.10998" lon="3.07226">
        <ele>-4.2</ele>
        <time>2018-03-18T11:51:53Z</time>
      </trkpt>
      <trkpt lat="43.10999" lon="3.07216">
        <ele>-4.2</ele>
        <time>2018-03-18T11:51:55Z</time>
      </trkpt>
      <trkpt lat="43.11001" lon="3.07205">
        <ele>-4.2</ele>
        <time>2018-03-18T11:51:57Z</time>
      </trkpt>
      <trkpt lat="43.11003" lon="3.07193">
        <ele>-4.1</ele>
        <time>2018-03-18T11:51:59Z</time>
      </trkpt>
      <trkpt lat="43.11005" lon="3.07182">
        <ele>-4.3</ele>
        <time>2018-03-18T11:52:01Z</time>
      </trkpt>
      <trkpt lat="43.11006" lon="3.07171">
        <ele>-4.3</ele>
        <time>2018-03-18T11:52:03Z</time>
      </trkpt>
      <trkpt lat="43.11007" lon="3.0716">
        <ele>-4.4</ele>
        <time>2018-03-18T11:52:05Z</time>
      </trkpt>
      <trkpt lat="43.11007" lon="3.07149">
        <ele>-4.6</ele>
        <time>2018-03-18T11:52:07Z</time>
      </trkpt>
      <trkpt lat="43.11009" lon="3.07138">
        <ele>-4.4</ele>
        <time>2018-03-18T11:52:09Z</time>
      </trkpt>
      <trkpt lat="43.1101" lon="3.07128">
        <ele>-4.4</ele>
        <time>2018-03-18T11:52:11Z</time>
      </trkpt>
      <trkpt lat="43.11012" lon="3.07118">
        <ele>-4.6</ele>
        <time>2018-03-18T11:52:13Z</time>
      </trkpt>
      <trkpt lat="43.11013" lon="3.07107">
        <ele>-5</ele>
        <time>2018-03-18T11:52:16Z</time>
      </trkpt>
      <trkpt lat="43.11013" lon="3.07096">
        <ele>-5.1</ele>
        <time>2018-03-18T11:52:19Z</time>
      </trkpt>
      <trkpt lat="43.11016" lon="3.07082">
        <ele>-4.9</ele>
        <time>2018-03-18T11:52:22Z</time>
      </trkpt>
      <trkpt lat="43.11018" lon="3.07072">
        <ele>-4.7</ele>
        <time>2018-03-18T11:52:24Z</time>
      </trkpt>
      <trkpt lat="43.11019" lon="3.0706">
        <ele>-4.6</ele>
        <time>2018-03-18T11:52:26Z</time>
      </trkpt>
      <trkpt lat="43.11021" lon="3.07048">
        <ele>-4.6</ele>
        <time>2018-03-18T11:52:28Z</time>
      </trkpt>
      <trkpt lat="43.11023" lon="3.07036">
        <ele>-4.6</ele>
        <time>2018-03-18T11:52:30Z</time>
      </trkpt>
      <trkpt lat="43.11023" lon="3.07023">
        <ele>-4.7</ele>
        <time>2018-03-18T11:52:32Z</time>
      </trkpt>
      <trkpt lat="43.11026" lon="3.0701">
        <ele>-4.9</ele>
        <time>2018-03-18T11:52:34Z</time>
      </trkpt>
      <trkpt lat="43.11028" lon="3.06999">
        <ele>-4.8</ele>
        <time>2018-03-18T11:52:36Z</time>
      </trkpt>
      <trkpt lat="43.11029" lon="3.06987">
        <ele>-4.9</ele>
        <time>2018-03-18T11:52:38Z</time>
      </trkpt>
      <trkpt lat="43.11032" lon="3.06976">
        <ele>-4.6</ele>
        <time>2018-03-18T11:52:41Z</time>
      </trkpt>
      <trkpt lat="43.11032" lon="3.06964">
        <ele>-4.4</ele>
        <time>2018-03-18T11:52:44Z</time>
      </trkpt>
      <trkpt lat="43.11033" lon="3.06949">
        <ele>-3.6</ele>
        <time>2018-03-18T11:52:47Z</time>
      </trkpt>
      <trkpt lat="43.11035" lon="3.06939">
        <ele>-3.8</ele>
        <time>2018-03-18T11:52:49Z</time>
      </trkpt>
      <trkpt lat="43.11039" lon="3.06929">
        <ele>-3.5</ele>
        <time>2018-03-18T11:52:51Z</time>
      </trkpt>
      <trkpt lat="43.1104" lon="3.06918">
        <ele>-3.2</ele>
        <time>2018-03-18T11:52:53Z</time>
      </trkpt>
      <trkpt lat="43.11041" lon="3.06908">
        <ele>-2.6</ele>
        <time>2018-03-18T11:52:55Z</time>
      </trkpt>
      <trkpt lat="43.11041" lon="3.06896">
        <ele>-2</ele>
        <time>2018-03-18T11:52:57Z</time>
      </trkpt>
      <trkpt lat="43.11043" lon="3.06883">
        <ele>-1.9</ele>
        <time>2018-03-18T11:52:59Z</time>
      </trkpt>
      <trkpt lat="43.11045" lon="3.0687">
        <ele>-1.9</ele>
        <time>2018-03-18T11:53:01Z</time>
      </trkpt>
      <trkpt lat="43.11045" lon="3.06858">
        <ele>-2.3</ele>
        <time>2018-03-18T11:53:03Z</time>
      </trkpt>
      <trkpt lat="43.11049" lon="3.06846">
        <ele>-2.7</ele>
        <time>2018-03-18T11:53:05Z</time>
      </trkpt>
      <trkpt lat="43.11051" lon="3.06832">
        <ele>-3.2</ele>
        <time>2018-03-18T11:53:07Z</time>
      </trkpt>
      <trkpt lat="43.11052" lon="3.0682">
        <ele>-3.4</ele>
        <time>2018-03-18T11:53:09Z</time>
      </trkpt>
      <trkpt lat="43.11054" lon="3.06809">
        <ele>-3.7</ele>
        <time>2018-03-18T11:53:11Z</time>
      </trkpt>
      <trkpt lat="43.11057" lon="3.06796">
        <ele>-3.8</ele>
        <time>2018-03-18T11:53:14Z</time>
      </trkpt>
      <trkpt lat="43.11059" lon="3.06785">
        <ele>-4</ele>
        <time>2018-03-18T11:53:17Z</time>
      </trkpt>
      <trkpt lat="43.11061" lon="3.06775">
        <ele>-4.9</ele>
        <time>2018-03-18T11:53:21Z</time>
      </trkpt>
      <trkpt lat="43.11063" lon="3.06763">
        <ele>-4.7</ele>
        <time>2018-03-18T11:53:26Z</time>
      </trkpt>
      <trkpt lat="43.11065" lon="3.06753">
        <ele>-4.5</ele>
        <time>2018-03-18T11:53:31Z</time>
      </trkpt>
      <trkpt lat="43.11067" lon="3.06743">
        <ele>-4.6</ele>
        <time>2018-03-18T11:53:34Z</time>
      </trkpt>
      <trkpt lat="43.11067" lon="3.06729">
        <ele>-4.7</ele>
        <time>2018-03-18T11:53:37Z</time>
      </trkpt>
      <trkpt lat="43.11068" lon="3.06718">
        <ele>-4.8</ele>
        <time>2018-03-18T11:53:40Z</time>
      </trkpt>
      <trkpt lat="43.11068" lon="3.06705">
        <ele>-4.5</ele>
        <time>2018-03-18T11:53:43Z</time>
      </trkpt>
      <trkpt lat="43.11068" lon="3.06695">
        <ele>-4.8</ele>
        <time>2018-03-18T11:53:48Z</time>
      </trkpt>
      <trkpt lat="43.1107" lon="3.06681">
        <ele>-4.7</ele>
        <time>2018-03-18T11:53:52Z</time>
      </trkpt>
      <trkpt lat="43.11071" lon="3.06671">
        <ele>-4.6</ele>
        <time>2018-03-18T11:53:55Z</time>
      </trkpt>
      <trkpt lat="43.11071" lon="3.0666">
        <ele>-4.9</ele>
        <time>2018-03-18T11:53:59Z</time>
      </trkpt>
      <trkpt lat="43.11074" lon="3.06651">
        <ele>-4.7</ele>
        <time>2018-03-18T11:54:02Z</time>
      </trkpt>
      <trkpt lat="43.11078" lon="3.0664">
        <ele>-4.1</ele>
        <time>2018-03-18T11:54:05Z</time>
      </trkpt>
      <trkpt lat="43.11074" lon="3.06626">
        <ele>-3.6</ele>
        <time>2018-03-18T11:54:08Z</time>
      </trkpt>
      <trkpt lat="43.11074" lon="3.06614">
        <ele>-4</ele>
        <time>2018-03-18T11:54:11Z</time>
      </trkpt>
      <trkpt lat="43.11078" lon="3.06604">
        <ele>-4.3</ele>
        <time>2018-03-18T11:54:15Z</time>
      </trkpt>
      <trkpt lat="43.11082" lon="3.06596">
        <ele>-4.5</ele>
        <time>2018-03-18T11:54:20Z</time>
      </trkpt>
      <trkpt lat="43.11086" lon="3.06592">
        <ele>-4.1</ele>
        <time>2018-03-18T11:54:27Z</time>
      </trkpt>
      <trkpt lat="43.11084" lon="3.066">
        <ele>-4.1</ele>
        <time>2018-03-18T11:55:17Z</time>
      </trkpt>
      <trkpt lat="43.11081" lon="3.06607">
        <ele>-4.9</ele>
        <time>2018-03-18T11:55:24Z</time>
      </trkpt>
      <trkpt lat="43.11081" lon="3.06602">
        <ele>-4.9</ele>
        <time>2018-03-18T11:57:38Z</time>
      </trkpt>
      <trkpt lat="43.11084" lon="3.06592">
        <ele>-5.8</ele>
        <time>2018-03-18T11:58:30Z</time>
      </trkpt>
      <trkpt lat="43.11092" lon="3.06591">
        <ele>-5.1</ele>
        <time>2018-03-18T11:58:35Z</time>
      </trkpt>
      <trkpt lat="43.111" lon="3.06592">
        <ele>-4.2</ele>
        <time>2018-03-18T11:58:38Z</time>
      </trkpt>
      <trkpt lat="43.11108" lon="3.06594">
        <ele>-1.7</ele>
        <time>2018-03-18T11:58:43Z</time>
      </trkpt>
      <trkpt lat="43.11115" lon="3.06602">
        <ele>-0.5</ele>
        <time>2018-03-18T11:58:49Z</time>
      </trkpt>
      <trkpt lat="43.11119" lon="3.06612">
        <ele>-0.7</ele>
        <time>2018-03-18T11:58:52Z</time>
      </trkpt>
      <trkpt lat="43.11123" lon="3.06621">
        <ele>-0.6</ele>
        <time>2018-03-18T11:58:55Z</time>
      </trkpt>
      <trkpt lat="43.1113" lon="3.06631">
        <ele>-1</ele>
        <time>2018-03-18T11:58:58Z</time>
      </trkpt>
      <trkpt lat="43.11135" lon="3.06638">
        <ele>-1</ele>
        <time>2018-03-18T11:59:01Z</time>
      </trkpt>
      <trkpt lat="43.11142" lon="3.06647">
        <ele>-1.4</ele>
        <time>2018-03-18T11:59:04Z</time>
      </trkpt>
      <trkpt lat="43.11148" lon="3.06655">
        <ele>-1.8</ele>
        <time>2018-03-18T11:59:07Z</time>
      </trkpt>
      <trkpt lat="43.11154" lon="3.06665">
        <ele>-2.2</ele>
        <time>2018-03-18T11:59:10Z</time>
      </trkpt>
      <trkpt lat="43.1116" lon="3.06674">
        <ele>-2.6</ele>
        <time>2018-03-18T11:59:13Z</time>
      </trkpt>
      <trkpt lat="43.11166" lon="3.06682">
        <ele>-2.9</ele>
        <time>2018-03-18T11:59:16Z</time>
      </trkpt>
      <trkpt lat="43.11172" lon="3.06691">
        <ele>-3.1</ele>
        <time>2018-03-18T11:59:19Z</time>
      </trkpt>
      <trkpt lat="43.11178" lon="3.067">
        <ele>-3.4</ele>
        <time>2018-03-18T11:59:22Z</time>
      </trkpt>
      <trkpt lat="43.11185" lon="3.06709">
        <ele>-3.7</ele>
        <time>2018-03-18T11:59:25Z</time>
      </trkpt>
      <trkpt lat="43.11192" lon="3.06718">
        <ele>-3.9</ele>
        <time>2018-03-18T11:59:28Z</time>
      </trkpt>
      <trkpt lat="43.11198" lon="3.0673">
        <ele>-4.2</ele>
        <time>2018-03-18T11:59:31Z</time>
      </trkpt>
      <trkpt lat="43.11204" lon="3.06741">
        <ele>-4.5</ele>
        <time>2018-03-18T11:59:34Z</time>
      </trkpt>
      <trkpt lat="43.1121" lon="3.06748">
        <ele>-4.6</ele>
        <time>2018-03-18T11:59:36Z</time>
      </trkpt>
      <trkpt lat="43.11216" lon="3.06756">
        <ele>-4.6</ele>
        <time>2018-03-18T11:59:38Z</time>
      </trkpt>
      <trkpt lat="43.1122" lon="3.06764">
        <ele>-4.7</ele>
        <time>2018-03-18T11:59:40Z</time>
      </trkpt>
      <trkpt lat="43.11226" lon="3.06771">
        <ele>-4.7</ele>
        <time>2018-03-18T11:59:42Z</time>
      </trkpt>
      <trkpt lat="43.1123" lon="3.06778">
        <ele>-4.8</ele>
        <time>2018-03-18T11:59:44Z</time>
      </trkpt>
      <trkpt lat="43.11235" lon="3.06786">
        <ele>-5</ele>
        <time>2018-03-18T11:59:46Z</time>
      </trkpt>
      <trkpt lat="43.1124" lon="3.06794">
        <ele>-5.2</ele>
        <time>2018-03-18T11:59:48Z</time>
      </trkpt>
      <trkpt lat="43.11247" lon="3.06804">
        <ele>-5.6</ele>
        <time>2018-03-18T11:59:51Z</time>
      </trkpt>
      <trkpt lat="43.11254" lon="3.06811">
        <ele>-6</ele>
        <time>2018-03-18T11:59:54Z</time>
      </trkpt>
      <trkpt lat="43.1126" lon="3.06812">
        <ele>-5.9</ele>
        <time>2018-03-18T12:00:01Z</time>
      </trkpt>
      <trkpt lat="43.11266" lon="3.06805">
        <ele>-6.1</ele>
        <time>2018-03-18T12:00:04Z</time>
      </trkpt>
      <trkpt lat="43.11268" lon="3.06791">
        <ele>-6.1</ele>
        <time>2018-03-18T12:00:07Z</time>
      </trkpt>
      <trkpt lat="43.11271" lon="3.06779">
        <ele>-6.1</ele>
        <time>2018-03-18T12:00:10Z</time>
      </trkpt>
      <trkpt lat="43.11272" lon="3.06768">
        <ele>-6.1</ele>
        <time>2018-03-18T12:00:13Z</time>
      </trkpt>
      <trkpt lat="43.11274" lon="3.06757">
        <ele>-6</ele>
        <time>2018-03-18T12:00:16Z</time>
      </trkpt>
      <trkpt lat="43.11274" lon="3.06747">
        <ele>-6.1</ele>
        <time>2018-03-18T12:00:19Z</time>
      </trkpt>
      <trkpt lat="43.11274" lon="3.06736">
        <ele>-6.7</ele>
        <time>2018-03-18T12:00:23Z</time>
      </trkpt>
      <trkpt lat="43.11275" lon="3.06723">
        <ele>-6.8</ele>
        <time>2018-03-18T12:00:27Z</time>
      </trkpt>
      <trkpt lat="43.11274" lon="3.06711">
        <ele>-6.7</ele>
        <time>2018-03-18T12:00:30Z</time>
      </trkpt>
      <trkpt lat="43.11271" lon="3.067">
        <ele>-7</ele>
        <time>2018-03-18T12:00:33Z</time>
      </trkpt>
      <trkpt lat="43.11268" lon="3.06691">
        <ele>-7.2</ele>
        <time>2018-03-18T12:00:36Z</time>
      </trkpt>
      <trkpt lat="43.11264" lon="3.06682">
        <ele>-7.5</ele>
        <time>2018-03-18T12:00:39Z</time>
      </trkpt>
      <trkpt lat="43.11258" lon="3.06674">
        <ele>-7.3</ele>
        <time>2018-03-18T12:00:43Z</time>
      </trkpt>
      <trkpt lat="43.11252" lon="3.06665">
        <ele>-7.1</ele>
        <time>2018-03-18T12:00:48Z</time>
      </trkpt>
      <trkpt lat="43.11247" lon="3.06657">
        <ele>-6.4</ele>
        <time>2018-03-18T12:00:52Z</time>
      </trkpt>
      <trkpt lat="43.11239" lon="3.06651">
        <ele>-6.4</ele>
        <time>2018-03-18T12:00:56Z</time>
      </trkpt>
      <trkpt lat="43.11234" lon="3.06642">
        <ele>-6.6</ele>
        <time>2018-03-18T12:00:59Z</time>
      </trkpt>
      <trkpt lat="43.1123" lon="3.06634">
        <ele>-6.4</ele>
        <time>2018-03-18T12:01:02Z</time>
      </trkpt>
      <trkpt lat="43.11227" lon="3.06623">
        <ele>-6.7</ele>
        <time>2018-03-18T12:01:07Z</time>
      </trkpt>
      <trkpt lat="43.11225" lon="3.06611">
        <ele>-6.8</ele>
        <time>2018-03-18T12:01:12Z</time>
      </trkpt>
      <trkpt lat="43.11226" lon="3.06599">
        <ele>-6.2</ele>
        <time>2018-03-18T12:01:16Z</time>
      </trkpt>
      <trkpt lat="43.11228" lon="3.06586">
        <ele>-5.7</ele>
        <time>2018-03-18T12:01:19Z</time>
      </trkpt>
      <trkpt lat="43.11231" lon="3.06573">
        <ele>-5.4</ele>
        <time>2018-03-18T12:01:22Z</time>
      </trkpt>
      <trkpt lat="43.11234" lon="3.06562">
        <ele>-5.4</ele>
        <time>2018-03-18T12:01:25Z</time>
      </trkpt>
      <trkpt lat="43.11236" lon="3.06551">
        <ele>-5.9</ele>
        <time>2018-03-18T12:01:29Z</time>
      </trkpt>
      <trkpt lat="43.1124" lon="3.06543">
        <ele>-5.9</ele>
        <time>2018-03-18T12:01:33Z</time>
      </trkpt>
      <trkpt lat="43.11246" lon="3.06535">
        <ele>-6</ele>
        <time>2018-03-18T12:01:37Z</time>
      </trkpt>
      <trkpt lat="43.11252" lon="3.06529">
        <ele>-6.1</ele>
        <time>2018-03-18T12:01:41Z</time>
      </trkpt>
      <trkpt lat="43.1126" lon="3.06525">
        <ele>-6.4</ele>
        <time>2018-03-18T12:01:46Z</time>
      </trkpt>
      <trkpt lat="43.11269" lon="3.06522">
        <ele>-6.4</ele>
        <time>2018-03-18T12:01:50Z</time>
      </trkpt>
      <trkpt lat="43.11276" lon="3.06517">
        <ele>-6.7</ele>
        <time>2018-03-18T12:01:54Z</time>
      </trkpt>
      <trkpt lat="43.11283" lon="3.06513">
        <ele>-6.8</ele>
        <time>2018-03-18T12:01:57Z</time>
      </trkpt>
      <trkpt lat="43.11289" lon="3.0651">
        <ele>-6.9</ele>
        <time>2018-03-18T12:02:00Z</time>
      </trkpt>
      <trkpt lat="43.11297" lon="3.06503">
        <ele>-6.8</ele>
        <time>2018-03-18T12:02:03Z</time>
      </trkpt>
      <trkpt lat="43.11302" lon="3.06496">
        <ele>-6.7</ele>
        <time>2018-03-18T12:02:05Z</time>
      </trkpt>
      <trkpt lat="43.11307" lon="3.06488">
        <ele>-6.6</ele>
        <time>2018-03-18T12:02:07Z</time>
      </trkpt>
      <trkpt lat="43.1131" lon="3.06479">
        <ele>-6.6</ele>
        <time>2018-03-18T12:02:09Z</time>
      </trkpt>
      <trkpt lat="43.11314" lon="3.0647">
        <ele>-6.5</ele>
        <time>2018-03-18T12:02:12Z</time>
      </trkpt>
      <trkpt lat="43.1132" lon="3.06463">
        <ele>-6.2</ele>
        <time>2018-03-18T12:02:15Z</time>
      </trkpt>
      <trkpt lat="43.11325" lon="3.06457">
        <ele>-6.1</ele>
        <time>2018-03-18T12:02:17Z</time>
      </trkpt>
      <trkpt lat="43.11334" lon="3.0645">
        <ele>-6.2</ele>
        <time>2018-03-18T12:02:20Z</time>
      </trkpt>
      <trkpt lat="43.11343" lon="3.06445">
        <ele>-6.3</ele>
        <time>2018-03-18T12:02:24Z</time>
      </trkpt>
      <trkpt lat="43.1135" lon="3.06441">
        <ele>-6.8</ele>
        <time>2018-03-18T12:02:28Z</time>
      </trkpt>
      <trkpt lat="43.11359" lon="3.06437">
        <ele>-7.4</ele>
        <time>2018-03-18T12:02:32Z</time>
      </trkpt>
      <trkpt lat="43.11367" lon="3.06437">
        <ele>-7.4</ele>
        <time>2018-03-18T12:02:35Z</time>
      </trkpt>
      <trkpt lat="43.11373" lon="3.06432">
        <ele>-7.4</ele>
        <time>2018-03-18T12:02:38Z</time>
      </trkpt>
      <trkpt lat="43.11381" lon="3.06427">
        <ele>-7.5</ele>
        <time>2018-03-18T12:02:41Z</time>
      </trkpt>
      <trkpt lat="43.11388" lon="3.06424">
        <ele>-7.4</ele>
        <time>2018-03-18T12:02:44Z</time>
      </trkpt>
      <trkpt lat="43.11395" lon="3.06421">
        <ele>-7.2</ele>
        <time>2018-03-18T12:02:47Z</time>
      </trkpt>
      <trkpt lat="43.11403" lon="3.06418">
        <ele>-7.4</ele>
        <time>2018-03-18T12:02:51Z</time>
      </trkpt>
      <trkpt lat="43.1141" lon="3.06413">
        <ele>-7.7</ele>
        <time>2018-03-18T12:02:54Z</time>
      </trkpt>
      <trkpt lat="43.11417" lon="3.06405">
        <ele>-8</ele>
        <time>2018-03-18T12:02:57Z</time>
      </trkpt>
      <trkpt lat="43.11421" lon="3.06392">
        <ele>-7.9</ele>
        <time>2018-03-18T12:03:00Z</time>
      </trkpt>
      <trkpt lat="43.1142" lon="3.06381">
        <ele>-7.7</ele>
        <time>2018-03-18T12:03:03Z</time>
      </trkpt>
      <trkpt lat="43.11415" lon="3.06373">
        <ele>-7.4</ele>
        <time>2018-03-18T12:03:07Z</time>
      </trkpt>
      <trkpt lat="43.11411" lon="3.06364">
        <ele>-6.7</ele>
        <time>2018-03-18T12:03:11Z</time>
      </trkpt>
      <trkpt lat="43.1141" lon="3.06351">
        <ele>-6.1</ele>
        <time>2018-03-18T12:03:15Z</time>
      </trkpt>
      <trkpt lat="43.11413" lon="3.0634">
        <ele>-4.4</ele>
        <time>2018-03-18T12:03:18Z</time>
      </trkpt>
      <trkpt lat="43.11419" lon="3.06328">
        <ele>-3.7</ele>
        <time>2018-03-18T12:03:21Z</time>
      </trkpt>
      <trkpt lat="43.11425" lon="3.06319">
        <ele>-3.3</ele>
        <time>2018-03-18T12:03:24Z</time>
      </trkpt>
      <trkpt lat="43.11432" lon="3.06315">
        <ele>-3.9</ele>
        <time>2018-03-18T12:03:27Z</time>
      </trkpt>
      <trkpt lat="43.11439" lon="3.06308">
        <ele>-4.4</ele>
        <time>2018-03-18T12:03:30Z</time>
      </trkpt>
      <trkpt lat="43.11446" lon="3.06299">
        <ele>-4.4</ele>
        <time>2018-03-18T12:03:33Z</time>
      </trkpt>
      <trkpt lat="43.11455" lon="3.06295">
        <ele>-4.4</ele>
        <time>2018-03-18T12:03:36Z</time>
      </trkpt>
      <trkpt lat="43.11462" lon="3.0629">
        <ele>-4.3</ele>
        <time>2018-03-18T12:03:39Z</time>
      </trkpt>
      <trkpt lat="43.11469" lon="3.0628">
        <ele>-4.1</ele>
        <time>2018-03-18T12:03:42Z</time>
      </trkpt>
      <trkpt lat="43.11477" lon="3.06275">
        <ele>-3.7</ele>
        <time>2018-03-18T12:03:45Z</time>
      </trkpt>
      <trkpt lat="43.11484" lon="3.06271">
        <ele>-3.7</ele>
        <time>2018-03-18T12:03:48Z</time>
      </trkpt>
      <trkpt lat="43.11493" lon="3.06271">
        <ele>-3.3</ele>
        <time>2018-03-18T12:03:52Z</time>
      </trkpt>
      <trkpt lat="43.115" lon="3.06267">
        <ele>-2.7</ele>
        <time>2018-03-18T12:03:57Z</time>
      </trkpt>
      <trkpt lat="43.11502" lon="3.06268">
        <ele>-2.4</ele>
        <time>2018-03-18T12:04:04Z</time>
      </trkpt>
      <trkpt lat="43.11503" lon="3.06267">
        <ele>-2.4</ele>
        <time>2018-03-18T12:04:11Z</time>
      </trkpt>
      <trkpt lat="43.11503" lon="3.06264">
        <ele>-3</ele>
        <time>2018-03-18T12:04:33Z</time>
      </trkpt>
      <trkpt lat="43.11502" lon="3.06265">
        <ele>-3</ele>
        <time>2018-03-18T12:04:40Z</time>
      </trkpt>
      <trkpt lat="43.11497" lon="3.06273">
        <ele>-5.2</ele>
        <time>2018-03-18T12:06:54Z</time>
      </trkpt>
      <trkpt lat="43.11489" lon="3.06271">
        <ele>-4.8</ele>
        <time>2018-03-18T12:07:00Z</time>
      </trkpt>
      <trkpt lat="43.11483" lon="3.06262">
        <ele>-4.9</ele>
        <time>2018-03-18T12:07:06Z</time>
      </trkpt>
      <trkpt lat="43.11483" lon="3.06253">
        <ele>-5.2</ele>
        <time>2018-03-18T12:07:11Z</time>
      </trkpt>
      <trkpt lat="43.1148" lon="3.06242">
        <ele>-5.6</ele>
        <time>2018-03-18T12:07:18Z</time>
      </trkpt>
      <trkpt lat="43.11477" lon="3.06235">
        <ele>-5</ele>
        <time>2018-03-18T12:07:25Z</time>
      </trkpt>
      <trkpt lat="43.11474" lon="3.06235">
        <ele>-5.7</ele>
        <time>2018-03-18T12:07:32Z</time>
      </trkpt>
      <trkpt lat="43.11474" lon="3.06241">
        <ele>-7.1</ele>
        <time>2018-03-18T12:08:32Z</time>
      </trkpt>
      <trkpt lat="43.11477" lon="3.06235">
        <ele>-6.2</ele>
        <time>2018-03-18T12:08:42Z</time>
      </trkpt>
      <trkpt lat="43.11473" lon="3.0623">
        <ele>-8.8</ele>
        <time>2018-03-18T12:36:49Z</time>
      </trkpt>
      <trkpt lat="43.11473" lon="3.06232">
        <ele>-8.1</ele>
        <time>2018-03-18T12:37:03Z</time>
      </trkpt>
      <trkpt lat="43.11479" lon="3.0624">
        <ele>-7.5</ele>
        <time>2018-03-18T12:36:37Z</time>
      </trkpt>
      <trkpt lat="43.11484" lon="3.06247">
        <ele>-7.3</ele>
        <time>2018-03-18T12:37:49Z</time>
      </trkpt>
      <trkpt lat="43.11488" lon="3.06259">
        <ele>-7.2</ele>
        <time>2018-03-18T12:37:56Z</time>
      </trkpt>
      <trkpt lat="43.1149" lon="3.06262">
        <ele>-7.2</ele>
        <time>2018-03-18T12:38:03Z</time>
      </trkpt>
      <trkpt lat="43.11488" lon="3.06257">
        <ele>-6.4</ele>
        <time>2018-03-18T12:38:10Z</time>
      </trkpt>
      <trkpt lat="43.11489" lon="3.06268">
        <ele>-5.1</ele>
        <time>2018-03-18T12:39:28Z</time>
      </trkpt>
      <trkpt lat="43.11496" lon="3.06275">
        <ele>-4.4</ele>
        <time>2018-03-18T12:39:34Z</time>
      </trkpt>
      <trkpt lat="43.11504" lon="3.06278">
        <ele>-4</ele>
        <time>2018-03-18T12:39:39Z</time>
      </trkpt>
      <trkpt lat="43.11511" lon="3.06279">
        <ele>-3.5</ele>
        <time>2018-03-18T12:39:43Z</time>
      </trkpt>
      <trkpt lat="43.11518" lon="3.06284">
        <ele>-3</ele>
        <time>2018-03-18T12:39:49Z</time>
      </trkpt>
      <trkpt lat="43.11524" lon="3.06292">
        <ele>-3.4</ele>
        <time>2018-03-18T12:39:54Z</time>
      </trkpt>
      <trkpt lat="43.11529" lon="3.06298">
        <ele>-3.1</ele>
        <time>2018-03-18T12:39:59Z</time>
      </trkpt>
      <trkpt lat="43.11537" lon="3.06298">
        <ele>-3</ele>
        <time>2018-03-18T12:40:05Z</time>
      </trkpt>
      <trkpt lat="43.11545" lon="3.06303">
        <ele>-3.2</ele>
        <time>2018-03-18T12:40:10Z</time>
      </trkpt>
      <trkpt lat="43.11552" lon="3.06308">
        <ele>-3.6</ele>
        <time>2018-03-18T12:40:15Z</time>
      </trkpt>
      <trkpt lat="43.11558" lon="3.06315">
        <ele>-3.4</ele>
        <time>2018-03-18T12:40:20Z</time>
      </trkpt>
      <trkpt lat="43.11565" lon="3.06318">
        <ele>-2.8</ele>
        <time>2018-03-18T12:40:24Z</time>
      </trkpt>
      <trkpt lat="43.11573" lon="3.06322">
        <ele>-1.7</ele>
        <time>2018-03-18T12:40:31Z</time>
      </trkpt>
      <trkpt lat="43.1158" lon="3.06325">
        <ele>16</ele>
        <time>2018-03-18T12:40:37Z</time>
      </trkpt>
      <trkpt lat="43.11589" lon="3.06325">
        <ele>1.7</ele>
        <time>2018-03-18T12:40:42Z</time>
      </trkpt>
      <trkpt lat="43.11597" lon="3.06323">
        <ele>2.6</ele>
        <time>2018-03-18T12:40:47Z</time>
      </trkpt>
      <trkpt lat="43.11605" lon="3.06321">
        <ele>4</ele>
        <time>2018-03-18T12:40:52Z</time>
      </trkpt>
      <trkpt lat="43.11614" lon="3.06322">
        <ele>5.1</ele>
        <time>2018-03-18T12:40:57Z</time>
      </trkpt>
      <trkpt lat="43.11623" lon="3.06321">
        <ele>5.3</ele>
        <time>2018-03-18T12:41:03Z</time>
      </trkpt>
      <trkpt lat="43.1163" lon="3.06325">
        <ele>4.5</ele>
        <time>2018-03-18T12:41:08Z</time>
      </trkpt>
      <trkpt lat="43.11636" lon="3.06331">
        <ele>4.2</ele>
        <time>2018-03-18T12:41:12Z</time>
      </trkpt>
      <trkpt lat="43.11642" lon="3.06339">
        <ele>3.5</ele>
        <time>2018-03-18T12:41:17Z</time>
      </trkpt>
      <trkpt lat="43.11647" lon="3.06348">
        <ele>3.6</ele>
        <time>2018-03-18T12:41:21Z</time>
      </trkpt>
      <trkpt lat="43.11652" lon="3.06356">
        <ele>3.7</ele>
        <time>2018-03-18T12:41:25Z</time>
      </trkpt>
      <trkpt lat="43.11658" lon="3.06363">
        <ele>3.9</ele>
        <time>2018-03-18T12:41:29Z</time>
      </trkpt>
      <trkpt lat="43.11661" lon="3.06373">
        <ele>4.2</ele>
        <time>2018-03-18T12:41:34Z</time>
      </trkpt>
      <trkpt lat="43.11666" lon="3.06381">
        <ele>4.2</ele>
        <time>2018-03-18T12:41:39Z</time>
      </trkpt>
      <trkpt lat="43.11673" lon="3.06388">
        <ele>4.5</ele>
        <time>2018-03-18T12:41:45Z</time>
      </trkpt>
      <trkpt lat="43.11678" lon="3.06396">
        <ele>5.1</ele>
        <time>2018-03-18T12:41:50Z</time>
      </trkpt>
      <trkpt lat="43.11683" lon="3.06404">
        <ele>5.9</ele>
        <time>2018-03-18T12:41:56Z</time>
      </trkpt>
      <trkpt lat="43.1169" lon="3.06413">
        <ele>6.2</ele>
        <time>2018-03-18T12:42:01Z</time>
      </trkpt>
      <trkpt lat="43.11693" lon="3.06423">
        <ele>7.2</ele>
        <time>2018-03-18T12:42:06Z</time>
      </trkpt>
      <trkpt lat="43.117" lon="3.0643">
        <ele>7.3</ele>
        <time>2018-03-18T12:42:11Z</time>
      </trkpt>
      <trkpt lat="43.11703" lon="3.06439">
        <ele>7.6</ele>
        <time>2018-03-18T12:42:16Z</time>
      </trkpt>
      <trkpt lat="43.11708" lon="3.06448">
        <ele>7.4</ele>
        <time>2018-03-18T12:42:21Z</time>
      </trkpt>
      <trkpt lat="43.11711" lon="3.06458">
        <ele>7.3</ele>
        <time>2018-03-18T12:42:26Z</time>
      </trkpt>
      <trkpt lat="43.11716" lon="3.06465">
        <ele>6.6</ele>
        <time>2018-03-18T12:42:31Z</time>
      </trkpt>
      <trkpt lat="43.11719" lon="3.06474">
        <ele>6</ele>
        <time>2018-03-18T12:42:36Z</time>
      </trkpt>
      <trkpt lat="43.11723" lon="3.06483">
        <ele>6.5</ele>
        <time>2018-03-18T12:42:40Z</time>
      </trkpt>
      <trkpt lat="43.11728" lon="3.06491">
        <ele>7</ele>
        <time>2018-03-18T12:42:45Z</time>
      </trkpt>
      <trkpt lat="43.11733" lon="3.06502">
        <ele>9.2</ele>
        <time>2018-03-18T12:42:50Z</time>
      </trkpt>
      <trkpt lat="43.11738" lon="3.06511">
        <ele>10.1</ele>
        <time>2018-03-18T12:42:56Z</time>
      </trkpt>
      <trkpt lat="43.11745" lon="3.06518">
        <ele>10.2</ele>
        <time>2018-03-18T12:42:59Z</time>
      </trkpt>
      <trkpt lat="43.11751" lon="3.06526">
        <ele>10.2</ele>
        <time>2018-03-18T12:43:02Z</time>
      </trkpt>
      <trkpt lat="43.11757" lon="3.06534">
        <ele>10.2</ele>
        <time>2018-03-18T12:43:06Z</time>
      </trkpt>
      <trkpt lat="43.11764" lon="3.06543">
        <ele>10.9</ele>
        <time>2018-03-18T12:43:10Z</time>
      </trkpt>
      <trkpt lat="43.11769" lon="3.06553">
        <ele>11.9</ele>
        <time>2018-03-18T12:43:14Z</time>
      </trkpt>
      <trkpt lat="43.11774" lon="3.06562">
        <ele>13</ele>
        <time>2018-03-18T12:43:18Z</time>
      </trkpt>
      <trkpt lat="43.1178" lon="3.0657">
        <ele>13.8</ele>
        <time>2018-03-18T12:43:22Z</time>
      </trkpt>
      <trkpt lat="43.11787" lon="3.0658">
        <ele>13.9</ele>
        <time>2018-03-18T12:43:26Z</time>
      </trkpt>
      <trkpt lat="43.11792" lon="3.06587">
        <ele>13.9</ele>
        <time>2018-03-18T12:43:29Z</time>
      </trkpt>
      <trkpt lat="43.11798" lon="3.06592">
        <ele>14.1</ele>
        <time>2018-03-18T12:43:32Z</time>
      </trkpt>
      <trkpt lat="43.11802" lon="3.06602">
        <ele>13.4</ele>
        <time>2018-03-18T12:43:36Z</time>
      </trkpt>
      <trkpt lat="43.11802" lon="3.06613">
        <ele>13.3</ele>
        <time>2018-03-18T12:43:41Z</time>
      </trkpt>
      <trkpt lat="43.11799" lon="3.06623">
        <ele>13.3</ele>
        <time>2018-03-18T12:43:45Z</time>
      </trkpt>
      <trkpt lat="43.11795" lon="3.06634">
        <ele>13.3</ele>
        <time>2018-03-18T12:43:49Z</time>
      </trkpt>
      <trkpt lat="43.11792" lon="3.06645">
        <ele>13</ele>
        <time>2018-03-18T12:43:52Z</time>
      </trkpt>
      <trkpt lat="43.1179" lon="3.06655">
        <ele>12.7</ele>
        <time>2018-03-18T12:43:55Z</time>
      </trkpt>
      <trkpt lat="43.11787" lon="3.06666">
        <ele>12.7</ele>
        <time>2018-03-18T12:43:58Z</time>
      </trkpt>
      <trkpt lat="43.11787" lon="3.06678">
        <ele>12.5</ele>
        <time>2018-03-18T12:44:02Z</time>
      </trkpt>
      <trkpt lat="43.11787" lon="3.06688">
        <ele>11.8</ele>
        <time>2018-03-18T12:44:05Z</time>
      </trkpt>
      <trkpt lat="43.11789" lon="3.067">
        <ele>10.9</ele>
        <time>2018-03-18T12:44:09Z</time>
      </trkpt>
      <trkpt lat="43.11795" lon="3.06709">
        <ele>10.5</ele>
        <time>2018-03-18T12:44:13Z</time>
      </trkpt>
      <trkpt lat="43.11802" lon="3.06714">
        <ele>12.3</ele>
        <time>2018-03-18T12:44:18Z</time>
      </trkpt>
      <trkpt lat="43.11811" lon="3.06716">
        <ele>14.4</ele>
        <time>2018-03-18T12:44:24Z</time>
      </trkpt>
      <trkpt lat="43.11816" lon="3.06723">
        <ele>15</ele>
        <time>2018-03-18T12:44:28Z</time>
      </trkpt>
      <trkpt lat="43.11813" lon="3.06735">
        <ele>16</ele>
        <time>2018-03-18T12:44:32Z</time>
      </trkpt>
      <trkpt lat="43.11806" lon="3.06743">
        <ele>14.4</ele>
        <time>2018-03-18T12:44:35Z</time>
      </trkpt>
      <trkpt lat="43.118" lon="3.06751">
        <ele>13.3</ele>
        <time>2018-03-18T12:44:37Z</time>
      </trkpt>
      <trkpt lat="43.11795" lon="3.06763">
        <ele>12.1</ele>
        <time>2018-03-18T12:44:39Z</time>
      </trkpt>
      <trkpt lat="43.11787" lon="3.06775">
        <ele>10.7</ele>
        <time>2018-03-18T12:44:41Z</time>
      </trkpt>
      <trkpt lat="43.1178" lon="3.06789">
        <ele>9.7</ele>
        <time>2018-03-18T12:44:43Z</time>
      </trkpt>
      <trkpt lat="43.11775" lon="3.06806">
        <ele>8.6</ele>
        <time>2018-03-18T12:44:45Z</time>
      </trkpt>
      <trkpt lat="43.1177" lon="3.06824">
        <ele>7.4</ele>
        <time>2018-03-18T12:44:47Z</time>
      </trkpt>
      <trkpt lat="43.11766" lon="3.06842">
        <ele>6.4</ele>
        <time>2018-03-18T12:44:49Z</time>
      </trkpt>
      <trkpt lat="43.11764" lon="3.06857">
        <ele>5</ele>
        <time>2018-03-18T12:44:51Z</time>
      </trkpt>
      <trkpt lat="43.11769" lon="3.06868">
        <ele>3.9</ele>
        <time>2018-03-18T12:44:53Z</time>
      </trkpt>
      <trkpt lat="43.11778" lon="3.06875">
        <ele>3</ele>
        <time>2018-03-18T12:44:55Z</time>
      </trkpt>
      <trkpt lat="43.11787" lon="3.06883">
        <ele>1.9</ele>
        <time>2018-03-18T12:44:57Z</time>
      </trkpt>
      <trkpt lat="43.11798" lon="3.0689">
        <ele>0.9</ele>
        <time>2018-03-18T12:44:59Z</time>
      </trkpt>
      <trkpt lat="43.1181" lon="3.06897">
        <ele>-0.4</ele>
        <time>2018-03-18T12:45:01Z</time>
      </trkpt>
      <trkpt lat="43.1182" lon="3.06902">
        <ele>-1.6</ele>
        <time>2018-03-18T12:45:03Z</time>
      </trkpt>
      <trkpt lat="43.11825" lon="3.06912">
        <ele>-2.6</ele>
        <time>2018-03-18T12:45:05Z</time>
      </trkpt>
      <trkpt lat="43.11824" lon="3.06928">
        <ele>-3.7</ele>
        <time>2018-03-18T12:45:07Z</time>
      </trkpt>
      <trkpt lat="43.11821" lon="3.06944">
        <ele>-4.7</ele>
        <time>2018-03-18T12:45:09Z</time>
      </trkpt>
      <trkpt lat="43.11818" lon="3.06959">
        <ele>-5.7</ele>
        <time>2018-03-18T12:45:11Z</time>
      </trkpt>
      <trkpt lat="43.11814" lon="3.06976">
        <ele>-6.2</ele>
        <time>2018-03-18T12:45:13Z</time>
      </trkpt>
      <trkpt lat="43.1181" lon="3.06994">
        <ele>-6.8</ele>
        <time>2018-03-18T12:45:15Z</time>
      </trkpt>
      <trkpt lat="43.11806" lon="3.07012">
        <ele>-7.3</ele>
        <time>2018-03-18T12:45:17Z</time>
      </trkpt>
      <trkpt lat="43.11802" lon="3.07028">
        <ele>-7.8</ele>
        <time>2018-03-18T12:45:19Z</time>
      </trkpt>
      <trkpt lat="43.11799" lon="3.07045">
        <ele>-8.3</ele>
        <time>2018-03-18T12:45:21Z</time>
      </trkpt>
      <trkpt lat="43.11795" lon="3.07059">
        <ele>-8.9</ele>
        <time>2018-03-18T12:45:23Z</time>
      </trkpt>
      <trkpt lat="43.11792" lon="3.07073">
        <ele>-9.5</ele>
        <time>2018-03-18T12:45:25Z</time>
      </trkpt>
      <trkpt lat="43.1179" lon="3.07086">
        <ele>-10</ele>
        <time>2018-03-18T12:45:27Z</time>
      </trkpt>
      <trkpt lat="43.11787" lon="3.071">
        <ele>-10.5</ele>
        <time>2018-03-18T12:45:29Z</time>
      </trkpt>
      <trkpt lat="43.11784" lon="3.07112">
        <ele>-11</ele>
        <time>2018-03-18T12:45:31Z</time>
      </trkpt>
      <trkpt lat="43.11781" lon="3.07124">
        <ele>-11.5</ele>
        <time>2018-03-18T12:45:33Z</time>
      </trkpt>
      <trkpt lat="43.11778" lon="3.07135">
        <ele>-11.7</ele>
        <time>2018-03-18T12:45:35Z</time>
      </trkpt>
      <trkpt lat="43.11775" lon="3.07146">
        <ele>-11.4</ele>
        <time>2018-03-18T12:45:37Z</time>
      </trkpt>
      <trkpt lat="43.1177" lon="3.07156">
        <ele>-11.2</ele>
        <time>2018-03-18T12:45:39Z</time>
      </trkpt>
      <trkpt lat="43.11764" lon="3.07167">
        <ele>-11</ele>
        <time>2018-03-18T12:45:41Z</time>
      </trkpt>
      <trkpt lat="43.11759" lon="3.07176">
        <ele>-10.8</ele>
        <time>2018-03-18T12:45:43Z</time>
      </trkpt>
      <trkpt lat="43.11752" lon="3.07183">
        <ele>-10.9</ele>
        <time>2018-03-18T12:45:45Z</time>
      </trkpt>
      <trkpt lat="43.11745" lon="3.0719">
        <ele>-10.8</ele>
        <time>2018-03-18T12:45:47Z</time>
      </trkpt>
      <trkpt lat="43.11737" lon="3.07197">
        <ele>-10.7</ele>
        <time>2018-03-18T12:45:49Z</time>
      </trkpt>
      <trkpt lat="43.1173" lon="3.07204">
        <ele>-10.5</ele>
        <time>2018-03-18T12:45:51Z</time>
      </trkpt>
      <trkpt lat="43.11721" lon="3.07209">
        <ele>-10.6</ele>
        <time>2018-03-18T12:45:53Z</time>
      </trkpt>
      <trkpt lat="43.11715" lon="3.07215">
        <ele>-10.2</ele>
        <time>2018-03-18T12:45:55Z</time>
      </trkpt>
      <trkpt lat="43.11708" lon="3.07222">
        <ele>-10.2</ele>
        <time>2018-03-18T12:45:57Z</time>
      </trkpt>
      <trkpt lat="43.11704" lon="3.07234">
        <ele>-10.7</ele>
        <time>2018-03-18T12:46:00Z</time>
      </trkpt>
      <trkpt lat="43.11701" lon="3.07244">
        <ele>-10.8</ele>
        <time>2018-03-18T12:46:02Z</time>
      </trkpt>
      <trkpt lat="43.117" lon="3.07256">
        <ele>-10.9</ele>
        <time>2018-03-18T12:46:06Z</time>
      </trkpt>
      <trkpt lat="43.11697" lon="3.07268">
        <ele>-11</ele>
        <time>2018-03-18T12:46:11Z</time>
      </trkpt>
      <trkpt lat="43.11695" lon="3.07278">
        <ele>-11.5</ele>
        <time>2018-03-18T12:46:14Z</time>
      </trkpt>
      <trkpt lat="43.11692" lon="3.07291">
        <ele>-11.8</ele>
        <time>2018-03-18T12:46:17Z</time>
      </trkpt>
      <trkpt lat="43.11689" lon="3.07304">
        <ele>-12.1</ele>
        <time>2018-03-18T12:46:20Z</time>
      </trkpt>
      <trkpt lat="43.11683" lon="3.07315">
        <ele>-12</ele>
        <time>2018-03-18T12:46:23Z</time>
      </trkpt>
      <trkpt lat="43.11679" lon="3.07325">
        <ele>-11.7</ele>
        <time>2018-03-18T12:46:25Z</time>
      </trkpt>
      <trkpt lat="43.11676" lon="3.07334">
        <ele>-11.5</ele>
        <time>2018-03-18T12:46:27Z</time>
      </trkpt>
      <trkpt lat="43.11676" lon="3.07346">
        <ele>-11.5</ele>
        <time>2018-03-18T12:46:29Z</time>
      </trkpt>
      <trkpt lat="43.11674" lon="3.07357">
        <ele>-11.6</ele>
        <time>2018-03-18T12:46:31Z</time>
      </trkpt>
      <trkpt lat="43.11673" lon="3.07368">
        <ele>-11.6</ele>
        <time>2018-03-18T12:46:33Z</time>
      </trkpt>
      <trkpt lat="43.11672" lon="3.07378">
        <ele>-11.8</ele>
        <time>2018-03-18T12:46:35Z</time>
      </trkpt>
      <trkpt lat="43.11671" lon="3.07388">
        <ele>-11.3</ele>
        <time>2018-03-18T12:46:37Z</time>
      </trkpt>
      <trkpt lat="43.1167" lon="3.07402">
        <ele>-10.8</ele>
        <time>2018-03-18T12:46:40Z</time>
      </trkpt>
      <trkpt lat="43.11668" lon="3.07414">
        <ele>-10.8</ele>
        <time>2018-03-18T12:46:43Z</time>
      </trkpt>
      <trkpt lat="43.11666" lon="3.07425">
        <ele>-10.6</ele>
        <time>2018-03-18T12:46:46Z</time>
      </trkpt>
      <trkpt lat="43.11666" lon="3.07439">
        <ele>-10.3</ele>
        <time>2018-03-18T12:46:49Z</time>
      </trkpt>
      <trkpt lat="43.11666" lon="3.07452">
        <ele>-10.3</ele>
        <time>2018-03-18T12:46:52Z</time>
      </trkpt>
      <trkpt lat="43.11666" lon="3.07465">
        <ele>-9.8</ele>
        <time>2018-03-18T12:46:55Z</time>
      </trkpt>
      <trkpt lat="43.11666" lon="3.07479">
        <ele>-9.6</ele>
        <time>2018-03-18T12:46:58Z</time>
      </trkpt>
      <trkpt lat="43.11664" lon="3.07488">
        <ele>-9.4</ele>
        <time>2018-03-18T12:47:00Z</time>
      </trkpt>
      <trkpt lat="43.11663" lon="3.07499">
        <ele>-9.5</ele>
        <time>2018-03-18T12:47:02Z</time>
      </trkpt>
      <trkpt lat="43.11661" lon="3.07512">
        <ele>-9.6</ele>
        <time>2018-03-18T12:47:05Z</time>
      </trkpt>
      <trkpt lat="43.11659" lon="3.07527">
        <ele>-9.3</ele>
        <time>2018-03-18T12:47:08Z</time>
      </trkpt>
      <trkpt lat="43.11658" lon="3.07539">
        <ele>-9</ele>
        <time>2018-03-18T12:47:11Z</time>
      </trkpt>
      <trkpt lat="43.11658" lon="3.07549">
        <ele>-9.3</ele>
        <time>2018-03-18T12:47:14Z</time>
      </trkpt>
      <trkpt lat="43.11667" lon="3.0755">
        <ele>-9.1</ele>
        <time>2018-03-18T12:47:18Z</time>
      </trkpt>
      <trkpt lat="43.11676" lon="3.07549">
        <ele>-9</ele>
        <time>2018-03-18T12:47:22Z</time>
      </trkpt>
      <trkpt lat="43.11683" lon="3.07545">
        <ele>-8.6</ele>
        <time>2018-03-18T12:47:27Z</time>
      </trkpt>
      <trkpt lat="43.11689" lon="3.07536">
        <ele>-8.5</ele>
        <time>2018-03-18T12:47:31Z</time>
      </trkpt>
      <trkpt lat="43.11697" lon="3.07529">
        <ele>-8.6</ele>
        <time>2018-03-18T12:47:35Z</time>
      </trkpt>
      <trkpt lat="43.11704" lon="3.07525">
        <ele>-8.1</ele>
        <time>2018-03-18T12:47:39Z</time>
      </trkpt>
      <trkpt lat="43.11712" lon="3.07522">
        <ele>-7.3</ele>
        <time>2018-03-18T12:47:44Z</time>
      </trkpt>
      <trkpt lat="43.11721" lon="3.07518">
        <ele>-6.4</ele>
        <time>2018-03-18T12:47:47Z</time>
      </trkpt>
      <trkpt lat="43.11729" lon="3.07514">
        <ele>-5.9</ele>
        <time>2018-03-18T12:47:51Z</time>
      </trkpt>
      <trkpt lat="43.11739" lon="3.0751">
        <ele>-5.3</ele>
        <time>2018-03-18T12:47:55Z</time>
      </trkpt>
      <trkpt lat="43.11748" lon="3.07507">
        <ele>-5</ele>
        <time>2018-03-18T12:47:59Z</time>
      </trkpt>
      <trkpt lat="43.11755" lon="3.07504">
        <ele>-4.9</ele>
        <time>2018-03-18T12:48:02Z</time>
      </trkpt>
      <trkpt lat="43.11761" lon="3.07498">
        <ele>-4.8</ele>
        <time>2018-03-18T12:48:05Z</time>
      </trkpt>
      <trkpt lat="43.11769" lon="3.07494">
        <ele>-4.3</ele>
        <time>2018-03-18T12:48:08Z</time>
      </trkpt>
      <trkpt lat="43.11777" lon="3.07492">
        <ele>-4</ele>
        <time>2018-03-18T12:48:11Z</time>
      </trkpt>
      <trkpt lat="43.11784" lon="3.07488">
        <ele>-3.5</ele>
        <time>2018-03-18T12:48:14Z</time>
      </trkpt>
      <trkpt lat="43.1179" lon="3.07481">
        <ele>-3.2</ele>
        <time>2018-03-18T12:48:17Z</time>
      </trkpt>
      <trkpt lat="43.11795" lon="3.07474">
        <ele>-3.8</ele>
        <time>2018-03-18T12:48:20Z</time>
      </trkpt>
      <trkpt lat="43.11802" lon="3.07468">
        <ele>-3.8</ele>
        <time>2018-03-18T12:48:23Z</time>
      </trkpt>
      <trkpt lat="43.11809" lon="3.07461">
        <ele>-4.1</ele>
        <time>2018-03-18T12:48:26Z</time>
      </trkpt>
      <trkpt lat="43.11816" lon="3.07454">
        <ele>-4.7</ele>
        <time>2018-03-18T12:48:29Z</time>
      </trkpt>
      <trkpt lat="43.11824" lon="3.07447">
        <ele>-4.7</ele>
        <time>2018-03-18T12:48:32Z</time>
      </trkpt>
      <trkpt lat="43.1183" lon="3.07439">
        <ele>-4.5</ele>
        <time>2018-03-18T12:48:35Z</time>
      </trkpt>
      <trkpt lat="43.11838" lon="3.07432">
        <ele>-4.1</ele>
        <time>2018-03-18T12:48:38Z</time>
      </trkpt>
      <trkpt lat="43.11845" lon="3.07425">
        <ele>-3.5</ele>
        <time>2018-03-18T12:48:41Z</time>
      </trkpt>
      <trkpt lat="43.11852" lon="3.07422">
        <ele>-2.7</ele>
        <time>2018-03-18T12:48:44Z</time>
      </trkpt>
      <trkpt lat="43.1186" lon="3.0742">
        <ele>-2.4</ele>
        <time>2018-03-18T12:48:47Z</time>
      </trkpt>
      <trkpt lat="43.11868" lon="3.0742">
        <ele>-1.4</ele>
        <time>2018-03-18T12:48:51Z</time>
      </trkpt>
      <trkpt lat="43.11877" lon="3.0742">
        <ele>-0.8</ele>
        <time>2018-03-18T12:48:53Z</time>
      </trkpt>
      <trkpt lat="43.11886" lon="3.0742">
        <ele>-0.6</ele>
        <time>2018-03-18T12:48:56Z</time>
      </trkpt>
      <trkpt lat="43.11895" lon="3.0742">
        <ele>-0.2</ele>
        <time>2018-03-18T12:48:59Z</time>
      </trkpt>
      <trkpt lat="43.11903" lon="3.07421">
        <ele>1.6</ele>
        <time>2018-03-18T12:49:02Z</time>
      </trkpt>
      <trkpt lat="43.11912" lon="3.07423">
        <ele>2.1</ele>
        <time>2018-03-18T12:49:05Z</time>
      </trkpt>
      <trkpt lat="43.11921" lon="3.07423">
        <ele>2</ele>
        <time>2018-03-18T12:49:08Z</time>
      </trkpt>
      <trkpt lat="43.11931" lon="3.07423">
        <ele>2.4</ele>
        <time>2018-03-18T12:49:11Z</time>
      </trkpt>
      <trkpt lat="43.11939" lon="3.07423">
        <ele>2.3</ele>
        <time>2018-03-18T12:49:14Z</time>
      </trkpt>
      <trkpt lat="43.11946" lon="3.07422">
        <ele>2.4</ele>
        <time>2018-03-18T12:49:17Z</time>
      </trkpt>
      <trkpt lat="43.11954" lon="3.0742">
        <ele>2.1</ele>
        <time>2018-03-18T12:49:20Z</time>
      </trkpt>
      <trkpt lat="43.11963" lon="3.07417">
        <ele>2.1</ele>
        <time>2018-03-18T12:49:23Z</time>
      </trkpt>
      <trkpt lat="43.11971" lon="3.07415">
        <ele>1.8</ele>
        <time>2018-03-18T12:49:26Z</time>
      </trkpt>
      <trkpt lat="43.1198" lon="3.07413">
        <ele>2</ele>
        <time>2018-03-18T12:49:29Z</time>
      </trkpt>
      <trkpt lat="43.11988" lon="3.07411">
        <ele>2.1</ele>
        <time>2018-03-18T12:49:32Z</time>
      </trkpt>
      <trkpt lat="43.11996" lon="3.07411">
        <ele>2.7</ele>
        <time>2018-03-18T12:49:35Z</time>
      </trkpt>
      <trkpt lat="43.12004" lon="3.07413">
        <ele>3.2</ele>
        <time>2018-03-18T12:49:38Z</time>
      </trkpt>
      <trkpt lat="43.12012" lon="3.07417">
        <ele>3.9</ele>
        <time>2018-03-18T12:49:41Z</time>
      </trkpt>
      <trkpt lat="43.12019" lon="3.07422">
        <ele>4.2</ele>
        <time>2018-03-18T12:49:44Z</time>
      </trkpt>
      <trkpt lat="43.12027" lon="3.07426">
        <ele>4.5</ele>
        <time>2018-03-18T12:49:47Z</time>
      </trkpt>
      <trkpt lat="43.12036" lon="3.07431">
        <ele>5.5</ele>
        <time>2018-03-18T12:49:51Z</time>
      </trkpt>
      <trkpt lat="43.12043" lon="3.07434">
        <ele>5.4</ele>
        <time>2018-03-18T12:49:55Z</time>
      </trkpt>
      <trkpt lat="43.12052" lon="3.07437">
        <ele>6.5</ele>
        <time>2018-03-18T12:49:59Z</time>
      </trkpt>
      <trkpt lat="43.1206" lon="3.07441">
        <ele>6.9</ele>
        <time>2018-03-18T12:50:03Z</time>
      </trkpt>
      <trkpt lat="43.12067" lon="3.07445">
        <ele>6.8</ele>
        <time>2018-03-18T12:50:06Z</time>
      </trkpt>
      <trkpt lat="43.12074" lon="3.07448">
        <ele>6.9</ele>
        <time>2018-03-18T12:50:09Z</time>
      </trkpt>
      <trkpt lat="43.12082" lon="3.07449">
        <ele>6.2</ele>
        <time>2018-03-18T12:50:12Z</time>
      </trkpt>
      <trkpt lat="43.1209" lon="3.07452">
        <ele>6.7</ele>
        <time>2018-03-18T12:50:15Z</time>
      </trkpt>
      <trkpt lat="43.12098" lon="3.07454">
        <ele>7.6</ele>
        <time>2018-03-18T12:50:18Z</time>
      </trkpt>
      <trkpt lat="43.12105" lon="3.07457">
        <ele>8.1</ele>
        <time>2018-03-18T12:50:21Z</time>
      </trkpt>
      <trkpt lat="43.12113" lon="3.07461">
        <ele>8.5</ele>
        <time>2018-03-18T12:50:25Z</time>
      </trkpt>
      <trkpt lat="43.12122" lon="3.07466">
        <ele>8.5</ele>
        <time>2018-03-18T12:50:29Z</time>
      </trkpt>
      <trkpt lat="43.12128" lon="3.07474">
        <ele>7.9</ele>
        <time>2018-03-18T12:50:34Z</time>
      </trkpt>
      <trkpt lat="43.12134" lon="3.0748">
        <ele>7.7</ele>
        <time>2018-03-18T12:50:38Z</time>
      </trkpt>
      <trkpt lat="43.1214" lon="3.07487">
        <ele>7.5</ele>
        <time>2018-03-18T12:50:42Z</time>
      </trkpt>
      <trkpt lat="43.12148" lon="3.07493">
        <ele>7.1</ele>
        <time>2018-03-18T12:50:46Z</time>
      </trkpt>
      <trkpt lat="43.12156" lon="3.07495">
        <ele>6.8</ele>
        <time>2018-03-18T12:50:49Z</time>
      </trkpt>
      <trkpt lat="43.12163" lon="3.07496">
        <ele>7.2</ele>
        <time>2018-03-18T12:50:52Z</time>
      </trkpt>
      <trkpt lat="43.12171" lon="3.07496">
        <ele>7.9</ele>
        <time>2018-03-18T12:50:55Z</time>
      </trkpt>
      <trkpt lat="43.12178" lon="3.07495">
        <ele>9.1</ele>
        <time>2018-03-18T12:50:59Z</time>
      </trkpt>
      <trkpt lat="43.12186" lon="3.0749">
        <ele>11.3</ele>
        <time>2018-03-18T12:51:03Z</time>
      </trkpt>
      <trkpt lat="43.12192" lon="3.07484">
        <ele>10.7</ele>
        <time>2018-03-18T12:51:06Z</time>
      </trkpt>
      <trkpt lat="43.12198" lon="3.07476">
        <ele>10.3</ele>
        <time>2018-03-18T12:51:09Z</time>
      </trkpt>
      <trkpt lat="43.12204" lon="3.07469">
        <ele>10.2</ele>
        <time>2018-03-18T12:51:12Z</time>
      </trkpt>
      <trkpt lat="43.12212" lon="3.07468">
        <ele>10.7</ele>
        <time>2018-03-18T12:51:16Z</time>
      </trkpt>
      <trkpt lat="43.12215" lon="3.07473">
        <ele>11.1</ele>
        <time>2018-03-18T12:51:23Z</time>
      </trkpt>
      <trkpt lat="43.12221" lon="3.07479">
        <ele>11.2</ele>
        <time>2018-03-18T12:51:35Z</time>
      </trkpt>
      <trkpt lat="43.1223" lon="3.07483">
        <ele>11.1</ele>
        <time>2018-03-18T12:51:37Z</time>
      </trkpt>
      <trkpt lat="43.12242" lon="3.07487">
        <ele>10.9</ele>
        <time>2018-03-18T12:51:39Z</time>
      </trkpt>
      <trkpt lat="43.1225" lon="3.0749">
        <ele>10.8</ele>
        <time>2018-03-18T12:51:40Z</time>
      </trkpt>
      <trkpt lat="43.12261" lon="3.07492">
        <ele>10.5</ele>
        <time>2018-03-18T12:51:42Z</time>
      </trkpt>
      <trkpt lat="43.1227" lon="3.07494">
        <ele>9.9</ele>
        <time>2018-03-18T12:51:44Z</time>
      </trkpt>
      <trkpt lat="43.12265" lon="3.07485">
        <ele>9.1</ele>
        <time>2018-03-18T12:51:47Z</time>
      </trkpt>
      <trkpt lat="43.12232" lon="3.07481">
        <ele>6.4</ele>
        <time>2018-03-18T12:51:52Z</time>
      </trkpt>
      <trkpt lat="43.12221" lon="3.07471">
        <ele>5.6</ele>
        <time>2018-03-18T12:51:54Z</time>
      </trkpt>
      <trkpt lat="43.12219" lon="3.07471">
        <ele>5</ele>
        <time>2018-03-18T12:52:01Z</time>
      </trkpt>
      <trkpt lat="43.12231" lon="3.07488">
        <ele>9.9</ele>
        <time>2018-03-18T12:52:30Z</time>
      </trkpt>
      <trkpt lat="43.12239" lon="3.07494">
        <ele>9.9</ele>
        <time>2018-03-18T12:52:33Z</time>
      </trkpt>
      <trkpt lat="43.12243" lon="3.07501">
        <ele>10.1</ele>
        <time>2018-03-18T12:52:36Z</time>
      </trkpt>
      <trkpt lat="43.12249" lon="3.07511">
        <ele>11.3</ele>
        <time>2018-03-18T12:52:40Z</time>
      </trkpt>
      <trkpt lat="43.12256" lon="3.07519">
        <ele>12.9</ele>
        <time>2018-03-18T12:52:44Z</time>
      </trkpt>
      <trkpt lat="43.12264" lon="3.0752">
        <ele>14.5</ele>
        <time>2018-03-18T12:52:48Z</time>
      </trkpt>
      <trkpt lat="43.12272" lon="3.07517">
        <ele>15</ele>
        <time>2018-03-18T12:52:52Z</time>
      </trkpt>
      <trkpt lat="43.1228" lon="3.07514">
        <ele>14.6</ele>
        <time>2018-03-18T12:52:56Z</time>
      </trkpt>
      <trkpt lat="43.12288" lon="3.0751">
        <ele>14.5</ele>
        <time>2018-03-18T12:53:00Z</time>
      </trkpt>
      <trkpt lat="43.12294" lon="3.07507">
        <ele>14.5</ele>
        <time>2018-03-18T12:53:04Z</time>
      </trkpt>
      <trkpt lat="43.12302" lon="3.07503">
        <ele>14.3</ele>
        <time>2018-03-18T12:53:08Z</time>
      </trkpt>
      <trkpt lat="43.1231" lon="3.07502">
        <ele>14.3</ele>
        <time>2018-03-18T12:53:12Z</time>
      </trkpt>
      <trkpt lat="43.12318" lon="3.07503">
        <ele>15.1</ele>
        <time>2018-03-18T12:53:16Z</time>
      </trkpt>
      <trkpt lat="43.12323" lon="3.07511">
        <ele>16.5</ele>
        <time>2018-03-18T12:53:21Z</time>
      </trkpt>
      <trkpt lat="43.12322" lon="3.07522">
        <ele>17.7</ele>
        <time>2018-03-18T12:53:25Z</time>
      </trkpt>
      <trkpt lat="43.12321" lon="3.07533">
        <ele>18.2</ele>
        <time>2018-03-18T12:53:29Z</time>
      </trkpt>
      <trkpt lat="43.1232" lon="3.07543">
        <ele>18.8</ele>
        <time>2018-03-18T12:53:33Z</time>
      </trkpt>
      <trkpt lat="43.12319" lon="3.07554">
        <ele>19.1</ele>
        <time>2018-03-18T12:53:36Z</time>
      </trkpt>
      <trkpt lat="43.12319" lon="3.07565">
        <ele>19.1</ele>
        <time>2018-03-18T12:53:40Z</time>
      </trkpt>
      <trkpt lat="43.12319" lon="3.07574">
        <ele>19.1</ele>
        <time>2018-03-18T12:53:43Z</time>
      </trkpt>
      <trkpt lat="43.12318" lon="3.07585">
        <ele>19</ele>
        <time>2018-03-18T12:53:46Z</time>
      </trkpt>
      <trkpt lat="43.12317" lon="3.07596">
        <ele>18.9</ele>
        <time>2018-03-18T12:53:49Z</time>
      </trkpt>
      <trkpt lat="43.12316" lon="3.07606">
        <ele>18.6</ele>
        <time>2018-03-18T12:53:52Z</time>
      </trkpt>
      <trkpt lat="43.12315" lon="3.07619">
        <ele>18.2</ele>
        <time>2018-03-18T12:53:57Z</time>
      </trkpt>
      <trkpt lat="43.1231" lon="3.07628">
        <ele>18.5</ele>
        <time>2018-03-18T12:54:00Z</time>
      </trkpt>
      <trkpt lat="43.12306" lon="3.07639">
        <ele>18.6</ele>
        <time>2018-03-18T12:54:04Z</time>
      </trkpt>
      <trkpt lat="43.12303" lon="3.07649">
        <ele>18.9</ele>
        <time>2018-03-18T12:54:07Z</time>
      </trkpt>
      <trkpt lat="43.12301" lon="3.07659">
        <ele>19.2</ele>
        <time>2018-03-18T12:54:10Z</time>
      </trkpt>
      <trkpt lat="43.12298" lon="3.07669">
        <ele>19.7</ele>
        <time>2018-03-18T12:54:13Z</time>
      </trkpt>
      <trkpt lat="43.12295" lon="3.07679">
        <ele>20.1</ele>
        <time>2018-03-18T12:54:16Z</time>
      </trkpt>
      <trkpt lat="43.12292" lon="3.07689">
        <ele>20.8</ele>
        <time>2018-03-18T12:54:19Z</time>
      </trkpt>
      <trkpt lat="43.12288" lon="3.07699">
        <ele>20.6</ele>
        <time>2018-03-18T12:54:22Z</time>
      </trkpt>
      <trkpt lat="43.12287" lon="3.0771">
        <ele>20.3</ele>
        <time>2018-03-18T12:54:25Z</time>
      </trkpt>
      <trkpt lat="43.12285" lon="3.0772">
        <ele>19.8</ele>
        <time>2018-03-18T12:54:28Z</time>
      </trkpt>
      <trkpt lat="43.12284" lon="3.07731">
        <ele>19.8</ele>
        <time>2018-03-18T12:54:31Z</time>
      </trkpt>
      <trkpt lat="43.12284" lon="3.0774">
        <ele>20.4</ele>
        <time>2018-03-18T12:54:34Z</time>
      </trkpt>
      <trkpt lat="43.12283" lon="3.07752">
        <ele>20.9</ele>
        <time>2018-03-18T12:54:38Z</time>
      </trkpt>
      <trkpt lat="43.12282" lon="3.07765">
        <ele>21.2</ele>
        <time>2018-03-18T12:54:42Z</time>
      </trkpt>
      <trkpt lat="43.12284" lon="3.07777">
        <ele>21.2</ele>
        <time>2018-03-18T12:54:46Z</time>
      </trkpt>
      <trkpt lat="43.12287" lon="3.07789">
        <ele>21.4</ele>
        <time>2018-03-18T12:54:50Z</time>
      </trkpt>
      <trkpt lat="43.1229" lon="3.078">
        <ele>21.4</ele>
        <time>2018-03-18T12:54:54Z</time>
      </trkpt>
      <trkpt lat="43.12294" lon="3.07813">
        <ele>21.4</ele>
        <time>2018-03-18T12:54:58Z</time>
      </trkpt>
      <trkpt lat="43.12299" lon="3.07822">
        <ele>21.4</ele>
        <time>2018-03-18T12:55:01Z</time>
      </trkpt>
      <trkpt lat="43.12302" lon="3.07831">
        <ele>21.6</ele>
        <time>2018-03-18T12:55:04Z</time>
      </trkpt>
      <trkpt lat="43.12306" lon="3.07841">
        <ele>21.5</ele>
        <time>2018-03-18T12:55:07Z</time>
      </trkpt>
      <trkpt lat="43.1231" lon="3.07851">
        <ele>21.5</ele>
        <time>2018-03-18T12:55:10Z</time>
      </trkpt>
      <trkpt lat="43.12313" lon="3.0786">
        <ele>21.9</ele>
        <time>2018-03-18T12:55:13Z</time>
      </trkpt>
      <trkpt lat="43.12317" lon="3.07869">
        <ele>22.1</ele>
        <time>2018-03-18T12:55:16Z</time>
      </trkpt>
      <trkpt lat="43.1232" lon="3.0788">
        <ele>22.5</ele>
        <time>2018-03-18T12:55:19Z</time>
      </trkpt>
      <trkpt lat="43.12322" lon="3.0789">
        <ele>22.3</ele>
        <time>2018-03-18T12:55:22Z</time>
      </trkpt>
      <trkpt lat="43.12325" lon="3.079">
        <ele>21.9</ele>
        <time>2018-03-18T12:55:25Z</time>
      </trkpt>
      <trkpt lat="43.12328" lon="3.07913">
        <ele>21.7</ele>
        <time>2018-03-18T12:55:28Z</time>
      </trkpt>
      <trkpt lat="43.1233" lon="3.07922">
        <ele>21.5</ele>
        <time>2018-03-18T12:55:30Z</time>
      </trkpt>
      <trkpt lat="43.12332" lon="3.07933">
        <ele>21.5</ele>
        <time>2018-03-18T12:55:32Z</time>
      </trkpt>
      <trkpt lat="43.12335" lon="3.07946">
        <ele>21.4</ele>
        <time>2018-03-18T12:55:35Z</time>
      </trkpt>
      <trkpt lat="43.12337" lon="3.07958">
        <ele>21.2</ele>
        <time>2018-03-18T12:55:38Z</time>
      </trkpt>
      <trkpt lat="43.12339" lon="3.0797">
        <ele>21.1</ele>
        <time>2018-03-18T12:55:41Z</time>
      </trkpt>
      <trkpt lat="43.1234" lon="3.07981">
        <ele>20.9</ele>
        <time>2018-03-18T12:55:45Z</time>
      </trkpt>
      <trkpt lat="43.12346" lon="3.07984">
        <ele>20.9</ele>
        <time>2018-03-18T12:55:52Z</time>
      </trkpt>
      <trkpt lat="43.12344" lon="3.07974">
        <ele>22.3</ele>
        <time>2018-03-18T12:55:57Z</time>
      </trkpt>
      <trkpt lat="43.12346" lon="3.07974">
        <ele>23.6</ele>
        <time>2018-03-18T12:56:04Z</time>
      </trkpt>
      <trkpt lat="43.12352" lon="3.07983">
        <ele>29.6</ele>
        <time>2018-03-18T12:57:13Z</time>
      </trkpt>
      <trkpt lat="43.12359" lon="3.07988">
        <ele>29.7</ele>
        <time>2018-03-18T12:57:17Z</time>
      </trkpt>
      <trkpt lat="43.12366" lon="3.0799">
        <ele>29.8</ele>
        <time>2018-03-18T12:57:22Z</time>
      </trkpt>
      <trkpt lat="43.12373" lon="3.07998">
        <ele>29.6</ele>
        <time>2018-03-18T12:57:27Z</time>
      </trkpt>
      <trkpt lat="43.12377" lon="3.08006">
        <ele>29.4</ele>
        <time>2018-03-18T12:57:32Z</time>
      </trkpt>
      <trkpt lat="43.12382" lon="3.08016">
        <ele>29.7</ele>
        <time>2018-03-18T12:57:37Z</time>
      </trkpt>
      <trkpt lat="43.12386" lon="3.08022">
        <ele>30.7</ele>
        <time>2018-03-18T12:57:41Z</time>
      </trkpt>
      <trkpt lat="43.12395" lon="3.08024">
        <ele>31.4</ele>
        <time>2018-03-18T12:57:47Z</time>
      </trkpt>
      <trkpt lat="43.12402" lon="3.08019">
        <ele>32.6</ele>
        <time>2018-03-18T12:57:51Z</time>
      </trkpt>
      <trkpt lat="43.12409" lon="3.08017">
        <ele>33.6</ele>
        <time>2018-03-18T12:57:55Z</time>
      </trkpt>
      <trkpt lat="43.12416" lon="3.08017">
        <ele>34.4</ele>
        <time>2018-03-18T12:57:59Z</time>
      </trkpt>
      <trkpt lat="43.12423" lon="3.08024">
        <ele>35.6</ele>
        <time>2018-03-18T12:58:03Z</time>
      </trkpt>
      <trkpt lat="43.1243" lon="3.08032">
        <ele>37</ele>
        <time>2018-03-18T12:58:08Z</time>
      </trkpt>
      <trkpt lat="43.12435" lon="3.08039">
        <ele>38.5</ele>
        <time>2018-03-18T12:58:12Z</time>
      </trkpt>
      <trkpt lat="43.12442" lon="3.08046">
        <ele>40.6</ele>
        <time>2018-03-18T12:58:16Z</time>
      </trkpt>
      <trkpt lat="43.12449" lon="3.08049">
        <ele>42.3</ele>
        <time>2018-03-18T12:58:20Z</time>
      </trkpt>
      <trkpt lat="43.12458" lon="3.08055">
        <ele>44.4</ele>
        <time>2018-03-18T12:58:24Z</time>
      </trkpt>
      <trkpt lat="43.12464" lon="3.08063">
        <ele>45.8</ele>
        <time>2018-03-18T12:58:28Z</time>
      </trkpt>
      <trkpt lat="43.12471" lon="3.08068">
        <ele>47.7</ele>
        <time>2018-03-18T12:58:32Z</time>
      </trkpt>
      <trkpt lat="43.12478" lon="3.08078">
        <ele>49</ele>
        <time>2018-03-18T12:58:36Z</time>
      </trkpt>
      <trkpt lat="43.12485" lon="3.08081">
        <ele>50.8</ele>
        <time>2018-03-18T12:58:40Z</time>
      </trkpt>
      <trkpt lat="43.12492" lon="3.08087">
        <ele>52.1</ele>
        <time>2018-03-18T12:58:44Z</time>
      </trkpt>
      <trkpt lat="43.12499" lon="3.08093">
        <ele>53.6</ele>
        <time>2018-03-18T12:58:48Z</time>
      </trkpt>
      <trkpt lat="43.12507" lon="3.08098">
        <ele>55.2</ele>
        <time>2018-03-18T12:58:53Z</time>
      </trkpt>
      <trkpt lat="43.12514" lon="3.08104">
        <ele>56.5</ele>
        <time>2018-03-18T12:58:57Z</time>
      </trkpt>
      <trkpt lat="43.12522" lon="3.08111">
        <ele>57.7</ele>
        <time>2018-03-18T12:59:01Z</time>
      </trkpt>
      <trkpt lat="43.12529" lon="3.08113">
        <ele>58.4</ele>
        <time>2018-03-18T12:59:04Z</time>
      </trkpt>
      <trkpt lat="43.12537" lon="3.08118">
        <ele>59.7</ele>
        <time>2018-03-18T12:59:07Z</time>
      </trkpt>
      <trkpt lat="43.12542" lon="3.08124">
        <ele>59.9</ele>
        <time>2018-03-18T12:59:09Z</time>
      </trkpt>
      <trkpt lat="43.12549" lon="3.08132">
        <ele>60.4</ele>
        <time>2018-03-18T12:59:12Z</time>
      </trkpt>
      <trkpt lat="43.12556" lon="3.08141">
        <ele>60.7</ele>
        <time>2018-03-18T12:59:15Z</time>
      </trkpt>
      <trkpt lat="43.12563" lon="3.08154">
        <ele>61.3</ele>
        <time>2018-03-18T12:59:18Z</time>
      </trkpt>
      <trkpt lat="43.12569" lon="3.08163">
        <ele>62.1</ele>
        <time>2018-03-18T12:59:21Z</time>
      </trkpt>
      <trkpt lat="43.12574" lon="3.0817">
        <ele>62.7</ele>
        <time>2018-03-18T12:59:24Z</time>
      </trkpt>
      <trkpt lat="43.12581" lon="3.08175">
        <ele>63.2</ele>
        <time>2018-03-18T12:59:28Z</time>
      </trkpt>
      <trkpt lat="43.1259" lon="3.08179">
        <ele>63.7</ele>
        <time>2018-03-18T12:59:32Z</time>
      </trkpt>
      <trkpt lat="43.12598" lon="3.08185">
        <ele>64.1</ele>
        <time>2018-03-18T12:59:36Z</time>
      </trkpt>
      <trkpt lat="43.12606" lon="3.08189">
        <ele>63.9</ele>
        <time>2018-03-18T12:59:39Z</time>
      </trkpt>
      <trkpt lat="43.12613" lon="3.08196">
        <ele>63.2</ele>
        <time>2018-03-18T12:59:42Z</time>
      </trkpt>
      <trkpt lat="43.12621" lon="3.08206">
        <ele>62.4</ele>
        <time>2018-03-18T12:59:45Z</time>
      </trkpt>
      <trkpt lat="43.12627" lon="3.08213">
        <ele>62.6</ele>
        <time>2018-03-18T12:59:48Z</time>
      </trkpt>
      <trkpt lat="43.12635" lon="3.08213">
        <ele>62.9</ele>
        <time>2018-03-18T12:59:52Z</time>
      </trkpt>
      <trkpt lat="43.12637" lon="3.08219">
        <ele>62.8</ele>
        <time>2018-03-18T12:59:59Z</time>
      </trkpt>
      <trkpt lat="43.12637" lon="3.08225">
        <ele>63.1</ele>
        <time>2018-03-18T13:00:06Z</time>
      </trkpt>
      <trkpt lat="43.12637" lon="3.08226">
        <ele>63</ele>
        <time>2018-03-18T13:00:13Z</time>
      </trkpt>
      <trkpt lat="43.1263" lon="3.08241">
        <ele>59.8</ele>
        <time>2018-03-18T13:00:12Z</time>
      </trkpt>
      <trkpt lat="43.12627" lon="3.0825">
        <ele>59.7</ele>
        <time>2018-03-18T13:01:22Z</time>
      </trkpt>
      <trkpt lat="43.12621" lon="3.08261">
        <ele>59.5</ele>
        <time>2018-03-18T13:01:26Z</time>
      </trkpt>
      <trkpt lat="43.12618" lon="3.08273">
        <ele>59</ele>
        <time>2018-03-18T13:01:28Z</time>
      </trkpt>
      <trkpt lat="43.12616" lon="3.08287">
        <ele>58.4</ele>
        <time>2018-03-18T13:01:30Z</time>
      </trkpt>
      <trkpt lat="43.12614" lon="3.08302">
        <ele>57.5</ele>
        <time>2018-03-18T13:01:32Z</time>
      </trkpt>
      <trkpt lat="43.12611" lon="3.08318">
        <ele>56.6</ele>
        <time>2018-03-18T13:01:34Z</time>
      </trkpt>
      <trkpt lat="43.12609" lon="3.0833">
        <ele>55.9</ele>
        <time>2018-03-18T13:01:36Z</time>
      </trkpt>
      <trkpt lat="43.12608" lon="3.08341">
        <ele>55.1</ele>
        <time>2018-03-18T13:01:38Z</time>
      </trkpt>
      <trkpt lat="43.12609" lon="3.08353">
        <ele>54</ele>
        <time>2018-03-18T13:01:41Z</time>
      </trkpt>
      <trkpt lat="43.12608" lon="3.08364">
        <ele>53</ele>
        <time>2018-03-18T13:01:44Z</time>
      </trkpt>
      <trkpt lat="43.12609" lon="3.08376">
        <ele>51.9</ele>
        <time>2018-03-18T13:01:47Z</time>
      </trkpt>
      <trkpt lat="43.12609" lon="3.08388">
        <ele>50.9</ele>
        <time>2018-03-18T13:01:50Z</time>
      </trkpt>
      <trkpt lat="43.12611" lon="3.08398">
        <ele>50.7</ele>
        <time>2018-03-18T13:01:53Z</time>
      </trkpt>
      <trkpt lat="43.12613" lon="3.08407">
        <ele>50.6</ele>
        <time>2018-03-18T13:01:56Z</time>
      </trkpt>
      <trkpt lat="43.12613" lon="3.08418">
        <ele>50.8</ele>
        <time>2018-03-18T13:01:59Z</time>
      </trkpt>
      <trkpt lat="43.12607" lon="3.08429">
        <ele>50.9</ele>
        <time>2018-03-18T13:02:02Z</time>
      </trkpt>
      <trkpt lat="43.12604" lon="3.08438">
        <ele>50.9</ele>
        <time>2018-03-18T13:02:04Z</time>
      </trkpt>
      <trkpt lat="43.12601" lon="3.08451">
        <ele>50</ele>
        <time>2018-03-18T13:02:06Z</time>
      </trkpt>
      <trkpt lat="43.12599" lon="3.08464">
        <ele>51.6</ele>
        <time>2018-03-18T13:02:08Z</time>
      </trkpt>
      <trkpt lat="43.12597" lon="3.08476">
        <ele>51</ele>
        <time>2018-03-18T13:02:10Z</time>
      </trkpt>
      <trkpt lat="43.12596" lon="3.08488">
        <ele>50.9</ele>
        <time>2018-03-18T13:02:12Z</time>
      </trkpt>
      <trkpt lat="43.12595" lon="3.08498">
        <ele>50.2</ele>
        <time>2018-03-18T13:02:15Z</time>
      </trkpt>
      <trkpt lat="43.1259" lon="3.08508">
        <ele>48.9</ele>
        <time>2018-03-18T13:02:20Z</time>
      </trkpt>
      <trkpt lat="43.12586" lon="3.08519">
        <ele>48.5</ele>
        <time>2018-03-18T13:02:24Z</time>
      </trkpt>
      <trkpt lat="43.1259" lon="3.08508">
        <ele>48.5</ele>
        <time>2018-03-18T13:02:31Z</time>
      </trkpt>
      <trkpt lat="43.1259" lon="3.08497">
        <ele>49.3</ele>
        <time>2018-03-18T13:02:34Z</time>
      </trkpt>
      <trkpt lat="43.1259" lon="3.08486">
        <ele>50.6</ele>
        <time>2018-03-18T13:02:38Z</time>
      </trkpt>
      <trkpt lat="43.12582" lon="3.0849">
        <ele>51.1</ele>
        <time>2018-03-18T13:02:43Z</time>
      </trkpt>
      <trkpt lat="43.12575" lon="3.08496">
        <ele>50.9</ele>
        <time>2018-03-18T13:02:47Z</time>
      </trkpt>
      <trkpt lat="43.12568" lon="3.08502">
        <ele>51</ele>
        <time>2018-03-18T13:02:51Z</time>
      </trkpt>
      <trkpt lat="43.1256" lon="3.08506">
        <ele>51.2</ele>
        <time>2018-03-18T13:02:55Z</time>
      </trkpt>
      <trkpt lat="43.12552" lon="3.0851">
        <ele>51.4</ele>
        <time>2018-03-18T13:02:58Z</time>
      </trkpt>
      <trkpt lat="43.12544" lon="3.08511">
        <ele>51.2</ele>
        <time>2018-03-18T13:03:01Z</time>
      </trkpt>
      <trkpt lat="43.12535" lon="3.08508">
        <ele>51</ele>
        <time>2018-03-18T13:03:04Z</time>
      </trkpt>
      <trkpt lat="43.12527" lon="3.08505">
        <ele>50.7</ele>
        <time>2018-03-18T13:03:06Z</time>
      </trkpt>
      <trkpt lat="43.1252" lon="3.08503">
        <ele>50.5</ele>
        <time>2018-03-18T13:03:08Z</time>
      </trkpt>
      <trkpt lat="43.12513" lon="3.08499">
        <ele>50.3</ele>
        <time>2018-03-18T13:03:10Z</time>
      </trkpt>
      <trkpt lat="43.12505" lon="3.08498">
        <ele>50.1</ele>
        <time>2018-03-18T13:03:12Z</time>
      </trkpt>
      <trkpt lat="43.12498" lon="3.08499">
        <ele>49.7</ele>
        <time>2018-03-18T13:03:14Z</time>
      </trkpt>
      <trkpt lat="43.12491" lon="3.08504">
        <ele>49.2</ele>
        <time>2018-03-18T13:03:16Z</time>
      </trkpt>
      <trkpt lat="43.12485" lon="3.08516">
        <ele>48.6</ele>
        <time>2018-03-18T13:03:19Z</time>
      </trkpt>
      <trkpt lat="43.12481" lon="3.08527">
        <ele>48</ele>
        <time>2018-03-18T13:03:22Z</time>
      </trkpt>
      <trkpt lat="43.12481" lon="3.08541">
        <ele>47.1</ele>
        <time>2018-03-18T13:03:25Z</time>
      </trkpt>
      <trkpt lat="43.12482" lon="3.08554">
        <ele>46.3</ele>
        <time>2018-03-18T13:03:28Z</time>
      </trkpt>
      <trkpt lat="43.12481" lon="3.08566">
        <ele>45.7</ele>
        <time>2018-03-18T13:03:31Z</time>
      </trkpt>
      <trkpt lat="43.12481" lon="3.08576">
        <ele>44.7</ele>
        <time>2018-03-18T13:03:34Z</time>
      </trkpt>
      <trkpt lat="43.12482" lon="3.08587">
        <ele>43.8</ele>
        <time>2018-03-18T13:03:38Z</time>
      </trkpt>
      <trkpt lat="43.12483" lon="3.08597">
        <ele>42.9</ele>
        <time>2018-03-18T13:03:42Z</time>
      </trkpt>
      <trkpt lat="43.12484" lon="3.08608">
        <ele>42.3</ele>
        <time>2018-03-18T13:03:46Z</time>
      </trkpt>
      <trkpt lat="43.12484" lon="3.08619">
        <ele>41.3</ele>
        <time>2018-03-18T13:03:50Z</time>
      </trkpt>
      <trkpt lat="43.12483" lon="3.0863">
        <ele>40.8</ele>
        <time>2018-03-18T13:03:52Z</time>
      </trkpt>
      <trkpt lat="43.12482" lon="3.0864">
        <ele>40.4</ele>
        <time>2018-03-18T13:03:55Z</time>
      </trkpt>
      <trkpt lat="43.12481" lon="3.0865">
        <ele>39.7</ele>
        <time>2018-03-18T13:03:58Z</time>
      </trkpt>
      <trkpt lat="43.12483" lon="3.08661">
        <ele>39.4</ele>
        <time>2018-03-18T13:04:02Z</time>
      </trkpt>
      <trkpt lat="43.12485" lon="3.08672">
        <ele>39.3</ele>
        <time>2018-03-18T13:04:06Z</time>
      </trkpt>
      <trkpt lat="43.12487" lon="3.08681">
        <ele>39.6</ele>
        <time>2018-03-18T13:04:09Z</time>
      </trkpt>
      <trkpt lat="43.12489" lon="3.08693">
        <ele>40.1</ele>
        <time>2018-03-18T13:04:12Z</time>
      </trkpt>
      <trkpt lat="43.12491" lon="3.08705">
        <ele>40.1</ele>
        <time>2018-03-18T13:04:15Z</time>
      </trkpt>
      <trkpt lat="43.12492" lon="3.08718">
        <ele>40.5</ele>
        <time>2018-03-18T13:04:18Z</time>
      </trkpt>
      <trkpt lat="43.12496" lon="3.0873">
        <ele>40.7</ele>
        <time>2018-03-18T13:04:21Z</time>
      </trkpt>
      <trkpt lat="43.12499" lon="3.0874">
        <ele>40.7</ele>
        <time>2018-03-18T13:04:24Z</time>
      </trkpt>
      <trkpt lat="43.12502" lon="3.0875">
        <ele>41.2</ele>
        <time>2018-03-18T13:04:27Z</time>
      </trkpt>
      <trkpt lat="43.12503" lon="3.08764">
        <ele>41.6</ele>
        <time>2018-03-18T13:04:31Z</time>
      </trkpt>
      <trkpt lat="43.12502" lon="3.08775">
        <ele>42.2</ele>
        <time>2018-03-18T13:04:34Z</time>
      </trkpt>
      <trkpt lat="43.12501" lon="3.08786">
        <ele>42.8</ele>
        <time>2018-03-18T13:04:37Z</time>
      </trkpt>
      <trkpt lat="43.12499" lon="3.08801">
        <ele>43.3</ele>
        <time>2018-03-18T13:04:40Z</time>
      </trkpt>
      <trkpt lat="43.12499" lon="3.08813">
        <ele>43.5</ele>
        <time>2018-03-18T13:04:42Z</time>
      </trkpt>
      <trkpt lat="43.12502" lon="3.08825">
        <ele>43.8</ele>
        <time>2018-03-18T13:04:44Z</time>
      </trkpt>
      <trkpt lat="43.12507" lon="3.08835">
        <ele>44.1</ele>
        <time>2018-03-18T13:04:46Z</time>
      </trkpt>
      <trkpt lat="43.12514" lon="3.08844">
        <ele>44.1</ele>
        <time>2018-03-18T13:04:49Z</time>
      </trkpt>
      <trkpt lat="43.12519" lon="3.08854">
        <ele>44.2</ele>
        <time>2018-03-18T13:04:52Z</time>
      </trkpt>
      <trkpt lat="43.12523" lon="3.08867">
        <ele>44</ele>
        <time>2018-03-18T13:04:56Z</time>
      </trkpt>
      <trkpt lat="43.12527" lon="3.08878">
        <ele>43.9</ele>
        <time>2018-03-18T13:04:57Z</time>
      </trkpt>
      <trkpt lat="43.12528" lon="3.08892">
        <ele>43.6</ele>
        <time>2018-03-18T13:04:59Z</time>
      </trkpt>
      <trkpt lat="43.12526" lon="3.08903">
        <ele>43.3</ele>
        <time>2018-03-18T13:05:01Z</time>
      </trkpt>
      <trkpt lat="43.1253" lon="3.08916">
        <ele>42.9</ele>
        <time>2018-03-18T13:05:04Z</time>
      </trkpt>
      <trkpt lat="43.12536" lon="3.08923">
        <ele>42.3</ele>
        <time>2018-03-18T13:05:06Z</time>
      </trkpt>
      <trkpt lat="43.12542" lon="3.08934">
        <ele>41.5</ele>
        <time>2018-03-18T13:05:10Z</time>
      </trkpt>
      <trkpt lat="43.12545" lon="3.08947">
        <ele>40.6</ele>
        <time>2018-03-18T13:05:12Z</time>
      </trkpt>
      <trkpt lat="43.12549" lon="3.08958">
        <ele>39.9</ele>
        <time>2018-03-18T13:05:15Z</time>
      </trkpt>
      <trkpt lat="43.12556" lon="3.08962">
        <ele>37.2</ele>
        <time>2018-03-18T13:05:20Z</time>
      </trkpt>
      <trkpt lat="43.12559" lon="3.08972">
        <ele>36</ele>
        <time>2018-03-18T13:05:23Z</time>
      </trkpt>
      <trkpt lat="43.1256" lon="3.08983">
        <ele>35.5</ele>
        <time>2018-03-18T13:05:25Z</time>
      </trkpt>
      <trkpt lat="43.12561" lon="3.08997">
        <ele>34.8</ele>
        <time>2018-03-18T13:05:27Z</time>
      </trkpt>
      <trkpt lat="43.12568" lon="3.09009">
        <ele>33.3</ele>
        <time>2018-03-18T13:05:29Z</time>
      </trkpt>
      <trkpt lat="43.12579" lon="3.09018">
        <ele>31.9</ele>
        <time>2018-03-18T13:05:31Z</time>
      </trkpt>
      <trkpt lat="43.12583" lon="3.09031">
        <ele>31</ele>
        <time>2018-03-18T13:05:33Z</time>
      </trkpt>
      <trkpt lat="43.12585" lon="3.09047">
        <ele>30.3</ele>
        <time>2018-03-18T13:05:35Z</time>
      </trkpt>
      <trkpt lat="43.12586" lon="3.09064">
        <ele>29.6</ele>
        <time>2018-03-18T13:05:37Z</time>
      </trkpt>
      <trkpt lat="43.12587" lon="3.09083">
        <ele>28.9</ele>
        <time>2018-03-18T13:05:39Z</time>
      </trkpt>
      <trkpt lat="43.12588" lon="3.09102">
        <ele>28</ele>
        <time>2018-03-18T13:05:41Z</time>
      </trkpt>
      <trkpt lat="43.12587" lon="3.09113">
        <ele>27.4</ele>
        <time>2018-03-18T13:05:42Z</time>
      </trkpt>
      <trkpt lat="43.12586" lon="3.09123">
        <ele>26.9</ele>
        <time>2018-03-18T13:05:43Z</time>
      </trkpt>
      <trkpt lat="43.12583" lon="3.09133">
        <ele>26.6</ele>
        <time>2018-03-18T13:05:44Z</time>
      </trkpt>
      <trkpt lat="43.1258" lon="3.09142">
        <ele>26</ele>
        <time>2018-03-18T13:05:45Z</time>
      </trkpt>
      <trkpt lat="43.12576" lon="3.09151">
        <ele>25.8</ele>
        <time>2018-03-18T13:05:46Z</time>
      </trkpt>
      <trkpt lat="43.12571" lon="3.09169">
        <ele>24.9</ele>
        <time>2018-03-18T13:05:48Z</time>
      </trkpt>
      <trkpt lat="43.1257" lon="3.09179">
        <ele>24.4</ele>
        <time>2018-03-18T13:05:49Z</time>
      </trkpt>
      <trkpt lat="43.12573" lon="3.09198">
        <ele>23.7</ele>
        <time>2018-03-18T13:05:51Z</time>
      </trkpt>
      <trkpt lat="43.12577" lon="3.09216">
        <ele>23.4</ele>
        <time>2018-03-18T13:05:53Z</time>
      </trkpt>
      <trkpt lat="43.12578" lon="3.09228">
        <ele>22.7</ele>
        <time>2018-03-18T13:05:55Z</time>
      </trkpt>
      <trkpt lat="43.12579" lon="3.09239">
        <ele>19.7</ele>
        <time>2018-03-18T13:05:59Z</time>
      </trkpt>
      <trkpt lat="43.12586" lon="3.09243">
        <ele>17.9</ele>
        <time>2018-03-18T13:06:04Z</time>
      </trkpt>
      <trkpt lat="43.12595" lon="3.09242">
        <ele>18</ele>
        <time>2018-03-18T13:06:08Z</time>
      </trkpt>
      <trkpt lat="43.12587" lon="3.09245">
        <ele>18.6</ele>
        <time>2018-03-18T13:06:15Z</time>
      </trkpt>
      <trkpt lat="43.12579" lon="3.09242">
        <ele>18.7</ele>
        <time>2018-03-18T13:06:18Z</time>
      </trkpt>
      <trkpt lat="43.1257" lon="3.09246">
        <ele>19</ele>
        <time>2018-03-18T13:06:21Z</time>
      </trkpt>
      <trkpt lat="43.12566" lon="3.09257">
        <ele>19.5</ele>
        <time>2018-03-18T13:06:25Z</time>
      </trkpt>
      <trkpt lat="43.12561" lon="3.09267">
        <ele>19.7</ele>
        <time>2018-03-18T13:06:29Z</time>
      </trkpt>
      <trkpt lat="43.12558" lon="3.09277">
        <ele>19.3</ele>
        <time>2018-03-18T13:06:32Z</time>
      </trkpt>
      <trkpt lat="43.12554" lon="3.09287">
        <ele>19</ele>
        <time>2018-03-18T13:06:35Z</time>
      </trkpt>
      <trkpt lat="43.12549" lon="3.09299">
        <ele>18.6</ele>
        <time>2018-03-18T13:06:38Z</time>
      </trkpt>
      <trkpt lat="43.12544" lon="3.09311">
        <ele>18.1</ele>
        <time>2018-03-18T13:06:41Z</time>
      </trkpt>
      <trkpt lat="43.12539" lon="3.09323">
        <ele>18.1</ele>
        <time>2018-03-18T13:06:44Z</time>
      </trkpt>
      <trkpt lat="43.12533" lon="3.09334">
        <ele>17.6</ele>
        <time>2018-03-18T13:06:47Z</time>
      </trkpt>
      <trkpt lat="43.12529" lon="3.09342">
        <ele>17.2</ele>
        <time>2018-03-18T13:06:49Z</time>
      </trkpt>
      <trkpt lat="43.12526" lon="3.09352">
        <ele>16.8</ele>
        <time>2018-03-18T13:06:52Z</time>
      </trkpt>
      <trkpt lat="43.12522" lon="3.09361">
        <ele>16.1</ele>
        <time>2018-03-18T13:06:53Z</time>
      </trkpt>
      <trkpt lat="43.12519" lon="3.09371">
        <ele>15.7</ele>
        <time>2018-03-18T13:06:55Z</time>
      </trkpt>
      <trkpt lat="43.12516" lon="3.09382">
        <ele>15.2</ele>
        <time>2018-03-18T13:06:57Z</time>
      </trkpt>
      <trkpt lat="43.12513" lon="3.09395">
        <ele>14.7</ele>
        <time>2018-03-18T13:07:00Z</time>
      </trkpt>
      <trkpt lat="43.12509" lon="3.09407">
        <ele>13.9</ele>
        <time>2018-03-18T13:07:03Z</time>
      </trkpt>
      <trkpt lat="43.12506" lon="3.0942">
        <ele>13.9</ele>
        <time>2018-03-18T13:07:06Z</time>
      </trkpt>
      <trkpt lat="43.12504" lon="3.09431">
        <ele>13.6</ele>
        <time>2018-03-18T13:07:09Z</time>
      </trkpt>
      <trkpt lat="43.12501" lon="3.09441">
        <ele>13.6</ele>
        <time>2018-03-18T13:07:12Z</time>
      </trkpt>
      <trkpt lat="43.12499" lon="3.09454">
        <ele>13.8</ele>
        <time>2018-03-18T13:07:15Z</time>
      </trkpt>
      <trkpt lat="43.12496" lon="3.09467">
        <ele>13.7</ele>
        <time>2018-03-18T13:07:18Z</time>
      </trkpt>
      <trkpt lat="43.12494" lon="3.09479">
        <ele>13.7</ele>
        <time>2018-03-18T13:07:21Z</time>
      </trkpt>
      <trkpt lat="43.12492" lon="3.09492">
        <ele>13.9</ele>
        <time>2018-03-18T13:07:24Z</time>
      </trkpt>
      <trkpt lat="43.12488" lon="3.09504">
        <ele>14.2</ele>
        <time>2018-03-18T13:07:27Z</time>
      </trkpt>
      <trkpt lat="43.12487" lon="3.09516">
        <ele>15</ele>
        <time>2018-03-18T13:07:30Z</time>
      </trkpt>
      <trkpt lat="43.12494" lon="3.0952">
        <ele>14</ele>
        <time>2018-03-18T13:07:33Z</time>
      </trkpt>
      <trkpt lat="43.12502" lon="3.09521">
        <ele>13.2</ele>
        <time>2018-03-18T13:07:36Z</time>
      </trkpt>
      <trkpt lat="43.12509" lon="3.09522">
        <ele>12.7</ele>
        <time>2018-03-18T13:07:39Z</time>
      </trkpt>
      <trkpt lat="43.12517" lon="3.09522">
        <ele>12.7</ele>
        <time>2018-03-18T13:07:42Z</time>
      </trkpt>
      <trkpt lat="43.12525" lon="3.09522">
        <ele>12.8</ele>
        <time>2018-03-18T13:07:45Z</time>
      </trkpt>
      <trkpt lat="43.12533" lon="3.09524">
        <ele>12.9</ele>
        <time>2018-03-18T13:07:48Z</time>
      </trkpt>
      <trkpt lat="43.12541" lon="3.09525">
        <ele>13</ele>
        <time>2018-03-18T13:07:51Z</time>
      </trkpt>
      <trkpt lat="43.12549" lon="3.09527">
        <ele>12.9</ele>
        <time>2018-03-18T13:07:54Z</time>
      </trkpt>
      <trkpt lat="43.12557" lon="3.09528">
        <ele>13.6</ele>
        <time>2018-03-18T13:07:57Z</time>
      </trkpt>
      <trkpt lat="43.12566" lon="3.0953">
        <ele>14.5</ele>
        <time>2018-03-18T13:08:00Z</time>
      </trkpt>
      <trkpt lat="43.12575" lon="3.09531">
        <ele>16.3</ele>
        <time>2018-03-18T13:08:03Z</time>
      </trkpt>
      <trkpt lat="43.12583" lon="3.09533">
        <ele>18.2</ele>
        <time>2018-03-18T13:08:06Z</time>
      </trkpt>
      <trkpt lat="43.1259" lon="3.09534">
        <ele>18.7</ele>
        <time>2018-03-18T13:08:09Z</time>
      </trkpt>
      <trkpt lat="43.12599" lon="3.09535">
        <ele>18.6</ele>
        <time>2018-03-18T13:08:12Z</time>
      </trkpt>
      <trkpt lat="43.12606" lon="3.09536">
        <ele>18.8</ele>
        <time>2018-03-18T13:08:15Z</time>
      </trkpt>
      <trkpt lat="43.12613" lon="3.09536">
        <ele>19.9</ele>
        <time>2018-03-18T13:08:18Z</time>
      </trkpt>
      <trkpt lat="43.12621" lon="3.09536">
        <ele>20.3</ele>
        <time>2018-03-18T13:08:22Z</time>
      </trkpt>
      <trkpt lat="43.1263" lon="3.09536">
        <ele>22.2</ele>
        <time>2018-03-18T13:08:25Z</time>
      </trkpt>
      <trkpt lat="43.12637" lon="3.09538">
        <ele>23.6</ele>
        <time>2018-03-18T13:08:29Z</time>
      </trkpt>
      <trkpt lat="43.12637" lon="3.09548">
        <ele>25.2</ele>
        <time>2018-03-18T13:08:34Z</time>
      </trkpt>
      <trkpt lat="43.12632" lon="3.09558">
        <ele>25.6</ele>
        <time>2018-03-18T13:08:40Z</time>
      </trkpt>
      <trkpt lat="43.12628" lon="3.09568">
        <ele>26.5</ele>
        <time>2018-03-18T13:08:43Z</time>
      </trkpt>
      <trkpt lat="43.12625" lon="3.0958">
        <ele>27.5</ele>
        <time>2018-03-18T13:08:47Z</time>
      </trkpt>
      <trkpt lat="43.1262" lon="3.0959">
        <ele>28</ele>
        <time>2018-03-18T13:08:50Z</time>
      </trkpt>
      <trkpt lat="43.12617" lon="3.09599">
        <ele>27.9</ele>
        <time>2018-03-18T13:08:53Z</time>
      </trkpt>
      <trkpt lat="43.12612" lon="3.09607">
        <ele>28.7</ele>
        <time>2018-03-18T13:08:56Z</time>
      </trkpt>
      <trkpt lat="43.12606" lon="3.09616">
        <ele>28.9</ele>
        <time>2018-03-18T13:08:59Z</time>
      </trkpt>
      <trkpt lat="43.12602" lon="3.09627">
        <ele>29.1</ele>
        <time>2018-03-18T13:09:01Z</time>
      </trkpt>
      <trkpt lat="43.12598" lon="3.09638">
        <ele>29.1</ele>
        <time>2018-03-18T13:09:04Z</time>
      </trkpt>
      <trkpt lat="43.12595" lon="3.09644">
        <ele>28.7</ele>
        <time>2018-03-18T13:09:11Z</time>
      </trkpt>
      <trkpt lat="43.12586" lon="3.09649">
        <ele>27.9</ele>
        <time>2018-03-18T13:09:24Z</time>
      </trkpt>
      <trkpt lat="43.12578" lon="3.09654">
        <ele>28</ele>
        <time>2018-03-18T13:09:29Z</time>
      </trkpt>
      <trkpt lat="43.1257" lon="3.0966">
        <ele>28</ele>
        <time>2018-03-18T13:09:33Z</time>
      </trkpt>
      <trkpt lat="43.12561" lon="3.09665">
        <ele>27.6</ele>
        <time>2018-03-18T13:09:36Z</time>
      </trkpt>
      <trkpt lat="43.12554" lon="3.09674">
        <ele>26.9</ele>
        <time>2018-03-18T13:09:39Z</time>
      </trkpt>
      <trkpt lat="43.12552" lon="3.09684">
        <ele>26.4</ele>
        <time>2018-03-18T13:09:43Z</time>
      </trkpt>
      <trkpt lat="43.1255" lon="3.09697">
        <ele>25.5</ele>
        <time>2018-03-18T13:09:46Z</time>
      </trkpt>
      <trkpt lat="43.12548" lon="3.09709">
        <ele>25.1</ele>
        <time>2018-03-18T13:09:49Z</time>
      </trkpt>
      <trkpt lat="43.12545" lon="3.09718">
        <ele>24.6</ele>
        <time>2018-03-18T13:09:51Z</time>
      </trkpt>
      <trkpt lat="43.12544" lon="3.0973">
        <ele>24</ele>
        <time>2018-03-18T13:09:54Z</time>
      </trkpt>
      <trkpt lat="43.12544" lon="3.09743">
        <ele>23.7</ele>
        <time>2018-03-18T13:09:57Z</time>
      </trkpt>
      <trkpt lat="43.12544" lon="3.09755">
        <ele>23.2</ele>
        <time>2018-03-18T13:10:01Z</time>
      </trkpt>
      <trkpt lat="43.12545" lon="3.09766">
        <ele>22.7</ele>
        <time>2018-03-18T13:10:04Z</time>
      </trkpt>
      <trkpt lat="43.12545" lon="3.0978">
        <ele>22.4</ele>
        <time>2018-03-18T13:10:07Z</time>
      </trkpt>
      <trkpt lat="43.12545" lon="3.09795">
        <ele>22</ele>
        <time>2018-03-18T13:10:09Z</time>
      </trkpt>
      <trkpt lat="43.12545" lon="3.09807">
        <ele>21.6</ele>
        <time>2018-03-18T13:10:11Z</time>
      </trkpt>
      <trkpt lat="43.12543" lon="3.0982">
        <ele>21.5</ele>
        <time>2018-03-18T13:10:13Z</time>
      </trkpt>
      <trkpt lat="43.12541" lon="3.09829">
        <ele>21.5</ele>
        <time>2018-03-18T13:10:15Z</time>
      </trkpt>
      <trkpt lat="43.12541" lon="3.0984">
        <ele>20.7</ele>
        <time>2018-03-18T13:10:20Z</time>
      </trkpt>
      <trkpt lat="43.12539" lon="3.09851">
        <ele>20.1</ele>
        <time>2018-03-18T13:10:26Z</time>
      </trkpt>
      <trkpt lat="43.12537" lon="3.09863">
        <ele>19.7</ele>
        <time>2018-03-18T13:10:30Z</time>
      </trkpt>
      <trkpt lat="43.12533" lon="3.09874">
        <ele>19.3</ele>
        <time>2018-03-18T13:10:33Z</time>
      </trkpt>
      <trkpt lat="43.12529" lon="3.09886">
        <ele>19.1</ele>
        <time>2018-03-18T13:10:35Z</time>
      </trkpt>
      <trkpt lat="43.12526" lon="3.09898">
        <ele>18.7</ele>
        <time>2018-03-18T13:10:38Z</time>
      </trkpt>
      <trkpt lat="43.12524" lon="3.09909">
        <ele>18.6</ele>
        <time>2018-03-18T13:10:39Z</time>
      </trkpt>
      <trkpt lat="43.1252" lon="3.09919">
        <ele>18.4</ele>
        <time>2018-03-18T13:10:41Z</time>
      </trkpt>
      <trkpt lat="43.12518" lon="3.09932">
        <ele>18</ele>
        <time>2018-03-18T13:10:43Z</time>
      </trkpt>
      <trkpt lat="43.12516" lon="3.09946">
        <ele>17.6</ele>
        <time>2018-03-18T13:10:45Z</time>
      </trkpt>
      <trkpt lat="43.12516" lon="3.0996">
        <ele>17.3</ele>
        <time>2018-03-18T13:10:47Z</time>
      </trkpt>
      <trkpt lat="43.12516" lon="3.09974">
        <ele>17</ele>
        <time>2018-03-18T13:10:49Z</time>
      </trkpt>
      <trkpt lat="43.12515" lon="3.09985">
        <ele>16.9</ele>
        <time>2018-03-18T13:10:51Z</time>
      </trkpt>
      <trkpt lat="43.12514" lon="3.09997">
        <ele>16.5</ele>
        <time>2018-03-18T13:10:54Z</time>
      </trkpt>
      <trkpt lat="43.12515" lon="3.10009">
        <ele>15.8</ele>
        <time>2018-03-18T13:10:58Z</time>
      </trkpt>
      <trkpt lat="43.12514" lon="3.10019">
        <ele>15.2</ele>
        <time>2018-03-18T13:11:01Z</time>
      </trkpt>
      <trkpt lat="43.12511" lon="3.10028">
        <ele>14.7</ele>
        <time>2018-03-18T13:11:04Z</time>
      </trkpt>
      <trkpt lat="43.12509" lon="3.10043">
        <ele>14.3</ele>
        <time>2018-03-18T13:11:07Z</time>
      </trkpt>
      <trkpt lat="43.12507" lon="3.10054">
        <ele>14.2</ele>
        <time>2018-03-18T13:11:09Z</time>
      </trkpt>
      <trkpt lat="43.12504" lon="3.10066">
        <ele>14.1</ele>
        <time>2018-03-18T13:11:11Z</time>
      </trkpt>
      <trkpt lat="43.12504" lon="3.10077">
        <ele>13.8</ele>
        <time>2018-03-18T13:11:13Z</time>
      </trkpt>
      <trkpt lat="43.12505" lon="3.10086">
        <ele>13.3</ele>
        <time>2018-03-18T13:11:15Z</time>
      </trkpt>
      <trkpt lat="43.12506" lon="3.10101">
        <ele>12.6</ele>
        <time>2018-03-18T13:11:18Z</time>
      </trkpt>
      <trkpt lat="43.12506" lon="3.10112">
        <ele>12</ele>
        <time>2018-03-18T13:11:20Z</time>
      </trkpt>
      <trkpt lat="43.12507" lon="3.10122">
        <ele>11.7</ele>
        <time>2018-03-18T13:11:22Z</time>
      </trkpt>
      <trkpt lat="43.12509" lon="3.10133">
        <ele>11.7</ele>
        <time>2018-03-18T13:11:24Z</time>
      </trkpt>
      <trkpt lat="43.12511" lon="3.10145">
        <ele>11.5</ele>
        <time>2018-03-18T13:11:26Z</time>
      </trkpt>
      <trkpt lat="43.12513" lon="3.10158">
        <ele>11.5</ele>
        <time>2018-03-18T13:11:28Z</time>
      </trkpt>
      <trkpt lat="43.12513" lon="3.1017">
        <ele>11.3</ele>
        <time>2018-03-18T13:11:30Z</time>
      </trkpt>
      <trkpt lat="43.12513" lon="3.10184">
        <ele>11</ele>
        <time>2018-03-18T13:11:32Z</time>
      </trkpt>
      <trkpt lat="43.12512" lon="3.10198">
        <ele>10.7</ele>
        <time>2018-03-18T13:11:34Z</time>
      </trkpt>
      <trkpt lat="43.12512" lon="3.10212">
        <ele>11.1</ele>
        <time>2018-03-18T13:11:36Z</time>
      </trkpt>
      <trkpt lat="43.12512" lon="3.10227">
        <ele>11</ele>
        <time>2018-03-18T13:11:38Z</time>
      </trkpt>
      <trkpt lat="43.12513" lon="3.10243">
        <ele>11.1</ele>
        <time>2018-03-18T13:11:40Z</time>
      </trkpt>
      <trkpt lat="43.1251" lon="3.10257">
        <ele>10.9</ele>
        <time>2018-03-18T13:11:42Z</time>
      </trkpt>
      <trkpt lat="43.12509" lon="3.10271">
        <ele>10.3</ele>
        <time>2018-03-18T13:11:44Z</time>
      </trkpt>
      <trkpt lat="43.12511" lon="3.10283">
        <ele>10.2</ele>
        <time>2018-03-18T13:11:47Z</time>
      </trkpt>
      <trkpt lat="43.12512" lon="3.10292">
        <ele>9.8</ele>
        <time>2018-03-18T13:11:54Z</time>
      </trkpt>
      <trkpt lat="43.12511" lon="3.10284">
        <ele>10.2</ele>
        <time>2018-03-18T13:12:01Z</time>
      </trkpt>
      <trkpt lat="43.12506" lon="3.1029">
        <ele>11.3</ele>
        <time>2018-03-18T13:12:08Z</time>
      </trkpt>
      <trkpt lat="43.12505" lon="3.10295">
        <ele>10.8</ele>
        <time>2018-03-18T13:12:15Z</time>
      </trkpt>
      <trkpt lat="43.12505" lon="3.10306">
        <ele>10.8</ele>
        <time>2018-03-18T13:12:19Z</time>
      </trkpt>
      <trkpt lat="43.12505" lon="3.10316">
        <ele>10.6</ele>
        <time>2018-03-18T13:12:22Z</time>
      </trkpt>
      <trkpt lat="43.12512" lon="3.10321">
        <ele>11.1</ele>
        <time>2018-03-18T13:12:28Z</time>
      </trkpt>
      <trkpt lat="43.12518" lon="3.10316">
        <ele>11.8</ele>
        <time>2018-03-18T13:12:32Z</time>
      </trkpt>
      <trkpt lat="43.12527" lon="3.10315">
        <ele>12.8</ele>
        <time>2018-03-18T13:12:37Z</time>
      </trkpt>
      <trkpt lat="43.12534" lon="3.10313">
        <ele>15.8</ele>
        <time>2018-03-18T13:12:42Z</time>
      </trkpt>
      <trkpt lat="43.12542" lon="3.10311">
        <ele>18.3</ele>
        <time>2018-03-18T13:12:46Z</time>
      </trkpt>
      <trkpt lat="43.1255" lon="3.10311">
        <ele>21.5</ele>
        <time>2018-03-18T13:12:51Z</time>
      </trkpt>
      <trkpt lat="43.12559" lon="3.10315">
        <ele>24.3</ele>
        <time>2018-03-18T13:12:55Z</time>
      </trkpt>
      <trkpt lat="43.12568" lon="3.10318">
        <ele>26.6</ele>
        <time>2018-03-18T13:12:59Z</time>
      </trkpt>
      <trkpt lat="43.12575" lon="3.10317">
        <ele>27.3</ele>
        <time>2018-03-18T13:13:02Z</time>
      </trkpt>
      <trkpt lat="43.12583" lon="3.10315">
        <ele>28.2</ele>
        <time>2018-03-18T13:13:06Z</time>
      </trkpt>
      <trkpt lat="43.12595" lon="3.10306">
        <ele>28</ele>
        <time>2018-03-18T13:13:31Z</time>
      </trkpt>
      <trkpt lat="43.12602" lon="3.10302">
        <ele>27.7</ele>
        <time>2018-03-18T13:13:35Z</time>
      </trkpt>
      <trkpt lat="43.12608" lon="3.10294">
        <ele>28</ele>
        <time>2018-03-18T13:13:40Z</time>
      </trkpt>
      <trkpt lat="43.12615" lon="3.10286">
        <ele>28.7</ele>
        <time>2018-03-18T13:13:45Z</time>
      </trkpt>
      <trkpt lat="43.12621" lon="3.10278">
        <ele>30.1</ele>
        <time>2018-03-18T13:13:50Z</time>
      </trkpt>
      <trkpt lat="43.12624" lon="3.10268">
        <ele>30.8</ele>
        <time>2018-03-18T13:13:54Z</time>
      </trkpt>
      <trkpt lat="43.1263" lon="3.10257">
        <ele>30.7</ele>
        <time>2018-03-18T13:13:58Z</time>
      </trkpt>
      <trkpt lat="43.12636" lon="3.10248">
        <ele>30.1</ele>
        <time>2018-03-18T13:14:00Z</time>
      </trkpt>
      <trkpt lat="43.12642" lon="3.10239">
        <ele>29.9</ele>
        <time>2018-03-18T13:14:02Z</time>
      </trkpt>
      <trkpt lat="43.12648" lon="3.1023">
        <ele>30</ele>
        <time>2018-03-18T13:14:04Z</time>
      </trkpt>
      <trkpt lat="43.12655" lon="3.10224">
        <ele>30.1</ele>
        <time>2018-03-18T13:14:06Z</time>
      </trkpt>
      <trkpt lat="43.12663" lon="3.10219">
        <ele>30.3</ele>
        <time>2018-03-18T13:14:08Z</time>
      </trkpt>
      <trkpt lat="43.1267" lon="3.10214">
        <ele>30.4</ele>
        <time>2018-03-18T13:14:10Z</time>
      </trkpt>
      <trkpt lat="43.12678" lon="3.10209">
        <ele>30.7</ele>
        <time>2018-03-18T13:14:12Z</time>
      </trkpt>
      <trkpt lat="43.12688" lon="3.10202">
        <ele>31</ele>
        <time>2018-03-18T13:14:14Z</time>
      </trkpt>
      <trkpt lat="43.12697" lon="3.10196">
        <ele>31.4</ele>
        <time>2018-03-18T13:14:16Z</time>
      </trkpt>
      <trkpt lat="43.12707" lon="3.10193">
        <ele>31.7</ele>
        <time>2018-03-18T13:14:18Z</time>
      </trkpt>
      <trkpt lat="43.12716" lon="3.10191">
        <ele>32.5</ele>
        <time>2018-03-18T13:14:20Z</time>
      </trkpt>
      <trkpt lat="43.12725" lon="3.1019">
        <ele>32.5</ele>
        <time>2018-03-18T13:14:23Z</time>
      </trkpt>
      <trkpt lat="43.12733" lon="3.10194">
        <ele>34.4</ele>
        <time>2018-03-18T13:14:27Z</time>
      </trkpt>
      <trkpt lat="43.1274" lon="3.10202">
        <ele>33.8</ele>
        <time>2018-03-18T13:14:29Z</time>
      </trkpt>
      <trkpt lat="43.12748" lon="3.10209">
        <ele>33.8</ele>
        <time>2018-03-18T13:14:31Z</time>
      </trkpt>
      <trkpt lat="43.12757" lon="3.10215">
        <ele>33.6</ele>
        <time>2018-03-18T13:14:33Z</time>
      </trkpt>
      <trkpt lat="43.12764" lon="3.10221">
        <ele>32.3</ele>
        <time>2018-03-18T13:14:35Z</time>
      </trkpt>
      <trkpt lat="43.12771" lon="3.10226">
        <ele>31.8</ele>
        <time>2018-03-18T13:14:37Z</time>
      </trkpt>
      <trkpt lat="43.12778" lon="3.10233">
        <ele>31.3</ele>
        <time>2018-03-18T13:14:40Z</time>
      </trkpt>
      <trkpt lat="43.12785" lon="3.10242">
        <ele>30.5</ele>
        <time>2018-03-18T13:14:41Z</time>
      </trkpt>
      <trkpt lat="43.12795" lon="3.10249">
        <ele>29.2</ele>
        <time>2018-03-18T13:14:43Z</time>
      </trkpt>
      <trkpt lat="43.12802" lon="3.10256">
        <ele>28.3</ele>
        <time>2018-03-18T13:14:45Z</time>
      </trkpt>
      <trkpt lat="43.12814" lon="3.1026">
        <ele>26.2</ele>
        <time>2018-03-18T13:14:48Z</time>
      </trkpt>
      <trkpt lat="43.12822" lon="3.10257">
        <ele>24.9</ele>
        <time>2018-03-18T13:14:50Z</time>
      </trkpt>
      <trkpt lat="43.12829" lon="3.10253">
        <ele>24.6</ele>
        <time>2018-03-18T13:14:52Z</time>
      </trkpt>
      <trkpt lat="43.12839" lon="3.10259">
        <ele>24.3</ele>
        <time>2018-03-18T13:14:55Z</time>
      </trkpt>
      <trkpt lat="43.12847" lon="3.10265">
        <ele>23.9</ele>
        <time>2018-03-18T13:14:57Z</time>
      </trkpt>
      <trkpt lat="43.12855" lon="3.10268">
        <ele>23.2</ele>
        <time>2018-03-18T13:14:59Z</time>
      </trkpt>
      <trkpt lat="43.12863" lon="3.10269">
        <ele>22.7</ele>
        <time>2018-03-18T13:15:01Z</time>
      </trkpt>
      <trkpt lat="43.1287" lon="3.10268">
        <ele>22.2</ele>
        <time>2018-03-18T13:15:03Z</time>
      </trkpt>
      <trkpt lat="43.12877" lon="3.10267">
        <ele>22.6</ele>
        <time>2018-03-18T13:15:05Z</time>
      </trkpt>
      <trkpt lat="43.12886" lon="3.10267">
        <ele>22.4</ele>
        <time>2018-03-18T13:15:08Z</time>
      </trkpt>
      <trkpt lat="43.12897" lon="3.10271">
        <ele>23.3</ele>
        <time>2018-03-18T13:15:11Z</time>
      </trkpt>
      <trkpt lat="43.12906" lon="3.10274">
        <ele>24.5</ele>
        <time>2018-03-18T13:15:14Z</time>
      </trkpt>
      <trkpt lat="43.12914" lon="3.10275">
        <ele>26.2</ele>
        <time>2018-03-18T13:15:17Z</time>
      </trkpt>
      <trkpt lat="43.12922" lon="3.10278">
        <ele>29</ele>
        <time>2018-03-18T13:15:20Z</time>
      </trkpt>
      <trkpt lat="43.1293" lon="3.1028">
        <ele>30.4</ele>
        <time>2018-03-18T13:15:23Z</time>
      </trkpt>
      <trkpt lat="43.12938" lon="3.10281">
        <ele>31.9</ele>
        <time>2018-03-18T13:15:27Z</time>
      </trkpt>
      <trkpt lat="43.12947" lon="3.10282">
        <ele>32.3</ele>
        <time>2018-03-18T13:15:31Z</time>
      </trkpt>
      <trkpt lat="43.12954" lon="3.10279">
        <ele>31</ele>
        <time>2018-03-18T13:15:34Z</time>
      </trkpt>
      <trkpt lat="43.12963" lon="3.10275">
        <ele>29.2</ele>
        <time>2018-03-18T13:15:38Z</time>
      </trkpt>
      <trkpt lat="43.12971" lon="3.10275">
        <ele>28.3</ele>
        <time>2018-03-18T13:15:41Z</time>
      </trkpt>
      <trkpt lat="43.1298" lon="3.10276">
        <ele>27.5</ele>
        <time>2018-03-18T13:15:45Z</time>
      </trkpt>
      <trkpt lat="43.12987" lon="3.10279">
        <ele>27.3</ele>
        <time>2018-03-18T13:15:49Z</time>
      </trkpt>
      <trkpt lat="43.12995" lon="3.10282">
        <ele>26.2</ele>
        <time>2018-03-18T13:15:53Z</time>
      </trkpt>
      <trkpt lat="43.13003" lon="3.10284">
        <ele>25.8</ele>
        <time>2018-03-18T13:15:56Z</time>
      </trkpt>
      <trkpt lat="43.13011" lon="3.10288">
        <ele>25.4</ele>
        <time>2018-03-18T13:16:00Z</time>
      </trkpt>
      <trkpt lat="43.1302" lon="3.10292">
        <ele>25.8</ele>
        <time>2018-03-18T13:16:04Z</time>
      </trkpt>
      <trkpt lat="43.13028" lon="3.10299">
        <ele>25.6</ele>
        <time>2018-03-18T13:16:08Z</time>
      </trkpt>
      <trkpt lat="43.13035" lon="3.10306">
        <ele>24.2</ele>
        <time>2018-03-18T13:16:12Z</time>
      </trkpt>
      <trkpt lat="43.13043" lon="3.10309">
        <ele>23</ele>
        <time>2018-03-18T13:16:16Z</time>
      </trkpt>
      <trkpt lat="43.1305" lon="3.10306">
        <ele>21.9</ele>
        <time>2018-03-18T13:16:22Z</time>
      </trkpt>
      <trkpt lat="43.13053" lon="3.10308">
        <ele>21.2</ele>
        <time>2018-03-18T13:16:29Z</time>
      </trkpt>
      <trkpt lat="43.13059" lon="3.10313">
        <ele>14.5</ele>
        <time>2018-03-18T13:20:20Z</time>
      </trkpt>
      <trkpt lat="43.13065" lon="3.1032">
        <ele>14.3</ele>
        <time>2018-03-18T13:20:24Z</time>
      </trkpt>
      <trkpt lat="43.13071" lon="3.10326">
        <ele>14.8</ele>
        <time>2018-03-18T13:20:27Z</time>
      </trkpt>
      <trkpt lat="43.13078" lon="3.10332">
        <ele>15.4</ele>
        <time>2018-03-18T13:20:31Z</time>
      </trkpt>
      <trkpt lat="43.13085" lon="3.10338">
        <ele>15.7</ele>
        <time>2018-03-18T13:20:34Z</time>
      </trkpt>
      <trkpt lat="43.13091" lon="3.10343">
        <ele>16.7</ele>
        <time>2018-03-18T13:20:37Z</time>
      </trkpt>
      <trkpt lat="43.13098" lon="3.10348">
        <ele>17.4</ele>
        <time>2018-03-18T13:20:40Z</time>
      </trkpt>
      <trkpt lat="43.13106" lon="3.10352">
        <ele>20.2</ele>
        <time>2018-03-18T13:20:44Z</time>
      </trkpt>
      <trkpt lat="43.13113" lon="3.10356">
        <ele>22.9</ele>
        <time>2018-03-18T13:20:48Z</time>
      </trkpt>
      <trkpt lat="43.13121" lon="3.10359">
        <ele>26.1</ele>
        <time>2018-03-18T13:20:53Z</time>
      </trkpt>
      <trkpt lat="43.13129" lon="3.10362">
        <ele>28.3</ele>
        <time>2018-03-18T13:20:57Z</time>
      </trkpt>
      <trkpt lat="43.13136" lon="3.10367">
        <ele>28.4</ele>
        <time>2018-03-18T13:21:01Z</time>
      </trkpt>
      <trkpt lat="43.13142" lon="3.10374">
        <ele>28.4</ele>
        <time>2018-03-18T13:21:05Z</time>
      </trkpt>
      <trkpt lat="43.13148" lon="3.10381">
        <ele>28.9</ele>
        <time>2018-03-18T13:21:09Z</time>
      </trkpt>
      <trkpt lat="43.13154" lon="3.10388">
        <ele>28.5</ele>
        <time>2018-03-18T13:21:13Z</time>
      </trkpt>
      <trkpt lat="43.13161" lon="3.10397">
        <ele>27.9</ele>
        <time>2018-03-18T13:21:17Z</time>
      </trkpt>
      <trkpt lat="43.13168" lon="3.10405">
        <ele>27.3</ele>
        <time>2018-03-18T13:21:21Z</time>
      </trkpt>
      <trkpt lat="43.13174" lon="3.1041">
        <ele>27.6</ele>
        <time>2018-03-18T13:21:25Z</time>
      </trkpt>
      <trkpt lat="43.13181" lon="3.10415">
        <ele>28.3</ele>
        <time>2018-03-18T13:21:29Z</time>
      </trkpt>
      <trkpt lat="43.13189" lon="3.10419">
        <ele>29.3</ele>
        <time>2018-03-18T13:21:33Z</time>
      </trkpt>
      <trkpt lat="43.13196" lon="3.10424">
        <ele>30.1</ele>
        <time>2018-03-18T13:21:37Z</time>
      </trkpt>
      <trkpt lat="43.13203" lon="3.10427">
        <ele>30.6</ele>
        <time>2018-03-18T13:21:41Z</time>
      </trkpt>
      <trkpt lat="43.1321" lon="3.10434">
        <ele>30.2</ele>
        <time>2018-03-18T13:21:45Z</time>
      </trkpt>
      <trkpt lat="43.13217" lon="3.10438">
        <ele>30.6</ele>
        <time>2018-03-18T13:21:48Z</time>
      </trkpt>
      <trkpt lat="43.13224" lon="3.10444">
        <ele>30.8</ele>
        <time>2018-03-18T13:21:51Z</time>
      </trkpt>
      <trkpt lat="43.13232" lon="3.10447">
        <ele>31.6</ele>
        <time>2018-03-18T13:21:55Z</time>
      </trkpt>
      <trkpt lat="43.13241" lon="3.10448">
        <ele>32.8</ele>
        <time>2018-03-18T13:21:59Z</time>
      </trkpt>
      <trkpt lat="43.1325" lon="3.10448">
        <ele>34.2</ele>
        <time>2018-03-18T13:22:03Z</time>
      </trkpt>
      <trkpt lat="43.13257" lon="3.1045">
        <ele>34.3</ele>
        <time>2018-03-18T13:22:06Z</time>
      </trkpt>
      <trkpt lat="43.13266" lon="3.1045">
        <ele>35.1</ele>
        <time>2018-03-18T13:22:10Z</time>
      </trkpt>
      <trkpt lat="43.13276" lon="3.1045">
        <ele>36.1</ele>
        <time>2018-03-18T13:22:14Z</time>
      </trkpt>
      <trkpt lat="43.13283" lon="3.10448">
        <ele>36.9</ele>
        <time>2018-03-18T13:22:17Z</time>
      </trkpt>
      <trkpt lat="43.13291" lon="3.10445">
        <ele>37</ele>
        <time>2018-03-18T13:22:21Z</time>
      </trkpt>
      <trkpt lat="43.13298" lon="3.10443">
        <ele>37.3</ele>
        <time>2018-03-18T13:22:24Z</time>
      </trkpt>
      <trkpt lat="43.13307" lon="3.1044">
        <ele>35.7</ele>
        <time>2018-03-18T13:22:28Z</time>
      </trkpt>
      <trkpt lat="43.13316" lon="3.10436">
        <ele>34.5</ele>
        <time>2018-03-18T13:22:32Z</time>
      </trkpt>
      <trkpt lat="43.13324" lon="3.10431">
        <ele>33.3</ele>
        <time>2018-03-18T13:22:36Z</time>
      </trkpt>
      <trkpt lat="43.13331" lon="3.10426">
        <ele>33.8</ele>
        <time>2018-03-18T13:22:39Z</time>
      </trkpt>
      <trkpt lat="43.13338" lon="3.10418">
        <ele>33.8</ele>
        <time>2018-03-18T13:22:43Z</time>
      </trkpt>
      <trkpt lat="43.13344" lon="3.1041">
        <ele>33.5</ele>
        <time>2018-03-18T13:22:47Z</time>
      </trkpt>
      <trkpt lat="43.13351" lon="3.10403">
        <ele>34.5</ele>
        <time>2018-03-18T13:22:51Z</time>
      </trkpt>
      <trkpt lat="43.13358" lon="3.10395">
        <ele>35.1</ele>
        <time>2018-03-18T13:22:55Z</time>
      </trkpt>
      <trkpt lat="43.13363" lon="3.10388">
        <ele>36.2</ele>
        <time>2018-03-18T13:22:58Z</time>
      </trkpt>
      <trkpt lat="43.13373" lon="3.10384">
        <ele>35.8</ele>
        <time>2018-03-18T13:23:02Z</time>
      </trkpt>
      <trkpt lat="43.1338" lon="3.10383">
        <ele>35.7</ele>
        <time>2018-03-18T13:23:06Z</time>
      </trkpt>
      <trkpt lat="43.13387" lon="3.10388">
        <ele>35.4</ele>
        <time>2018-03-18T13:23:09Z</time>
      </trkpt>
      <trkpt lat="43.13393" lon="3.10395">
        <ele>35.1</ele>
        <time>2018-03-18T13:23:13Z</time>
      </trkpt>
      <trkpt lat="43.13401" lon="3.104">
        <ele>35.1</ele>
        <time>2018-03-18T13:23:16Z</time>
      </trkpt>
      <trkpt lat="43.13408" lon="3.10407">
        <ele>34.5</ele>
        <time>2018-03-18T13:23:19Z</time>
      </trkpt>
      <trkpt lat="43.13415" lon="3.10414">
        <ele>34.8</ele>
        <time>2018-03-18T13:23:22Z</time>
      </trkpt>
      <trkpt lat="43.13421" lon="3.10422">
        <ele>34.9</ele>
        <time>2018-03-18T13:23:25Z</time>
      </trkpt>
      <trkpt lat="43.13425" lon="3.10429">
        <ele>35.3</ele>
        <time>2018-03-18T13:23:28Z</time>
      </trkpt>
      <trkpt lat="43.13432" lon="3.10438">
        <ele>35.6</ele>
        <time>2018-03-18T13:23:32Z</time>
      </trkpt>
      <trkpt lat="43.13438" lon="3.10447">
        <ele>35.6</ele>
        <time>2018-03-18T13:23:36Z</time>
      </trkpt>
      <trkpt lat="43.13445" lon="3.10454">
        <ele>35.3</ele>
        <time>2018-03-18T13:23:41Z</time>
      </trkpt>
      <trkpt lat="43.13451" lon="3.10462">
        <ele>35.1</ele>
        <time>2018-03-18T13:23:45Z</time>
      </trkpt>
      <trkpt lat="43.13459" lon="3.10467">
        <ele>35.3</ele>
        <time>2018-03-18T13:23:50Z</time>
      </trkpt>
      <trkpt lat="43.13467" lon="3.10469">
        <ele>37.3</ele>
        <time>2018-03-18T13:23:53Z</time>
      </trkpt>
      <trkpt lat="43.13475" lon="3.10472">
        <ele>39.9</ele>
        <time>2018-03-18T13:23:57Z</time>
      </trkpt>
      <trkpt lat="43.13482" lon="3.10478">
        <ele>42</ele>
        <time>2018-03-18T13:24:01Z</time>
      </trkpt>
      <trkpt lat="43.1349" lon="3.10485">
        <ele>42.1</ele>
        <time>2018-03-18T13:24:05Z</time>
      </trkpt>
      <trkpt lat="43.13496" lon="3.10492">
        <ele>41.9</ele>
        <time>2018-03-18T13:24:09Z</time>
      </trkpt>
      <trkpt lat="43.135" lon="3.105">
        <ele>41.7</ele>
        <time>2018-03-18T13:24:13Z</time>
      </trkpt>
      <trkpt lat="43.13504" lon="3.10508">
        <ele>42.6</ele>
        <time>2018-03-18T13:24:17Z</time>
      </trkpt>
      <trkpt lat="43.13507" lon="3.10518">
        <ele>43.6</ele>
        <time>2018-03-18T13:24:21Z</time>
      </trkpt>
      <trkpt lat="43.1351" lon="3.10528">
        <ele>44.4</ele>
        <time>2018-03-18T13:24:25Z</time>
      </trkpt>
      <trkpt lat="43.13513" lon="3.10538">
        <ele>44.4</ele>
        <time>2018-03-18T13:24:29Z</time>
      </trkpt>
      <trkpt lat="43.13515" lon="3.1055">
        <ele>44.5</ele>
        <time>2018-03-18T13:24:34Z</time>
      </trkpt>
      <trkpt lat="43.13518" lon="3.1056">
        <ele>43.6</ele>
        <time>2018-03-18T13:24:38Z</time>
      </trkpt>
      <trkpt lat="43.13523" lon="3.10571">
        <ele>43.6</ele>
        <time>2018-03-18T13:24:42Z</time>
      </trkpt>
      <trkpt lat="43.13528" lon="3.10581">
        <ele>43.4</ele>
        <time>2018-03-18T13:24:46Z</time>
      </trkpt>
      <trkpt lat="43.13535" lon="3.10591">
        <ele>44.7</ele>
        <time>2018-03-18T13:24:50Z</time>
      </trkpt>
      <trkpt lat="43.1354" lon="3.10598">
        <ele>44.8</ele>
        <time>2018-03-18T13:24:53Z</time>
      </trkpt>
      <trkpt lat="43.13545" lon="3.10606">
        <ele>43.9</ele>
        <time>2018-03-18T13:24:56Z</time>
      </trkpt>
      <trkpt lat="43.1355" lon="3.10615">
        <ele>42.9</ele>
        <time>2018-03-18T13:24:59Z</time>
      </trkpt>
      <trkpt lat="43.13555" lon="3.10622">
        <ele>43.2</ele>
        <time>2018-03-18T13:25:02Z</time>
      </trkpt>
      <trkpt lat="43.1356" lon="3.1063">
        <ele>43.9</ele>
        <time>2018-03-18T13:25:05Z</time>
      </trkpt>
      <trkpt lat="43.13565" lon="3.10638">
        <ele>43.5</ele>
        <time>2018-03-18T13:25:08Z</time>
      </trkpt>
      <trkpt lat="43.13572" lon="3.10647">
        <ele>44.3</ele>
        <time>2018-03-18T13:25:12Z</time>
      </trkpt>
      <trkpt lat="43.13577" lon="3.10657">
        <ele>45</ele>
        <time>2018-03-18T13:25:16Z</time>
      </trkpt>
      <trkpt lat="43.13583" lon="3.10664">
        <ele>45.5</ele>
        <time>2018-03-18T13:25:19Z</time>
      </trkpt>
      <trkpt lat="43.1359" lon="3.10672">
        <ele>46.6</ele>
        <time>2018-03-18T13:25:23Z</time>
      </trkpt>
      <trkpt lat="43.13596" lon="3.1068">
        <ele>46.5</ele>
        <time>2018-03-18T13:25:27Z</time>
      </trkpt>
      <trkpt lat="43.13604" lon="3.10685">
        <ele>46.6</ele>
        <time>2018-03-18T13:25:31Z</time>
      </trkpt>
      <trkpt lat="43.13612" lon="3.10682">
        <ele>46.2</ele>
        <time>2018-03-18T13:25:35Z</time>
      </trkpt>
      <trkpt lat="43.13619" lon="3.10677">
        <ele>46.4</ele>
        <time>2018-03-18T13:25:39Z</time>
      </trkpt>
      <trkpt lat="43.13627" lon="3.10673">
        <ele>45.9</ele>
        <time>2018-03-18T13:25:43Z</time>
      </trkpt>
      <trkpt lat="43.13634" lon="3.10668">
        <ele>46.6</ele>
        <time>2018-03-18T13:25:47Z</time>
      </trkpt>
      <trkpt lat="43.13641" lon="3.10661">
        <ele>48.8</ele>
        <time>2018-03-18T13:25:51Z</time>
      </trkpt>
      <trkpt lat="43.13647" lon="3.10655">
        <ele>49.8</ele>
        <time>2018-03-18T13:25:55Z</time>
      </trkpt>
      <trkpt lat="43.13655" lon="3.1065">
        <ele>49.7</ele>
        <time>2018-03-18T13:25:59Z</time>
      </trkpt>
      <trkpt lat="43.13661" lon="3.10643">
        <ele>48.8</ele>
        <time>2018-03-18T13:26:02Z</time>
      </trkpt>
      <trkpt lat="43.13667" lon="3.10637">
        <ele>49.3</ele>
        <time>2018-03-18T13:26:05Z</time>
      </trkpt>
      <trkpt lat="43.13674" lon="3.10629">
        <ele>48.8</ele>
        <time>2018-03-18T13:26:08Z</time>
      </trkpt>
      <trkpt lat="43.1368" lon="3.10619">
        <ele>48.7</ele>
        <time>2018-03-18T13:26:11Z</time>
      </trkpt>
      <trkpt lat="43.13685" lon="3.1061">
        <ele>48.5</ele>
        <time>2018-03-18T13:26:14Z</time>
      </trkpt>
      <trkpt lat="43.13689" lon="3.106">
        <ele>48.7</ele>
        <time>2018-03-18T13:26:17Z</time>
      </trkpt>
      <trkpt lat="43.13691" lon="3.10589">
        <ele>49.3</ele>
        <time>2018-03-18T13:26:20Z</time>
      </trkpt>
      <trkpt lat="43.13695" lon="3.10579">
        <ele>49.6</ele>
        <time>2018-03-18T13:26:24Z</time>
      </trkpt>
      <trkpt lat="43.13702" lon="3.10573">
        <ele>49.6</ele>
        <time>2018-03-18T13:26:28Z</time>
      </trkpt>
      <trkpt lat="43.13709" lon="3.10569">
        <ele>48.9</ele>
        <time>2018-03-18T13:26:33Z</time>
      </trkpt>
      <trkpt lat="43.13714" lon="3.10568">
        <ele>49</ele>
        <time>2018-03-18T13:26:40Z</time>
      </trkpt>
      <trkpt lat="43.13717" lon="3.10564">
        <ele>49.3</ele>
        <time>2018-03-18T13:28:00Z</time>
      </trkpt>
      <trkpt lat="43.13712" lon="3.10555">
        <ele>54.5</ele>
        <time>2018-03-18T13:27:33Z</time>
      </trkpt>
      <trkpt lat="43.13717" lon="3.10546">
        <ele>54.6</ele>
        <time>2018-03-18T13:28:42Z</time>
      </trkpt>
      <trkpt lat="43.13723" lon="3.10535">
        <ele>53.4</ele>
        <time>2018-03-18T13:28:46Z</time>
      </trkpt>
      <trkpt lat="43.13727" lon="3.10523">
        <ele>52.5</ele>
        <time>2018-03-18T13:28:50Z</time>
      </trkpt>
      <trkpt lat="43.13729" lon="3.10513">
        <ele>51.8</ele>
        <time>2018-03-18T13:28:53Z</time>
      </trkpt>
      <trkpt lat="43.13733" lon="3.10501">
        <ele>51.4</ele>
        <time>2018-03-18T13:28:56Z</time>
      </trkpt>
      <trkpt lat="43.13737" lon="3.10489">
        <ele>50.8</ele>
        <time>2018-03-18T13:28:59Z</time>
      </trkpt>
      <trkpt lat="43.13741" lon="3.10477">
        <ele>51.3</ele>
        <time>2018-03-18T13:29:02Z</time>
      </trkpt>
      <trkpt lat="43.13745" lon="3.10465">
        <ele>50.7</ele>
        <time>2018-03-18T13:29:05Z</time>
      </trkpt>
      <trkpt lat="43.13748" lon="3.10452">
        <ele>50.7</ele>
        <time>2018-03-18T13:29:08Z</time>
      </trkpt>
      <trkpt lat="43.13751" lon="3.10441">
        <ele>51</ele>
        <time>2018-03-18T13:29:11Z</time>
      </trkpt>
      <trkpt lat="43.13755" lon="3.1043">
        <ele>51.6</ele>
        <time>2018-03-18T13:29:14Z</time>
      </trkpt>
      <trkpt lat="43.13759" lon="3.10421">
        <ele>51.5</ele>
        <time>2018-03-18T13:29:17Z</time>
      </trkpt>
      <trkpt lat="43.13767" lon="3.10411">
        <ele>51.2</ele>
        <time>2018-03-18T13:29:20Z</time>
      </trkpt>
      <trkpt lat="43.13775" lon="3.10403">
        <ele>50.1</ele>
        <time>2018-03-18T13:29:23Z</time>
      </trkpt>
      <trkpt lat="43.13784" lon="3.10396">
        <ele>48.8</ele>
        <time>2018-03-18T13:29:26Z</time>
      </trkpt>
      <trkpt lat="43.13788" lon="3.10383">
        <ele>47.7</ele>
        <time>2018-03-18T13:29:29Z</time>
      </trkpt>
      <trkpt lat="43.13788" lon="3.1037">
        <ele>48</ele>
        <time>2018-03-18T13:29:33Z</time>
      </trkpt>
      <trkpt lat="43.13787" lon="3.10355">
        <ele>47</ele>
        <time>2018-03-18T13:29:35Z</time>
      </trkpt>
      <trkpt lat="43.13786" lon="3.10343">
        <ele>46</ele>
        <time>2018-03-18T13:29:37Z</time>
      </trkpt>
      <trkpt lat="43.13783" lon="3.10328">
        <ele>45.6</ele>
        <time>2018-03-18T13:29:39Z</time>
      </trkpt>
      <trkpt lat="43.13781" lon="3.10317">
        <ele>45.8</ele>
        <time>2018-03-18T13:29:41Z</time>
      </trkpt>
      <trkpt lat="43.1378" lon="3.10307">
        <ele>45.6</ele>
        <time>2018-03-18T13:29:43Z</time>
      </trkpt>
      <trkpt lat="43.13772" lon="3.10295">
        <ele>46.2</ele>
        <time>2018-03-18T13:29:46Z</time>
      </trkpt>
      <trkpt lat="43.13765" lon="3.10287">
        <ele>46.1</ele>
        <time>2018-03-18T13:29:49Z</time>
      </trkpt>
      <trkpt lat="43.13756" lon="3.10281">
        <ele>46.2</ele>
        <time>2018-03-18T13:29:52Z</time>
      </trkpt>
      <trkpt lat="43.13747" lon="3.10275">
        <ele>46.2</ele>
        <time>2018-03-18T13:29:54Z</time>
      </trkpt>
      <trkpt lat="43.13739" lon="3.10268">
        <ele>45.9</ele>
        <time>2018-03-18T13:29:57Z</time>
      </trkpt>
      <trkpt lat="43.13729" lon="3.10261">
        <ele>45.4</ele>
        <time>2018-03-18T13:30:01Z</time>
      </trkpt>
      <trkpt lat="43.13724" lon="3.10256">
        <ele>45.4</ele>
        <time>2018-03-18T13:30:03Z</time>
      </trkpt>
      <trkpt lat="43.13718" lon="3.10248">
        <ele>45.2</ele>
        <time>2018-03-18T13:30:05Z</time>
      </trkpt>
      <trkpt lat="43.13714" lon="3.10236">
        <ele>44.9</ele>
        <time>2018-03-18T13:30:06Z</time>
      </trkpt>
      <trkpt lat="43.13711" lon="3.10219">
        <ele>44</ele>
        <time>2018-03-18T13:30:09Z</time>
      </trkpt>
      <trkpt lat="43.13707" lon="3.10205">
        <ele>43.6</ele>
        <time>2018-03-18T13:30:10Z</time>
      </trkpt>
      <trkpt lat="43.13704" lon="3.10195">
        <ele>43.3</ele>
        <time>2018-03-18T13:30:13Z</time>
      </trkpt>
      <trkpt lat="43.13706" lon="3.10183">
        <ele>44.7</ele>
        <time>2018-03-18T13:30:17Z</time>
      </trkpt>
      <trkpt lat="43.13704" lon="3.10169">
        <ele>45.4</ele>
        <time>2018-03-18T13:30:20Z</time>
      </trkpt>
      <trkpt lat="43.13701" lon="3.10159">
        <ele>45.7</ele>
        <time>2018-03-18T13:30:22Z</time>
      </trkpt>
      <trkpt lat="43.13697" lon="3.10149">
        <ele>46.6</ele>
        <time>2018-03-18T13:30:24Z</time>
      </trkpt>
      <trkpt lat="43.13693" lon="3.10137">
        <ele>47</ele>
        <time>2018-03-18T13:30:27Z</time>
      </trkpt>
      <trkpt lat="43.13689" lon="3.10125">
        <ele>47.4</ele>
        <time>2018-03-18T13:30:30Z</time>
      </trkpt>
      <trkpt lat="43.13685" lon="3.10114">
        <ele>47.9</ele>
        <time>2018-03-18T13:30:32Z</time>
      </trkpt>
      <trkpt lat="43.13682" lon="3.10102">
        <ele>48</ele>
        <time>2018-03-18T13:30:36Z</time>
      </trkpt>
      <trkpt lat="43.13677" lon="3.10093">
        <ele>48.6</ele>
        <time>2018-03-18T13:30:39Z</time>
      </trkpt>
      <trkpt lat="43.13672" lon="3.10081">
        <ele>48.7</ele>
        <time>2018-03-18T13:30:42Z</time>
      </trkpt>
      <trkpt lat="43.13668" lon="3.1007">
        <ele>49.1</ele>
        <time>2018-03-18T13:30:45Z</time>
      </trkpt>
      <trkpt lat="43.13664" lon="3.10058">
        <ele>49.6</ele>
        <time>2018-03-18T13:30:48Z</time>
      </trkpt>
      <trkpt lat="43.1366" lon="3.10046">
        <ele>49.6</ele>
        <time>2018-03-18T13:30:51Z</time>
      </trkpt>
      <trkpt lat="43.13657" lon="3.10033">
        <ele>49.9</ele>
        <time>2018-03-18T13:30:54Z</time>
      </trkpt>
      <trkpt lat="43.13654" lon="3.10021">
        <ele>50.1</ele>
        <time>2018-03-18T13:30:57Z</time>
      </trkpt>
      <trkpt lat="43.13651" lon="3.10008">
        <ele>50</ele>
        <time>2018-03-18T13:31:00Z</time>
      </trkpt>
      <trkpt lat="43.1365" lon="3.09995">
        <ele>51</ele>
        <time>2018-03-18T13:31:03Z</time>
      </trkpt>
      <trkpt lat="43.13648" lon="3.09983">
        <ele>51.6</ele>
        <time>2018-03-18T13:31:06Z</time>
      </trkpt>
      <trkpt lat="43.13644" lon="3.0997">
        <ele>51.9</ele>
        <time>2018-03-18T13:31:10Z</time>
      </trkpt>
      <trkpt lat="43.13643" lon="3.09959">
        <ele>52.3</ele>
        <time>2018-03-18T13:31:12Z</time>
      </trkpt>
      <trkpt lat="43.1364" lon="3.09947">
        <ele>53.2</ele>
        <time>2018-03-18T13:31:15Z</time>
      </trkpt>
      <trkpt lat="43.13639" lon="3.09934">
        <ele>53.9</ele>
        <time>2018-03-18T13:31:18Z</time>
      </trkpt>
      <trkpt lat="43.13637" lon="3.09921">
        <ele>54.4</ele>
        <time>2018-03-18T13:31:21Z</time>
      </trkpt>
      <trkpt lat="43.13636" lon="3.09908">
        <ele>54.5</ele>
        <time>2018-03-18T13:31:24Z</time>
      </trkpt>
      <trkpt lat="43.13633" lon="3.09895">
        <ele>54.7</ele>
        <time>2018-03-18T13:31:27Z</time>
      </trkpt>
      <trkpt lat="43.13627" lon="3.09885">
        <ele>55.1</ele>
        <time>2018-03-18T13:31:30Z</time>
      </trkpt>
      <trkpt lat="43.13618" lon="3.09876">
        <ele>55</ele>
        <time>2018-03-18T13:31:33Z</time>
      </trkpt>
      <trkpt lat="43.13612" lon="3.09868">
        <ele>55.3</ele>
        <time>2018-03-18T13:31:35Z</time>
      </trkpt>
      <trkpt lat="43.13606" lon="3.0986">
        <ele>55.5</ele>
        <time>2018-03-18T13:31:37Z</time>
      </trkpt>
      <trkpt lat="43.13598" lon="3.09852">
        <ele>55.8</ele>
        <time>2018-03-18T13:31:39Z</time>
      </trkpt>
      <trkpt lat="43.13591" lon="3.09843">
        <ele>56.1</ele>
        <time>2018-03-18T13:31:41Z</time>
      </trkpt>
      <trkpt lat="43.13584" lon="3.09833">
        <ele>57</ele>
        <time>2018-03-18T13:31:43Z</time>
      </trkpt>
      <trkpt lat="43.13577" lon="3.09823">
        <ele>57.2</ele>
        <time>2018-03-18T13:31:45Z</time>
      </trkpt>
      <trkpt lat="43.13568" lon="3.09813">
        <ele>57.3</ele>
        <time>2018-03-18T13:31:47Z</time>
      </trkpt>
      <trkpt lat="43.13561" lon="3.09801">
        <ele>57.7</ele>
        <time>2018-03-18T13:31:49Z</time>
      </trkpt>
      <trkpt lat="43.13553" lon="3.09789">
        <ele>58</ele>
        <time>2018-03-18T13:31:51Z</time>
      </trkpt>
      <trkpt lat="43.13546" lon="3.09776">
        <ele>58.2</ele>
        <time>2018-03-18T13:31:54Z</time>
      </trkpt>
      <trkpt lat="43.13539" lon="3.09762">
        <ele>58.3</ele>
        <time>2018-03-18T13:31:55Z</time>
      </trkpt>
      <trkpt lat="43.13534" lon="3.09746">
        <ele>58.3</ele>
        <time>2018-03-18T13:31:57Z</time>
      </trkpt>
      <trkpt lat="43.1353" lon="3.09728">
        <ele>58</ele>
        <time>2018-03-18T13:31:59Z</time>
      </trkpt>
      <trkpt lat="43.13528" lon="3.0971">
        <ele>57.4</ele>
        <time>2018-03-18T13:32:01Z</time>
      </trkpt>
      <trkpt lat="43.13529" lon="3.09692">
        <ele>56.8</ele>
        <time>2018-03-18T13:32:03Z</time>
      </trkpt>
      <trkpt lat="43.13526" lon="3.09677">
        <ele>56.7</ele>
        <time>2018-03-18T13:32:05Z</time>
      </trkpt>
      <trkpt lat="43.13524" lon="3.09661">
        <ele>55.9</ele>
        <time>2018-03-18T13:32:07Z</time>
      </trkpt>
      <trkpt lat="43.13523" lon="3.09646">
        <ele>55.4</ele>
        <time>2018-03-18T13:32:09Z</time>
      </trkpt>
      <trkpt lat="43.13519" lon="3.09637">
        <ele>55.1</ele>
        <time>2018-03-18T13:32:11Z</time>
      </trkpt>
      <trkpt lat="43.13511" lon="3.0964">
        <ele>55</ele>
        <time>2018-03-18T13:32:14Z</time>
      </trkpt>
      <trkpt lat="43.13506" lon="3.09649">
        <ele>53.3</ele>
        <time>2018-03-18T13:32:20Z</time>
      </trkpt>
      <trkpt lat="43.135" lon="3.09656">
        <ele>52.9</ele>
        <time>2018-03-18T13:32:27Z</time>
      </trkpt>
      <trkpt lat="43.13492" lon="3.09655">
        <ele>52.5</ele>
        <time>2018-03-18T13:32:32Z</time>
      </trkpt>
      <trkpt lat="43.13492" lon="3.09655">
        <ele>53.5</ele>
        <time>2018-03-18T13:32:39Z</time>
      </trkpt>
      <trkpt lat="43.1349" lon="3.09643">
        <ele>54</ele>
        <time>2018-03-18T13:32:47Z</time>
      </trkpt>
      <trkpt lat="43.13487" lon="3.0963">
        <ele>54.3</ele>
        <time>2018-03-18T13:32:50Z</time>
      </trkpt>
      <trkpt lat="43.13482" lon="3.09619">
        <ele>54.9</ele>
        <time>2018-03-18T13:32:53Z</time>
      </trkpt>
      <trkpt lat="43.13476" lon="3.09609">
        <ele>55</ele>
        <time>2018-03-18T13:32:56Z</time>
      </trkpt>
      <trkpt lat="43.13469" lon="3.09599">
        <ele>56</ele>
        <time>2018-03-18T13:33:00Z</time>
      </trkpt>
      <trkpt lat="43.13463" lon="3.09593">
        <ele>57.4</ele>
        <time>2018-03-18T13:33:04Z</time>
      </trkpt>
      <trkpt lat="43.13459" lon="3.09583">
        <ele>58.1</ele>
        <time>2018-03-18T13:33:09Z</time>
      </trkpt>
      <trkpt lat="43.13452" lon="3.09576">
        <ele>58.7</ele>
        <time>2018-03-18T13:33:13Z</time>
      </trkpt>
      <trkpt lat="43.13442" lon="3.09573">
        <ele>58.8</ele>
        <time>2018-03-18T13:33:16Z</time>
      </trkpt>
      <trkpt lat="43.13436" lon="3.09566">
        <ele>59.2</ele>
        <time>2018-03-18T13:33:18Z</time>
      </trkpt>
      <trkpt lat="43.13431" lon="3.09561">
        <ele>59.7</ele>
        <time>2018-03-18T13:33:21Z</time>
      </trkpt>
      <trkpt lat="43.13424" lon="3.09555">
        <ele>61</ele>
        <time>2018-03-18T13:33:26Z</time>
      </trkpt>
      <trkpt lat="43.13418" lon="3.09546">
        <ele>61.2</ele>
        <time>2018-03-18T13:33:31Z</time>
      </trkpt>
      <trkpt lat="43.13414" lon="3.09539">
        <ele>61.3</ele>
        <time>2018-03-18T13:33:35Z</time>
      </trkpt>
      <trkpt lat="43.13408" lon="3.09531">
        <ele>62.7</ele>
        <time>2018-03-18T13:33:39Z</time>
      </trkpt>
      <trkpt lat="43.13404" lon="3.0952">
        <ele>64.1</ele>
        <time>2018-03-18T13:33:44Z</time>
      </trkpt>
      <trkpt lat="43.134" lon="3.09509">
        <ele>65.4</ele>
        <time>2018-03-18T13:33:48Z</time>
      </trkpt>
      <trkpt lat="43.13398" lon="3.09496">
        <ele>66.1</ele>
        <time>2018-03-18T13:33:51Z</time>
      </trkpt>
      <trkpt lat="43.13394" lon="3.09488">
        <ele>67.4</ele>
        <time>2018-03-18T13:33:55Z</time>
      </trkpt>
      <trkpt lat="43.13391" lon="3.09477">
        <ele>68.2</ele>
        <time>2018-03-18T13:33:59Z</time>
      </trkpt>
      <trkpt lat="43.13386" lon="3.09468">
        <ele>68.9</ele>
        <time>2018-03-18T13:34:04Z</time>
      </trkpt>
      <trkpt lat="43.13383" lon="3.09457">
        <ele>69.1</ele>
        <time>2018-03-18T13:34:09Z</time>
      </trkpt>
      <trkpt lat="43.1338" lon="3.09446">
        <ele>69.2</ele>
        <time>2018-03-18T13:34:13Z</time>
      </trkpt>
      <trkpt lat="43.13375" lon="3.09434">
        <ele>69.2</ele>
        <time>2018-03-18T13:34:16Z</time>
      </trkpt>
      <trkpt lat="43.13369" lon="3.09423">
        <ele>70.6</ele>
        <time>2018-03-18T13:34:19Z</time>
      </trkpt>
      <trkpt lat="43.13364" lon="3.09416">
        <ele>72</ele>
        <time>2018-03-18T13:34:21Z</time>
      </trkpt>
      <trkpt lat="43.13361" lon="3.09403">
        <ele>72.9</ele>
        <time>2018-03-18T13:34:24Z</time>
      </trkpt>
      <trkpt lat="43.13354" lon="3.09398">
        <ele>73.7</ele>
        <time>2018-03-18T13:34:27Z</time>
      </trkpt>
      <trkpt lat="43.13344" lon="3.09396">
        <ele>74.6</ele>
        <time>2018-03-18T13:34:31Z</time>
      </trkpt>
      <trkpt lat="43.13341" lon="3.09385">
        <ele>75.3</ele>
        <time>2018-03-18T13:34:37Z</time>
      </trkpt>
      <trkpt lat="43.13335" lon="3.09375">
        <ele>75.8</ele>
        <time>2018-03-18T13:34:43Z</time>
      </trkpt>
      <trkpt lat="43.13328" lon="3.09372">
        <ele>76.2</ele>
        <time>2018-03-18T13:34:47Z</time>
      </trkpt>
      <trkpt lat="43.13321" lon="3.09374">
        <ele>76.3</ele>
        <time>2018-03-18T13:34:51Z</time>
      </trkpt>
      <trkpt lat="43.13318" lon="3.09376">
        <ele>76.5</ele>
        <time>2018-03-18T13:34:58Z</time>
      </trkpt>
      <trkpt lat="43.13312" lon="3.09382">
        <ele>76.6</ele>
        <time>2018-03-18T13:35:05Z</time>
      </trkpt>
      <trkpt lat="43.13305" lon="3.09387">
        <ele>76</ele>
        <time>2018-03-18T13:35:09Z</time>
      </trkpt>
      <trkpt lat="43.13297" lon="3.09386">
        <ele>74.8</ele>
        <time>2018-03-18T13:35:14Z</time>
      </trkpt>
      <trkpt lat="43.13294" lon="3.09377">
        <ele>73.6</ele>
        <time>2018-03-18T13:35:19Z</time>
      </trkpt>
      <trkpt lat="43.13291" lon="3.09365">
        <ele>72.6</ele>
        <time>2018-03-18T13:35:22Z</time>
      </trkpt>
      <trkpt lat="43.13288" lon="3.09355">
        <ele>72.1</ele>
        <time>2018-03-18T13:35:24Z</time>
      </trkpt>
      <trkpt lat="43.13287" lon="3.09341">
        <ele>71.3</ele>
        <time>2018-03-18T13:35:27Z</time>
      </trkpt>
      <trkpt lat="43.13287" lon="3.09328">
        <ele>70.9</ele>
        <time>2018-03-18T13:35:29Z</time>
      </trkpt>
      <trkpt lat="43.13287" lon="3.09313">
        <ele>70.4</ele>
        <time>2018-03-18T13:35:31Z</time>
      </trkpt>
      <trkpt lat="43.13286" lon="3.09299">
        <ele>70.1</ele>
        <time>2018-03-18T13:35:33Z</time>
      </trkpt>
      <trkpt lat="43.13284" lon="3.09284">
        <ele>69.4</ele>
        <time>2018-03-18T13:35:35Z</time>
      </trkpt>
      <trkpt lat="43.13284" lon="3.0927">
        <ele>68.8</ele>
        <time>2018-03-18T13:35:37Z</time>
      </trkpt>
      <trkpt lat="43.13284" lon="3.09258">
        <ele>67.6</ele>
        <time>2018-03-18T13:35:39Z</time>
      </trkpt>
      <trkpt lat="43.13286" lon="3.09245">
        <ele>66.4</ele>
        <time>2018-03-18T13:35:41Z</time>
      </trkpt>
      <trkpt lat="43.1329" lon="3.09234">
        <ele>65</ele>
        <time>2018-03-18T13:35:43Z</time>
      </trkpt>
      <trkpt lat="43.1329" lon="3.09225">
        <ele>64.1</ele>
        <time>2018-03-18T13:35:45Z</time>
      </trkpt>
      <trkpt lat="43.13286" lon="3.09215">
        <ele>63.3</ele>
        <time>2018-03-18T13:35:48Z</time>
      </trkpt>
      <trkpt lat="43.13281" lon="3.09205">
        <ele>62.5</ele>
        <time>2018-03-18T13:35:50Z</time>
      </trkpt>
      <trkpt lat="43.1328" lon="3.09191">
        <ele>61.7</ele>
        <time>2018-03-18T13:35:53Z</time>
      </trkpt>
      <trkpt lat="43.13275" lon="3.09182">
        <ele>61.2</ele>
        <time>2018-03-18T13:35:55Z</time>
      </trkpt>
      <trkpt lat="43.13272" lon="3.0917">
        <ele>60.3</ele>
        <time>2018-03-18T13:35:57Z</time>
      </trkpt>
      <trkpt lat="43.13273" lon="3.09154">
        <ele>59.1</ele>
        <time>2018-03-18T13:35:59Z</time>
      </trkpt>
      <trkpt lat="43.13276" lon="3.09137">
        <ele>58.1</ele>
        <time>2018-03-18T13:36:01Z</time>
      </trkpt>
      <trkpt lat="43.13279" lon="3.09122">
        <ele>57.2</ele>
        <time>2018-03-18T13:36:03Z</time>
      </trkpt>
      <trkpt lat="43.1328" lon="3.09109">
        <ele>56.4</ele>
        <time>2018-03-18T13:36:05Z</time>
      </trkpt>
      <trkpt lat="43.13283" lon="3.09096">
        <ele>55.9</ele>
        <time>2018-03-18T13:36:07Z</time>
      </trkpt>
      <trkpt lat="43.13286" lon="3.09087">
        <ele>55.3</ele>
        <time>2018-03-18T13:36:09Z</time>
      </trkpt>
      <trkpt lat="43.13291" lon="3.09075">
        <ele>54.9</ele>
        <time>2018-03-18T13:36:12Z</time>
      </trkpt>
      <trkpt lat="43.13295" lon="3.09064">
        <ele>54.3</ele>
        <time>2018-03-18T13:36:15Z</time>
      </trkpt>
      <trkpt lat="43.13297" lon="3.09052">
        <ele>54.1</ele>
        <time>2018-03-18T13:36:17Z</time>
      </trkpt>
      <trkpt lat="43.13301" lon="3.0904">
        <ele>54.1</ele>
        <time>2018-03-18T13:36:19Z</time>
      </trkpt>
      <trkpt lat="43.13304" lon="3.09031">
        <ele>53.9</ele>
        <time>2018-03-18T13:36:21Z</time>
      </trkpt>
      <trkpt lat="43.13301" lon="3.09021">
        <ele>53.7</ele>
        <time>2018-03-18T13:36:25Z</time>
      </trkpt>
      <trkpt lat="43.13294" lon="3.09024">
        <ele>53.1</ele>
        <time>2018-03-18T13:36:29Z</time>
      </trkpt>
      <trkpt lat="43.13288" lon="3.09031">
        <ele>51.9</ele>
        <time>2018-03-18T13:36:34Z</time>
      </trkpt>
      <trkpt lat="43.13287" lon="3.09043">
        <ele>50.2</ele>
        <time>2018-03-18T13:36:39Z</time>
      </trkpt>
      <trkpt lat="43.13286" lon="3.09054">
        <ele>48.7</ele>
        <time>2018-03-18T13:36:42Z</time>
      </trkpt>
      <trkpt lat="43.13285" lon="3.0906">
        <ele>46.5</ele>
        <time>2018-03-18T13:36:49Z</time>
      </trkpt>
      <trkpt lat="43.13286" lon="3.09047">
        <ele>45</ele>
        <time>2018-03-18T13:37:07Z</time>
      </trkpt>
      <trkpt lat="43.13286" lon="3.09034">
        <ele>45.9</ele>
        <time>2018-03-18T13:37:11Z</time>
      </trkpt>
      <trkpt lat="43.13294" lon="3.09028">
        <ele>46.4</ele>
        <time>2018-03-18T13:37:14Z</time>
      </trkpt>
      <trkpt lat="43.13301" lon="3.09021">
        <ele>47</ele>
        <time>2018-03-18T13:37:16Z</time>
      </trkpt>
      <trkpt lat="43.13307" lon="3.09014">
        <ele>47.5</ele>
        <time>2018-03-18T13:37:18Z</time>
      </trkpt>
      <trkpt lat="43.13314" lon="3.09006">
        <ele>48.1</ele>
        <time>2018-03-18T13:37:21Z</time>
      </trkpt>
      <trkpt lat="43.1332" lon="3.08997">
        <ele>48.9</ele>
        <time>2018-03-18T13:37:24Z</time>
      </trkpt>
      <trkpt lat="43.13325" lon="3.08986">
        <ele>49.3</ele>
        <time>2018-03-18T13:37:27Z</time>
      </trkpt>
      <trkpt lat="43.13329" lon="3.08976">
        <ele>50.9</ele>
        <time>2018-03-18T13:37:30Z</time>
      </trkpt>
      <trkpt lat="43.13333" lon="3.08967">
        <ele>51.7</ele>
        <time>2018-03-18T13:37:33Z</time>
      </trkpt>
      <trkpt lat="43.13337" lon="3.08958">
        <ele>52.2</ele>
        <time>2018-03-18T13:37:36Z</time>
      </trkpt>
      <trkpt lat="43.1334" lon="3.08947">
        <ele>52.4</ele>
        <time>2018-03-18T13:37:39Z</time>
      </trkpt>
      <trkpt lat="43.13344" lon="3.08933">
        <ele>52.4</ele>
        <time>2018-03-18T13:37:42Z</time>
      </trkpt>
      <trkpt lat="43.13347" lon="3.08924">
        <ele>52.5</ele>
        <time>2018-03-18T13:37:45Z</time>
      </trkpt>
      <trkpt lat="43.1335" lon="3.08912">
        <ele>53</ele>
        <time>2018-03-18T13:37:48Z</time>
      </trkpt>
      <trkpt lat="43.13352" lon="3.08904">
        <ele>54.1</ele>
        <time>2018-03-18T13:37:55Z</time>
      </trkpt>
      <trkpt lat="43.13361" lon="3.08905">
        <ele>53.9</ele>
        <time>2018-03-18T13:38:01Z</time>
      </trkpt>
      <trkpt lat="43.13369" lon="3.08911">
        <ele>53.8</ele>
        <time>2018-03-18T13:38:04Z</time>
      </trkpt>
      <trkpt lat="43.13377" lon="3.08917">
        <ele>54.9</ele>
        <time>2018-03-18T13:38:07Z</time>
      </trkpt>
      <trkpt lat="43.13381" lon="3.08929">
        <ele>56.4</ele>
        <time>2018-03-18T13:38:10Z</time>
      </trkpt>
      <trkpt lat="43.13385" lon="3.08943">
        <ele>57.6</ele>
        <time>2018-03-18T13:38:13Z</time>
      </trkpt>
      <trkpt lat="43.13392" lon="3.08951">
        <ele>59</ele>
        <time>2018-03-18T13:38:16Z</time>
      </trkpt>
      <trkpt lat="43.134" lon="3.08952">
        <ele>60.4</ele>
        <time>2018-03-18T13:38:19Z</time>
      </trkpt>
      <trkpt lat="43.13407" lon="3.08943">
        <ele>61.8</ele>
        <time>2018-03-18T13:38:22Z</time>
      </trkpt>
      <trkpt lat="43.13413" lon="3.08931">
        <ele>63.1</ele>
        <time>2018-03-18T13:38:25Z</time>
      </trkpt>
      <trkpt lat="43.13418" lon="3.08922">
        <ele>64.8</ele>
        <time>2018-03-18T13:38:28Z</time>
      </trkpt>
      <trkpt lat="43.13418" lon="3.08909">
        <ele>65.4</ele>
        <time>2018-03-18T13:38:31Z</time>
      </trkpt>
      <trkpt lat="43.13416" lon="3.08896">
        <ele>65.7</ele>
        <time>2018-03-18T13:38:33Z</time>
      </trkpt>
      <trkpt lat="43.13413" lon="3.08881">
        <ele>65.7</ele>
        <time>2018-03-18T13:38:35Z</time>
      </trkpt>
      <trkpt lat="43.13409" lon="3.08867">
        <ele>65.8</ele>
        <time>2018-03-18T13:38:37Z</time>
      </trkpt>
      <trkpt lat="43.13406" lon="3.08854">
        <ele>65.6</ele>
        <time>2018-03-18T13:38:39Z</time>
      </trkpt>
      <trkpt lat="43.13401" lon="3.08843">
        <ele>65.5</ele>
        <time>2018-03-18T13:38:41Z</time>
      </trkpt>
      <trkpt lat="43.13397" lon="3.08831">
        <ele>65.8</ele>
        <time>2018-03-18T13:38:43Z</time>
      </trkpt>
      <trkpt lat="43.13392" lon="3.08818">
        <ele>66.1</ele>
        <time>2018-03-18T13:38:45Z</time>
      </trkpt>
      <trkpt lat="43.13387" lon="3.08804">
        <ele>66</ele>
        <time>2018-03-18T13:38:47Z</time>
      </trkpt>
      <trkpt lat="43.13383" lon="3.08797">
        <ele>65.8</ele>
        <time>2018-03-18T13:38:49Z</time>
      </trkpt>
      <trkpt lat="43.13375" lon="3.08792">
        <ele>65.2</ele>
        <time>2018-03-18T13:38:52Z</time>
      </trkpt>
      <trkpt lat="43.13367" lon="3.08794">
        <ele>65</ele>
        <time>2018-03-18T13:38:55Z</time>
      </trkpt>
      <trkpt lat="43.13358" lon="3.08796">
        <ele>64.7</ele>
        <time>2018-03-18T13:38:58Z</time>
      </trkpt>
      <trkpt lat="43.13349" lon="3.08796">
        <ele>64.7</ele>
        <time>2018-03-18T13:39:01Z</time>
      </trkpt>
      <trkpt lat="43.13345" lon="3.08801">
        <ele>63.1</ele>
        <time>2018-03-18T13:39:08Z</time>
      </trkpt>
    </trkseg>
  </trk>
</gpx>